<?xml version="1.0" encoding="UTF-8"?>
<gpx xmlns="http://www.topografix.com/GPX/1/0" version="1.0" creator="ViewRanger - http://www.viewranger.com" xmlns:xsi="http://www.w3.org/2001/XMLSchema-instance" xsi:schemaLocation="http://www.topografix.com/GPX/1/0 http://www.topografix.com/GPX/1/0/gpx.xsd">
  <trk>
    <name><![CDATA[Track 6 Jul 2014 07:05:29]]></name>
    <trkseg>
      <trkpt lat="51.437335" lon="-0.146994">
        <ele>115.0</ele>
        <time>2014-07-06T06:05:29Z</time>
      </trkpt>
      <trkpt lat="51.437349" lon="-0.146976">
        <ele>112.0</ele>
        <time>2014-07-06T06:05:41Z</time>
      </trkpt>
      <trkpt lat="51.437309" lon="-0.146763">
        <ele>102.0</ele>
        <time>2014-07-06T06:05:45Z</time>
      </trkpt>
      <trkpt lat="51.437341" lon="-0.146655">
        <ele>98.0</ele>
        <time>2014-07-06T08:47:30Z</time>
      </trkpt>
      <trkpt lat="51.437376" lon="-0.146529">
        <ele>94.0</ele>
        <time>2014-07-06T08:47:35Z</time>
      </trkpt>
      <trkpt lat="51.437464" lon="-0.146527">
        <ele>93.0</ele>
        <time>2014-07-06T08:48:20Z</time>
      </trkpt>
      <trkpt lat="51.437546" lon="-0.146523">
        <ele>91.0</ele>
        <time>2014-07-06T08:49:48Z</time>
      </trkpt>
      <trkpt lat="51.437637" lon="-0.146633">
        <ele>88.0</ele>
        <time>2014-07-06T08:49:52Z</time>
      </trkpt>
      <trkpt lat="51.437831" lon="-0.146877">
        <ele>90.0</ele>
        <time>2014-07-06T08:49:57Z</time>
      </trkpt>
      <trkpt lat="51.437995" lon="-0.1471">
        <ele>86.0</ele>
        <time>2014-07-06T08:50:01Z</time>
      </trkpt>
      <trkpt lat="51.438198" lon="-0.14731">
        <ele>85.0</ele>
        <time>2014-07-06T08:50:05Z</time>
      </trkpt>
      <trkpt lat="51.438405" lon="-0.147507">
        <ele>82.0</ele>
        <time>2014-07-06T08:50:09Z</time>
      </trkpt>
      <trkpt lat="51.438643" lon="-0.147645">
        <ele>82.0</ele>
        <time>2014-07-06T08:50:13Z</time>
      </trkpt>
      <trkpt lat="51.438885" lon="-0.147777">
        <ele>84.0</ele>
        <time>2014-07-06T08:50:17Z</time>
      </trkpt>
      <trkpt lat="51.439199" lon="-0.147903">
        <ele>82.0</ele>
        <time>2014-07-06T08:50:22Z</time>
      </trkpt>
      <trkpt lat="51.439479" lon="-0.148038">
        <ele>80.0</ele>
        <time>2014-07-06T08:50:26Z</time>
      </trkpt>
      <trkpt lat="51.439761" lon="-0.148082">
        <ele>80.0</ele>
        <time>2014-07-06T08:50:30Z</time>
      </trkpt>
      <trkpt lat="51.440048" lon="-0.148253">
        <ele>79.0</ele>
        <time>2014-07-06T08:50:34Z</time>
      </trkpt>
      <trkpt lat="51.440438" lon="-0.148445">
        <ele>79.0</ele>
        <time>2014-07-06T08:50:39Z</time>
      </trkpt>
      <trkpt lat="51.440767" lon="-0.148551">
        <ele>77.0</ele>
        <time>2014-07-06T08:50:43Z</time>
      </trkpt>
      <trkpt lat="51.44109" lon="-0.148724">
        <ele>80.0</ele>
        <time>2014-07-06T08:50:47Z</time>
      </trkpt>
      <trkpt lat="51.441476" lon="-0.148895">
        <ele>81.0</ele>
        <time>2014-07-06T08:50:52Z</time>
      </trkpt>
      <trkpt lat="51.441865" lon="-0.149064">
        <ele>79.0</ele>
        <time>2014-07-06T08:50:57Z</time>
      </trkpt>
      <trkpt lat="51.442196" lon="-0.149161">
        <ele>75.0</ele>
        <time>2014-07-06T08:51:01Z</time>
      </trkpt>
      <trkpt lat="51.442506" lon="-0.149364">
        <ele>78.0</ele>
        <time>2014-07-06T08:51:06Z</time>
      </trkpt>
      <trkpt lat="51.442687" lon="-0.149487">
        <ele>80.0</ele>
        <time>2014-07-06T08:51:10Z</time>
      </trkpt>
      <trkpt lat="51.44303" lon="-0.149737">
        <ele>82.0</ele>
        <time>2014-07-06T08:51:15Z</time>
      </trkpt>
      <trkpt lat="51.443368" lon="-0.149952">
        <ele>77.0</ele>
        <time>2014-07-06T08:51:20Z</time>
      </trkpt>
      <trkpt lat="51.443664" lon="-0.150126">
        <ele>75.0</ele>
        <time>2014-07-06T08:51:25Z</time>
      </trkpt>
      <trkpt lat="51.443885" lon="-0.150271">
        <ele>80.0</ele>
        <time>2014-07-06T08:51:29Z</time>
      </trkpt>
      <trkpt lat="51.444157" lon="-0.150456">
        <ele>79.0</ele>
        <time>2014-07-06T08:51:34Z</time>
      </trkpt>
      <trkpt lat="51.444418" lon="-0.150651">
        <ele>79.0</ele>
        <time>2014-07-06T08:51:39Z</time>
      </trkpt>
      <trkpt lat="51.444692" lon="-0.150793">
        <ele>79.0</ele>
        <time>2014-07-06T08:51:43Z</time>
      </trkpt>
      <trkpt lat="51.4449" lon="-0.150968">
        <ele>78.0</ele>
        <time>2014-07-06T08:51:48Z</time>
      </trkpt>
      <trkpt lat="51.44506" lon="-0.151061">
        <ele>77.0</ele>
        <time>2014-07-06T08:51:52Z</time>
      </trkpt>
      <trkpt lat="51.445136" lon="-0.151126">
        <ele>81.0</ele>
        <time>2014-07-06T08:52:15Z</time>
      </trkpt>
      <trkpt lat="51.445247" lon="-0.151174">
        <ele>81.0</ele>
        <time>2014-07-06T08:52:20Z</time>
      </trkpt>
      <trkpt lat="51.445389" lon="-0.151044">
        <ele>77.0</ele>
        <time>2014-07-06T08:52:24Z</time>
      </trkpt>
      <trkpt lat="51.445608" lon="-0.151231">
        <ele>78.0</ele>
        <time>2014-07-06T08:52:29Z</time>
      </trkpt>
      <trkpt lat="51.445791" lon="-0.151408">
        <ele>79.0</ele>
        <time>2014-07-06T08:52:33Z</time>
      </trkpt>
      <trkpt lat="51.446052" lon="-0.151581">
        <ele>77.0</ele>
        <time>2014-07-06T08:52:38Z</time>
      </trkpt>
      <trkpt lat="51.446292" lon="-0.151713">
        <ele>74.0</ele>
        <time>2014-07-06T08:52:42Z</time>
      </trkpt>
      <trkpt lat="51.446467" lon="-0.151814">
        <ele>75.0</ele>
        <time>2014-07-06T08:52:46Z</time>
      </trkpt>
      <trkpt lat="51.446643" lon="-0.151838">
        <ele>75.0</ele>
        <time>2014-07-06T08:52:50Z</time>
      </trkpt>
      <trkpt lat="51.446714" lon="-0.151616">
        <ele>75.0</ele>
        <time>2014-07-06T08:52:54Z</time>
      </trkpt>
      <trkpt lat="51.44678" lon="-0.151376">
        <ele>74.0</ele>
        <time>2014-07-06T08:52:59Z</time>
      </trkpt>
      <trkpt lat="51.446862" lon="-0.151388">
        <ele>72.0</ele>
        <time>2014-07-06T08:55:28Z</time>
      </trkpt>
      <trkpt lat="51.44689" lon="-0.151253">
        <ele>74.0</ele>
        <time>2014-07-06T08:58:00Z</time>
      </trkpt>
      <trkpt lat="51.446852" lon="-0.151383">
        <ele>76.0</ele>
        <time>2014-07-06T09:04:31Z</time>
      </trkpt>
      <trkpt lat="51.446799" lon="-0.151482">
        <ele>83.0</ele>
        <time>2014-07-06T09:04:41Z</time>
      </trkpt>
      <trkpt lat="51.44674" lon="-0.151583">
        <ele>81.0</ele>
        <time>2014-07-06T09:06:30Z</time>
      </trkpt>
      <trkpt lat="51.446723" lon="-0.151723">
        <ele>83.0</ele>
        <time>2014-07-06T09:06:36Z</time>
      </trkpt>
      <trkpt lat="51.446626" lon="-0.151858">
        <ele>82.0</ele>
        <time>2014-07-06T09:06:40Z</time>
      </trkpt>
      <trkpt lat="51.44635" lon="-0.151745">
        <ele>81.0</ele>
        <time>2014-07-06T09:06:45Z</time>
      </trkpt>
      <trkpt lat="51.44614" lon="-0.151631">
        <ele>80.0</ele>
        <time>2014-07-06T09:06:49Z</time>
      </trkpt>
      <trkpt lat="51.44585" lon="-0.15149">
        <ele>82.0</ele>
        <time>2014-07-06T09:06:54Z</time>
      </trkpt>
      <trkpt lat="51.445634" lon="-0.15134">
        <ele>82.0</ele>
        <time>2014-07-06T09:06:58Z</time>
      </trkpt>
      <trkpt lat="51.445486" lon="-0.151138">
        <ele>82.0</ele>
        <time>2014-07-06T09:07:02Z</time>
      </trkpt>
      <trkpt lat="51.445472" lon="-0.150931">
        <ele>83.0</ele>
        <time>2014-07-06T09:07:07Z</time>
      </trkpt>
      <trkpt lat="51.445581" lon="-0.150696">
        <ele>79.0</ele>
        <time>2014-07-06T09:07:11Z</time>
      </trkpt>
      <trkpt lat="51.445716" lon="-0.150434">
        <ele>77.0</ele>
        <time>2014-07-06T09:07:15Z</time>
      </trkpt>
      <trkpt lat="51.445884" lon="-0.150109">
        <ele>73.0</ele>
        <time>2014-07-06T09:07:19Z</time>
      </trkpt>
      <trkpt lat="51.446092" lon="-0.149843">
        <ele>68.0</ele>
        <time>2014-07-06T09:07:23Z</time>
      </trkpt>
      <trkpt lat="51.446322" lon="-0.149623">
        <ele>72.0</ele>
        <time>2014-07-06T09:07:27Z</time>
      </trkpt>
      <trkpt lat="51.446518" lon="-0.149399">
        <ele>72.0</ele>
        <time>2014-07-06T09:07:31Z</time>
      </trkpt>
      <trkpt lat="51.446649" lon="-0.149182">
        <ele>76.0</ele>
        <time>2014-07-06T09:07:36Z</time>
      </trkpt>
      <trkpt lat="51.446708" lon="-0.149257">
        <ele>78.0</ele>
        <time>2014-07-06T09:07:40Z</time>
      </trkpt>
      <trkpt lat="51.446805" lon="-0.149216">
        <ele>76.0</ele>
        <time>2014-07-06T09:07:45Z</time>
      </trkpt>
      <trkpt lat="51.446884" lon="-0.14923">
        <ele>85.0</ele>
        <time>2014-07-06T09:07:59Z</time>
      </trkpt>
      <trkpt lat="51.446968" lon="-0.149264">
        <ele>86.0</ele>
        <time>2014-07-06T09:08:15Z</time>
      </trkpt>
      <trkpt lat="51.447034" lon="-0.149351">
        <ele>82.0</ele>
        <time>2014-07-06T09:10:09Z</time>
      </trkpt>
      <trkpt lat="51.447117" lon="-0.149333">
        <ele>80.0</ele>
        <time>2014-07-06T09:10:18Z</time>
      </trkpt>
      <trkpt lat="51.447229" lon="-0.149223">
        <ele>79.0</ele>
        <time>2014-07-06T09:10:22Z</time>
      </trkpt>
      <trkpt lat="51.447299" lon="-0.149121">
        <ele>83.0</ele>
        <time>2014-07-06T09:10:26Z</time>
      </trkpt>
      <trkpt lat="51.447475" lon="-0.148922">
        <ele>81.0</ele>
        <time>2014-07-06T09:10:31Z</time>
      </trkpt>
      <trkpt lat="51.447617" lon="-0.148822">
        <ele>80.0</ele>
        <time>2014-07-06T09:10:35Z</time>
      </trkpt>
      <trkpt lat="51.447737" lon="-0.148668">
        <ele>80.0</ele>
        <time>2014-07-06T09:10:39Z</time>
      </trkpt>
      <trkpt lat="51.447906" lon="-0.148569">
        <ele>79.0</ele>
        <time>2014-07-06T09:10:43Z</time>
      </trkpt>
      <trkpt lat="51.448046" lon="-0.148484">
        <ele>78.0</ele>
        <time>2014-07-06T09:10:47Z</time>
      </trkpt>
      <trkpt lat="51.448278" lon="-0.148322">
        <ele>78.0</ele>
        <time>2014-07-06T09:10:52Z</time>
      </trkpt>
      <trkpt lat="51.448496" lon="-0.14818">
        <ele>79.0</ele>
        <time>2014-07-06T09:10:56Z</time>
      </trkpt>
      <trkpt lat="51.448756" lon="-0.148047">
        <ele>77.0</ele>
        <time>2014-07-06T09:11:00Z</time>
      </trkpt>
      <trkpt lat="51.449033" lon="-0.147999">
        <ele>81.0</ele>
        <time>2014-07-06T09:11:04Z</time>
      </trkpt>
      <trkpt lat="51.449358" lon="-0.147932">
        <ele>81.0</ele>
        <time>2014-07-06T09:11:09Z</time>
      </trkpt>
      <trkpt lat="51.44969" lon="-0.147964">
        <ele>80.0</ele>
        <time>2014-07-06T09:11:14Z</time>
      </trkpt>
      <trkpt lat="51.449945" lon="-0.147983">
        <ele>80.0</ele>
        <time>2014-07-06T09:11:18Z</time>
      </trkpt>
      <trkpt lat="51.45017" lon="-0.147929">
        <ele>78.0</ele>
        <time>2014-07-06T09:11:22Z</time>
      </trkpt>
      <trkpt lat="51.450368" lon="-0.147888">
        <ele>78.0</ele>
        <time>2014-07-06T09:11:26Z</time>
      </trkpt>
      <trkpt lat="51.450645" lon="-0.147848">
        <ele>78.0</ele>
        <time>2014-07-06T09:11:31Z</time>
      </trkpt>
      <trkpt lat="51.450849" lon="-0.14781">
        <ele>77.0</ele>
        <time>2014-07-06T09:11:35Z</time>
      </trkpt>
      <trkpt lat="51.451035" lon="-0.147784">
        <ele>78.0</ele>
        <time>2014-07-06T09:11:39Z</time>
      </trkpt>
      <trkpt lat="51.451191" lon="-0.147783">
        <ele>77.0</ele>
        <time>2014-07-06T09:11:43Z</time>
      </trkpt>
      <trkpt lat="51.451357" lon="-0.147749">
        <ele>79.0</ele>
        <time>2014-07-06T09:11:47Z</time>
      </trkpt>
      <trkpt lat="51.451568" lon="-0.147752">
        <ele>79.0</ele>
        <time>2014-07-06T09:11:51Z</time>
      </trkpt>
      <trkpt lat="51.45182" lon="-0.147675">
        <ele>80.0</ele>
        <time>2014-07-06T09:11:56Z</time>
      </trkpt>
      <trkpt lat="51.452075" lon="-0.147724">
        <ele>81.0</ele>
        <time>2014-07-06T09:12:00Z</time>
      </trkpt>
      <trkpt lat="51.452292" lon="-0.147605">
        <ele>82.0</ele>
        <time>2014-07-06T09:12:04Z</time>
      </trkpt>
      <trkpt lat="51.452529" lon="-0.1475">
        <ele>83.0</ele>
        <time>2014-07-06T09:12:08Z</time>
      </trkpt>
      <trkpt lat="51.452814" lon="-0.147286">
        <ele>85.0</ele>
        <time>2014-07-06T09:12:13Z</time>
      </trkpt>
      <trkpt lat="51.453085" lon="-0.147298">
        <ele>81.0</ele>
        <time>2014-07-06T09:12:17Z</time>
      </trkpt>
      <trkpt lat="51.453356" lon="-0.147012">
        <ele>81.0</ele>
        <time>2014-07-06T09:12:22Z</time>
      </trkpt>
      <trkpt lat="51.453648" lon="-0.146791">
        <ele>84.0</ele>
        <time>2014-07-06T09:12:26Z</time>
      </trkpt>
      <trkpt lat="51.453977" lon="-0.146486">
        <ele>84.0</ele>
        <time>2014-07-06T09:12:31Z</time>
      </trkpt>
      <trkpt lat="51.45433" lon="-0.146182">
        <ele>85.0</ele>
        <time>2014-07-06T09:12:36Z</time>
      </trkpt>
      <trkpt lat="51.454633" lon="-0.145824">
        <ele>86.0</ele>
        <time>2014-07-06T09:12:41Z</time>
      </trkpt>
      <trkpt lat="51.454892" lon="-0.145527">
        <ele>85.0</ele>
        <time>2014-07-06T09:12:45Z</time>
      </trkpt>
      <trkpt lat="51.455155" lon="-0.145282">
        <ele>84.0</ele>
        <time>2014-07-06T09:12:49Z</time>
      </trkpt>
      <trkpt lat="51.455415" lon="-0.145051">
        <ele>82.0</ele>
        <time>2014-07-06T09:12:53Z</time>
      </trkpt>
      <trkpt lat="51.455664" lon="-0.1448">
        <ele>81.0</ele>
        <time>2014-07-06T09:12:57Z</time>
      </trkpt>
      <trkpt lat="51.455904" lon="-0.144573">
        <ele>79.0</ele>
        <time>2014-07-06T09:13:02Z</time>
      </trkpt>
      <trkpt lat="51.45598" lon="-0.144472">
        <ele>78.0</ele>
        <time>2014-07-06T09:13:06Z</time>
      </trkpt>
      <trkpt lat="51.456049" lon="-0.144424">
        <ele>78.0</ele>
        <time>2014-07-06T09:13:11Z</time>
      </trkpt>
      <trkpt lat="51.456117" lon="-0.14438">
        <ele>74.0</ele>
        <time>2014-07-06T09:13:41Z</time>
      </trkpt>
      <trkpt lat="51.456224" lon="-0.144281">
        <ele>73.0</ele>
        <time>2014-07-06T09:13:45Z</time>
      </trkpt>
      <trkpt lat="51.456376" lon="-0.144135">
        <ele>70.0</ele>
        <time>2014-07-06T09:13:49Z</time>
      </trkpt>
      <trkpt lat="51.45657" lon="-0.143964">
        <ele>71.0</ele>
        <time>2014-07-06T09:13:54Z</time>
      </trkpt>
      <trkpt lat="51.456779" lon="-0.143833">
        <ele>74.0</ele>
        <time>2014-07-06T09:13:59Z</time>
      </trkpt>
      <trkpt lat="51.456918" lon="-0.14379">
        <ele>71.0</ele>
        <time>2014-07-06T09:14:03Z</time>
      </trkpt>
      <trkpt lat="51.457066" lon="-0.143699">
        <ele>64.0</ele>
        <time>2014-07-06T09:14:08Z</time>
      </trkpt>
      <trkpt lat="51.457195" lon="-0.143668">
        <ele>62.0</ele>
        <time>2014-07-06T09:14:13Z</time>
      </trkpt>
      <trkpt lat="51.457299" lon="-0.143654">
        <ele>61.0</ele>
        <time>2014-07-06T09:14:17Z</time>
      </trkpt>
      <trkpt lat="51.457418" lon="-0.143678">
        <ele>60.0</ele>
        <time>2014-07-06T09:14:22Z</time>
      </trkpt>
      <trkpt lat="51.457521" lon="-0.143663">
        <ele>55.0</ele>
        <time>2014-07-06T09:14:26Z</time>
      </trkpt>
      <trkpt lat="51.457623" lon="-0.143589">
        <ele>52.0</ele>
        <time>2014-07-06T09:14:31Z</time>
      </trkpt>
      <trkpt lat="51.457659" lon="-0.143472">
        <ele>57.0</ele>
        <time>2014-07-06T09:14:36Z</time>
      </trkpt>
      <trkpt lat="51.457614" lon="-0.143371">
        <ele>63.0</ele>
        <time>2014-07-06T09:14:41Z</time>
      </trkpt>
      <trkpt lat="51.457602" lon="-0.143231">
        <ele>77.0</ele>
        <time>2014-07-06T09:28:31Z</time>
      </trkpt>
      <trkpt lat="51.457649" lon="-0.143127">
        <ele>79.0</ele>
        <time>2014-07-06T09:29:11Z</time>
      </trkpt>
      <trkpt lat="51.457803" lon="-0.142993">
        <ele>81.0</ele>
        <time>2014-07-06T09:29:16Z</time>
      </trkpt>
      <trkpt lat="51.457966" lon="-0.142815">
        <ele>79.0</ele>
        <time>2014-07-06T09:29:20Z</time>
      </trkpt>
      <trkpt lat="51.458164" lon="-0.142662">
        <ele>78.0</ele>
        <time>2014-07-06T09:29:24Z</time>
      </trkpt>
      <trkpt lat="51.458365" lon="-0.142486">
        <ele>77.0</ele>
        <time>2014-07-06T09:29:28Z</time>
      </trkpt>
      <trkpt lat="51.458576" lon="-0.142308">
        <ele>76.0</ele>
        <time>2014-07-06T09:29:32Z</time>
      </trkpt>
      <trkpt lat="51.458789" lon="-0.142158">
        <ele>76.0</ele>
        <time>2014-07-06T09:29:36Z</time>
      </trkpt>
      <trkpt lat="51.459004" lon="-0.14197">
        <ele>74.0</ele>
        <time>2014-07-06T09:29:40Z</time>
      </trkpt>
      <trkpt lat="51.459198" lon="-0.141786">
        <ele>73.0</ele>
        <time>2014-07-06T09:29:44Z</time>
      </trkpt>
      <trkpt lat="51.459383" lon="-0.141625">
        <ele>71.0</ele>
        <time>2014-07-06T09:29:48Z</time>
      </trkpt>
      <trkpt lat="51.459637" lon="-0.141337">
        <ele>71.0</ele>
        <time>2014-07-06T09:29:53Z</time>
      </trkpt>
      <trkpt lat="51.459843" lon="-0.141065">
        <ele>69.0</ele>
        <time>2014-07-06T09:29:57Z</time>
      </trkpt>
      <trkpt lat="51.46009" lon="-0.140673">
        <ele>71.0</ele>
        <time>2014-07-06T09:30:02Z</time>
      </trkpt>
      <trkpt lat="51.46036" lon="-0.140305">
        <ele>68.0</ele>
        <time>2014-07-06T09:30:07Z</time>
      </trkpt>
      <trkpt lat="51.46051" lon="-0.139989">
        <ele>68.0</ele>
        <time>2014-07-06T09:30:11Z</time>
      </trkpt>
      <trkpt lat="51.460692" lon="-0.139764">
        <ele>66.0</ele>
        <time>2014-07-06T09:30:15Z</time>
      </trkpt>
      <trkpt lat="51.460823" lon="-0.139575">
        <ele>67.0</ele>
        <time>2014-07-06T09:30:20Z</time>
      </trkpt>
      <trkpt lat="51.460903" lon="-0.139477">
        <ele>68.0</ele>
        <time>2014-07-06T09:30:24Z</time>
      </trkpt>
      <trkpt lat="51.460974" lon="-0.139393">
        <ele>71.0</ele>
        <time>2014-07-06T09:30:31Z</time>
      </trkpt>
      <trkpt lat="51.461024" lon="-0.139296">
        <ele>69.0</ele>
        <time>2014-07-06T09:31:09Z</time>
      </trkpt>
      <trkpt lat="51.461147" lon="-0.139136">
        <ele>70.0</ele>
        <time>2014-07-06T09:31:13Z</time>
      </trkpt>
      <trkpt lat="51.46136" lon="-0.138795">
        <ele>69.0</ele>
        <time>2014-07-06T09:31:18Z</time>
      </trkpt>
      <trkpt lat="51.461514" lon="-0.138544">
        <ele>69.0</ele>
        <time>2014-07-06T09:31:22Z</time>
      </trkpt>
      <trkpt lat="51.461668" lon="-0.138282">
        <ele>70.0</ele>
        <time>2014-07-06T09:31:26Z</time>
      </trkpt>
      <trkpt lat="51.461837" lon="-0.138017">
        <ele>73.0</ele>
        <time>2014-07-06T09:31:31Z</time>
      </trkpt>
      <trkpt lat="51.461937" lon="-0.137927">
        <ele>75.0</ele>
        <time>2014-07-06T09:31:36Z</time>
      </trkpt>
      <trkpt lat="51.462011" lon="-0.137994">
        <ele>76.0</ele>
        <time>2014-07-06T09:31:41Z</time>
      </trkpt>
      <trkpt lat="51.461981" lon="-0.138111">
        <ele>75.0</ele>
        <time>2014-07-06T09:31:46Z</time>
      </trkpt>
      <trkpt lat="51.461948" lon="-0.138218">
        <ele>74.0</ele>
        <time>2014-07-06T09:31:50Z</time>
      </trkpt>
      <trkpt lat="51.461928" lon="-0.138356">
        <ele>74.0</ele>
        <time>2014-07-06T09:31:55Z</time>
      </trkpt>
      <trkpt lat="51.461885" lon="-0.138462">
        <ele>76.0</ele>
        <time>2014-07-06T09:32:00Z</time>
      </trkpt>
      <trkpt lat="51.461881" lon="-0.138582">
        <ele>74.0</ele>
        <time>2014-07-06T09:32:04Z</time>
      </trkpt>
      <trkpt lat="51.461903" lon="-0.138713">
        <ele>61.0</ele>
        <time>2014-07-06T09:38:30Z</time>
      </trkpt>
      <trkpt lat="51.461824" lon="-0.138674">
        <ele>75.0</ele>
        <time>2014-07-06T09:43:20Z</time>
      </trkpt>
      <trkpt lat="51.461752" lon="-0.138596">
        <ele>76.0</ele>
        <time>2014-07-06T09:43:25Z</time>
      </trkpt>
      <trkpt lat="51.461672" lon="-0.13855">
        <ele>75.0</ele>
        <time>2014-07-06T09:43:31Z</time>
      </trkpt>
      <trkpt lat="51.461615" lon="-0.138642">
        <ele>78.0</ele>
        <time>2014-07-06T09:43:41Z</time>
      </trkpt>
      <trkpt lat="51.461554" lon="-0.138725">
        <ele>80.0</ele>
        <time>2014-07-06T09:43:47Z</time>
      </trkpt>
      <trkpt lat="51.461497" lon="-0.138818">
        <ele>79.0</ele>
        <time>2014-07-06T09:43:53Z</time>
      </trkpt>
      <trkpt lat="51.461429" lon="-0.138912">
        <ele>77.0</ele>
        <time>2014-07-06T09:43:57Z</time>
      </trkpt>
      <trkpt lat="51.461371" lon="-0.139">
        <ele>79.0</ele>
        <time>2014-07-06T09:44:03Z</time>
      </trkpt>
      <trkpt lat="51.461315" lon="-0.139102">
        <ele>79.0</ele>
        <time>2014-07-06T09:44:20Z</time>
      </trkpt>
      <trkpt lat="51.461259" lon="-0.139212">
        <ele>82.0</ele>
        <time>2014-07-06T09:44:31Z</time>
      </trkpt>
      <trkpt lat="51.461198" lon="-0.13929">
        <ele>80.0</ele>
        <time>2014-07-06T09:44:41Z</time>
      </trkpt>
      <trkpt lat="51.461112" lon="-0.139321">
        <ele>79.0</ele>
        <time>2014-07-06T09:44:47Z</time>
      </trkpt>
      <trkpt lat="51.461021" lon="-0.139374">
        <ele>80.0</ele>
        <time>2014-07-06T09:44:52Z</time>
      </trkpt>
      <trkpt lat="51.46094" lon="-0.139504">
        <ele>82.0</ele>
        <time>2014-07-06T09:44:56Z</time>
      </trkpt>
      <trkpt lat="51.460803" lon="-0.139673">
        <ele>82.0</ele>
        <time>2014-07-06T09:45:01Z</time>
      </trkpt>
      <trkpt lat="51.460692" lon="-0.139837">
        <ele>81.0</ele>
        <time>2014-07-06T09:45:05Z</time>
      </trkpt>
      <trkpt lat="51.460602" lon="-0.140012">
        <ele>84.0</ele>
        <time>2014-07-06T09:45:09Z</time>
      </trkpt>
      <trkpt lat="51.460485" lon="-0.140174">
        <ele>82.0</ele>
        <time>2014-07-06T09:45:13Z</time>
      </trkpt>
      <trkpt lat="51.460381" lon="-0.140335">
        <ele>83.0</ele>
        <time>2014-07-06T09:45:17Z</time>
      </trkpt>
      <trkpt lat="51.460283" lon="-0.140484">
        <ele>86.0</ele>
        <time>2014-07-06T09:45:21Z</time>
      </trkpt>
      <trkpt lat="51.4602" lon="-0.140613">
        <ele>87.0</ele>
        <time>2014-07-06T09:45:25Z</time>
      </trkpt>
      <trkpt lat="51.460127" lon="-0.140729">
        <ele>92.0</ele>
        <time>2014-07-06T09:45:29Z</time>
      </trkpt>
      <trkpt lat="51.460019" lon="-0.140922">
        <ele>84.0</ele>
        <time>2014-07-06T09:45:34Z</time>
      </trkpt>
      <trkpt lat="51.459919" lon="-0.141105">
        <ele>87.0</ele>
        <time>2014-07-06T09:45:39Z</time>
      </trkpt>
      <trkpt lat="51.459858" lon="-0.141239">
        <ele>94.0</ele>
        <time>2014-07-06T09:45:44Z</time>
      </trkpt>
      <trkpt lat="51.459818" lon="-0.141359">
        <ele>93.0</ele>
        <time>2014-07-06T09:45:48Z</time>
      </trkpt>
      <trkpt lat="51.459724" lon="-0.141491">
        <ele>93.0</ele>
        <time>2014-07-06T09:45:52Z</time>
      </trkpt>
      <trkpt lat="51.459649" lon="-0.141583">
        <ele>93.0</ele>
        <time>2014-07-06T09:45:56Z</time>
      </trkpt>
      <trkpt lat="51.45958" lon="-0.141625">
        <ele>90.0</ele>
        <time>2014-07-06T09:46:00Z</time>
      </trkpt>
      <trkpt lat="51.459493" lon="-0.141684">
        <ele>89.0</ele>
        <time>2014-07-06T09:46:05Z</time>
      </trkpt>
      <trkpt lat="51.459415" lon="-0.141762">
        <ele>91.0</ele>
        <time>2014-07-06T09:46:09Z</time>
      </trkpt>
      <trkpt lat="51.45931" lon="-0.141851">
        <ele>89.0</ele>
        <time>2014-07-06T09:46:13Z</time>
      </trkpt>
      <trkpt lat="51.459165" lon="-0.141923">
        <ele>94.0</ele>
        <time>2014-07-06T09:46:18Z</time>
      </trkpt>
      <trkpt lat="51.459031" lon="-0.142036">
        <ele>91.0</ele>
        <time>2014-07-06T09:46:22Z</time>
      </trkpt>
      <trkpt lat="51.458902" lon="-0.142143">
        <ele>88.0</ele>
        <time>2014-07-06T09:46:26Z</time>
      </trkpt>
      <trkpt lat="51.45871" lon="-0.142273">
        <ele>86.0</ele>
        <time>2014-07-06T09:46:31Z</time>
      </trkpt>
      <trkpt lat="51.458558" lon="-0.142384">
        <ele>85.0</ele>
        <time>2014-07-06T09:46:35Z</time>
      </trkpt>
      <trkpt lat="51.458399" lon="-0.142522">
        <ele>86.0</ele>
        <time>2014-07-06T09:46:40Z</time>
      </trkpt>
      <trkpt lat="51.458283" lon="-0.142648">
        <ele>87.0</ele>
        <time>2014-07-06T09:46:45Z</time>
      </trkpt>
      <trkpt lat="51.458174" lon="-0.142778">
        <ele>86.0</ele>
        <time>2014-07-06T09:46:49Z</time>
      </trkpt>
      <trkpt lat="51.458068" lon="-0.14295">
        <ele>86.0</ele>
        <time>2014-07-06T09:46:53Z</time>
      </trkpt>
      <trkpt lat="51.457995" lon="-0.143131">
        <ele>84.0</ele>
        <time>2014-07-06T09:46:57Z</time>
      </trkpt>
      <trkpt lat="51.457923" lon="-0.143355">
        <ele>85.0</ele>
        <time>2014-07-06T09:47:02Z</time>
      </trkpt>
      <trkpt lat="51.457848" lon="-0.143534">
        <ele>85.0</ele>
        <time>2014-07-06T09:47:07Z</time>
      </trkpt>
      <trkpt lat="51.457758" lon="-0.143511">
        <ele>83.0</ele>
        <time>2014-07-06T09:47:11Z</time>
      </trkpt>
      <trkpt lat="51.457695" lon="-0.143407">
        <ele>82.0</ele>
        <time>2014-07-06T09:47:23Z</time>
      </trkpt>
      <trkpt lat="51.457636" lon="-0.143301">
        <ele>73.0</ele>
        <time>2014-07-06T10:04:40Z</time>
      </trkpt>
      <trkpt lat="51.457648" lon="-0.143161">
        <ele>73.0</ele>
        <time>2014-07-06T10:04:52Z</time>
      </trkpt>
      <trkpt lat="51.457608" lon="-0.14305">
        <ele>76.0</ele>
        <time>2014-07-06T10:05:21Z</time>
      </trkpt>
      <trkpt lat="51.457493" lon="-0.143027">
        <ele>78.0</ele>
        <time>2014-07-06T10:05:25Z</time>
      </trkpt>
      <trkpt lat="51.457319" lon="-0.143268">
        <ele>83.0</ele>
        <time>2014-07-06T10:05:29Z</time>
      </trkpt>
      <trkpt lat="51.45718" lon="-0.143399">
        <ele>83.0</ele>
        <time>2014-07-06T10:05:33Z</time>
      </trkpt>
      <trkpt lat="51.456985" lon="-0.143622">
        <ele>88.0</ele>
        <time>2014-07-06T10:05:38Z</time>
      </trkpt>
      <trkpt lat="51.456806" lon="-0.143734">
        <ele>83.0</ele>
        <time>2014-07-06T10:05:43Z</time>
      </trkpt>
      <trkpt lat="51.456625" lon="-0.143912">
        <ele>85.0</ele>
        <time>2014-07-06T10:05:47Z</time>
      </trkpt>
      <trkpt lat="51.456378" lon="-0.144101">
        <ele>83.0</ele>
        <time>2014-07-06T10:05:52Z</time>
      </trkpt>
      <trkpt lat="51.456201" lon="-0.144282">
        <ele>85.0</ele>
        <time>2014-07-06T10:05:56Z</time>
      </trkpt>
      <trkpt lat="51.455986" lon="-0.144467">
        <ele>82.0</ele>
        <time>2014-07-06T10:06:01Z</time>
      </trkpt>
      <trkpt lat="51.455747" lon="-0.144698">
        <ele>82.0</ele>
        <time>2014-07-06T10:06:06Z</time>
      </trkpt>
      <trkpt lat="51.455619" lon="-0.14473">
        <ele>83.0</ele>
        <time>2014-07-06T10:06:11Z</time>
      </trkpt>
      <trkpt lat="51.455543" lon="-0.144541">
        <ele>82.0</ele>
        <time>2014-07-06T10:06:15Z</time>
      </trkpt>
      <trkpt lat="51.455439" lon="-0.144271">
        <ele>83.0</ele>
        <time>2014-07-06T10:06:19Z</time>
      </trkpt>
      <trkpt lat="51.455328" lon="-0.14398">
        <ele>83.0</ele>
        <time>2014-07-06T10:06:23Z</time>
      </trkpt>
      <trkpt lat="51.455214" lon="-0.143722">
        <ele>86.0</ele>
        <time>2014-07-06T10:06:27Z</time>
      </trkpt>
      <trkpt lat="51.455065" lon="-0.1434">
        <ele>87.0</ele>
        <time>2014-07-06T10:06:31Z</time>
      </trkpt>
      <trkpt lat="51.45488" lon="-0.142988">
        <ele>86.0</ele>
        <time>2014-07-06T10:06:36Z</time>
      </trkpt>
      <trkpt lat="51.454756" lon="-0.142568">
        <ele>86.0</ele>
        <time>2014-07-06T10:06:41Z</time>
      </trkpt>
      <trkpt lat="51.454632" lon="-0.14227">
        <ele>87.0</ele>
        <time>2014-07-06T10:06:45Z</time>
      </trkpt>
      <trkpt lat="51.4545" lon="-0.141879">
        <ele>85.0</ele>
        <time>2014-07-06T10:06:50Z</time>
      </trkpt>
      <trkpt lat="51.454384" lon="-0.141583">
        <ele>83.0</ele>
        <time>2014-07-06T10:06:55Z</time>
      </trkpt>
      <trkpt lat="51.454306" lon="-0.141576">
        <ele>81.0</ele>
        <time>2014-07-06T10:06:59Z</time>
      </trkpt>
      <trkpt lat="51.454196" lon="-0.141692">
        <ele>82.0</ele>
        <time>2014-07-06T10:07:03Z</time>
      </trkpt>
      <trkpt lat="51.453999" lon="-0.141899">
        <ele>80.0</ele>
        <time>2014-07-06T10:07:08Z</time>
      </trkpt>
      <trkpt lat="51.453798" lon="-0.142125">
        <ele>78.0</ele>
        <time>2014-07-06T10:07:13Z</time>
      </trkpt>
      <trkpt lat="51.453611" lon="-0.142318">
        <ele>78.0</ele>
        <time>2014-07-06T10:07:17Z</time>
      </trkpt>
      <trkpt lat="51.45339" lon="-0.142505">
        <ele>78.0</ele>
        <time>2014-07-06T10:07:22Z</time>
      </trkpt>
      <trkpt lat="51.453206" lon="-0.142664">
        <ele>76.0</ele>
        <time>2014-07-06T10:07:26Z</time>
      </trkpt>
      <trkpt lat="51.453053" lon="-0.142911">
        <ele>76.0</ele>
        <time>2014-07-06T10:07:31Z</time>
      </trkpt>
      <trkpt lat="51.452973" lon="-0.142954">
        <ele>77.0</ele>
        <time>2014-07-06T10:07:35Z</time>
      </trkpt>
      <trkpt lat="51.452888" lon="-0.1429">
        <ele>75.0</ele>
        <time>2014-07-06T10:07:39Z</time>
      </trkpt>
      <trkpt lat="51.452818" lon="-0.142757">
        <ele>77.0</ele>
        <time>2014-07-06T10:07:43Z</time>
      </trkpt>
      <trkpt lat="51.452701" lon="-0.142562">
        <ele>77.0</ele>
        <time>2014-07-06T10:07:47Z</time>
      </trkpt>
      <trkpt lat="51.452505" lon="-0.14233">
        <ele>73.0</ele>
        <time>2014-07-06T10:07:52Z</time>
      </trkpt>
      <trkpt lat="51.452316" lon="-0.142177">
        <ele>71.0</ele>
        <time>2014-07-06T10:07:56Z</time>
      </trkpt>
      <trkpt lat="51.452091" lon="-0.142131">
        <ele>74.0</ele>
        <time>2014-07-06T10:08:01Z</time>
      </trkpt>
      <trkpt lat="51.451896" lon="-0.142136">
        <ele>74.0</ele>
        <time>2014-07-06T10:08:05Z</time>
      </trkpt>
      <trkpt lat="51.451704" lon="-0.142157">
        <ele>75.0</ele>
        <time>2014-07-06T10:08:09Z</time>
      </trkpt>
      <trkpt lat="51.451548" lon="-0.14216">
        <ele>71.0</ele>
        <time>2014-07-06T10:08:13Z</time>
      </trkpt>
      <trkpt lat="51.451425" lon="-0.142196">
        <ele>74.0</ele>
        <time>2014-07-06T10:08:18Z</time>
      </trkpt>
      <trkpt lat="51.451353" lon="-0.14222">
        <ele>76.0</ele>
        <time>2014-07-06T10:08:31Z</time>
      </trkpt>
      <trkpt lat="51.451254" lon="-0.142258">
        <ele>78.0</ele>
        <time>2014-07-06T10:08:35Z</time>
      </trkpt>
      <trkpt lat="51.450938" lon="-0.142286">
        <ele>77.0</ele>
        <time>2014-07-06T10:08:40Z</time>
      </trkpt>
      <trkpt lat="51.450626" lon="-0.14237">
        <ele>77.0</ele>
        <time>2014-07-06T10:08:45Z</time>
      </trkpt>
      <trkpt lat="51.450399" lon="-0.142517">
        <ele>78.0</ele>
        <time>2014-07-06T10:08:49Z</time>
      </trkpt>
      <trkpt lat="51.450199" lon="-0.142686">
        <ele>78.0</ele>
        <time>2014-07-06T10:08:53Z</time>
      </trkpt>
      <trkpt lat="51.449973" lon="-0.142892">
        <ele>76.0</ele>
        <time>2014-07-06T10:08:58Z</time>
      </trkpt>
      <trkpt lat="51.449774" lon="-0.143069">
        <ele>77.0</ele>
        <time>2014-07-06T10:09:02Z</time>
      </trkpt>
      <trkpt lat="51.449509" lon="-0.143338">
        <ele>74.0</ele>
        <time>2014-07-06T10:09:07Z</time>
      </trkpt>
      <trkpt lat="51.449315" lon="-0.143584">
        <ele>74.0</ele>
        <time>2014-07-06T10:09:11Z</time>
      </trkpt>
      <trkpt lat="51.449092" lon="-0.143943">
        <ele>73.0</ele>
        <time>2014-07-06T10:09:16Z</time>
      </trkpt>
      <trkpt lat="51.448938" lon="-0.144252">
        <ele>73.0</ele>
        <time>2014-07-06T10:09:20Z</time>
      </trkpt>
      <trkpt lat="51.448698" lon="-0.144594">
        <ele>72.0</ele>
        <time>2014-07-06T10:09:25Z</time>
      </trkpt>
      <trkpt lat="51.448472" lon="-0.144799">
        <ele>70.0</ele>
        <time>2014-07-06T10:09:29Z</time>
      </trkpt>
      <trkpt lat="51.448164" lon="-0.144906">
        <ele>69.0</ele>
        <time>2014-07-06T10:09:34Z</time>
      </trkpt>
      <trkpt lat="51.447925" lon="-0.145025">
        <ele>70.0</ele>
        <time>2014-07-06T10:09:38Z</time>
      </trkpt>
      <trkpt lat="51.447628" lon="-0.145163">
        <ele>71.0</ele>
        <time>2014-07-06T10:09:43Z</time>
      </trkpt>
      <trkpt lat="51.447361" lon="-0.145258">
        <ele>69.0</ele>
        <time>2014-07-06T10:09:47Z</time>
      </trkpt>
      <trkpt lat="51.447067" lon="-0.145394">
        <ele>71.0</ele>
        <time>2014-07-06T10:09:52Z</time>
      </trkpt>
      <trkpt lat="51.446826" lon="-0.145469">
        <ele>70.0</ele>
        <time>2014-07-06T10:09:56Z</time>
      </trkpt>
      <trkpt lat="51.44655" lon="-0.145549">
        <ele>79.0</ele>
        <time>2014-07-06T10:10:00Z</time>
      </trkpt>
      <trkpt lat="51.446232" lon="-0.145554">
        <ele>76.0</ele>
        <time>2014-07-06T10:10:05Z</time>
      </trkpt>
      <trkpt lat="51.446007" lon="-0.145632">
        <ele>77.0</ele>
        <time>2014-07-06T10:10:09Z</time>
      </trkpt>
      <trkpt lat="51.445699" lon="-0.145636">
        <ele>76.0</ele>
        <time>2014-07-06T10:10:14Z</time>
      </trkpt>
      <trkpt lat="51.445461" lon="-0.145602">
        <ele>76.0</ele>
        <time>2014-07-06T10:10:18Z</time>
      </trkpt>
      <trkpt lat="51.445301" lon="-0.145606">
        <ele>76.0</ele>
        <time>2014-07-06T10:10:23Z</time>
      </trkpt>
      <trkpt lat="51.445125" lon="-0.145547">
        <ele>75.0</ele>
        <time>2014-07-06T10:10:27Z</time>
      </trkpt>
      <trkpt lat="51.444875" lon="-0.145411">
        <ele>76.0</ele>
        <time>2014-07-06T10:10:32Z</time>
      </trkpt>
      <trkpt lat="51.444601" lon="-0.145282">
        <ele>80.0</ele>
        <time>2014-07-06T10:10:37Z</time>
      </trkpt>
      <trkpt lat="51.444401" lon="-0.145116">
        <ele>79.0</ele>
        <time>2014-07-06T10:10:41Z</time>
      </trkpt>
      <trkpt lat="51.444192" lon="-0.144956">
        <ele>78.0</ele>
        <time>2014-07-06T10:10:45Z</time>
      </trkpt>
      <trkpt lat="51.443951" lon="-0.144808">
        <ele>80.0</ele>
        <time>2014-07-06T10:10:50Z</time>
      </trkpt>
      <trkpt lat="51.443737" lon="-0.144659">
        <ele>81.0</ele>
        <time>2014-07-06T10:10:54Z</time>
      </trkpt>
      <trkpt lat="51.443479" lon="-0.144549">
        <ele>81.0</ele>
        <time>2014-07-06T10:10:59Z</time>
      </trkpt>
      <trkpt lat="51.443236" lon="-0.144411">
        <ele>79.0</ele>
        <time>2014-07-06T10:11:03Z</time>
      </trkpt>
      <trkpt lat="51.443019" lon="-0.144275">
        <ele>81.0</ele>
        <time>2014-07-06T10:11:07Z</time>
      </trkpt>
      <trkpt lat="51.442811" lon="-0.144163">
        <ele>82.0</ele>
        <time>2014-07-06T10:11:11Z</time>
      </trkpt>
      <trkpt lat="51.442613" lon="-0.144026">
        <ele>82.0</ele>
        <time>2014-07-06T10:11:15Z</time>
      </trkpt>
      <trkpt lat="51.442413" lon="-0.143922">
        <ele>81.0</ele>
        <time>2014-07-06T10:11:19Z</time>
      </trkpt>
      <trkpt lat="51.442214" lon="-0.143806">
        <ele>82.0</ele>
        <time>2014-07-06T10:11:23Z</time>
      </trkpt>
      <trkpt lat="51.442066" lon="-0.143735">
        <ele>83.0</ele>
        <time>2014-07-06T10:11:27Z</time>
      </trkpt>
      <trkpt lat="51.441942" lon="-0.143682">
        <ele>82.0</ele>
        <time>2014-07-06T10:11:32Z</time>
      </trkpt>
      <trkpt lat="51.441817" lon="-0.143627">
        <ele>81.0</ele>
        <time>2014-07-06T10:11:36Z</time>
      </trkpt>
      <trkpt lat="51.441622" lon="-0.143553">
        <ele>80.0</ele>
        <time>2014-07-06T10:11:41Z</time>
      </trkpt>
      <trkpt lat="51.44149" lon="-0.143444">
        <ele>83.0</ele>
        <time>2014-07-06T10:11:45Z</time>
      </trkpt>
      <trkpt lat="51.441402" lon="-0.14342">
        <ele>82.0</ele>
        <time>2014-07-06T10:11:50Z</time>
      </trkpt>
      <trkpt lat="51.441335" lon="-0.143336">
        <ele>75.0</ele>
        <time>2014-07-06T10:11:56Z</time>
      </trkpt>
      <trkpt lat="51.441195" lon="-0.143322">
        <ele>80.0</ele>
        <time>2014-07-06T10:12:01Z</time>
      </trkpt>
      <trkpt lat="51.441022" lon="-0.143304">
        <ele>82.0</ele>
        <time>2014-07-06T10:12:05Z</time>
      </trkpt>
      <trkpt lat="51.440828" lon="-0.143189">
        <ele>82.0</ele>
        <time>2014-07-06T10:12:09Z</time>
      </trkpt>
      <trkpt lat="51.440662" lon="-0.142985">
        <ele>81.0</ele>
        <time>2014-07-06T10:12:13Z</time>
      </trkpt>
      <trkpt lat="51.440464" lon="-0.142847">
        <ele>81.0</ele>
        <time>2014-07-06T10:12:17Z</time>
      </trkpt>
      <trkpt lat="51.440237" lon="-0.142807">
        <ele>80.0</ele>
        <time>2014-07-06T10:12:22Z</time>
      </trkpt>
      <trkpt lat="51.440058" lon="-0.142806">
        <ele>79.0</ele>
        <time>2014-07-06T10:12:26Z</time>
      </trkpt>
      <trkpt lat="51.439837" lon="-0.142756">
        <ele>77.0</ele>
        <time>2014-07-06T10:12:30Z</time>
      </trkpt>
      <trkpt lat="51.439649" lon="-0.142682">
        <ele>75.0</ele>
        <time>2014-07-06T10:12:34Z</time>
      </trkpt>
      <trkpt lat="51.439409" lon="-0.142579">
        <ele>74.0</ele>
        <time>2014-07-06T10:12:39Z</time>
      </trkpt>
      <trkpt lat="51.439169" lon="-0.142476">
        <ele>73.0</ele>
        <time>2014-07-06T10:12:44Z</time>
      </trkpt>
      <trkpt lat="51.438982" lon="-0.142421">
        <ele>74.0</ele>
        <time>2014-07-06T10:12:48Z</time>
      </trkpt>
      <trkpt lat="51.438799" lon="-0.142318">
        <ele>72.0</ele>
        <time>2014-07-06T10:12:52Z</time>
      </trkpt>
      <trkpt lat="51.438565" lon="-0.142256">
        <ele>74.0</ele>
        <time>2014-07-06T10:12:57Z</time>
      </trkpt>
      <trkpt lat="51.438388" lon="-0.14219">
        <ele>74.0</ele>
        <time>2014-07-06T10:13:01Z</time>
      </trkpt>
      <trkpt lat="51.438226" lon="-0.142147">
        <ele>75.0</ele>
        <time>2014-07-06T10:13:05Z</time>
      </trkpt>
      <trkpt lat="51.438032" lon="-0.142071">
        <ele>72.0</ele>
        <time>2014-07-06T10:13:10Z</time>
      </trkpt>
      <trkpt lat="51.437885" lon="-0.142112">
        <ele>74.0</ele>
        <time>2014-07-06T10:13:14Z</time>
      </trkpt>
      <trkpt lat="51.437701" lon="-0.142224">
        <ele>75.0</ele>
        <time>2014-07-06T10:13:19Z</time>
      </trkpt>
      <trkpt lat="51.437557" lon="-0.142332">
        <ele>77.0</ele>
        <time>2014-07-06T10:13:23Z</time>
      </trkpt>
      <trkpt lat="51.43741" lon="-0.142467">
        <ele>78.0</ele>
        <time>2014-07-06T10:13:27Z</time>
      </trkpt>
      <trkpt lat="51.437258" lon="-0.142613">
        <ele>79.0</ele>
        <time>2014-07-06T10:13:31Z</time>
      </trkpt>
      <trkpt lat="51.4371" lon="-0.14276">
        <ele>80.0</ele>
        <time>2014-07-06T10:13:35Z</time>
      </trkpt>
      <trkpt lat="51.43693" lon="-0.142933">
        <ele>84.0</ele>
        <time>2014-07-06T10:13:40Z</time>
      </trkpt>
      <trkpt lat="51.436777" lon="-0.143075">
        <ele>83.0</ele>
        <time>2014-07-06T10:13:44Z</time>
      </trkpt>
      <trkpt lat="51.436593" lon="-0.143282">
        <ele>82.0</ele>
        <time>2014-07-06T10:13:49Z</time>
      </trkpt>
      <trkpt lat="51.436436" lon="-0.143477">
        <ele>82.0</ele>
        <time>2014-07-06T10:13:53Z</time>
      </trkpt>
      <trkpt lat="51.436311" lon="-0.143621">
        <ele>80.0</ele>
        <time>2014-07-06T10:13:57Z</time>
      </trkpt>
      <trkpt lat="51.436184" lon="-0.143753">
        <ele>80.0</ele>
        <time>2014-07-06T10:14:01Z</time>
      </trkpt>
      <trkpt lat="51.436076" lon="-0.143867">
        <ele>80.0</ele>
        <time>2014-07-06T10:14:05Z</time>
      </trkpt>
      <trkpt lat="51.435957" lon="-0.143988">
        <ele>77.0</ele>
        <time>2014-07-06T10:14:10Z</time>
      </trkpt>
      <trkpt lat="51.43588" lon="-0.144034">
        <ele>79.0</ele>
        <time>2014-07-06T10:14:17Z</time>
      </trkpt>
      <trkpt lat="51.435809" lon="-0.144081">
        <ele>81.0</ele>
        <time>2014-07-06T10:14:23Z</time>
      </trkpt>
      <trkpt lat="51.435795" lon="-0.144097">
        <ele>81.0</ele>
        <time>2014-07-06T10:14:24Z</time>
      </trkpt>
      <trkpt lat="51.435708" lon="-0.144268">
        <ele>80.0</ele>
        <time>2014-07-06T10:14:30Z</time>
      </trkpt>
      <trkpt lat="51.435549" lon="-0.144453">
        <ele>82.0</ele>
        <time>2014-07-06T10:14:35Z</time>
      </trkpt>
      <trkpt lat="51.435403" lon="-0.144582">
        <ele>81.0</ele>
        <time>2014-07-06T10:14:39Z</time>
      </trkpt>
      <trkpt lat="51.435236" lon="-0.144662">
        <ele>83.0</ele>
        <time>2014-07-06T10:14:43Z</time>
      </trkpt>
      <trkpt lat="51.434937" lon="-0.144763">
        <ele>82.0</ele>
        <time>2014-07-06T10:14:48Z</time>
      </trkpt>
      <trkpt lat="51.434752" lon="-0.144856">
        <ele>81.0</ele>
        <time>2014-07-06T10:14:52Z</time>
      </trkpt>
      <trkpt lat="51.434598" lon="-0.144927">
        <ele>80.0</ele>
        <time>2014-07-06T10:14:56Z</time>
      </trkpt>
      <trkpt lat="51.434401" lon="-0.144998">
        <ele>80.0</ele>
        <time>2014-07-06T10:15:01Z</time>
      </trkpt>
      <trkpt lat="51.434244" lon="-0.145098">
        <ele>77.0</ele>
        <time>2014-07-06T10:15:05Z</time>
      </trkpt>
      <trkpt lat="51.43403" lon="-0.145185">
        <ele>80.0</ele>
        <time>2014-07-06T10:15:10Z</time>
      </trkpt>
      <trkpt lat="51.43386" lon="-0.145289">
        <ele>82.0</ele>
        <time>2014-07-06T10:15:14Z</time>
      </trkpt>
      <trkpt lat="51.433676" lon="-0.145368">
        <ele>82.0</ele>
        <time>2014-07-06T10:15:18Z</time>
      </trkpt>
      <trkpt lat="51.433428" lon="-0.145503">
        <ele>83.0</ele>
        <time>2014-07-06T10:15:23Z</time>
      </trkpt>
      <trkpt lat="51.433184" lon="-0.145605">
        <ele>82.0</ele>
        <time>2014-07-06T10:15:28Z</time>
      </trkpt>
      <trkpt lat="51.432927" lon="-0.145693">
        <ele>81.0</ele>
        <time>2014-07-06T10:15:33Z</time>
      </trkpt>
      <trkpt lat="51.432743" lon="-0.145766">
        <ele>80.0</ele>
        <time>2014-07-06T10:15:37Z</time>
      </trkpt>
      <trkpt lat="51.432523" lon="-0.145844">
        <ele>79.0</ele>
        <time>2014-07-06T10:15:41Z</time>
      </trkpt>
      <trkpt lat="51.432286" lon="-0.145961">
        <ele>77.0</ele>
        <time>2014-07-06T10:15:46Z</time>
      </trkpt>
      <trkpt lat="51.432109" lon="-0.146024">
        <ele>76.0</ele>
        <time>2014-07-06T10:15:50Z</time>
      </trkpt>
      <trkpt lat="51.43189" lon="-0.146125">
        <ele>78.0</ele>
        <time>2014-07-06T10:15:55Z</time>
      </trkpt>
      <trkpt lat="51.431677" lon="-0.146222">
        <ele>78.0</ele>
        <time>2014-07-06T10:16:00Z</time>
      </trkpt>
      <trkpt lat="51.43153" lon="-0.146295">
        <ele>79.0</ele>
        <time>2014-07-06T10:16:04Z</time>
      </trkpt>
      <trkpt lat="51.431397" lon="-0.14639">
        <ele>78.0</ele>
        <time>2014-07-06T10:16:09Z</time>
      </trkpt>
      <trkpt lat="51.431298" lon="-0.1464">
        <ele>79.0</ele>
        <time>2014-07-06T10:16:13Z</time>
      </trkpt>
      <trkpt lat="51.431216" lon="-0.146428">
        <ele>80.0</ele>
        <time>2014-07-06T10:16:33Z</time>
      </trkpt>
      <trkpt lat="51.431118" lon="-0.146557">
        <ele>78.0</ele>
        <time>2014-07-06T10:16:38Z</time>
      </trkpt>
      <trkpt lat="51.431058" lon="-0.146797">
        <ele>74.0</ele>
        <time>2014-07-06T10:16:43Z</time>
      </trkpt>
      <trkpt lat="51.430932" lon="-0.147153">
        <ele>77.0</ele>
        <time>2014-07-06T10:16:48Z</time>
      </trkpt>
      <trkpt lat="51.430807" lon="-0.14744">
        <ele>78.0</ele>
        <time>2014-07-06T10:16:52Z</time>
      </trkpt>
      <trkpt lat="51.430711" lon="-0.147756">
        <ele>77.0</ele>
        <time>2014-07-06T10:16:56Z</time>
      </trkpt>
      <trkpt lat="51.430538" lon="-0.148107">
        <ele>77.0</ele>
        <time>2014-07-06T10:17:01Z</time>
      </trkpt>
      <trkpt lat="51.430392" lon="-0.148368">
        <ele>77.0</ele>
        <time>2014-07-06T10:17:05Z</time>
      </trkpt>
      <trkpt lat="51.430227" lon="-0.148606">
        <ele>76.0</ele>
        <time>2014-07-06T10:17:09Z</time>
      </trkpt>
      <trkpt lat="51.429973" lon="-0.148886">
        <ele>77.0</ele>
        <time>2014-07-06T10:17:14Z</time>
      </trkpt>
      <trkpt lat="51.429838" lon="-0.14919">
        <ele>77.0</ele>
        <time>2014-07-06T10:17:19Z</time>
      </trkpt>
      <trkpt lat="51.429671" lon="-0.149288">
        <ele>77.0</ele>
        <time>2014-07-06T10:17:23Z</time>
      </trkpt>
      <trkpt lat="51.429486" lon="-0.149375">
        <ele>79.0</ele>
        <time>2014-07-06T10:17:27Z</time>
      </trkpt>
      <trkpt lat="51.429293" lon="-0.149412">
        <ele>79.0</ele>
        <time>2014-07-06T10:17:31Z</time>
      </trkpt>
      <trkpt lat="51.429033" lon="-0.14942">
        <ele>77.0</ele>
        <time>2014-07-06T10:17:36Z</time>
      </trkpt>
      <trkpt lat="51.428827" lon="-0.14952">
        <ele>78.0</ele>
        <time>2014-07-06T10:17:40Z</time>
      </trkpt>
      <trkpt lat="51.428608" lon="-0.149538">
        <ele>76.0</ele>
        <time>2014-07-06T10:17:44Z</time>
      </trkpt>
      <trkpt lat="51.428417" lon="-0.149659">
        <ele>79.0</ele>
        <time>2014-07-06T10:17:49Z</time>
      </trkpt>
      <trkpt lat="51.428231" lon="-0.149709">
        <ele>79.0</ele>
        <time>2014-07-06T10:17:53Z</time>
      </trkpt>
      <trkpt lat="51.428087" lon="-0.149786">
        <ele>78.0</ele>
        <time>2014-07-06T10:17:57Z</time>
      </trkpt>
      <trkpt lat="51.427909" lon="-0.149797">
        <ele>77.0</ele>
        <time>2014-07-06T10:18:01Z</time>
      </trkpt>
      <trkpt lat="51.427792" lon="-0.149826">
        <ele>80.0</ele>
        <time>2014-07-06T10:18:06Z</time>
      </trkpt>
      <trkpt lat="51.427723" lon="-0.149905">
        <ele>88.0</ele>
        <time>2014-07-06T10:19:16Z</time>
      </trkpt>
      <trkpt lat="51.427607" lon="-0.149885">
        <ele>83.0</ele>
        <time>2014-07-06T10:19:20Z</time>
      </trkpt>
      <trkpt lat="51.427432" lon="-0.149922">
        <ele>83.0</ele>
        <time>2014-07-06T10:19:25Z</time>
      </trkpt>
      <trkpt lat="51.427207" lon="-0.150038">
        <ele>86.0</ele>
        <time>2014-07-06T10:19:31Z</time>
      </trkpt>
      <trkpt lat="51.427031" lon="-0.150097">
        <ele>87.0</ele>
        <time>2014-07-06T10:19:36Z</time>
      </trkpt>
      <trkpt lat="51.426827" lon="-0.150153">
        <ele>86.0</ele>
        <time>2014-07-06T10:19:41Z</time>
      </trkpt>
      <trkpt lat="51.426638" lon="-0.150207">
        <ele>89.0</ele>
        <time>2014-07-06T10:19:45Z</time>
      </trkpt>
      <trkpt lat="51.426458" lon="-0.150255">
        <ele>90.0</ele>
        <time>2014-07-06T10:19:49Z</time>
      </trkpt>
      <trkpt lat="51.426288" lon="-0.150288">
        <ele>89.0</ele>
        <time>2014-07-06T10:19:53Z</time>
      </trkpt>
      <trkpt lat="51.426078" lon="-0.150344">
        <ele>92.0</ele>
        <time>2014-07-06T10:19:58Z</time>
      </trkpt>
      <trkpt lat="51.425856" lon="-0.150387">
        <ele>91.0</ele>
        <time>2014-07-06T10:20:03Z</time>
      </trkpt>
      <trkpt lat="51.425681" lon="-0.150415">
        <ele>89.0</ele>
        <time>2014-07-06T10:20:07Z</time>
      </trkpt>
      <trkpt lat="51.425504" lon="-0.150443">
        <ele>88.0</ele>
        <time>2014-07-06T10:20:11Z</time>
      </trkpt>
      <trkpt lat="51.425326" lon="-0.150479">
        <ele>90.0</ele>
        <time>2014-07-06T10:20:15Z</time>
      </trkpt>
      <trkpt lat="51.425153" lon="-0.150558">
        <ele>91.0</ele>
        <time>2014-07-06T10:20:19Z</time>
      </trkpt>
      <trkpt lat="51.424961" lon="-0.150594">
        <ele>91.0</ele>
        <time>2014-07-06T10:20:23Z</time>
      </trkpt>
      <trkpt lat="51.424761" lon="-0.150639">
        <ele>89.0</ele>
        <time>2014-07-06T10:20:28Z</time>
      </trkpt>
      <trkpt lat="51.42466" lon="-0.150723">
        <ele>90.0</ele>
        <time>2014-07-06T10:20:32Z</time>
      </trkpt>
      <trkpt lat="51.424712" lon="-0.150899">
        <ele>87.0</ele>
        <time>2014-07-06T10:20:36Z</time>
      </trkpt>
      <trkpt lat="51.424879" lon="-0.151192">
        <ele>86.0</ele>
        <time>2014-07-06T10:20:41Z</time>
      </trkpt>
      <trkpt lat="51.424873" lon="-0.151609">
        <ele>87.0</ele>
        <time>2014-07-06T10:20:46Z</time>
      </trkpt>
      <trkpt lat="51.424854" lon="-0.151975">
        <ele>85.0</ele>
        <time>2014-07-06T10:20:50Z</time>
      </trkpt>
      <trkpt lat="51.424924" lon="-0.152438">
        <ele>85.0</ele>
        <time>2014-07-06T10:20:55Z</time>
      </trkpt>
      <trkpt lat="51.424951" lon="-0.152669">
        <ele>88.0</ele>
        <time>2014-07-06T10:20:59Z</time>
      </trkpt>
      <trkpt lat="51.425022" lon="-0.153036">
        <ele>87.0</ele>
        <time>2014-07-06T10:21:04Z</time>
      </trkpt>
      <trkpt lat="51.425082" lon="-0.153381">
        <ele>87.0</ele>
        <time>2014-07-06T10:21:08Z</time>
      </trkpt>
      <trkpt lat="51.42516" lon="-0.153764">
        <ele>86.0</ele>
        <time>2014-07-06T10:21:12Z</time>
      </trkpt>
      <trkpt lat="51.425215" lon="-0.154135">
        <ele>85.0</ele>
        <time>2014-07-06T10:21:16Z</time>
      </trkpt>
      <trkpt lat="51.425317" lon="-0.154612">
        <ele>83.0</ele>
        <time>2014-07-06T10:21:21Z</time>
      </trkpt>
      <trkpt lat="51.425476" lon="-0.154847">
        <ele>85.0</ele>
        <time>2014-07-06T10:21:25Z</time>
      </trkpt>
      <trkpt lat="51.425655" lon="-0.155119">
        <ele>85.0</ele>
        <time>2014-07-06T10:21:29Z</time>
      </trkpt>
      <trkpt lat="51.425737" lon="-0.15529">
        <ele>87.0</ele>
        <time>2014-07-06T10:21:33Z</time>
      </trkpt>
      <trkpt lat="51.425633" lon="-0.155559">
        <ele>85.0</ele>
        <time>2014-07-06T10:21:38Z</time>
      </trkpt>
      <trkpt lat="51.425452" lon="-0.155868">
        <ele>84.0</ele>
        <time>2014-07-06T10:21:43Z</time>
      </trkpt>
      <trkpt lat="51.425268" lon="-0.156127">
        <ele>82.0</ele>
        <time>2014-07-06T10:21:47Z</time>
      </trkpt>
      <trkpt lat="51.425082" lon="-0.156416">
        <ele>82.0</ele>
        <time>2014-07-06T10:21:51Z</time>
      </trkpt>
      <trkpt lat="51.424846" lon="-0.156807">
        <ele>78.0</ele>
        <time>2014-07-06T10:21:56Z</time>
      </trkpt>
      <trkpt lat="51.424633" lon="-0.157095">
        <ele>77.0</ele>
        <time>2014-07-06T10:22:00Z</time>
      </trkpt>
      <trkpt lat="51.42436" lon="-0.157532">
        <ele>74.0</ele>
        <time>2014-07-06T10:22:05Z</time>
      </trkpt>
      <trkpt lat="51.424146" lon="-0.157892">
        <ele>71.0</ele>
        <time>2014-07-06T10:22:09Z</time>
      </trkpt>
      <trkpt lat="51.423907" lon="-0.158312">
        <ele>72.0</ele>
        <time>2014-07-06T10:22:14Z</time>
      </trkpt>
      <trkpt lat="51.423712" lon="-0.158584">
        <ele>70.0</ele>
        <time>2014-07-06T10:22:18Z</time>
      </trkpt>
      <trkpt lat="51.423523" lon="-0.158856">
        <ele>73.0</ele>
        <time>2014-07-06T10:22:22Z</time>
      </trkpt>
      <trkpt lat="51.423311" lon="-0.159106">
        <ele>71.0</ele>
        <time>2014-07-06T10:22:26Z</time>
      </trkpt>
      <trkpt lat="51.42322" lon="-0.159356">
        <ele>75.0</ele>
        <time>2014-07-06T10:22:31Z</time>
      </trkpt>
      <trkpt lat="51.423138" lon="-0.159381">
        <ele>79.0</ele>
        <time>2014-07-06T10:23:32Z</time>
      </trkpt>
      <trkpt lat="51.42307" lon="-0.159498">
        <ele>79.0</ele>
        <time>2014-07-06T10:23:36Z</time>
      </trkpt>
      <trkpt lat="51.42296" lon="-0.159658">
        <ele>79.0</ele>
        <time>2014-07-06T10:23:40Z</time>
      </trkpt>
      <trkpt lat="51.422958" lon="-0.15989">
        <ele>76.0</ele>
        <time>2014-07-06T10:23:44Z</time>
      </trkpt>
      <trkpt lat="51.423043" lon="-0.160065">
        <ele>77.0</ele>
        <time>2014-07-06T10:23:49Z</time>
      </trkpt>
      <trkpt lat="51.422992" lon="-0.160111">
        <ele>72.0</ele>
        <time>2014-07-06T10:24:25Z</time>
      </trkpt>
      <trkpt lat="51.422921" lon="-0.160246">
        <ele>70.0</ele>
        <time>2014-07-06T10:24:31Z</time>
      </trkpt>
      <trkpt lat="51.422637" lon="-0.160256">
        <ele>68.0</ele>
        <time>2014-07-06T10:24:36Z</time>
      </trkpt>
      <trkpt lat="51.422402" lon="-0.160261">
        <ele>66.0</ele>
        <time>2014-07-06T10:24:40Z</time>
      </trkpt>
      <trkpt lat="51.422178" lon="-0.160288">
        <ele>68.0</ele>
        <time>2014-07-06T10:24:44Z</time>
      </trkpt>
      <trkpt lat="51.421947" lon="-0.160282">
        <ele>67.0</ele>
        <time>2014-07-06T10:24:48Z</time>
      </trkpt>
      <trkpt lat="51.421731" lon="-0.160391">
        <ele>68.0</ele>
        <time>2014-07-06T10:24:52Z</time>
      </trkpt>
      <trkpt lat="51.421456" lon="-0.160624">
        <ele>69.0</ele>
        <time>2014-07-06T10:24:57Z</time>
      </trkpt>
      <trkpt lat="51.421207" lon="-0.160813">
        <ele>71.0</ele>
        <time>2014-07-06T10:25:01Z</time>
      </trkpt>
      <trkpt lat="51.420856" lon="-0.161062">
        <ele>71.0</ele>
        <time>2014-07-06T10:25:06Z</time>
      </trkpt>
      <trkpt lat="51.420579" lon="-0.161215">
        <ele>73.0</ele>
        <time>2014-07-06T10:25:10Z</time>
      </trkpt>
      <trkpt lat="51.420341" lon="-0.161344">
        <ele>73.0</ele>
        <time>2014-07-06T10:25:14Z</time>
      </trkpt>
      <trkpt lat="51.420078" lon="-0.161484">
        <ele>74.0</ele>
        <time>2014-07-06T10:25:19Z</time>
      </trkpt>
      <trkpt lat="51.419899" lon="-0.161568">
        <ele>73.0</ele>
        <time>2014-07-06T10:25:23Z</time>
      </trkpt>
      <trkpt lat="51.419741" lon="-0.16164">
        <ele>72.0</ele>
        <time>2014-07-06T10:25:27Z</time>
      </trkpt>
      <trkpt lat="51.419523" lon="-0.161751">
        <ele>71.0</ele>
        <time>2014-07-06T10:25:32Z</time>
      </trkpt>
      <trkpt lat="51.419238" lon="-0.161892">
        <ele>70.0</ele>
        <time>2014-07-06T10:25:37Z</time>
      </trkpt>
      <trkpt lat="51.418986" lon="-0.161989">
        <ele>71.0</ele>
        <time>2014-07-06T10:25:41Z</time>
      </trkpt>
      <trkpt lat="51.418657" lon="-0.162021">
        <ele>73.0</ele>
        <time>2014-07-06T10:25:46Z</time>
      </trkpt>
      <trkpt lat="51.418437" lon="-0.162036">
        <ele>75.0</ele>
        <time>2014-07-06T10:25:50Z</time>
      </trkpt>
      <trkpt lat="51.418209" lon="-0.162016">
        <ele>75.0</ele>
        <time>2014-07-06T10:25:54Z</time>
      </trkpt>
      <trkpt lat="51.41793" lon="-0.161961">
        <ele>74.0</ele>
        <time>2014-07-06T10:25:59Z</time>
      </trkpt>
      <trkpt lat="51.417702" lon="-0.161934">
        <ele>74.0</ele>
        <time>2014-07-06T10:26:03Z</time>
      </trkpt>
      <trkpt lat="51.417453" lon="-0.16191">
        <ele>76.0</ele>
        <time>2014-07-06T10:26:07Z</time>
      </trkpt>
      <trkpt lat="51.417241" lon="-0.161892">
        <ele>74.0</ele>
        <time>2014-07-06T10:26:11Z</time>
      </trkpt>
      <trkpt lat="51.416958" lon="-0.161892">
        <ele>75.0</ele>
        <time>2014-07-06T10:26:16Z</time>
      </trkpt>
      <trkpt lat="51.416648" lon="-0.16186">
        <ele>73.0</ele>
        <time>2014-07-06T10:26:21Z</time>
      </trkpt>
      <trkpt lat="51.416394" lon="-0.161829">
        <ele>71.0</ele>
        <time>2014-07-06T10:26:25Z</time>
      </trkpt>
      <trkpt lat="51.416087" lon="-0.161784">
        <ele>72.0</ele>
        <time>2014-07-06T10:26:30Z</time>
      </trkpt>
      <trkpt lat="51.415862" lon="-0.161749">
        <ele>73.0</ele>
        <time>2014-07-06T10:26:34Z</time>
      </trkpt>
      <trkpt lat="51.415625" lon="-0.16172">
        <ele>74.0</ele>
        <time>2014-07-06T10:26:38Z</time>
      </trkpt>
      <trkpt lat="51.415369" lon="-0.1617">
        <ele>72.0</ele>
        <time>2014-07-06T10:26:43Z</time>
      </trkpt>
      <trkpt lat="51.415145" lon="-0.16166">
        <ele>70.0</ele>
        <time>2014-07-06T10:26:47Z</time>
      </trkpt>
      <trkpt lat="51.414931" lon="-0.161605">
        <ele>69.0</ele>
        <time>2014-07-06T10:26:51Z</time>
      </trkpt>
      <trkpt lat="51.414645" lon="-0.161638">
        <ele>69.0</ele>
        <time>2014-07-06T10:26:56Z</time>
      </trkpt>
      <trkpt lat="51.414375" lon="-0.161603">
        <ele>68.0</ele>
        <time>2014-07-06T10:27:01Z</time>
      </trkpt>
      <trkpt lat="51.414169" lon="-0.161562">
        <ele>69.0</ele>
        <time>2014-07-06T10:27:05Z</time>
      </trkpt>
      <trkpt lat="51.413905" lon="-0.161569">
        <ele>68.0</ele>
        <time>2014-07-06T10:27:10Z</time>
      </trkpt>
      <trkpt lat="51.413689" lon="-0.161557">
        <ele>67.0</ele>
        <time>2014-07-06T10:27:14Z</time>
      </trkpt>
      <trkpt lat="51.413473" lon="-0.161543">
        <ele>65.0</ele>
        <time>2014-07-06T10:27:18Z</time>
      </trkpt>
      <trkpt lat="51.413286" lon="-0.161518">
        <ele>65.0</ele>
        <time>2014-07-06T10:27:22Z</time>
      </trkpt>
      <trkpt lat="51.41302" lon="-0.161525">
        <ele>66.0</ele>
        <time>2014-07-06T10:27:27Z</time>
      </trkpt>
      <trkpt lat="51.412819" lon="-0.161544">
        <ele>71.0</ele>
        <time>2014-07-06T10:27:31Z</time>
      </trkpt>
      <trkpt lat="51.412624" lon="-0.161548">
        <ele>76.0</ele>
        <time>2014-07-06T10:27:35Z</time>
      </trkpt>
      <trkpt lat="51.412407" lon="-0.161526">
        <ele>77.0</ele>
        <time>2014-07-06T10:27:39Z</time>
      </trkpt>
      <trkpt lat="51.412205" lon="-0.161539">
        <ele>79.0</ele>
        <time>2014-07-06T10:27:43Z</time>
      </trkpt>
      <trkpt lat="51.411959" lon="-0.161493">
        <ele>78.0</ele>
        <time>2014-07-06T10:27:48Z</time>
      </trkpt>
      <trkpt lat="51.411746" lon="-0.16142">
        <ele>73.0</ele>
        <time>2014-07-06T10:27:53Z</time>
      </trkpt>
      <trkpt lat="51.411557" lon="-0.161433">
        <ele>73.0</ele>
        <time>2014-07-06T10:27:57Z</time>
      </trkpt>
      <trkpt lat="51.411345" lon="-0.161449">
        <ele>74.0</ele>
        <time>2014-07-06T10:28:01Z</time>
      </trkpt>
      <trkpt lat="51.411083" lon="-0.161486">
        <ele>74.0</ele>
        <time>2014-07-06T10:28:06Z</time>
      </trkpt>
      <trkpt lat="51.410908" lon="-0.161393">
        <ele>74.0</ele>
        <time>2014-07-06T10:28:10Z</time>
      </trkpt>
      <trkpt lat="51.410717" lon="-0.161216">
        <ele>75.0</ele>
        <time>2014-07-06T10:28:15Z</time>
      </trkpt>
      <trkpt lat="51.410528" lon="-0.161013">
        <ele>78.0</ele>
        <time>2014-07-06T10:28:20Z</time>
      </trkpt>
      <trkpt lat="51.410375" lon="-0.160806">
        <ele>77.0</ele>
        <time>2014-07-06T10:28:24Z</time>
      </trkpt>
      <trkpt lat="51.410192" lon="-0.160496">
        <ele>79.0</ele>
        <time>2014-07-06T10:28:29Z</time>
      </trkpt>
      <trkpt lat="51.409986" lon="-0.16021">
        <ele>78.0</ele>
        <time>2014-07-06T10:28:34Z</time>
      </trkpt>
      <trkpt lat="51.409799" lon="-0.159989">
        <ele>78.0</ele>
        <time>2014-07-06T10:28:38Z</time>
      </trkpt>
      <trkpt lat="51.409621" lon="-0.159739">
        <ele>76.0</ele>
        <time>2014-07-06T10:28:42Z</time>
      </trkpt>
      <trkpt lat="51.40946" lon="-0.159522">
        <ele>76.0</ele>
        <time>2014-07-06T10:28:46Z</time>
      </trkpt>
      <trkpt lat="51.409238" lon="-0.159236">
        <ele>75.0</ele>
        <time>2014-07-06T10:28:51Z</time>
      </trkpt>
      <trkpt lat="51.409067" lon="-0.158996">
        <ele>70.0</ele>
        <time>2014-07-06T10:28:55Z</time>
      </trkpt>
      <trkpt lat="51.408921" lon="-0.158756">
        <ele>70.0</ele>
        <time>2014-07-06T10:28:59Z</time>
      </trkpt>
      <trkpt lat="51.408769" lon="-0.158454">
        <ele>75.0</ele>
        <time>2014-07-06T10:29:04Z</time>
      </trkpt>
      <trkpt lat="51.408646" lon="-0.158298">
        <ele>72.0</ele>
        <time>2014-07-06T10:29:09Z</time>
      </trkpt>
      <trkpt lat="51.408482" lon="-0.158364">
        <ele>71.0</ele>
        <time>2014-07-06T10:29:13Z</time>
      </trkpt>
      <trkpt lat="51.408306" lon="-0.158449">
        <ele>73.0</ele>
        <time>2014-07-06T10:29:17Z</time>
      </trkpt>
      <trkpt lat="51.408083" lon="-0.158603">
        <ele>74.0</ele>
        <time>2014-07-06T10:29:22Z</time>
      </trkpt>
      <trkpt lat="51.40791" lon="-0.158724">
        <ele>72.0</ele>
        <time>2014-07-06T10:29:26Z</time>
      </trkpt>
      <trkpt lat="51.407676" lon="-0.158859">
        <ele>69.0</ele>
        <time>2014-07-06T10:29:31Z</time>
      </trkpt>
      <trkpt lat="51.407499" lon="-0.158966">
        <ele>71.0</ele>
        <time>2014-07-06T10:29:35Z</time>
      </trkpt>
      <trkpt lat="51.407309" lon="-0.159031">
        <ele>69.0</ele>
        <time>2014-07-06T10:29:39Z</time>
      </trkpt>
      <trkpt lat="51.407125" lon="-0.159091">
        <ele>71.0</ele>
        <time>2014-07-06T10:29:43Z</time>
      </trkpt>
      <trkpt lat="51.406955" lon="-0.159109">
        <ele>70.0</ele>
        <time>2014-07-06T10:29:47Z</time>
      </trkpt>
      <trkpt lat="51.406804" lon="-0.159095">
        <ele>71.0</ele>
        <time>2014-07-06T10:29:51Z</time>
      </trkpt>
      <trkpt lat="51.406646" lon="-0.159116">
        <ele>72.0</ele>
        <time>2014-07-06T10:29:56Z</time>
      </trkpt>
      <trkpt lat="51.406595" lon="-0.159281">
        <ele>72.0</ele>
        <time>2014-07-06T10:30:00Z</time>
      </trkpt>
      <trkpt lat="51.406576" lon="-0.159551">
        <ele>71.0</ele>
        <time>2014-07-06T10:30:04Z</time>
      </trkpt>
      <trkpt lat="51.406562" lon="-0.159893">
        <ele>71.0</ele>
        <time>2014-07-06T10:30:09Z</time>
      </trkpt>
      <trkpt lat="51.406525" lon="-0.160095">
        <ele>73.0</ele>
        <time>2014-07-06T10:30:13Z</time>
      </trkpt>
      <trkpt lat="51.40651" lon="-0.160413">
        <ele>73.0</ele>
        <time>2014-07-06T10:30:18Z</time>
      </trkpt>
      <trkpt lat="51.406486" lon="-0.160749">
        <ele>72.0</ele>
        <time>2014-07-06T10:30:23Z</time>
      </trkpt>
      <trkpt lat="51.406468" lon="-0.161001">
        <ele>73.0</ele>
        <time>2014-07-06T10:30:27Z</time>
      </trkpt>
      <trkpt lat="51.406454" lon="-0.161237">
        <ele>73.0</ele>
        <time>2014-07-06T10:30:31Z</time>
      </trkpt>
      <trkpt lat="51.406443" lon="-0.161446">
        <ele>72.0</ele>
        <time>2014-07-06T10:30:36Z</time>
      </trkpt>
      <trkpt lat="51.40645" lon="-0.161573">
        <ele>72.0</ele>
        <time>2014-07-06T10:31:24Z</time>
      </trkpt>
      <trkpt lat="51.406447" lon="-0.161817">
        <ele>75.0</ele>
        <time>2014-07-06T10:31:28Z</time>
      </trkpt>
      <trkpt lat="51.406453" lon="-0.162085">
        <ele>74.0</ele>
        <time>2014-07-06T10:31:32Z</time>
      </trkpt>
      <trkpt lat="51.406484" lon="-0.162294">
        <ele>73.0</ele>
        <time>2014-07-06T10:31:36Z</time>
      </trkpt>
      <trkpt lat="51.406585" lon="-0.162366">
        <ele>74.0</ele>
        <time>2014-07-06T10:31:40Z</time>
      </trkpt>
      <trkpt lat="51.406774" lon="-0.162377">
        <ele>74.0</ele>
        <time>2014-07-06T10:31:45Z</time>
      </trkpt>
      <trkpt lat="51.406928" lon="-0.162374">
        <ele>73.0</ele>
        <time>2014-07-06T10:31:49Z</time>
      </trkpt>
      <trkpt lat="51.407097" lon="-0.162598">
        <ele>73.0</ele>
        <time>2014-07-06T10:31:54Z</time>
      </trkpt>
      <trkpt lat="51.407156" lon="-0.162904">
        <ele>73.0</ele>
        <time>2014-07-06T10:31:58Z</time>
      </trkpt>
      <trkpt lat="51.407206" lon="-0.163234">
        <ele>78.0</ele>
        <time>2014-07-06T10:32:03Z</time>
      </trkpt>
      <trkpt lat="51.407174" lon="-0.163498">
        <ele>70.0</ele>
        <time>2014-07-06T10:32:08Z</time>
      </trkpt>
      <trkpt lat="51.407173" lon="-0.163624">
        <ele>70.0</ele>
        <time>2014-07-06T10:32:17Z</time>
      </trkpt>
      <trkpt lat="51.407164" lon="-0.163861">
        <ele>70.0</ele>
        <time>2014-07-06T10:32:21Z</time>
      </trkpt>
      <trkpt lat="51.407103" lon="-0.164255">
        <ele>68.0</ele>
        <time>2014-07-06T10:32:25Z</time>
      </trkpt>
      <trkpt lat="51.407012" lon="-0.164592">
        <ele>68.0</ele>
        <time>2014-07-06T10:32:29Z</time>
      </trkpt>
      <trkpt lat="51.406886" lon="-0.164903">
        <ele>67.0</ele>
        <time>2014-07-06T10:32:33Z</time>
      </trkpt>
      <trkpt lat="51.406684" lon="-0.165165">
        <ele>65.0</ele>
        <time>2014-07-06T10:32:37Z</time>
      </trkpt>
      <trkpt lat="51.406517" lon="-0.165309">
        <ele>65.0</ele>
        <time>2014-07-06T10:32:41Z</time>
      </trkpt>
      <trkpt lat="51.406394" lon="-0.165373">
        <ele>65.0</ele>
        <time>2014-07-06T10:32:45Z</time>
      </trkpt>
      <trkpt lat="51.406311" lon="-0.165353">
        <ele>67.0</ele>
        <time>2014-07-06T10:32:50Z</time>
      </trkpt>
      <trkpt lat="51.406234" lon="-0.165336">
        <ele>69.0</ele>
        <time>2014-07-06T10:32:56Z</time>
      </trkpt>
      <trkpt lat="51.406137" lon="-0.165285">
        <ele>71.0</ele>
        <time>2014-07-06T10:33:00Z</time>
      </trkpt>
      <trkpt lat="51.405946" lon="-0.165114">
        <ele>78.0</ele>
        <time>2014-07-06T10:33:05Z</time>
      </trkpt>
      <trkpt lat="51.40577" lon="-0.164837">
        <ele>78.0</ele>
        <time>2014-07-06T10:33:09Z</time>
      </trkpt>
      <trkpt lat="51.4056" lon="-0.164459">
        <ele>77.0</ele>
        <time>2014-07-06T10:33:14Z</time>
      </trkpt>
      <trkpt lat="51.405454" lon="-0.164118">
        <ele>79.0</ele>
        <time>2014-07-06T10:33:19Z</time>
      </trkpt>
      <trkpt lat="51.405288" lon="-0.163802">
        <ele>84.0</ele>
        <time>2014-07-06T10:33:24Z</time>
      </trkpt>
      <trkpt lat="51.405176" lon="-0.163506">
        <ele>83.0</ele>
        <time>2014-07-06T10:33:28Z</time>
      </trkpt>
      <trkpt lat="51.405032" lon="-0.163144">
        <ele>80.0</ele>
        <time>2014-07-06T10:33:33Z</time>
      </trkpt>
      <trkpt lat="51.404848" lon="-0.162821">
        <ele>79.0</ele>
        <time>2014-07-06T10:33:38Z</time>
      </trkpt>
      <trkpt lat="51.404682" lon="-0.16255">
        <ele>76.0</ele>
        <time>2014-07-06T10:33:42Z</time>
      </trkpt>
      <trkpt lat="51.40444" lon="-0.162284">
        <ele>80.0</ele>
        <time>2014-07-06T10:33:47Z</time>
      </trkpt>
      <trkpt lat="51.40425" lon="-0.162104">
        <ele>81.0</ele>
        <time>2014-07-06T10:33:51Z</time>
      </trkpt>
      <trkpt lat="51.404064" lon="-0.161913">
        <ele>81.0</ele>
        <time>2014-07-06T10:33:55Z</time>
      </trkpt>
      <trkpt lat="51.403931" lon="-0.161746">
        <ele>76.0</ele>
        <time>2014-07-06T10:33:59Z</time>
      </trkpt>
      <trkpt lat="51.403841" lon="-0.161677">
        <ele>76.0</ele>
        <time>2014-07-06T10:34:03Z</time>
      </trkpt>
      <trkpt lat="51.403768" lon="-0.161597">
        <ele>72.0</ele>
        <time>2014-07-06T10:34:47Z</time>
      </trkpt>
      <trkpt lat="51.403699" lon="-0.161572">
        <ele>72.0</ele>
        <time>2014-07-06T10:35:02Z</time>
      </trkpt>
      <trkpt lat="51.40362" lon="-0.161529">
        <ele>71.0</ele>
        <time>2014-07-06T10:35:06Z</time>
      </trkpt>
      <trkpt lat="51.403522" lon="-0.161418">
        <ele>70.0</ele>
        <time>2014-07-06T10:35:11Z</time>
      </trkpt>
      <trkpt lat="51.403376" lon="-0.161236">
        <ele>73.0</ele>
        <time>2014-07-06T10:35:16Z</time>
      </trkpt>
      <trkpt lat="51.403182" lon="-0.161247">
        <ele>73.0</ele>
        <time>2014-07-06T10:35:20Z</time>
      </trkpt>
      <trkpt lat="51.402966" lon="-0.161252">
        <ele>72.0</ele>
        <time>2014-07-06T10:35:25Z</time>
      </trkpt>
      <trkpt lat="51.402805" lon="-0.16112">
        <ele>72.0</ele>
        <time>2014-07-06T10:35:29Z</time>
      </trkpt>
      <trkpt lat="51.402587" lon="-0.161012">
        <ele>73.0</ele>
        <time>2014-07-06T10:35:34Z</time>
      </trkpt>
      <trkpt lat="51.402373" lon="-0.160921">
        <ele>73.0</ele>
        <time>2014-07-06T10:35:39Z</time>
      </trkpt>
      <trkpt lat="51.402193" lon="-0.160823">
        <ele>73.0</ele>
        <time>2014-07-06T10:35:43Z</time>
      </trkpt>
      <trkpt lat="51.40198" lon="-0.160714">
        <ele>73.0</ele>
        <time>2014-07-06T10:35:48Z</time>
      </trkpt>
      <trkpt lat="51.401744" lon="-0.160641">
        <ele>74.0</ele>
        <time>2014-07-06T10:35:53Z</time>
      </trkpt>
      <trkpt lat="51.401557" lon="-0.16057">
        <ele>75.0</ele>
        <time>2014-07-06T10:35:57Z</time>
      </trkpt>
      <trkpt lat="51.401353" lon="-0.160512">
        <ele>74.0</ele>
        <time>2014-07-06T10:36:01Z</time>
      </trkpt>
      <trkpt lat="51.401128" lon="-0.160432">
        <ele>76.0</ele>
        <time>2014-07-06T10:36:06Z</time>
      </trkpt>
      <trkpt lat="51.40089" lon="-0.160292">
        <ele>76.0</ele>
        <time>2014-07-06T10:36:11Z</time>
      </trkpt>
      <trkpt lat="51.40068" lon="-0.160171">
        <ele>74.0</ele>
        <time>2014-07-06T10:36:15Z</time>
      </trkpt>
      <trkpt lat="51.400464" lon="-0.160093">
        <ele>75.0</ele>
        <time>2014-07-06T10:36:20Z</time>
      </trkpt>
      <trkpt lat="51.400307" lon="-0.160025">
        <ele>75.0</ele>
        <time>2014-07-06T10:36:24Z</time>
      </trkpt>
      <trkpt lat="51.40016" lon="-0.159949">
        <ele>76.0</ele>
        <time>2014-07-06T10:36:28Z</time>
      </trkpt>
      <trkpt lat="51.399954" lon="-0.159853">
        <ele>79.0</ele>
        <time>2014-07-06T10:36:32Z</time>
      </trkpt>
      <trkpt lat="51.399772" lon="-0.159727">
        <ele>80.0</ele>
        <time>2014-07-06T10:36:36Z</time>
      </trkpt>
      <trkpt lat="51.399602" lon="-0.159593">
        <ele>81.0</ele>
        <time>2014-07-06T10:36:40Z</time>
      </trkpt>
      <trkpt lat="51.3994" lon="-0.159447">
        <ele>81.0</ele>
        <time>2014-07-06T10:36:45Z</time>
      </trkpt>
      <trkpt lat="51.399265" lon="-0.15936">
        <ele>81.0</ele>
        <time>2014-07-06T10:36:49Z</time>
      </trkpt>
      <trkpt lat="51.399066" lon="-0.159241">
        <ele>81.0</ele>
        <time>2014-07-06T10:36:54Z</time>
      </trkpt>
      <trkpt lat="51.398893" lon="-0.159142">
        <ele>81.0</ele>
        <time>2014-07-06T10:36:58Z</time>
      </trkpt>
      <trkpt lat="51.398642" lon="-0.158982">
        <ele>80.0</ele>
        <time>2014-07-06T10:37:03Z</time>
      </trkpt>
      <trkpt lat="51.398518" lon="-0.158835">
        <ele>78.0</ele>
        <time>2014-07-06T10:37:07Z</time>
      </trkpt>
      <trkpt lat="51.398409" lon="-0.158625">
        <ele>79.0</ele>
        <time>2014-07-06T10:37:11Z</time>
      </trkpt>
      <trkpt lat="51.39818" lon="-0.158624">
        <ele>78.0</ele>
        <time>2014-07-06T10:37:16Z</time>
      </trkpt>
      <trkpt lat="51.398034" lon="-0.158738">
        <ele>75.0</ele>
        <time>2014-07-06T10:37:20Z</time>
      </trkpt>
      <trkpt lat="51.397859" lon="-0.158726">
        <ele>76.0</ele>
        <time>2014-07-06T10:37:25Z</time>
      </trkpt>
      <trkpt lat="51.397643" lon="-0.158711">
        <ele>74.0</ele>
        <time>2014-07-06T10:37:29Z</time>
      </trkpt>
      <trkpt lat="51.39732" lon="-0.158725">
        <ele>74.0</ele>
        <time>2014-07-06T10:37:34Z</time>
      </trkpt>
      <trkpt lat="51.397041" lon="-0.158744">
        <ele>75.0</ele>
        <time>2014-07-06T10:37:38Z</time>
      </trkpt>
      <trkpt lat="51.396698" lon="-0.158719">
        <ele>73.0</ele>
        <time>2014-07-06T10:37:43Z</time>
      </trkpt>
      <trkpt lat="51.396444" lon="-0.158733">
        <ele>73.0</ele>
        <time>2014-07-06T10:37:47Z</time>
      </trkpt>
      <trkpt lat="51.396103" lon="-0.158741">
        <ele>73.0</ele>
        <time>2014-07-06T10:37:52Z</time>
      </trkpt>
      <trkpt lat="51.395807" lon="-0.158797">
        <ele>73.0</ele>
        <time>2014-07-06T10:37:57Z</time>
      </trkpt>
      <trkpt lat="51.395711" lon="-0.158821">
        <ele>74.0</ele>
        <time>2014-07-06T10:38:01Z</time>
      </trkpt>
      <trkpt lat="51.395643" lon="-0.158882">
        <ele>78.0</ele>
        <time>2014-07-06T10:38:15Z</time>
      </trkpt>
      <trkpt lat="51.395453" lon="-0.158898">
        <ele>79.0</ele>
        <time>2014-07-06T10:38:20Z</time>
      </trkpt>
      <trkpt lat="51.395229" lon="-0.158854">
        <ele>77.0</ele>
        <time>2014-07-06T10:38:24Z</time>
      </trkpt>
      <trkpt lat="51.394998" lon="-0.158842">
        <ele>78.0</ele>
        <time>2014-07-06T10:38:28Z</time>
      </trkpt>
      <trkpt lat="51.394711" lon="-0.158777">
        <ele>73.0</ele>
        <time>2014-07-06T10:38:33Z</time>
      </trkpt>
      <trkpt lat="51.394452" lon="-0.15878">
        <ele>75.0</ele>
        <time>2014-07-06T10:38:37Z</time>
      </trkpt>
      <trkpt lat="51.394202" lon="-0.158725">
        <ele>69.0</ele>
        <time>2014-07-06T10:38:41Z</time>
      </trkpt>
      <trkpt lat="51.39393" lon="-0.158734">
        <ele>69.0</ele>
        <time>2014-07-06T10:38:45Z</time>
      </trkpt>
      <trkpt lat="51.393686" lon="-0.158797">
        <ele>75.0</ele>
        <time>2014-07-06T10:38:49Z</time>
      </trkpt>
      <trkpt lat="51.393418" lon="-0.158805">
        <ele>78.0</ele>
        <time>2014-07-06T10:38:54Z</time>
      </trkpt>
      <trkpt lat="51.393169" lon="-0.158798">
        <ele>79.0</ele>
        <time>2014-07-06T10:38:59Z</time>
      </trkpt>
      <trkpt lat="51.39287" lon="-0.158783">
        <ele>78.0</ele>
        <time>2014-07-06T10:39:04Z</time>
      </trkpt>
      <trkpt lat="51.3926" lon="-0.158761">
        <ele>76.0</ele>
        <time>2014-07-06T10:39:08Z</time>
      </trkpt>
      <trkpt lat="51.392229" lon="-0.158737">
        <ele>77.0</ele>
        <time>2014-07-06T10:39:13Z</time>
      </trkpt>
      <trkpt lat="51.391825" lon="-0.158699">
        <ele>77.0</ele>
        <time>2014-07-06T10:39:18Z</time>
      </trkpt>
      <trkpt lat="51.391535" lon="-0.158666">
        <ele>76.0</ele>
        <time>2014-07-06T10:39:22Z</time>
      </trkpt>
      <trkpt lat="51.391226" lon="-0.158652">
        <ele>77.0</ele>
        <time>2014-07-06T10:39:26Z</time>
      </trkpt>
      <trkpt lat="51.390919" lon="-0.158595">
        <ele>75.0</ele>
        <time>2014-07-06T10:39:30Z</time>
      </trkpt>
      <trkpt lat="51.390543" lon="-0.158541">
        <ele>75.0</ele>
        <time>2014-07-06T10:39:35Z</time>
      </trkpt>
      <trkpt lat="51.390243" lon="-0.158501">
        <ele>75.0</ele>
        <time>2014-07-06T10:39:39Z</time>
      </trkpt>
      <trkpt lat="51.389899" lon="-0.158444">
        <ele>74.0</ele>
        <time>2014-07-06T10:39:44Z</time>
      </trkpt>
      <trkpt lat="51.389631" lon="-0.158405">
        <ele>73.0</ele>
        <time>2014-07-06T10:39:48Z</time>
      </trkpt>
      <trkpt lat="51.3893" lon="-0.158368">
        <ele>73.0</ele>
        <time>2014-07-06T10:39:53Z</time>
      </trkpt>
      <trkpt lat="51.38908" lon="-0.158356">
        <ele>73.0</ele>
        <time>2014-07-06T10:39:57Z</time>
      </trkpt>
      <trkpt lat="51.388796" lon="-0.15832">
        <ele>75.0</ele>
        <time>2014-07-06T10:40:02Z</time>
      </trkpt>
      <trkpt lat="51.388549" lon="-0.158292">
        <ele>76.0</ele>
        <time>2014-07-06T10:40:06Z</time>
      </trkpt>
      <trkpt lat="51.388298" lon="-0.158231">
        <ele>75.0</ele>
        <time>2014-07-06T10:40:10Z</time>
      </trkpt>
      <trkpt lat="51.387982" lon="-0.158151">
        <ele>75.0</ele>
        <time>2014-07-06T10:40:15Z</time>
      </trkpt>
      <trkpt lat="51.387717" lon="-0.158143">
        <ele>76.0</ele>
        <time>2014-07-06T10:40:19Z</time>
      </trkpt>
      <trkpt lat="51.387451" lon="-0.158136">
        <ele>77.0</ele>
        <time>2014-07-06T10:40:23Z</time>
      </trkpt>
      <trkpt lat="51.387138" lon="-0.158125">
        <ele>76.0</ele>
        <time>2014-07-06T10:40:28Z</time>
      </trkpt>
      <trkpt lat="51.386814" lon="-0.15805">
        <ele>76.0</ele>
        <time>2014-07-06T10:40:33Z</time>
      </trkpt>
      <trkpt lat="51.386583" lon="-0.157974">
        <ele>74.0</ele>
        <time>2014-07-06T10:40:37Z</time>
      </trkpt>
      <trkpt lat="51.386321" lon="-0.15789">
        <ele>74.0</ele>
        <time>2014-07-06T10:40:41Z</time>
      </trkpt>
      <trkpt lat="51.386082" lon="-0.157789">
        <ele>75.0</ele>
        <time>2014-07-06T10:40:45Z</time>
      </trkpt>
      <trkpt lat="51.38578" lon="-0.157711">
        <ele>77.0</ele>
        <time>2014-07-06T10:40:50Z</time>
      </trkpt>
      <trkpt lat="51.385501" lon="-0.157725">
        <ele>88.0</ele>
        <time>2014-07-06T10:40:55Z</time>
      </trkpt>
      <trkpt lat="51.385419" lon="-0.157775">
        <ele>88.0</ele>
        <time>2014-07-06T10:40:59Z</time>
      </trkpt>
      <trkpt lat="51.385246" lon="-0.157758">
        <ele>89.0</ele>
        <time>2014-07-06T10:41:03Z</time>
      </trkpt>
      <trkpt lat="51.385094" lon="-0.157741">
        <ele>89.0</ele>
        <time>2014-07-06T10:41:07Z</time>
      </trkpt>
      <trkpt lat="51.384911" lon="-0.157715">
        <ele>91.0</ele>
        <time>2014-07-06T10:41:11Z</time>
      </trkpt>
      <trkpt lat="51.384686" lon="-0.157664">
        <ele>92.0</ele>
        <time>2014-07-06T10:41:16Z</time>
      </trkpt>
      <trkpt lat="51.384434" lon="-0.157621">
        <ele>92.0</ele>
        <time>2014-07-06T10:41:21Z</time>
      </trkpt>
      <trkpt lat="51.384222" lon="-0.157581">
        <ele>91.0</ele>
        <time>2014-07-06T10:41:25Z</time>
      </trkpt>
      <trkpt lat="51.383934" lon="-0.157525">
        <ele>88.0</ele>
        <time>2014-07-06T10:41:30Z</time>
      </trkpt>
      <trkpt lat="51.383653" lon="-0.157482">
        <ele>87.0</ele>
        <time>2014-07-06T10:41:35Z</time>
      </trkpt>
      <trkpt lat="51.38342" lon="-0.157426">
        <ele>87.0</ele>
        <time>2014-07-06T10:41:39Z</time>
      </trkpt>
      <trkpt lat="51.383153" lon="-0.157362">
        <ele>84.0</ele>
        <time>2014-07-06T10:41:43Z</time>
      </trkpt>
      <trkpt lat="51.382923" lon="-0.157342">
        <ele>89.0</ele>
        <time>2014-07-06T10:41:47Z</time>
      </trkpt>
      <trkpt lat="51.382718" lon="-0.157245">
        <ele>89.0</ele>
        <time>2014-07-06T10:41:51Z</time>
      </trkpt>
      <trkpt lat="51.38248" lon="-0.157112">
        <ele>86.0</ele>
        <time>2014-07-06T10:41:56Z</time>
      </trkpt>
      <trkpt lat="51.382294" lon="-0.157007">
        <ele>86.0</ele>
        <time>2014-07-06T10:42:00Z</time>
      </trkpt>
      <trkpt lat="51.382046" lon="-0.156892">
        <ele>87.0</ele>
        <time>2014-07-06T10:42:05Z</time>
      </trkpt>
      <trkpt lat="51.381827" lon="-0.156761">
        <ele>86.0</ele>
        <time>2014-07-06T10:42:09Z</time>
      </trkpt>
      <trkpt lat="51.381608" lon="-0.156585">
        <ele>87.0</ele>
        <time>2014-07-06T10:42:13Z</time>
      </trkpt>
      <trkpt lat="51.381416" lon="-0.156385">
        <ele>87.0</ele>
        <time>2014-07-06T10:42:17Z</time>
      </trkpt>
      <trkpt lat="51.381197" lon="-0.156171">
        <ele>88.0</ele>
        <time>2014-07-06T10:42:21Z</time>
      </trkpt>
      <trkpt lat="51.380947" lon="-0.155951">
        <ele>90.0</ele>
        <time>2014-07-06T10:42:26Z</time>
      </trkpt>
      <trkpt lat="51.380656" lon="-0.155698">
        <ele>86.0</ele>
        <time>2014-07-06T10:42:31Z</time>
      </trkpt>
      <trkpt lat="51.380423" lon="-0.155482">
        <ele>85.0</ele>
        <time>2014-07-06T10:42:36Z</time>
      </trkpt>
      <trkpt lat="51.380172" lon="-0.155419">
        <ele>82.0</ele>
        <time>2014-07-06T10:42:41Z</time>
      </trkpt>
      <trkpt lat="51.379984" lon="-0.155441">
        <ele>81.0</ele>
        <time>2014-07-06T10:42:45Z</time>
      </trkpt>
      <trkpt lat="51.379855" lon="-0.155511">
        <ele>82.0</ele>
        <time>2014-07-06T10:42:49Z</time>
      </trkpt>
      <trkpt lat="51.379681" lon="-0.155585">
        <ele>84.0</ele>
        <time>2014-07-06T10:42:54Z</time>
      </trkpt>
      <trkpt lat="51.379476" lon="-0.155641">
        <ele>89.0</ele>
        <time>2014-07-06T10:42:58Z</time>
      </trkpt>
      <trkpt lat="51.379271" lon="-0.155515">
        <ele>89.0</ele>
        <time>2014-07-06T10:43:02Z</time>
      </trkpt>
      <trkpt lat="51.379007" lon="-0.155392">
        <ele>90.0</ele>
        <time>2014-07-06T10:43:07Z</time>
      </trkpt>
      <trkpt lat="51.37867" lon="-0.155184">
        <ele>87.0</ele>
        <time>2014-07-06T10:43:12Z</time>
      </trkpt>
      <trkpt lat="51.378433" lon="-0.15494">
        <ele>89.0</ele>
        <time>2014-07-06T10:43:16Z</time>
      </trkpt>
      <trkpt lat="51.378123" lon="-0.154652">
        <ele>86.0</ele>
        <time>2014-07-06T10:43:21Z</time>
      </trkpt>
      <trkpt lat="51.377956" lon="-0.154488">
        <ele>85.0</ele>
        <time>2014-07-06T10:43:25Z</time>
      </trkpt>
      <trkpt lat="51.377798" lon="-0.154325">
        <ele>86.0</ele>
        <time>2014-07-06T10:43:29Z</time>
      </trkpt>
      <trkpt lat="51.377614" lon="-0.154149">
        <ele>88.0</ele>
        <time>2014-07-06T10:43:34Z</time>
      </trkpt>
      <trkpt lat="51.377474" lon="-0.154079">
        <ele>89.0</ele>
        <time>2014-07-06T10:43:38Z</time>
      </trkpt>
      <trkpt lat="51.377352" lon="-0.153985">
        <ele>90.0</ele>
        <time>2014-07-06T10:43:42Z</time>
      </trkpt>
      <trkpt lat="51.37721" lon="-0.153883">
        <ele>90.0</ele>
        <time>2014-07-06T10:43:46Z</time>
      </trkpt>
      <trkpt lat="51.37701" lon="-0.153729">
        <ele>89.0</ele>
        <time>2014-07-06T10:43:50Z</time>
      </trkpt>
      <trkpt lat="51.376829" lon="-0.153534">
        <ele>85.0</ele>
        <time>2014-07-06T10:43:54Z</time>
      </trkpt>
      <trkpt lat="51.376552" lon="-0.1533">
        <ele>82.0</ele>
        <time>2014-07-06T10:43:58Z</time>
      </trkpt>
      <trkpt lat="51.376248" lon="-0.153066">
        <ele>81.0</ele>
        <time>2014-07-06T10:44:02Z</time>
      </trkpt>
      <trkpt lat="51.375881" lon="-0.152747">
        <ele>78.0</ele>
        <time>2014-07-06T10:44:07Z</time>
      </trkpt>
      <trkpt lat="51.375631" lon="-0.152541">
        <ele>79.0</ele>
        <time>2014-07-06T10:44:11Z</time>
      </trkpt>
      <trkpt lat="51.375388" lon="-0.15232">
        <ele>81.0</ele>
        <time>2014-07-06T10:44:16Z</time>
      </trkpt>
      <trkpt lat="51.375179" lon="-0.152154">
        <ele>80.0</ele>
        <time>2014-07-06T10:44:20Z</time>
      </trkpt>
      <trkpt lat="51.374965" lon="-0.152002">
        <ele>81.0</ele>
        <time>2014-07-06T10:44:24Z</time>
      </trkpt>
      <trkpt lat="51.374767" lon="-0.15181">
        <ele>81.0</ele>
        <time>2014-07-06T10:44:28Z</time>
      </trkpt>
      <trkpt lat="51.374573" lon="-0.151574">
        <ele>81.0</ele>
        <time>2014-07-06T10:44:32Z</time>
      </trkpt>
      <trkpt lat="51.374414" lon="-0.151298">
        <ele>80.0</ele>
        <time>2014-07-06T10:44:36Z</time>
      </trkpt>
      <trkpt lat="51.374201" lon="-0.151023">
        <ele>78.0</ele>
        <time>2014-07-06T10:44:41Z</time>
      </trkpt>
      <trkpt lat="51.37399" lon="-0.15087">
        <ele>79.0</ele>
        <time>2014-07-06T10:44:45Z</time>
      </trkpt>
      <trkpt lat="51.373774" lon="-0.150799">
        <ele>80.0</ele>
        <time>2014-07-06T10:44:49Z</time>
      </trkpt>
      <trkpt lat="51.373566" lon="-0.150753">
        <ele>82.0</ele>
        <time>2014-07-06T10:44:53Z</time>
      </trkpt>
      <trkpt lat="51.373263" lon="-0.15069">
        <ele>81.0</ele>
        <time>2014-07-06T10:44:58Z</time>
      </trkpt>
      <trkpt lat="51.373016" lon="-0.150728">
        <ele>82.0</ele>
        <time>2014-07-06T10:45:02Z</time>
      </trkpt>
      <trkpt lat="51.372808" lon="-0.150779">
        <ele>84.0</ele>
        <time>2014-07-06T10:45:06Z</time>
      </trkpt>
      <trkpt lat="51.372605" lon="-0.150899">
        <ele>83.0</ele>
        <time>2014-07-06T10:45:10Z</time>
      </trkpt>
      <trkpt lat="51.372402" lon="-0.151075">
        <ele>80.0</ele>
        <time>2014-07-06T10:45:14Z</time>
      </trkpt>
      <trkpt lat="51.372175" lon="-0.151382">
        <ele>78.0</ele>
        <time>2014-07-06T10:45:19Z</time>
      </trkpt>
      <trkpt lat="51.372009" lon="-0.151657">
        <ele>78.0</ele>
        <time>2014-07-06T10:45:23Z</time>
      </trkpt>
      <trkpt lat="51.371811" lon="-0.151865">
        <ele>76.0</ele>
        <time>2014-07-06T10:45:27Z</time>
      </trkpt>
      <trkpt lat="51.371585" lon="-0.152042">
        <ele>78.0</ele>
        <time>2014-07-06T10:45:31Z</time>
      </trkpt>
      <trkpt lat="51.371292" lon="-0.152187">
        <ele>77.0</ele>
        <time>2014-07-06T10:45:36Z</time>
      </trkpt>
      <trkpt lat="51.371049" lon="-0.152287">
        <ele>78.0</ele>
        <time>2014-07-06T10:45:40Z</time>
      </trkpt>
      <trkpt lat="51.370827" lon="-0.152394">
        <ele>78.0</ele>
        <time>2014-07-06T10:45:44Z</time>
      </trkpt>
      <trkpt lat="51.370563" lon="-0.152503">
        <ele>78.0</ele>
        <time>2014-07-06T10:45:49Z</time>
      </trkpt>
      <trkpt lat="51.370349" lon="-0.152604">
        <ele>79.0</ele>
        <time>2014-07-06T10:45:53Z</time>
      </trkpt>
      <trkpt lat="51.37011" lon="-0.152713">
        <ele>81.0</ele>
        <time>2014-07-06T10:45:57Z</time>
      </trkpt>
      <trkpt lat="51.369901" lon="-0.152882">
        <ele>78.0</ele>
        <time>2014-07-06T10:46:01Z</time>
      </trkpt>
      <trkpt lat="51.369704" lon="-0.153042">
        <ele>76.0</ele>
        <time>2014-07-06T10:46:05Z</time>
      </trkpt>
      <trkpt lat="51.369494" lon="-0.153335">
        <ele>77.0</ele>
        <time>2014-07-06T10:46:10Z</time>
      </trkpt>
      <trkpt lat="51.369329" lon="-0.153553">
        <ele>75.0</ele>
        <time>2014-07-06T10:46:14Z</time>
      </trkpt>
      <trkpt lat="51.369153" lon="-0.153706">
        <ele>77.0</ele>
        <time>2014-07-06T10:46:18Z</time>
      </trkpt>
      <trkpt lat="51.368994" lon="-0.153869">
        <ele>76.0</ele>
        <time>2014-07-06T10:46:22Z</time>
      </trkpt>
      <trkpt lat="51.368856" lon="-0.154113">
        <ele>78.0</ele>
        <time>2014-07-06T10:46:26Z</time>
      </trkpt>
      <trkpt lat="51.368721" lon="-0.154416">
        <ele>77.0</ele>
        <time>2014-07-06T10:46:30Z</time>
      </trkpt>
      <trkpt lat="51.368476" lon="-0.154651">
        <ele>79.0</ele>
        <time>2014-07-06T10:46:35Z</time>
      </trkpt>
      <trkpt lat="51.368264" lon="-0.154567">
        <ele>80.0</ele>
        <time>2014-07-06T10:46:39Z</time>
      </trkpt>
      <trkpt lat="51.368041" lon="-0.154363">
        <ele>80.0</ele>
        <time>2014-07-06T10:46:44Z</time>
      </trkpt>
      <trkpt lat="51.367868" lon="-0.154213">
        <ele>80.0</ele>
        <time>2014-07-06T10:46:48Z</time>
      </trkpt>
      <trkpt lat="51.367691" lon="-0.154105">
        <ele>85.0</ele>
        <time>2014-07-06T10:46:52Z</time>
      </trkpt>
      <trkpt lat="51.36755" lon="-0.153943">
        <ele>82.0</ele>
        <time>2014-07-06T10:46:57Z</time>
      </trkpt>
      <trkpt lat="51.367475" lon="-0.153891">
        <ele>82.0</ele>
        <time>2014-07-06T10:47:04Z</time>
      </trkpt>
      <trkpt lat="51.367392" lon="-0.153893">
        <ele>83.0</ele>
        <time>2014-07-06T10:47:18Z</time>
      </trkpt>
      <trkpt lat="51.367333" lon="-0.153983">
        <ele>85.0</ele>
        <time>2014-07-06T10:47:22Z</time>
      </trkpt>
      <trkpt lat="51.367313" lon="-0.154114">
        <ele>85.0</ele>
        <time>2014-07-06T10:47:26Z</time>
      </trkpt>
      <trkpt lat="51.36726" lon="-0.154349">
        <ele>85.0</ele>
        <time>2014-07-06T10:47:31Z</time>
      </trkpt>
      <trkpt lat="51.367223" lon="-0.154588">
        <ele>87.0</ele>
        <time>2014-07-06T10:47:35Z</time>
      </trkpt>
      <trkpt lat="51.367137" lon="-0.154927">
        <ele>87.0</ele>
        <time>2014-07-06T10:47:40Z</time>
      </trkpt>
      <trkpt lat="51.367067" lon="-0.155174">
        <ele>88.0</ele>
        <time>2014-07-06T10:47:44Z</time>
      </trkpt>
      <trkpt lat="51.366973" lon="-0.155479">
        <ele>89.0</ele>
        <time>2014-07-06T10:47:49Z</time>
      </trkpt>
      <trkpt lat="51.366911" lon="-0.155572">
        <ele>82.0</ele>
        <time>2014-07-06T10:50:48Z</time>
      </trkpt>
      <trkpt lat="51.366879" lon="-0.155704">
        <ele>79.0</ele>
        <time>2014-07-06T10:51:22Z</time>
      </trkpt>
      <trkpt lat="51.366812" lon="-0.155917">
        <ele>77.0</ele>
        <time>2014-07-06T10:51:26Z</time>
      </trkpt>
      <trkpt lat="51.366705" lon="-0.156288">
        <ele>77.0</ele>
        <time>2014-07-06T10:51:31Z</time>
      </trkpt>
      <trkpt lat="51.366609" lon="-0.156663">
        <ele>78.0</ele>
        <time>2014-07-06T10:51:36Z</time>
      </trkpt>
      <trkpt lat="51.366541" lon="-0.15698">
        <ele>80.0</ele>
        <time>2014-07-06T10:51:40Z</time>
      </trkpt>
      <trkpt lat="51.36647" lon="-0.157276">
        <ele>83.0</ele>
        <time>2014-07-06T10:51:44Z</time>
      </trkpt>
      <trkpt lat="51.366386" lon="-0.157529">
        <ele>81.0</ele>
        <time>2014-07-06T10:51:48Z</time>
      </trkpt>
      <trkpt lat="51.366272" lon="-0.157905">
        <ele>81.0</ele>
        <time>2014-07-06T10:51:53Z</time>
      </trkpt>
      <trkpt lat="51.366202" lon="-0.158165">
        <ele>82.0</ele>
        <time>2014-07-06T10:51:57Z</time>
      </trkpt>
      <trkpt lat="51.366122" lon="-0.158431">
        <ele>85.0</ele>
        <time>2014-07-06T10:52:01Z</time>
      </trkpt>
      <trkpt lat="51.366006" lon="-0.158791">
        <ele>85.0</ele>
        <time>2014-07-06T10:52:06Z</time>
      </trkpt>
      <trkpt lat="51.365898" lon="-0.159079">
        <ele>91.0</ele>
        <time>2014-07-06T10:52:10Z</time>
      </trkpt>
      <trkpt lat="51.365742" lon="-0.159378">
        <ele>89.0</ele>
        <time>2014-07-06T10:52:14Z</time>
      </trkpt>
      <trkpt lat="51.365646" lon="-0.159674">
        <ele>87.0</ele>
        <time>2014-07-06T10:52:18Z</time>
      </trkpt>
      <trkpt lat="51.365526" lon="-0.159969">
        <ele>86.0</ele>
        <time>2014-07-06T10:52:22Z</time>
      </trkpt>
      <trkpt lat="51.365446" lon="-0.160351">
        <ele>84.0</ele>
        <time>2014-07-06T10:52:27Z</time>
      </trkpt>
      <trkpt lat="51.365388" lon="-0.160627">
        <ele>79.0</ele>
        <time>2014-07-06T10:52:31Z</time>
      </trkpt>
      <trkpt lat="51.365315" lon="-0.16083">
        <ele>76.0</ele>
        <time>2014-07-06T10:52:35Z</time>
      </trkpt>
      <trkpt lat="51.365276" lon="-0.16096">
        <ele>78.0</ele>
        <time>2014-07-06T10:52:40Z</time>
      </trkpt>
      <trkpt lat="51.36523" lon="-0.161075">
        <ele>78.0</ele>
        <time>2014-07-06T10:52:51Z</time>
      </trkpt>
      <trkpt lat="51.365169" lon="-0.161376">
        <ele>76.0</ele>
        <time>2014-07-06T10:52:56Z</time>
      </trkpt>
      <trkpt lat="51.365096" lon="-0.161746">
        <ele>75.0</ele>
        <time>2014-07-06T10:53:00Z</time>
      </trkpt>
      <trkpt lat="51.365074" lon="-0.162145">
        <ele>77.0</ele>
        <time>2014-07-06T10:53:05Z</time>
      </trkpt>
      <trkpt lat="51.365076" lon="-0.16246">
        <ele>79.0</ele>
        <time>2014-07-06T10:53:09Z</time>
      </trkpt>
      <trkpt lat="51.365144" lon="-0.162778">
        <ele>81.0</ele>
        <time>2014-07-06T10:53:13Z</time>
      </trkpt>
      <trkpt lat="51.365155" lon="-0.163118">
        <ele>79.0</ele>
        <time>2014-07-06T10:53:17Z</time>
      </trkpt>
      <trkpt lat="51.365166" lon="-0.163443">
        <ele>81.0</ele>
        <time>2014-07-06T10:53:21Z</time>
      </trkpt>
      <trkpt lat="51.365157" lon="-0.16389">
        <ele>83.0</ele>
        <time>2014-07-06T10:53:26Z</time>
      </trkpt>
      <trkpt lat="51.365142" lon="-0.164351">
        <ele>85.0</ele>
        <time>2014-07-06T10:53:31Z</time>
      </trkpt>
      <trkpt lat="51.365047" lon="-0.164677">
        <ele>83.0</ele>
        <time>2014-07-06T10:53:35Z</time>
      </trkpt>
      <trkpt lat="51.364916" lon="-0.16499">
        <ele>84.0</ele>
        <time>2014-07-06T10:53:39Z</time>
      </trkpt>
      <trkpt lat="51.364791" lon="-0.165293">
        <ele>85.0</ele>
        <time>2014-07-06T10:53:43Z</time>
      </trkpt>
      <trkpt lat="51.364599" lon="-0.165582">
        <ele>83.0</ele>
        <time>2014-07-06T10:53:48Z</time>
      </trkpt>
      <trkpt lat="51.364429" lon="-0.165871">
        <ele>83.0</ele>
        <time>2014-07-06T10:53:53Z</time>
      </trkpt>
      <trkpt lat="51.364291" lon="-0.166059">
        <ele>82.0</ele>
        <time>2014-07-06T10:53:57Z</time>
      </trkpt>
      <trkpt lat="51.364136" lon="-0.166337">
        <ele>84.0</ele>
        <time>2014-07-06T10:54:02Z</time>
      </trkpt>
      <trkpt lat="51.364003" lon="-0.166556">
        <ele>83.0</ele>
        <time>2014-07-06T10:54:06Z</time>
      </trkpt>
      <trkpt lat="51.363874" lon="-0.166811">
        <ele>86.0</ele>
        <time>2014-07-06T10:54:11Z</time>
      </trkpt>
      <trkpt lat="51.363783" lon="-0.16703">
        <ele>85.0</ele>
        <time>2014-07-06T10:54:15Z</time>
      </trkpt>
      <trkpt lat="51.363713" lon="-0.167205">
        <ele>87.0</ele>
        <time>2014-07-06T10:54:19Z</time>
      </trkpt>
      <trkpt lat="51.363706" lon="-0.167324">
        <ele>90.0</ele>
        <time>2014-07-06T10:54:40Z</time>
      </trkpt>
      <trkpt lat="51.363633" lon="-0.167502">
        <ele>90.0</ele>
        <time>2014-07-06T10:54:44Z</time>
      </trkpt>
      <trkpt lat="51.363527" lon="-0.167774">
        <ele>91.0</ele>
        <time>2014-07-06T10:54:49Z</time>
      </trkpt>
      <trkpt lat="51.363441" lon="-0.168005">
        <ele>92.0</ele>
        <time>2014-07-06T10:54:54Z</time>
      </trkpt>
      <trkpt lat="51.363368" lon="-0.16818">
        <ele>92.0</ele>
        <time>2014-07-06T10:54:58Z</time>
      </trkpt>
      <trkpt lat="51.363267" lon="-0.168293">
        <ele>94.0</ele>
        <time>2014-07-06T10:55:02Z</time>
      </trkpt>
      <trkpt lat="51.363157" lon="-0.168322">
        <ele>95.0</ele>
        <time>2014-07-06T10:55:06Z</time>
      </trkpt>
      <trkpt lat="51.363075" lon="-0.168323">
        <ele>99.0</ele>
        <time>2014-07-06T10:55:38Z</time>
      </trkpt>
      <trkpt lat="51.362951" lon="-0.16831">
        <ele>98.0</ele>
        <time>2014-07-06T10:55:43Z</time>
      </trkpt>
      <trkpt lat="51.362761" lon="-0.168292">
        <ele>102.0</ele>
        <time>2014-07-06T10:55:47Z</time>
      </trkpt>
      <trkpt lat="51.362478" lon="-0.16827">
        <ele>102.0</ele>
        <time>2014-07-06T10:55:52Z</time>
      </trkpt>
      <trkpt lat="51.362191" lon="-0.16828">
        <ele>102.0</ele>
        <time>2014-07-06T10:55:57Z</time>
      </trkpt>
      <trkpt lat="51.361968" lon="-0.168354">
        <ele>101.0</ele>
        <time>2014-07-06T10:56:01Z</time>
      </trkpt>
      <trkpt lat="51.361705" lon="-0.168479">
        <ele>101.0</ele>
        <time>2014-07-06T10:56:06Z</time>
      </trkpt>
      <trkpt lat="51.36148" lon="-0.168625">
        <ele>100.0</ele>
        <time>2014-07-06T10:56:11Z</time>
      </trkpt>
      <trkpt lat="51.361296" lon="-0.168764">
        <ele>101.0</ele>
        <time>2014-07-06T10:56:15Z</time>
      </trkpt>
      <trkpt lat="51.361074" lon="-0.168921">
        <ele>100.0</ele>
        <time>2014-07-06T10:56:20Z</time>
      </trkpt>
      <trkpt lat="51.360916" lon="-0.169054">
        <ele>101.0</ele>
        <time>2014-07-06T10:56:24Z</time>
      </trkpt>
      <trkpt lat="51.360722" lon="-0.169208">
        <ele>102.0</ele>
        <time>2014-07-06T10:56:29Z</time>
      </trkpt>
      <trkpt lat="51.360558" lon="-0.169346">
        <ele>106.0</ele>
        <time>2014-07-06T10:56:34Z</time>
      </trkpt>
      <trkpt lat="51.360429" lon="-0.169464">
        <ele>108.0</ele>
        <time>2014-07-06T10:56:38Z</time>
      </trkpt>
      <trkpt lat="51.360257" lon="-0.169596">
        <ele>110.0</ele>
        <time>2014-07-06T10:56:43Z</time>
      </trkpt>
      <trkpt lat="51.36007" lon="-0.169724">
        <ele>110.0</ele>
        <time>2014-07-06T10:56:48Z</time>
      </trkpt>
      <trkpt lat="51.359884" lon="-0.169815">
        <ele>113.0</ele>
        <time>2014-07-06T10:56:53Z</time>
      </trkpt>
      <trkpt lat="51.359725" lon="-0.169874">
        <ele>111.0</ele>
        <time>2014-07-06T10:56:57Z</time>
      </trkpt>
      <trkpt lat="51.359546" lon="-0.169907">
        <ele>109.0</ele>
        <time>2014-07-06T10:57:01Z</time>
      </trkpt>
      <trkpt lat="51.359345" lon="-0.169963">
        <ele>105.0</ele>
        <time>2014-07-06T10:57:06Z</time>
      </trkpt>
      <trkpt lat="51.359158" lon="-0.170055">
        <ele>110.0</ele>
        <time>2014-07-06T10:57:11Z</time>
      </trkpt>
      <trkpt lat="51.358988" lon="-0.170124">
        <ele>114.0</ele>
        <time>2014-07-06T10:57:16Z</time>
      </trkpt>
      <trkpt lat="51.35885" lon="-0.170165">
        <ele>116.0</ele>
        <time>2014-07-06T10:57:20Z</time>
      </trkpt>
      <trkpt lat="51.358716" lon="-0.170187">
        <ele>115.0</ele>
        <time>2014-07-06T10:57:24Z</time>
      </trkpt>
      <trkpt lat="51.358578" lon="-0.170203">
        <ele>114.0</ele>
        <time>2014-07-06T10:57:28Z</time>
      </trkpt>
      <trkpt lat="51.35844" lon="-0.17019">
        <ele>115.0</ele>
        <time>2014-07-06T10:57:32Z</time>
      </trkpt>
      <trkpt lat="51.358308" lon="-0.170217">
        <ele>116.0</ele>
        <time>2014-07-06T10:57:36Z</time>
      </trkpt>
      <trkpt lat="51.358171" lon="-0.170219">
        <ele>118.0</ele>
        <time>2014-07-06T10:57:40Z</time>
      </trkpt>
      <trkpt lat="51.35802" lon="-0.170226">
        <ele>116.0</ele>
        <time>2014-07-06T10:57:44Z</time>
      </trkpt>
      <trkpt lat="51.357854" lon="-0.170251">
        <ele>114.0</ele>
        <time>2014-07-06T10:57:48Z</time>
      </trkpt>
      <trkpt lat="51.357673" lon="-0.170233">
        <ele>109.0</ele>
        <time>2014-07-06T10:57:52Z</time>
      </trkpt>
      <trkpt lat="51.357503" lon="-0.170235">
        <ele>112.0</ele>
        <time>2014-07-06T10:57:56Z</time>
      </trkpt>
      <trkpt lat="51.357348" lon="-0.170255">
        <ele>113.0</ele>
        <time>2014-07-06T10:58:00Z</time>
      </trkpt>
      <trkpt lat="51.357203" lon="-0.170299">
        <ele>113.0</ele>
        <time>2014-07-06T10:58:04Z</time>
      </trkpt>
      <trkpt lat="51.357026" lon="-0.170332">
        <ele>114.0</ele>
        <time>2014-07-06T10:58:08Z</time>
      </trkpt>
      <trkpt lat="51.356819" lon="-0.17036">
        <ele>116.0</ele>
        <time>2014-07-06T10:58:13Z</time>
      </trkpt>
      <trkpt lat="51.356632" lon="-0.170448">
        <ele>121.0</ele>
        <time>2014-07-06T10:58:18Z</time>
      </trkpt>
      <trkpt lat="51.356469" lon="-0.170472">
        <ele>121.0</ele>
        <time>2014-07-06T10:58:22Z</time>
      </trkpt>
      <trkpt lat="51.356261" lon="-0.17051">
        <ele>122.0</ele>
        <time>2014-07-06T10:58:26Z</time>
      </trkpt>
      <trkpt lat="51.356114" lon="-0.170585">
        <ele>121.0</ele>
        <time>2014-07-06T10:58:30Z</time>
      </trkpt>
      <trkpt lat="51.355941" lon="-0.170649">
        <ele>123.0</ele>
        <time>2014-07-06T10:58:34Z</time>
      </trkpt>
      <trkpt lat="51.355736" lon="-0.170729">
        <ele>123.0</ele>
        <time>2014-07-06T10:58:39Z</time>
      </trkpt>
      <trkpt lat="51.355576" lon="-0.170801">
        <ele>124.0</ele>
        <time>2014-07-06T10:58:43Z</time>
      </trkpt>
      <trkpt lat="51.355413" lon="-0.170869">
        <ele>124.0</ele>
        <time>2014-07-06T10:58:47Z</time>
      </trkpt>
      <trkpt lat="51.355252" lon="-0.170937">
        <ele>124.0</ele>
        <time>2014-07-06T10:58:51Z</time>
      </trkpt>
      <trkpt lat="51.355093" lon="-0.171006">
        <ele>123.0</ele>
        <time>2014-07-06T10:58:55Z</time>
      </trkpt>
      <trkpt lat="51.354931" lon="-0.171075">
        <ele>123.0</ele>
        <time>2014-07-06T10:58:59Z</time>
      </trkpt>
      <trkpt lat="51.354764" lon="-0.171142">
        <ele>125.0</ele>
        <time>2014-07-06T10:59:03Z</time>
      </trkpt>
      <trkpt lat="51.354557" lon="-0.171228">
        <ele>126.0</ele>
        <time>2014-07-06T10:59:08Z</time>
      </trkpt>
      <trkpt lat="51.354347" lon="-0.171325">
        <ele>127.0</ele>
        <time>2014-07-06T10:59:13Z</time>
      </trkpt>
      <trkpt lat="51.3542" lon="-0.171374">
        <ele>124.0</ele>
        <time>2014-07-06T10:59:17Z</time>
      </trkpt>
      <trkpt lat="51.354062" lon="-0.171437">
        <ele>119.0</ele>
        <time>2014-07-06T10:59:21Z</time>
      </trkpt>
      <trkpt lat="51.353923" lon="-0.171498">
        <ele>118.0</ele>
        <time>2014-07-06T10:59:25Z</time>
      </trkpt>
      <trkpt lat="51.353764" lon="-0.171588">
        <ele>118.0</ele>
        <time>2014-07-06T10:59:30Z</time>
      </trkpt>
      <trkpt lat="51.353647" lon="-0.171641">
        <ele>119.0</ele>
        <time>2014-07-06T10:59:34Z</time>
      </trkpt>
      <trkpt lat="51.353458" lon="-0.171669">
        <ele>117.0</ele>
        <time>2014-07-06T10:59:39Z</time>
      </trkpt>
      <trkpt lat="51.353243" lon="-0.171747">
        <ele>117.0</ele>
        <time>2014-07-06T10:59:43Z</time>
      </trkpt>
      <trkpt lat="51.353056" lon="-0.171845">
        <ele>118.0</ele>
        <time>2014-07-06T10:59:47Z</time>
      </trkpt>
      <trkpt lat="51.352845" lon="-0.17196">
        <ele>119.0</ele>
        <time>2014-07-06T10:59:52Z</time>
      </trkpt>
      <trkpt lat="51.352585" lon="-0.172098">
        <ele>117.0</ele>
        <time>2014-07-06T10:59:57Z</time>
      </trkpt>
      <trkpt lat="51.352351" lon="-0.172252">
        <ele>116.0</ele>
        <time>2014-07-06T11:00:01Z</time>
      </trkpt>
      <trkpt lat="51.352146" lon="-0.172367">
        <ele>115.0</ele>
        <time>2014-07-06T11:00:05Z</time>
      </trkpt>
      <trkpt lat="51.351901" lon="-0.172535">
        <ele>116.0</ele>
        <time>2014-07-06T11:00:10Z</time>
      </trkpt>
      <trkpt lat="51.351729" lon="-0.172664">
        <ele>117.0</ele>
        <time>2014-07-06T11:00:14Z</time>
      </trkpt>
      <trkpt lat="51.351597" lon="-0.172771">
        <ele>115.0</ele>
        <time>2014-07-06T11:00:18Z</time>
      </trkpt>
      <trkpt lat="51.35148" lon="-0.172866">
        <ele>115.0</ele>
        <time>2014-07-06T11:00:22Z</time>
      </trkpt>
      <trkpt lat="51.35131" lon="-0.173078">
        <ele>115.0</ele>
        <time>2014-07-06T11:00:27Z</time>
      </trkpt>
      <trkpt lat="51.351137" lon="-0.173346">
        <ele>114.0</ele>
        <time>2014-07-06T11:00:31Z</time>
      </trkpt>
      <trkpt lat="51.350886" lon="-0.173586">
        <ele>112.0</ele>
        <time>2014-07-06T11:00:35Z</time>
      </trkpt>
      <trkpt lat="51.350598" lon="-0.173776">
        <ele>114.0</ele>
        <time>2014-07-06T11:00:39Z</time>
      </trkpt>
      <trkpt lat="51.350242" lon="-0.173959">
        <ele>113.0</ele>
        <time>2014-07-06T11:00:44Z</time>
      </trkpt>
      <trkpt lat="51.349915" lon="-0.17408">
        <ele>110.0</ele>
        <time>2014-07-06T11:00:48Z</time>
      </trkpt>
      <trkpt lat="51.349571" lon="-0.174065">
        <ele>108.0</ele>
        <time>2014-07-06T11:00:53Z</time>
      </trkpt>
      <trkpt lat="51.349276" lon="-0.174008">
        <ele>108.0</ele>
        <time>2014-07-06T11:00:57Z</time>
      </trkpt>
      <trkpt lat="51.348989" lon="-0.173921">
        <ele>109.0</ele>
        <time>2014-07-06T11:01:01Z</time>
      </trkpt>
      <trkpt lat="51.348782" lon="-0.17387">
        <ele>110.0</ele>
        <time>2014-07-06T11:01:05Z</time>
      </trkpt>
      <trkpt lat="51.348491" lon="-0.17386">
        <ele>110.0</ele>
        <time>2014-07-06T11:01:10Z</time>
      </trkpt>
      <trkpt lat="51.348264" lon="-0.173877">
        <ele>110.0</ele>
        <time>2014-07-06T11:01:14Z</time>
      </trkpt>
      <trkpt lat="51.348042" lon="-0.17374">
        <ele>112.0</ele>
        <time>2014-07-06T11:01:18Z</time>
      </trkpt>
      <trkpt lat="51.347769" lon="-0.173596">
        <ele>113.0</ele>
        <time>2014-07-06T11:01:23Z</time>
      </trkpt>
      <trkpt lat="51.347561" lon="-0.173511">
        <ele>116.0</ele>
        <time>2014-07-06T11:01:28Z</time>
      </trkpt>
      <trkpt lat="51.347392" lon="-0.173512">
        <ele>115.0</ele>
        <time>2014-07-06T11:01:32Z</time>
      </trkpt>
      <trkpt lat="51.347198" lon="-0.17345">
        <ele>116.0</ele>
        <time>2014-07-06T11:01:37Z</time>
      </trkpt>
      <trkpt lat="51.347055" lon="-0.173391">
        <ele>119.0</ele>
        <time>2014-07-06T11:01:41Z</time>
      </trkpt>
      <trkpt lat="51.346923" lon="-0.173314">
        <ele>118.0</ele>
        <time>2014-07-06T11:01:45Z</time>
      </trkpt>
      <trkpt lat="51.3468" lon="-0.17324">
        <ele>119.0</ele>
        <time>2014-07-06T11:01:49Z</time>
      </trkpt>
      <trkpt lat="51.346642" lon="-0.173208">
        <ele>119.0</ele>
        <time>2014-07-06T11:01:54Z</time>
      </trkpt>
      <trkpt lat="51.346532" lon="-0.173175">
        <ele>120.0</ele>
        <time>2014-07-06T11:01:58Z</time>
      </trkpt>
      <trkpt lat="51.346379" lon="-0.173091">
        <ele>120.0</ele>
        <time>2014-07-06T11:02:03Z</time>
      </trkpt>
      <trkpt lat="51.346225" lon="-0.173042">
        <ele>118.0</ele>
        <time>2014-07-06T11:02:07Z</time>
      </trkpt>
      <trkpt lat="51.346031" lon="-0.172963">
        <ele>116.0</ele>
        <time>2014-07-06T11:02:12Z</time>
      </trkpt>
      <trkpt lat="51.345869" lon="-0.17287">
        <ele>115.0</ele>
        <time>2014-07-06T11:02:16Z</time>
      </trkpt>
      <trkpt lat="51.345652" lon="-0.172827">
        <ele>119.0</ele>
        <time>2014-07-06T11:02:20Z</time>
      </trkpt>
      <trkpt lat="51.345438" lon="-0.172715">
        <ele>118.0</ele>
        <time>2014-07-06T11:02:25Z</time>
      </trkpt>
      <trkpt lat="51.345224" lon="-0.172577">
        <ele>119.0</ele>
        <time>2014-07-06T11:02:29Z</time>
      </trkpt>
      <trkpt lat="51.345025" lon="-0.172452">
        <ele>119.0</ele>
        <time>2014-07-06T11:02:33Z</time>
      </trkpt>
      <trkpt lat="51.344858" lon="-0.17233">
        <ele>120.0</ele>
        <time>2014-07-06T11:02:37Z</time>
      </trkpt>
      <trkpt lat="51.344688" lon="-0.172238">
        <ele>119.0</ele>
        <time>2014-07-06T11:02:41Z</time>
      </trkpt>
      <trkpt lat="51.344462" lon="-0.172048">
        <ele>120.0</ele>
        <time>2014-07-06T11:02:46Z</time>
      </trkpt>
      <trkpt lat="51.34432" lon="-0.171911">
        <ele>120.0</ele>
        <time>2014-07-06T11:02:51Z</time>
      </trkpt>
      <trkpt lat="51.344127" lon="-0.171745">
        <ele>118.0</ele>
        <time>2014-07-06T11:02:55Z</time>
      </trkpt>
      <trkpt lat="51.343944" lon="-0.171617">
        <ele>116.0</ele>
        <time>2014-07-06T11:03:00Z</time>
      </trkpt>
      <trkpt lat="51.34379" lon="-0.171514">
        <ele>118.0</ele>
        <time>2014-07-06T11:03:04Z</time>
      </trkpt>
      <trkpt lat="51.343565" lon="-0.171334">
        <ele>119.0</ele>
        <time>2014-07-06T11:03:09Z</time>
      </trkpt>
      <trkpt lat="51.343401" lon="-0.171192">
        <ele>118.0</ele>
        <time>2014-07-06T11:03:13Z</time>
      </trkpt>
      <trkpt lat="51.343239" lon="-0.170975">
        <ele>121.0</ele>
        <time>2014-07-06T11:03:18Z</time>
      </trkpt>
      <trkpt lat="51.343068" lon="-0.170869">
        <ele>117.0</ele>
        <time>2014-07-06T11:03:22Z</time>
      </trkpt>
      <trkpt lat="51.342937" lon="-0.170617">
        <ele>117.0</ele>
        <time>2014-07-06T11:03:26Z</time>
      </trkpt>
      <trkpt lat="51.342794" lon="-0.170419">
        <ele>119.0</ele>
        <time>2014-07-06T11:03:31Z</time>
      </trkpt>
      <trkpt lat="51.342648" lon="-0.170185">
        <ele>122.0</ele>
        <time>2014-07-06T11:03:35Z</time>
      </trkpt>
      <trkpt lat="51.342566" lon="-0.169979">
        <ele>121.0</ele>
        <time>2014-07-06T11:03:39Z</time>
      </trkpt>
      <trkpt lat="51.342407" lon="-0.169678">
        <ele>121.0</ele>
        <time>2014-07-06T11:03:44Z</time>
      </trkpt>
      <trkpt lat="51.342283" lon="-0.169469">
        <ele>120.0</ele>
        <time>2014-07-06T11:03:48Z</time>
      </trkpt>
      <trkpt lat="51.342142" lon="-0.169255">
        <ele>122.0</ele>
        <time>2014-07-06T11:03:52Z</time>
      </trkpt>
      <trkpt lat="51.342042" lon="-0.169011">
        <ele>125.0</ele>
        <time>2014-07-06T11:03:56Z</time>
      </trkpt>
      <trkpt lat="51.34194" lon="-0.168773">
        <ele>126.0</ele>
        <time>2014-07-06T11:04:00Z</time>
      </trkpt>
      <trkpt lat="51.341835" lon="-0.168546">
        <ele>128.0</ele>
        <time>2014-07-06T11:04:04Z</time>
      </trkpt>
      <trkpt lat="51.341714" lon="-0.168305">
        <ele>131.0</ele>
        <time>2014-07-06T11:04:08Z</time>
      </trkpt>
      <trkpt lat="51.341578" lon="-0.16801">
        <ele>129.0</ele>
        <time>2014-07-06T11:04:13Z</time>
      </trkpt>
      <trkpt lat="51.341465" lon="-0.167782">
        <ele>128.0</ele>
        <time>2014-07-06T11:04:17Z</time>
      </trkpt>
      <trkpt lat="51.341348" lon="-0.167596">
        <ele>129.0</ele>
        <time>2014-07-06T11:04:21Z</time>
      </trkpt>
      <trkpt lat="51.341275" lon="-0.167439">
        <ele>133.0</ele>
        <time>2014-07-06T11:04:25Z</time>
      </trkpt>
      <trkpt lat="51.341169" lon="-0.167284">
        <ele>131.0</ele>
        <time>2014-07-06T11:04:29Z</time>
      </trkpt>
      <trkpt lat="51.341043" lon="-0.167052">
        <ele>133.0</ele>
        <time>2014-07-06T11:04:34Z</time>
      </trkpt>
      <trkpt lat="51.340904" lon="-0.16685">
        <ele>127.0</ele>
        <time>2014-07-06T11:04:39Z</time>
      </trkpt>
      <trkpt lat="51.340755" lon="-0.166567">
        <ele>127.0</ele>
        <time>2014-07-06T11:04:44Z</time>
      </trkpt>
      <trkpt lat="51.340637" lon="-0.166373">
        <ele>126.0</ele>
        <time>2014-07-06T11:04:48Z</time>
      </trkpt>
      <trkpt lat="51.340472" lon="-0.166131">
        <ele>129.0</ele>
        <time>2014-07-06T11:04:53Z</time>
      </trkpt>
      <trkpt lat="51.340313" lon="-0.165922">
        <ele>131.0</ele>
        <time>2014-07-06T11:04:58Z</time>
      </trkpt>
      <trkpt lat="51.340178" lon="-0.165713">
        <ele>132.0</ele>
        <time>2014-07-06T11:05:02Z</time>
      </trkpt>
      <trkpt lat="51.34" lon="-0.165468">
        <ele>136.0</ele>
        <time>2014-07-06T11:05:07Z</time>
      </trkpt>
      <trkpt lat="51.339804" lon="-0.165273">
        <ele>137.0</ele>
        <time>2014-07-06T11:05:12Z</time>
      </trkpt>
      <trkpt lat="51.339604" lon="-0.165166">
        <ele>138.0</ele>
        <time>2014-07-06T11:05:17Z</time>
      </trkpt>
      <trkpt lat="51.33945" lon="-0.165129">
        <ele>139.0</ele>
        <time>2014-07-06T11:05:21Z</time>
      </trkpt>
      <trkpt lat="51.339258" lon="-0.165156">
        <ele>137.0</ele>
        <time>2014-07-06T11:05:25Z</time>
      </trkpt>
      <trkpt lat="51.339074" lon="-0.165208">
        <ele>137.0</ele>
        <time>2014-07-06T11:05:29Z</time>
      </trkpt>
      <trkpt lat="51.338911" lon="-0.165289">
        <ele>137.0</ele>
        <time>2014-07-06T11:05:33Z</time>
      </trkpt>
      <trkpt lat="51.338739" lon="-0.165366">
        <ele>138.0</ele>
        <time>2014-07-06T11:05:38Z</time>
      </trkpt>
      <trkpt lat="51.338558" lon="-0.165418">
        <ele>137.0</ele>
        <time>2014-07-06T11:05:42Z</time>
      </trkpt>
      <trkpt lat="51.338343" lon="-0.165498">
        <ele>139.0</ele>
        <time>2014-07-06T11:05:47Z</time>
      </trkpt>
      <trkpt lat="51.338135" lon="-0.165584">
        <ele>139.0</ele>
        <time>2014-07-06T11:05:52Z</time>
      </trkpt>
      <trkpt lat="51.337977" lon="-0.165652">
        <ele>140.0</ele>
        <time>2014-07-06T11:05:56Z</time>
      </trkpt>
      <trkpt lat="51.337787" lon="-0.165748">
        <ele>139.0</ele>
        <time>2014-07-06T11:06:01Z</time>
      </trkpt>
      <trkpt lat="51.337622" lon="-0.165863">
        <ele>139.0</ele>
        <time>2014-07-06T11:06:06Z</time>
      </trkpt>
      <trkpt lat="51.337496" lon="-0.165952">
        <ele>134.0</ele>
        <time>2014-07-06T11:06:10Z</time>
      </trkpt>
      <trkpt lat="51.337303" lon="-0.166032">
        <ele>137.0</ele>
        <time>2014-07-06T11:06:15Z</time>
      </trkpt>
      <trkpt lat="51.337114" lon="-0.166099">
        <ele>140.0</ele>
        <time>2014-07-06T11:06:20Z</time>
      </trkpt>
      <trkpt lat="51.336972" lon="-0.166147">
        <ele>141.0</ele>
        <time>2014-07-06T11:06:24Z</time>
      </trkpt>
      <trkpt lat="51.336785" lon="-0.166221">
        <ele>140.0</ele>
        <time>2014-07-06T11:06:29Z</time>
      </trkpt>
      <trkpt lat="51.336601" lon="-0.166306">
        <ele>139.0</ele>
        <time>2014-07-06T11:06:34Z</time>
      </trkpt>
      <trkpt lat="51.3364" lon="-0.166398">
        <ele>140.0</ele>
        <time>2014-07-06T11:06:38Z</time>
      </trkpt>
      <trkpt lat="51.336179" lon="-0.166492">
        <ele>142.0</ele>
        <time>2014-07-06T11:06:43Z</time>
      </trkpt>
      <trkpt lat="51.336009" lon="-0.166569">
        <ele>144.0</ele>
        <time>2014-07-06T11:06:47Z</time>
      </trkpt>
      <trkpt lat="51.335926" lon="-0.166667">
        <ele>146.0</ele>
        <time>2014-07-06T11:06:51Z</time>
      </trkpt>
      <trkpt lat="51.335774" lon="-0.166694">
        <ele>148.0</ele>
        <time>2014-07-06T11:06:56Z</time>
      </trkpt>
      <trkpt lat="51.335589" lon="-0.166728">
        <ele>147.0</ele>
        <time>2014-07-06T11:07:01Z</time>
      </trkpt>
      <trkpt lat="51.335484" lon="-0.166744">
        <ele>150.0</ele>
        <time>2014-07-06T11:07:06Z</time>
      </trkpt>
      <trkpt lat="51.335409" lon="-0.166784">
        <ele>151.0</ele>
        <time>2014-07-06T11:07:50Z</time>
      </trkpt>
      <trkpt lat="51.33533" lon="-0.166817">
        <ele>151.0</ele>
        <time>2014-07-06T11:07:59Z</time>
      </trkpt>
      <trkpt lat="51.335245" lon="-0.166858">
        <ele>147.0</ele>
        <time>2014-07-06T11:08:04Z</time>
      </trkpt>
      <trkpt lat="51.335163" lon="-0.166897">
        <ele>145.0</ele>
        <time>2014-07-06T11:08:10Z</time>
      </trkpt>
      <trkpt lat="51.335084" lon="-0.166877">
        <ele>146.0</ele>
        <time>2014-07-06T11:08:17Z</time>
      </trkpt>
      <trkpt lat="51.335003" lon="-0.166886">
        <ele>146.0</ele>
        <time>2014-07-06T11:08:23Z</time>
      </trkpt>
      <trkpt lat="51.33492" lon="-0.166935">
        <ele>147.0</ele>
        <time>2014-07-06T11:08:27Z</time>
      </trkpt>
      <trkpt lat="51.334865" lon="-0.167189">
        <ele>146.0</ele>
        <time>2014-07-06T11:08:31Z</time>
      </trkpt>
      <trkpt lat="51.334796" lon="-0.167427">
        <ele>149.0</ele>
        <time>2014-07-06T11:08:35Z</time>
      </trkpt>
      <trkpt lat="51.33462" lon="-0.167561">
        <ele>152.0</ele>
        <time>2014-07-06T11:08:40Z</time>
      </trkpt>
      <trkpt lat="51.334455" lon="-0.167644">
        <ele>150.0</ele>
        <time>2014-07-06T11:08:44Z</time>
      </trkpt>
      <trkpt lat="51.334332" lon="-0.167722">
        <ele>150.0</ele>
        <time>2014-07-06T11:08:48Z</time>
      </trkpt>
      <trkpt lat="51.334215" lon="-0.167818">
        <ele>151.0</ele>
        <time>2014-07-06T11:08:53Z</time>
      </trkpt>
      <trkpt lat="51.334076" lon="-0.167927">
        <ele>154.0</ele>
        <time>2014-07-06T11:08:57Z</time>
      </trkpt>
      <trkpt lat="51.333851" lon="-0.168067">
        <ele>154.0</ele>
        <time>2014-07-06T11:09:01Z</time>
      </trkpt>
      <trkpt lat="51.33364" lon="-0.168185">
        <ele>153.0</ele>
        <time>2014-07-06T11:09:05Z</time>
      </trkpt>
      <trkpt lat="51.333455" lon="-0.168286">
        <ele>154.0</ele>
        <time>2014-07-06T11:09:09Z</time>
      </trkpt>
      <trkpt lat="51.333232" lon="-0.168396">
        <ele>157.0</ele>
        <time>2014-07-06T11:09:14Z</time>
      </trkpt>
      <trkpt lat="51.333087" lon="-0.168488">
        <ele>157.0</ele>
        <time>2014-07-06T11:09:18Z</time>
      </trkpt>
      <trkpt lat="51.33291" lon="-0.168576">
        <ele>157.0</ele>
        <time>2014-07-06T11:09:23Z</time>
      </trkpt>
      <trkpt lat="51.332758" lon="-0.168684">
        <ele>162.0</ele>
        <time>2014-07-06T11:09:28Z</time>
      </trkpt>
      <trkpt lat="51.332579" lon="-0.168768">
        <ele>160.0</ele>
        <time>2014-07-06T11:09:33Z</time>
      </trkpt>
      <trkpt lat="51.332393" lon="-0.168834">
        <ele>163.0</ele>
        <time>2014-07-06T11:09:37Z</time>
      </trkpt>
      <trkpt lat="51.33215" lon="-0.168891">
        <ele>163.0</ele>
        <time>2014-07-06T11:09:42Z</time>
      </trkpt>
      <trkpt lat="51.331995" lon="-0.168929">
        <ele>164.0</ele>
        <time>2014-07-06T11:09:46Z</time>
      </trkpt>
      <trkpt lat="51.331833" lon="-0.168962">
        <ele>165.0</ele>
        <time>2014-07-06T11:09:50Z</time>
      </trkpt>
      <trkpt lat="51.331651" lon="-0.169008">
        <ele>165.0</ele>
        <time>2014-07-06T11:09:55Z</time>
      </trkpt>
      <trkpt lat="51.33151" lon="-0.169076">
        <ele>166.0</ele>
        <time>2014-07-06T11:09:59Z</time>
      </trkpt>
      <trkpt lat="51.331364" lon="-0.169145">
        <ele>169.0</ele>
        <time>2014-07-06T11:10:03Z</time>
      </trkpt>
      <trkpt lat="51.331227" lon="-0.169205">
        <ele>169.0</ele>
        <time>2014-07-06T11:10:07Z</time>
      </trkpt>
      <trkpt lat="51.331072" lon="-0.169277">
        <ele>167.0</ele>
        <time>2014-07-06T11:10:11Z</time>
      </trkpt>
      <trkpt lat="51.330905" lon="-0.169342">
        <ele>169.0</ele>
        <time>2014-07-06T11:10:16Z</time>
      </trkpt>
      <trkpt lat="51.330761" lon="-0.16945">
        <ele>171.0</ele>
        <time>2014-07-06T11:10:21Z</time>
      </trkpt>
      <trkpt lat="51.330645" lon="-0.169529">
        <ele>173.0</ele>
        <time>2014-07-06T11:10:25Z</time>
      </trkpt>
      <trkpt lat="51.330496" lon="-0.169621">
        <ele>173.0</ele>
        <time>2014-07-06T11:10:30Z</time>
      </trkpt>
      <trkpt lat="51.330353" lon="-0.169719">
        <ele>172.0</ele>
        <time>2014-07-06T11:10:35Z</time>
      </trkpt>
      <trkpt lat="51.330225" lon="-0.169781">
        <ele>173.0</ele>
        <time>2014-07-06T11:10:39Z</time>
      </trkpt>
      <trkpt lat="51.330108" lon="-0.169837">
        <ele>176.0</ele>
        <time>2014-07-06T11:10:43Z</time>
      </trkpt>
      <trkpt lat="51.329987" lon="-0.169873">
        <ele>175.0</ele>
        <time>2014-07-06T11:10:47Z</time>
      </trkpt>
      <trkpt lat="51.329889" lon="-0.169878">
        <ele>175.0</ele>
        <time>2014-07-06T11:10:52Z</time>
      </trkpt>
      <trkpt lat="51.329812" lon="-0.169917">
        <ele>183.0</ele>
        <time>2014-07-06T11:13:18Z</time>
      </trkpt>
      <trkpt lat="51.329676" lon="-0.169923">
        <ele>184.0</ele>
        <time>2014-07-06T11:13:22Z</time>
      </trkpt>
      <trkpt lat="51.329497" lon="-0.169916">
        <ele>183.0</ele>
        <time>2014-07-06T11:13:27Z</time>
      </trkpt>
      <trkpt lat="51.32932" lon="-0.169912">
        <ele>184.0</ele>
        <time>2014-07-06T11:13:32Z</time>
      </trkpt>
      <trkpt lat="51.329148" lon="-0.169905">
        <ele>184.0</ele>
        <time>2014-07-06T11:13:37Z</time>
      </trkpt>
      <trkpt lat="51.329015" lon="-0.16988">
        <ele>183.0</ele>
        <time>2014-07-06T11:13:41Z</time>
      </trkpt>
      <trkpt lat="51.328872" lon="-0.169848">
        <ele>185.0</ele>
        <time>2014-07-06T11:13:45Z</time>
      </trkpt>
      <trkpt lat="51.328736" lon="-0.169846">
        <ele>183.0</ele>
        <time>2014-07-06T11:13:49Z</time>
      </trkpt>
      <trkpt lat="51.32858" lon="-0.169862">
        <ele>181.0</ele>
        <time>2014-07-06T11:13:54Z</time>
      </trkpt>
      <trkpt lat="51.328423" lon="-0.169884">
        <ele>181.0</ele>
        <time>2014-07-06T11:13:59Z</time>
      </trkpt>
      <trkpt lat="51.328271" lon="-0.169907">
        <ele>183.0</ele>
        <time>2014-07-06T11:14:03Z</time>
      </trkpt>
      <trkpt lat="51.328098" lon="-0.169966">
        <ele>187.0</ele>
        <time>2014-07-06T11:14:08Z</time>
      </trkpt>
      <trkpt lat="51.327946" lon="-0.169996">
        <ele>187.0</ele>
        <time>2014-07-06T11:14:12Z</time>
      </trkpt>
      <trkpt lat="51.327791" lon="-0.170014">
        <ele>186.0</ele>
        <time>2014-07-06T11:14:16Z</time>
      </trkpt>
      <trkpt lat="51.32766" lon="-0.170075">
        <ele>185.0</ele>
        <time>2014-07-06T11:14:21Z</time>
      </trkpt>
      <trkpt lat="51.32748" lon="-0.170055">
        <ele>183.0</ele>
        <time>2014-07-06T11:14:25Z</time>
      </trkpt>
      <trkpt lat="51.327253" lon="-0.169991">
        <ele>182.0</ele>
        <time>2014-07-06T11:14:30Z</time>
      </trkpt>
      <trkpt lat="51.326975" lon="-0.169899">
        <ele>184.0</ele>
        <time>2014-07-06T11:14:34Z</time>
      </trkpt>
      <trkpt lat="51.326743" lon="-0.169874">
        <ele>186.0</ele>
        <time>2014-07-06T11:14:38Z</time>
      </trkpt>
      <trkpt lat="51.326431" lon="-0.169847">
        <ele>184.0</ele>
        <time>2014-07-06T11:14:43Z</time>
      </trkpt>
      <trkpt lat="51.326204" lon="-0.169813">
        <ele>188.0</ele>
        <time>2014-07-06T11:14:47Z</time>
      </trkpt>
      <trkpt lat="51.325921" lon="-0.169784">
        <ele>188.0</ele>
        <time>2014-07-06T11:14:51Z</time>
      </trkpt>
      <trkpt lat="51.325692" lon="-0.169744">
        <ele>185.0</ele>
        <time>2014-07-06T11:14:56Z</time>
      </trkpt>
      <trkpt lat="51.32552" lon="-0.169684">
        <ele>188.0</ele>
        <time>2014-07-06T11:15:01Z</time>
      </trkpt>
      <trkpt lat="51.325212" lon="-0.169607">
        <ele>185.0</ele>
        <time>2014-07-06T11:15:05Z</time>
      </trkpt>
      <trkpt lat="51.325049" lon="-0.169568">
        <ele>185.0</ele>
        <time>2014-07-06T11:15:10Z</time>
      </trkpt>
      <trkpt lat="51.324878" lon="-0.169478">
        <ele>186.0</ele>
        <time>2014-07-06T11:15:15Z</time>
      </trkpt>
      <trkpt lat="51.324819" lon="-0.169381">
        <ele>187.0</ele>
        <time>2014-07-06T11:15:19Z</time>
      </trkpt>
      <trkpt lat="51.324853" lon="-0.169164">
        <ele>188.0</ele>
        <time>2014-07-06T11:15:23Z</time>
      </trkpt>
      <trkpt lat="51.324907" lon="-0.168809">
        <ele>187.0</ele>
        <time>2014-07-06T11:15:28Z</time>
      </trkpt>
      <trkpt lat="51.324957" lon="-0.16846">
        <ele>188.0</ele>
        <time>2014-07-06T11:15:32Z</time>
      </trkpt>
      <trkpt lat="51.325004" lon="-0.167937">
        <ele>188.0</ele>
        <time>2014-07-06T11:15:37Z</time>
      </trkpt>
      <trkpt lat="51.324964" lon="-0.167492">
        <ele>187.0</ele>
        <time>2014-07-06T11:15:41Z</time>
      </trkpt>
      <trkpt lat="51.32486" lon="-0.167216">
        <ele>185.0</ele>
        <time>2014-07-06T11:15:45Z</time>
      </trkpt>
      <trkpt lat="51.324615" lon="-0.167038">
        <ele>180.0</ele>
        <time>2014-07-06T11:15:49Z</time>
      </trkpt>
      <trkpt lat="51.324386" lon="-0.166814">
        <ele>179.0</ele>
        <time>2014-07-06T11:15:53Z</time>
      </trkpt>
      <trkpt lat="51.324139" lon="-0.16661">
        <ele>177.0</ele>
        <time>2014-07-06T11:15:57Z</time>
      </trkpt>
      <trkpt lat="51.323927" lon="-0.166398">
        <ele>178.0</ele>
        <time>2014-07-06T11:16:01Z</time>
      </trkpt>
      <trkpt lat="51.32345" lon="-0.166093">
        <ele>171.0</ele>
        <time>2014-07-06T11:16:06Z</time>
      </trkpt>
      <trkpt lat="51.32301" lon="-0.165592">
        <ele>173.0</ele>
        <time>2014-07-06T11:16:11Z</time>
      </trkpt>
      <trkpt lat="51.322756" lon="-0.165342">
        <ele>172.0</ele>
        <time>2014-07-06T11:16:15Z</time>
      </trkpt>
      <trkpt lat="51.322434" lon="-0.165217">
        <ele>168.0</ele>
        <time>2014-07-06T11:16:19Z</time>
      </trkpt>
      <trkpt lat="51.322152" lon="-0.165071">
        <ele>169.0</ele>
        <time>2014-07-06T11:16:23Z</time>
      </trkpt>
      <trkpt lat="51.32178" lon="-0.164972">
        <ele>165.0</ele>
        <time>2014-07-06T11:16:27Z</time>
      </trkpt>
      <trkpt lat="51.321418" lon="-0.164962">
        <ele>163.0</ele>
        <time>2014-07-06T11:16:31Z</time>
      </trkpt>
      <trkpt lat="51.32099" lon="-0.164989">
        <ele>163.0</ele>
        <time>2014-07-06T11:16:36Z</time>
      </trkpt>
      <trkpt lat="51.320702" lon="-0.16509">
        <ele>159.0</ele>
        <time>2014-07-06T11:16:40Z</time>
      </trkpt>
      <trkpt lat="51.320355" lon="-0.165367">
        <ele>160.0</ele>
        <time>2014-07-06T11:16:44Z</time>
      </trkpt>
      <trkpt lat="51.320111" lon="-0.165711">
        <ele>159.0</ele>
        <time>2014-07-06T11:16:48Z</time>
      </trkpt>
      <trkpt lat="51.319835" lon="-0.165995">
        <ele>160.0</ele>
        <time>2014-07-06T11:16:52Z</time>
      </trkpt>
      <trkpt lat="51.319521" lon="-0.166215">
        <ele>161.0</ele>
        <time>2014-07-06T11:16:56Z</time>
      </trkpt>
      <trkpt lat="51.319091" lon="-0.166599">
        <ele>159.0</ele>
        <time>2014-07-06T11:17:01Z</time>
      </trkpt>
      <trkpt lat="51.318779" lon="-0.166847">
        <ele>159.0</ele>
        <time>2014-07-06T11:17:05Z</time>
      </trkpt>
      <trkpt lat="51.318467" lon="-0.167104">
        <ele>161.0</ele>
        <time>2014-07-06T11:17:09Z</time>
      </trkpt>
      <trkpt lat="51.318172" lon="-0.16735">
        <ele>162.0</ele>
        <time>2014-07-06T11:17:14Z</time>
      </trkpt>
      <trkpt lat="51.317668" lon="-0.167511">
        <ele>158.0</ele>
        <time>2014-07-06T11:17:18Z</time>
      </trkpt>
      <trkpt lat="51.317362" lon="-0.167471">
        <ele>153.0</ele>
        <time>2014-07-06T11:17:22Z</time>
      </trkpt>
      <trkpt lat="51.317065" lon="-0.16734">
        <ele>150.0</ele>
        <time>2014-07-06T11:17:26Z</time>
      </trkpt>
      <trkpt lat="51.316851" lon="-0.166886">
        <ele>146.0</ele>
        <time>2014-07-06T11:17:30Z</time>
      </trkpt>
      <trkpt lat="51.316606" lon="-0.166479">
        <ele>144.0</ele>
        <time>2014-07-06T11:17:34Z</time>
      </trkpt>
      <trkpt lat="51.316292" lon="-0.166102">
        <ele>142.0</ele>
        <time>2014-07-06T11:17:39Z</time>
      </trkpt>
      <trkpt lat="51.31605" lon="-0.165782">
        <ele>142.0</ele>
        <time>2014-07-06T11:17:43Z</time>
      </trkpt>
      <trkpt lat="51.315857" lon="-0.165485">
        <ele>139.0</ele>
        <time>2014-07-06T11:17:47Z</time>
      </trkpt>
      <trkpt lat="51.315727" lon="-0.16524">
        <ele>136.0</ele>
        <time>2014-07-06T11:17:51Z</time>
      </trkpt>
      <trkpt lat="51.315627" lon="-0.165062">
        <ele>137.0</ele>
        <time>2014-07-06T11:17:55Z</time>
      </trkpt>
      <trkpt lat="51.315655" lon="-0.164849">
        <ele>136.0</ele>
        <time>2014-07-06T11:17:59Z</time>
      </trkpt>
      <trkpt lat="51.315694" lon="-0.164673">
        <ele>139.0</ele>
        <time>2014-07-06T11:18:03Z</time>
      </trkpt>
      <trkpt lat="51.315724" lon="-0.164433">
        <ele>140.0</ele>
        <time>2014-07-06T11:18:08Z</time>
      </trkpt>
      <trkpt lat="51.315762" lon="-0.164247">
        <ele>143.0</ele>
        <time>2014-07-06T11:18:12Z</time>
      </trkpt>
      <trkpt lat="51.315783" lon="-0.16406">
        <ele>141.0</ele>
        <time>2014-07-06T11:18:16Z</time>
      </trkpt>
      <trkpt lat="51.315764" lon="-0.163938">
        <ele>135.0</ele>
        <time>2014-07-06T11:19:07Z</time>
      </trkpt>
      <trkpt lat="51.315807" lon="-0.163758">
        <ele>137.0</ele>
        <time>2014-07-06T11:19:11Z</time>
      </trkpt>
      <trkpt lat="51.315877" lon="-0.163521">
        <ele>139.0</ele>
        <time>2014-07-06T11:19:16Z</time>
      </trkpt>
      <trkpt lat="51.315963" lon="-0.163241">
        <ele>138.0</ele>
        <time>2014-07-06T11:19:21Z</time>
      </trkpt>
      <trkpt lat="51.315956" lon="-0.163025">
        <ele>139.0</ele>
        <time>2014-07-06T11:19:25Z</time>
      </trkpt>
      <trkpt lat="51.315797" lon="-0.163025">
        <ele>139.0</ele>
        <time>2014-07-06T11:19:30Z</time>
      </trkpt>
      <trkpt lat="51.315631" lon="-0.163204">
        <ele>139.0</ele>
        <time>2014-07-06T11:19:35Z</time>
      </trkpt>
      <trkpt lat="51.315476" lon="-0.163331">
        <ele>137.0</ele>
        <time>2014-07-06T11:19:39Z</time>
      </trkpt>
      <trkpt lat="51.315326" lon="-0.163454">
        <ele>138.0</ele>
        <time>2014-07-06T11:19:43Z</time>
      </trkpt>
      <trkpt lat="51.315136" lon="-0.163613">
        <ele>139.0</ele>
        <time>2014-07-06T11:19:48Z</time>
      </trkpt>
      <trkpt lat="51.314975" lon="-0.163669">
        <ele>141.0</ele>
        <time>2014-07-06T11:19:52Z</time>
      </trkpt>
      <trkpt lat="51.314861" lon="-0.163552">
        <ele>145.0</ele>
        <time>2014-07-06T11:19:56Z</time>
      </trkpt>
      <trkpt lat="51.314767" lon="-0.163397">
        <ele>150.0</ele>
        <time>2014-07-06T11:20:00Z</time>
      </trkpt>
      <trkpt lat="51.314675" lon="-0.163243">
        <ele>153.0</ele>
        <time>2014-07-06T11:20:04Z</time>
      </trkpt>
      <trkpt lat="51.31457" lon="-0.163058">
        <ele>154.0</ele>
        <time>2014-07-06T11:20:09Z</time>
      </trkpt>
      <trkpt lat="51.314504" lon="-0.162932">
        <ele>149.0</ele>
        <time>2014-07-06T11:20:13Z</time>
      </trkpt>
      <trkpt lat="51.314435" lon="-0.162829">
        <ele>149.0</ele>
        <time>2014-07-06T11:20:17Z</time>
      </trkpt>
      <trkpt lat="51.314344" lon="-0.162679">
        <ele>150.0</ele>
        <time>2014-07-06T11:20:22Z</time>
      </trkpt>
      <trkpt lat="51.314262" lon="-0.162576">
        <ele>148.0</ele>
        <time>2014-07-06T11:20:26Z</time>
      </trkpt>
      <trkpt lat="51.314179" lon="-0.162477">
        <ele>149.0</ele>
        <time>2014-07-06T11:20:30Z</time>
      </trkpt>
      <trkpt lat="51.314064" lon="-0.16236">
        <ele>153.0</ele>
        <time>2014-07-06T11:20:35Z</time>
      </trkpt>
      <trkpt lat="51.313979" lon="-0.162289">
        <ele>154.0</ele>
        <time>2014-07-06T11:20:39Z</time>
      </trkpt>
      <trkpt lat="51.313876" lon="-0.162231">
        <ele>155.0</ele>
        <time>2014-07-06T11:20:44Z</time>
      </trkpt>
      <trkpt lat="51.313803" lon="-0.162175">
        <ele>155.0</ele>
        <time>2014-07-06T11:20:49Z</time>
      </trkpt>
      <trkpt lat="51.313723" lon="-0.162114">
        <ele>155.0</ele>
        <time>2014-07-06T11:20:54Z</time>
      </trkpt>
      <trkpt lat="51.313657" lon="-0.162063">
        <ele>156.0</ele>
        <time>2014-07-06T11:20:58Z</time>
      </trkpt>
      <trkpt lat="51.313511" lon="-0.161964">
        <ele>155.0</ele>
        <time>2014-07-06T11:21:03Z</time>
      </trkpt>
      <trkpt lat="51.313398" lon="-0.161892">
        <ele>151.0</ele>
        <time>2014-07-06T11:21:07Z</time>
      </trkpt>
      <trkpt lat="51.31327" lon="-0.161824">
        <ele>154.0</ele>
        <time>2014-07-06T11:21:12Z</time>
      </trkpt>
      <trkpt lat="51.31318" lon="-0.161784">
        <ele>155.0</ele>
        <time>2014-07-06T11:21:16Z</time>
      </trkpt>
      <trkpt lat="51.313092" lon="-0.161757">
        <ele>157.0</ele>
        <time>2014-07-06T11:21:20Z</time>
      </trkpt>
      <trkpt lat="51.312992" lon="-0.161748">
        <ele>163.0</ele>
        <time>2014-07-06T11:21:25Z</time>
      </trkpt>
      <trkpt lat="51.312919" lon="-0.161722">
        <ele>166.0</ele>
        <time>2014-07-06T11:21:30Z</time>
      </trkpt>
      <trkpt lat="51.312816" lon="-0.161707">
        <ele>165.0</ele>
        <time>2014-07-06T11:21:35Z</time>
      </trkpt>
      <trkpt lat="51.312661" lon="-0.161657">
        <ele>160.0</ele>
        <time>2014-07-06T11:21:40Z</time>
      </trkpt>
      <trkpt lat="51.312575" lon="-0.16161">
        <ele>158.0</ele>
        <time>2014-07-06T11:21:45Z</time>
      </trkpt>
      <trkpt lat="51.312462" lon="-0.161564">
        <ele>158.0</ele>
        <time>2014-07-06T11:21:50Z</time>
      </trkpt>
      <trkpt lat="51.312377" lon="-0.161537">
        <ele>158.0</ele>
        <time>2014-07-06T11:21:54Z</time>
      </trkpt>
      <trkpt lat="51.312296" lon="-0.161505">
        <ele>164.0</ele>
        <time>2014-07-06T11:21:59Z</time>
      </trkpt>
      <trkpt lat="51.312203" lon="-0.161487">
        <ele>167.0</ele>
        <time>2014-07-06T11:22:04Z</time>
      </trkpt>
      <trkpt lat="51.312117" lon="-0.161488">
        <ele>169.0</ele>
        <time>2014-07-06T11:22:08Z</time>
      </trkpt>
      <trkpt lat="51.312035" lon="-0.161495">
        <ele>171.0</ele>
        <time>2014-07-06T11:22:12Z</time>
      </trkpt>
      <trkpt lat="51.311947" lon="-0.161485">
        <ele>171.0</ele>
        <time>2014-07-06T11:22:17Z</time>
      </trkpt>
      <trkpt lat="51.311867" lon="-0.161452">
        <ele>171.0</ele>
        <time>2014-07-06T11:22:22Z</time>
      </trkpt>
      <trkpt lat="51.311781" lon="-0.161455">
        <ele>171.0</ele>
        <time>2014-07-06T11:22:28Z</time>
      </trkpt>
      <trkpt lat="51.31169" lon="-0.161445">
        <ele>173.0</ele>
        <time>2014-07-06T11:22:33Z</time>
      </trkpt>
      <trkpt lat="51.311602" lon="-0.161426">
        <ele>174.0</ele>
        <time>2014-07-06T11:22:38Z</time>
      </trkpt>
      <trkpt lat="51.311524" lon="-0.16143">
        <ele>176.0</ele>
        <time>2014-07-06T11:22:42Z</time>
      </trkpt>
      <trkpt lat="51.311402" lon="-0.161411">
        <ele>175.0</ele>
        <time>2014-07-06T11:22:47Z</time>
      </trkpt>
      <trkpt lat="51.311276" lon="-0.161412">
        <ele>173.0</ele>
        <time>2014-07-06T11:22:52Z</time>
      </trkpt>
      <trkpt lat="51.311189" lon="-0.161442">
        <ele>173.0</ele>
        <time>2014-07-06T11:23:23Z</time>
      </trkpt>
      <trkpt lat="51.31111" lon="-0.161474">
        <ele>173.0</ele>
        <time>2014-07-06T11:23:59Z</time>
      </trkpt>
      <trkpt lat="51.311022" lon="-0.161491">
        <ele>177.0</ele>
        <time>2014-07-06T11:24:04Z</time>
      </trkpt>
      <trkpt lat="51.31091" lon="-0.161515">
        <ele>182.0</ele>
        <time>2014-07-06T11:24:09Z</time>
      </trkpt>
      <trkpt lat="51.310831" lon="-0.161533">
        <ele>184.0</ele>
        <time>2014-07-06T11:24:13Z</time>
      </trkpt>
      <trkpt lat="51.31073" lon="-0.16156">
        <ele>183.0</ele>
        <time>2014-07-06T11:24:18Z</time>
      </trkpt>
      <trkpt lat="51.310647" lon="-0.161565">
        <ele>185.0</ele>
        <time>2014-07-06T11:24:23Z</time>
      </trkpt>
      <trkpt lat="51.310577" lon="-0.161572">
        <ele>186.0</ele>
        <time>2014-07-06T11:24:27Z</time>
      </trkpt>
      <trkpt lat="51.310458" lon="-0.161584">
        <ele>185.0</ele>
        <time>2014-07-06T11:24:32Z</time>
      </trkpt>
      <trkpt lat="51.310379" lon="-0.161598">
        <ele>185.0</ele>
        <time>2014-07-06T11:24:36Z</time>
      </trkpt>
      <trkpt lat="51.310292" lon="-0.161635">
        <ele>187.0</ele>
        <time>2014-07-06T11:24:41Z</time>
      </trkpt>
      <trkpt lat="51.310167" lon="-0.161647">
        <ele>186.0</ele>
        <time>2014-07-06T11:24:46Z</time>
      </trkpt>
      <trkpt lat="51.310085" lon="-0.161692">
        <ele>184.0</ele>
        <time>2014-07-06T11:24:50Z</time>
      </trkpt>
      <trkpt lat="51.309993" lon="-0.161737">
        <ele>187.0</ele>
        <time>2014-07-06T11:24:55Z</time>
      </trkpt>
      <trkpt lat="51.309895" lon="-0.161764">
        <ele>187.0</ele>
        <time>2014-07-06T11:25:00Z</time>
      </trkpt>
      <trkpt lat="51.309792" lon="-0.161815">
        <ele>190.0</ele>
        <time>2014-07-06T11:25:05Z</time>
      </trkpt>
      <trkpt lat="51.309712" lon="-0.161871">
        <ele>195.0</ele>
        <time>2014-07-06T11:25:09Z</time>
      </trkpt>
      <trkpt lat="51.309594" lon="-0.161929">
        <ele>195.0</ele>
        <time>2014-07-06T11:25:14Z</time>
      </trkpt>
      <trkpt lat="51.309488" lon="-0.16194">
        <ele>194.0</ele>
        <time>2014-07-06T11:25:18Z</time>
      </trkpt>
      <trkpt lat="51.309395" lon="-0.161996">
        <ele>199.0</ele>
        <time>2014-07-06T11:25:23Z</time>
      </trkpt>
      <trkpt lat="51.309319" lon="-0.162009">
        <ele>201.0</ele>
        <time>2014-07-06T11:25:29Z</time>
      </trkpt>
      <trkpt lat="51.309198" lon="-0.162039">
        <ele>200.0</ele>
        <time>2014-07-06T11:25:34Z</time>
      </trkpt>
      <trkpt lat="51.309085" lon="-0.162063">
        <ele>201.0</ele>
        <time>2014-07-06T11:25:38Z</time>
      </trkpt>
      <trkpt lat="51.308982" lon="-0.162091">
        <ele>201.0</ele>
        <time>2014-07-06T11:25:43Z</time>
      </trkpt>
      <trkpt lat="51.308846" lon="-0.162128">
        <ele>198.0</ele>
        <time>2014-07-06T11:25:47Z</time>
      </trkpt>
      <trkpt lat="51.308714" lon="-0.162198">
        <ele>199.0</ele>
        <time>2014-07-06T11:25:52Z</time>
      </trkpt>
      <trkpt lat="51.308577" lon="-0.162246">
        <ele>199.0</ele>
        <time>2014-07-06T11:25:57Z</time>
      </trkpt>
      <trkpt lat="51.308469" lon="-0.162327">
        <ele>199.0</ele>
        <time>2014-07-06T11:26:01Z</time>
      </trkpt>
      <trkpt lat="51.30836" lon="-0.162423">
        <ele>201.0</ele>
        <time>2014-07-06T11:26:05Z</time>
      </trkpt>
      <trkpt lat="51.308255" lon="-0.162513">
        <ele>202.0</ele>
        <time>2014-07-06T11:26:09Z</time>
      </trkpt>
      <trkpt lat="51.308165" lon="-0.162597">
        <ele>206.0</ele>
        <time>2014-07-06T11:26:13Z</time>
      </trkpt>
      <trkpt lat="51.308091" lon="-0.162695">
        <ele>205.0</ele>
        <time>2014-07-06T11:26:18Z</time>
      </trkpt>
      <trkpt lat="51.308012" lon="-0.162783">
        <ele>204.0</ele>
        <time>2014-07-06T11:26:22Z</time>
      </trkpt>
      <trkpt lat="51.307912" lon="-0.162898">
        <ele>203.0</ele>
        <time>2014-07-06T11:26:27Z</time>
      </trkpt>
      <trkpt lat="51.307831" lon="-0.162994">
        <ele>203.0</ele>
        <time>2014-07-06T11:26:31Z</time>
      </trkpt>
      <trkpt lat="51.307758" lon="-0.163103">
        <ele>203.0</ele>
        <time>2014-07-06T11:26:35Z</time>
      </trkpt>
      <trkpt lat="51.307673" lon="-0.163235">
        <ele>203.0</ele>
        <time>2014-07-06T11:26:40Z</time>
      </trkpt>
      <trkpt lat="51.307625" lon="-0.163334">
        <ele>202.0</ele>
        <time>2014-07-06T11:26:44Z</time>
      </trkpt>
      <trkpt lat="51.307571" lon="-0.163453">
        <ele>204.0</ele>
        <time>2014-07-06T11:26:48Z</time>
      </trkpt>
      <trkpt lat="51.307513" lon="-0.163614">
        <ele>205.0</ele>
        <time>2014-07-06T11:26:53Z</time>
      </trkpt>
      <trkpt lat="51.307423" lon="-0.163761">
        <ele>204.0</ele>
        <time>2014-07-06T11:26:58Z</time>
      </trkpt>
      <trkpt lat="51.307343" lon="-0.163897">
        <ele>205.0</ele>
        <time>2014-07-06T11:27:03Z</time>
      </trkpt>
      <trkpt lat="51.307275" lon="-0.164003">
        <ele>205.0</ele>
        <time>2014-07-06T11:27:07Z</time>
      </trkpt>
      <trkpt lat="51.3072" lon="-0.164065">
        <ele>208.0</ele>
        <time>2014-07-06T11:27:39Z</time>
      </trkpt>
      <trkpt lat="51.307147" lon="-0.164159">
        <ele>204.0</ele>
        <time>2014-07-06T11:28:54Z</time>
      </trkpt>
      <trkpt lat="51.307075" lon="-0.164263">
        <ele>203.0</ele>
        <time>2014-07-06T11:28:58Z</time>
      </trkpt>
      <trkpt lat="51.307011" lon="-0.164385">
        <ele>205.0</ele>
        <time>2014-07-06T11:29:02Z</time>
      </trkpt>
      <trkpt lat="51.306916" lon="-0.164503">
        <ele>203.0</ele>
        <time>2014-07-06T11:29:06Z</time>
      </trkpt>
      <trkpt lat="51.306788" lon="-0.164658">
        <ele>206.0</ele>
        <time>2014-07-06T11:29:10Z</time>
      </trkpt>
      <trkpt lat="51.306672" lon="-0.164806">
        <ele>208.0</ele>
        <time>2014-07-06T11:29:14Z</time>
      </trkpt>
      <trkpt lat="51.306559" lon="-0.164958">
        <ele>208.0</ele>
        <time>2014-07-06T11:29:18Z</time>
      </trkpt>
      <trkpt lat="51.306384" lon="-0.165157">
        <ele>208.0</ele>
        <time>2014-07-06T11:29:23Z</time>
      </trkpt>
      <trkpt lat="51.306226" lon="-0.165306">
        <ele>207.0</ele>
        <time>2014-07-06T11:29:27Z</time>
      </trkpt>
      <trkpt lat="51.306009" lon="-0.165493">
        <ele>204.0</ele>
        <time>2014-07-06T11:29:32Z</time>
      </trkpt>
      <trkpt lat="51.305856" lon="-0.165644">
        <ele>203.0</ele>
        <time>2014-07-06T11:29:36Z</time>
      </trkpt>
      <trkpt lat="51.30567" lon="-0.165839">
        <ele>205.0</ele>
        <time>2014-07-06T11:29:41Z</time>
      </trkpt>
      <trkpt lat="51.305487" lon="-0.165987">
        <ele>204.0</ele>
        <time>2014-07-06T11:29:45Z</time>
      </trkpt>
      <trkpt lat="51.305331" lon="-0.166121">
        <ele>203.0</ele>
        <time>2014-07-06T11:29:49Z</time>
      </trkpt>
      <trkpt lat="51.305032" lon="-0.166286">
        <ele>200.0</ele>
        <time>2014-07-06T11:29:54Z</time>
      </trkpt>
      <trkpt lat="51.304798" lon="-0.166423">
        <ele>201.0</ele>
        <time>2014-07-06T11:29:59Z</time>
      </trkpt>
      <trkpt lat="51.304554" lon="-0.16649">
        <ele>202.0</ele>
        <time>2014-07-06T11:30:04Z</time>
      </trkpt>
      <trkpt lat="51.304353" lon="-0.166559">
        <ele>203.0</ele>
        <time>2014-07-06T11:30:08Z</time>
      </trkpt>
      <trkpt lat="51.304158" lon="-0.166604">
        <ele>204.0</ele>
        <time>2014-07-06T11:30:12Z</time>
      </trkpt>
      <trkpt lat="51.303869" lon="-0.166695">
        <ele>205.0</ele>
        <time>2014-07-06T11:30:17Z</time>
      </trkpt>
      <trkpt lat="51.303637" lon="-0.166691">
        <ele>204.0</ele>
        <time>2014-07-06T11:30:22Z</time>
      </trkpt>
      <trkpt lat="51.303469" lon="-0.16667">
        <ele>200.0</ele>
        <time>2014-07-06T11:30:26Z</time>
      </trkpt>
      <trkpt lat="51.303201" lon="-0.166559">
        <ele>201.0</ele>
        <time>2014-07-06T11:30:30Z</time>
      </trkpt>
      <trkpt lat="51.302916" lon="-0.166477">
        <ele>202.0</ele>
        <time>2014-07-06T11:30:35Z</time>
      </trkpt>
      <trkpt lat="51.302822" lon="-0.166425">
        <ele>203.0</ele>
        <time>2014-07-06T11:30:39Z</time>
      </trkpt>
      <trkpt lat="51.30269" lon="-0.166435">
        <ele>205.0</ele>
        <time>2014-07-06T11:30:43Z</time>
      </trkpt>
      <trkpt lat="51.302512" lon="-0.166507">
        <ele>206.0</ele>
        <time>2014-07-06T11:30:48Z</time>
      </trkpt>
      <trkpt lat="51.302393" lon="-0.166507">
        <ele>206.0</ele>
        <time>2014-07-06T11:30:53Z</time>
      </trkpt>
      <trkpt lat="51.302276" lon="-0.166528">
        <ele>205.0</ele>
        <time>2014-07-06T11:30:57Z</time>
      </trkpt>
      <trkpt lat="51.302136" lon="-0.166547">
        <ele>207.0</ele>
        <time>2014-07-06T11:31:01Z</time>
      </trkpt>
      <trkpt lat="51.301946" lon="-0.16653">
        <ele>207.0</ele>
        <time>2014-07-06T11:31:05Z</time>
      </trkpt>
      <trkpt lat="51.301746" lon="-0.166515">
        <ele>205.0</ele>
        <time>2014-07-06T11:31:09Z</time>
      </trkpt>
      <trkpt lat="51.301534" lon="-0.166579">
        <ele>204.0</ele>
        <time>2014-07-06T11:31:13Z</time>
      </trkpt>
      <trkpt lat="51.301278" lon="-0.166661">
        <ele>205.0</ele>
        <time>2014-07-06T11:31:18Z</time>
      </trkpt>
      <trkpt lat="51.301073" lon="-0.166753">
        <ele>205.0</ele>
        <time>2014-07-06T11:31:22Z</time>
      </trkpt>
      <trkpt lat="51.300846" lon="-0.166785">
        <ele>204.0</ele>
        <time>2014-07-06T11:31:26Z</time>
      </trkpt>
      <trkpt lat="51.300619" lon="-0.166816">
        <ele>207.0</ele>
        <time>2014-07-06T11:31:30Z</time>
      </trkpt>
      <trkpt lat="51.300334" lon="-0.166873">
        <ele>208.0</ele>
        <time>2014-07-06T11:31:35Z</time>
      </trkpt>
      <trkpt lat="51.300127" lon="-0.166904">
        <ele>208.0</ele>
        <time>2014-07-06T11:31:39Z</time>
      </trkpt>
      <trkpt lat="51.299908" lon="-0.166935">
        <ele>208.0</ele>
        <time>2014-07-06T11:31:43Z</time>
      </trkpt>
      <trkpt lat="51.299729" lon="-0.166964">
        <ele>208.0</ele>
        <time>2014-07-06T11:31:47Z</time>
      </trkpt>
      <trkpt lat="51.299548" lon="-0.16698">
        <ele>209.0</ele>
        <time>2014-07-06T11:31:51Z</time>
      </trkpt>
      <trkpt lat="51.299331" lon="-0.167031">
        <ele>206.0</ele>
        <time>2014-07-06T11:31:55Z</time>
      </trkpt>
      <trkpt lat="51.299103" lon="-0.167018">
        <ele>207.0</ele>
        <time>2014-07-06T11:32:00Z</time>
      </trkpt>
      <trkpt lat="51.298909" lon="-0.167032">
        <ele>207.0</ele>
        <time>2014-07-06T11:32:04Z</time>
      </trkpt>
      <trkpt lat="51.298727" lon="-0.167058">
        <ele>207.0</ele>
        <time>2014-07-06T11:32:08Z</time>
      </trkpt>
      <trkpt lat="51.298565" lon="-0.16704">
        <ele>210.0</ele>
        <time>2014-07-06T11:32:12Z</time>
      </trkpt>
      <trkpt lat="51.298365" lon="-0.167146">
        <ele>210.0</ele>
        <time>2014-07-06T11:32:17Z</time>
      </trkpt>
      <trkpt lat="51.298218" lon="-0.167253">
        <ele>210.0</ele>
        <time>2014-07-06T11:32:21Z</time>
      </trkpt>
      <trkpt lat="51.298038" lon="-0.167432">
        <ele>211.0</ele>
        <time>2014-07-06T11:32:26Z</time>
      </trkpt>
      <trkpt lat="51.297865" lon="-0.167608">
        <ele>212.0</ele>
        <time>2014-07-06T11:32:31Z</time>
      </trkpt>
      <trkpt lat="51.297727" lon="-0.167756">
        <ele>211.0</ele>
        <time>2014-07-06T11:32:35Z</time>
      </trkpt>
      <trkpt lat="51.297563" lon="-0.167966">
        <ele>212.0</ele>
        <time>2014-07-06T11:32:40Z</time>
      </trkpt>
      <trkpt lat="51.297414" lon="-0.168095">
        <ele>214.0</ele>
        <time>2014-07-06T11:32:44Z</time>
      </trkpt>
      <trkpt lat="51.297201" lon="-0.168226">
        <ele>216.0</ele>
        <time>2014-07-06T11:32:49Z</time>
      </trkpt>
      <trkpt lat="51.296997" lon="-0.168322">
        <ele>219.0</ele>
        <time>2014-07-06T11:32:54Z</time>
      </trkpt>
      <trkpt lat="51.296902" lon="-0.168449">
        <ele>218.0</ele>
        <time>2014-07-06T11:32:58Z</time>
      </trkpt>
      <trkpt lat="51.29673" lon="-0.168508">
        <ele>217.0</ele>
        <time>2014-07-06T11:33:02Z</time>
      </trkpt>
      <trkpt lat="51.29656" lon="-0.168638">
        <ele>215.0</ele>
        <time>2014-07-06T11:33:07Z</time>
      </trkpt>
      <trkpt lat="51.296363" lon="-0.168837">
        <ele>215.0</ele>
        <time>2014-07-06T11:33:12Z</time>
      </trkpt>
      <trkpt lat="51.296205" lon="-0.16908">
        <ele>215.0</ele>
        <time>2014-07-06T11:33:17Z</time>
      </trkpt>
      <trkpt lat="51.296035" lon="-0.169306">
        <ele>215.0</ele>
        <time>2014-07-06T11:33:21Z</time>
      </trkpt>
      <trkpt lat="51.295751" lon="-0.169423">
        <ele>215.0</ele>
        <time>2014-07-06T11:33:26Z</time>
      </trkpt>
      <trkpt lat="51.295564" lon="-0.169485">
        <ele>214.0</ele>
        <time>2014-07-06T11:33:30Z</time>
      </trkpt>
      <trkpt lat="51.295345" lon="-0.169612">
        <ele>214.0</ele>
        <time>2014-07-06T11:33:35Z</time>
      </trkpt>
      <trkpt lat="51.295069" lon="-0.169723">
        <ele>215.0</ele>
        <time>2014-07-06T11:33:40Z</time>
      </trkpt>
      <trkpt lat="51.294752" lon="-0.169854">
        <ele>214.0</ele>
        <time>2014-07-06T11:33:45Z</time>
      </trkpt>
      <trkpt lat="51.294511" lon="-0.17">
        <ele>211.0</ele>
        <time>2014-07-06T11:33:49Z</time>
      </trkpt>
      <trkpt lat="51.294212" lon="-0.170143">
        <ele>211.0</ele>
        <time>2014-07-06T11:33:53Z</time>
      </trkpt>
      <trkpt lat="51.293899" lon="-0.170327">
        <ele>211.0</ele>
        <time>2014-07-06T11:33:58Z</time>
      </trkpt>
      <trkpt lat="51.293654" lon="-0.17047">
        <ele>214.0</ele>
        <time>2014-07-06T11:34:02Z</time>
      </trkpt>
      <trkpt lat="51.293318" lon="-0.170646">
        <ele>216.0</ele>
        <time>2014-07-06T11:34:07Z</time>
      </trkpt>
      <trkpt lat="51.293106" lon="-0.170836">
        <ele>220.0</ele>
        <time>2014-07-06T11:34:11Z</time>
      </trkpt>
      <trkpt lat="51.292731" lon="-0.171">
        <ele>216.0</ele>
        <time>2014-07-06T11:34:16Z</time>
      </trkpt>
      <trkpt lat="51.292418" lon="-0.17106">
        <ele>212.0</ele>
        <time>2014-07-06T11:34:20Z</time>
      </trkpt>
      <trkpt lat="51.292146" lon="-0.171096">
        <ele>211.0</ele>
        <time>2014-07-06T11:34:24Z</time>
      </trkpt>
      <trkpt lat="51.291892" lon="-0.171178">
        <ele>213.0</ele>
        <time>2014-07-06T11:34:28Z</time>
      </trkpt>
      <trkpt lat="51.291537" lon="-0.171279">
        <ele>213.0</ele>
        <time>2014-07-06T11:34:33Z</time>
      </trkpt>
      <trkpt lat="51.291258" lon="-0.171327">
        <ele>214.0</ele>
        <time>2014-07-06T11:34:37Z</time>
      </trkpt>
      <trkpt lat="51.290903" lon="-0.171443">
        <ele>210.0</ele>
        <time>2014-07-06T11:34:42Z</time>
      </trkpt>
      <trkpt lat="51.290713" lon="-0.171504">
        <ele>209.0</ele>
        <time>2014-07-06T11:34:46Z</time>
      </trkpt>
      <trkpt lat="51.290501" lon="-0.171521">
        <ele>208.0</ele>
        <time>2014-07-06T11:34:50Z</time>
      </trkpt>
      <trkpt lat="51.2903" lon="-0.171605">
        <ele>209.0</ele>
        <time>2014-07-06T11:34:55Z</time>
      </trkpt>
      <trkpt lat="51.290123" lon="-0.171654">
        <ele>212.0</ele>
        <time>2014-07-06T11:34:59Z</time>
      </trkpt>
      <trkpt lat="51.289871" lon="-0.171643">
        <ele>211.0</ele>
        <time>2014-07-06T11:35:04Z</time>
      </trkpt>
      <trkpt lat="51.289666" lon="-0.171695">
        <ele>212.0</ele>
        <time>2014-07-06T11:35:08Z</time>
      </trkpt>
      <trkpt lat="51.289409" lon="-0.171694">
        <ele>213.0</ele>
        <time>2014-07-06T11:35:13Z</time>
      </trkpt>
      <trkpt lat="51.289145" lon="-0.171609">
        <ele>211.0</ele>
        <time>2014-07-06T11:35:18Z</time>
      </trkpt>
      <trkpt lat="51.288957" lon="-0.171629">
        <ele>212.0</ele>
        <time>2014-07-06T11:35:22Z</time>
      </trkpt>
      <trkpt lat="51.288783" lon="-0.171581">
        <ele>212.0</ele>
        <time>2014-07-06T11:35:26Z</time>
      </trkpt>
      <trkpt lat="51.288533" lon="-0.171505">
        <ele>214.0</ele>
        <time>2014-07-06T11:35:31Z</time>
      </trkpt>
      <trkpt lat="51.288328" lon="-0.171472">
        <ele>214.0</ele>
        <time>2014-07-06T11:35:35Z</time>
      </trkpt>
      <trkpt lat="51.288084" lon="-0.171391">
        <ele>215.0</ele>
        <time>2014-07-06T11:35:40Z</time>
      </trkpt>
      <trkpt lat="51.28786" lon="-0.171278">
        <ele>215.0</ele>
        <time>2014-07-06T11:35:45Z</time>
      </trkpt>
      <trkpt lat="51.287656" lon="-0.171231">
        <ele>215.0</ele>
        <time>2014-07-06T11:35:49Z</time>
      </trkpt>
      <trkpt lat="51.287416" lon="-0.171248">
        <ele>214.0</ele>
        <time>2014-07-06T11:35:54Z</time>
      </trkpt>
      <trkpt lat="51.287231" lon="-0.171245">
        <ele>215.0</ele>
        <time>2014-07-06T11:35:58Z</time>
      </trkpt>
      <trkpt lat="51.286987" lon="-0.171245">
        <ele>214.0</ele>
        <time>2014-07-06T11:36:03Z</time>
      </trkpt>
      <trkpt lat="51.286722" lon="-0.171261">
        <ele>215.0</ele>
        <time>2014-07-06T11:36:08Z</time>
      </trkpt>
      <trkpt lat="51.286519" lon="-0.171278">
        <ele>215.0</ele>
        <time>2014-07-06T11:36:12Z</time>
      </trkpt>
      <trkpt lat="51.2863" lon="-0.171362">
        <ele>215.0</ele>
        <time>2014-07-06T11:36:16Z</time>
      </trkpt>
      <trkpt lat="51.286123" lon="-0.171432">
        <ele>217.0</ele>
        <time>2014-07-06T11:36:20Z</time>
      </trkpt>
      <trkpt lat="51.285913" lon="-0.171538">
        <ele>217.0</ele>
        <time>2014-07-06T11:36:24Z</time>
      </trkpt>
      <trkpt lat="51.285728" lon="-0.171645">
        <ele>217.0</ele>
        <time>2014-07-06T11:36:28Z</time>
      </trkpt>
      <trkpt lat="51.285537" lon="-0.171725">
        <ele>218.0</ele>
        <time>2014-07-06T11:36:32Z</time>
      </trkpt>
      <trkpt lat="51.285365" lon="-0.171882">
        <ele>220.0</ele>
        <time>2014-07-06T11:36:36Z</time>
      </trkpt>
      <trkpt lat="51.285178" lon="-0.171999">
        <ele>221.0</ele>
        <time>2014-07-06T11:36:40Z</time>
      </trkpt>
      <trkpt lat="51.284948" lon="-0.17209">
        <ele>219.0</ele>
        <time>2014-07-06T11:36:45Z</time>
      </trkpt>
      <trkpt lat="51.284737" lon="-0.172277">
        <ele>216.0</ele>
        <time>2014-07-06T11:36:49Z</time>
      </trkpt>
      <trkpt lat="51.284538" lon="-0.172466">
        <ele>215.0</ele>
        <time>2014-07-06T11:36:53Z</time>
      </trkpt>
      <trkpt lat="51.284362" lon="-0.172677">
        <ele>215.0</ele>
        <time>2014-07-06T11:36:58Z</time>
      </trkpt>
      <trkpt lat="51.284221" lon="-0.172946">
        <ele>214.0</ele>
        <time>2014-07-06T11:37:02Z</time>
      </trkpt>
      <trkpt lat="51.284034" lon="-0.173134">
        <ele>214.0</ele>
        <time>2014-07-06T11:37:06Z</time>
      </trkpt>
      <trkpt lat="51.283894" lon="-0.17336">
        <ele>213.0</ele>
        <time>2014-07-06T11:37:11Z</time>
      </trkpt>
      <trkpt lat="51.283752" lon="-0.17355">
        <ele>213.0</ele>
        <time>2014-07-06T11:37:15Z</time>
      </trkpt>
      <trkpt lat="51.283568" lon="-0.173699">
        <ele>216.0</ele>
        <time>2014-07-06T11:37:20Z</time>
      </trkpt>
      <trkpt lat="51.283381" lon="-0.173869">
        <ele>214.0</ele>
        <time>2014-07-06T11:37:24Z</time>
      </trkpt>
      <trkpt lat="51.283189" lon="-0.174118">
        <ele>217.0</ele>
        <time>2014-07-06T11:37:29Z</time>
      </trkpt>
      <trkpt lat="51.283043" lon="-0.17426">
        <ele>216.0</ele>
        <time>2014-07-06T11:37:33Z</time>
      </trkpt>
      <trkpt lat="51.282876" lon="-0.174427">
        <ele>215.0</ele>
        <time>2014-07-06T11:37:38Z</time>
      </trkpt>
      <trkpt lat="51.282654" lon="-0.174534">
        <ele>216.0</ele>
        <time>2014-07-06T11:37:43Z</time>
      </trkpt>
      <trkpt lat="51.282441" lon="-0.174639">
        <ele>213.0</ele>
        <time>2014-07-06T11:37:47Z</time>
      </trkpt>
      <trkpt lat="51.282254" lon="-0.174789">
        <ele>215.0</ele>
        <time>2014-07-06T11:37:51Z</time>
      </trkpt>
      <trkpt lat="51.282035" lon="-0.174959">
        <ele>216.0</ele>
        <time>2014-07-06T11:37:56Z</time>
      </trkpt>
      <trkpt lat="51.281854" lon="-0.175105">
        <ele>213.0</ele>
        <time>2014-07-06T11:38:01Z</time>
      </trkpt>
      <trkpt lat="51.281933" lon="-0.175084">
        <ele>213.0</ele>
        <time>2014-07-06T11:38:27Z</time>
      </trkpt>
      <trkpt lat="51.282052" lon="-0.174985">
        <ele>213.0</ele>
        <time>2014-07-06T11:38:31Z</time>
      </trkpt>
      <trkpt lat="51.282209" lon="-0.174852">
        <ele>213.0</ele>
        <time>2014-07-06T11:38:36Z</time>
      </trkpt>
      <trkpt lat="51.282362" lon="-0.174737">
        <ele>213.0</ele>
        <time>2014-07-06T11:38:41Z</time>
      </trkpt>
      <trkpt lat="51.282489" lon="-0.174656">
        <ele>213.0</ele>
        <time>2014-07-06T11:38:45Z</time>
      </trkpt>
      <trkpt lat="51.282588" lon="-0.174464">
        <ele>216.0</ele>
        <time>2014-07-06T11:38:50Z</time>
      </trkpt>
      <trkpt lat="51.282473" lon="-0.174242">
        <ele>214.0</ele>
        <time>2014-07-06T11:38:55Z</time>
      </trkpt>
      <trkpt lat="51.282384" lon="-0.174057">
        <ele>215.0</ele>
        <time>2014-07-06T11:38:59Z</time>
      </trkpt>
      <trkpt lat="51.282256" lon="-0.173867">
        <ele>218.0</ele>
        <time>2014-07-06T11:39:04Z</time>
      </trkpt>
      <trkpt lat="51.282165" lon="-0.173695">
        <ele>219.0</ele>
        <time>2014-07-06T11:39:08Z</time>
      </trkpt>
      <trkpt lat="51.282096" lon="-0.173505">
        <ele>216.0</ele>
        <time>2014-07-06T11:39:13Z</time>
      </trkpt>
      <trkpt lat="51.282024" lon="-0.173343">
        <ele>217.0</ele>
        <time>2014-07-06T11:39:18Z</time>
      </trkpt>
      <trkpt lat="51.28197" lon="-0.173234">
        <ele>217.0</ele>
        <time>2014-07-06T11:39:22Z</time>
      </trkpt>
      <trkpt lat="51.281877" lon="-0.173072">
        <ele>220.0</ele>
        <time>2014-07-06T11:39:27Z</time>
      </trkpt>
      <trkpt lat="51.281778" lon="-0.172948">
        <ele>219.0</ele>
        <time>2014-07-06T11:39:31Z</time>
      </trkpt>
      <trkpt lat="51.281665" lon="-0.172765">
        <ele>219.0</ele>
        <time>2014-07-06T11:39:35Z</time>
      </trkpt>
      <trkpt lat="51.281516" lon="-0.172552">
        <ele>217.0</ele>
        <time>2014-07-06T11:39:40Z</time>
      </trkpt>
      <trkpt lat="51.281365" lon="-0.172377">
        <ele>217.0</ele>
        <time>2014-07-06T11:39:45Z</time>
      </trkpt>
      <trkpt lat="51.281229" lon="-0.17226">
        <ele>218.0</ele>
        <time>2014-07-06T11:39:49Z</time>
      </trkpt>
      <trkpt lat="51.281045" lon="-0.172152">
        <ele>217.0</ele>
        <time>2014-07-06T11:39:53Z</time>
      </trkpt>
      <trkpt lat="51.280802" lon="-0.17209">
        <ele>219.0</ele>
        <time>2014-07-06T11:39:58Z</time>
      </trkpt>
      <trkpt lat="51.280619" lon="-0.17203">
        <ele>219.0</ele>
        <time>2014-07-06T11:40:02Z</time>
      </trkpt>
      <trkpt lat="51.28034" lon="-0.171954">
        <ele>218.0</ele>
        <time>2014-07-06T11:40:07Z</time>
      </trkpt>
      <trkpt lat="51.280096" lon="-0.171855">
        <ele>216.0</ele>
        <time>2014-07-06T11:40:11Z</time>
      </trkpt>
      <trkpt lat="51.279839" lon="-0.171834">
        <ele>218.0</ele>
        <time>2014-07-06T11:40:15Z</time>
      </trkpt>
      <trkpt lat="51.279643" lon="-0.171828">
        <ele>219.0</ele>
        <time>2014-07-06T11:40:19Z</time>
      </trkpt>
      <trkpt lat="51.279443" lon="-0.171778">
        <ele>219.0</ele>
        <time>2014-07-06T11:40:23Z</time>
      </trkpt>
      <trkpt lat="51.279229" lon="-0.171738">
        <ele>218.0</ele>
        <time>2014-07-06T11:40:27Z</time>
      </trkpt>
      <trkpt lat="51.278985" lon="-0.171651">
        <ele>217.0</ele>
        <time>2014-07-06T11:40:31Z</time>
      </trkpt>
      <trkpt lat="51.27872" lon="-0.171565">
        <ele>216.0</ele>
        <time>2014-07-06T11:40:35Z</time>
      </trkpt>
      <trkpt lat="51.278406" lon="-0.171289">
        <ele>213.0</ele>
        <time>2014-07-06T11:40:40Z</time>
      </trkpt>
      <trkpt lat="51.278055" lon="-0.17114">
        <ele>211.0</ele>
        <time>2014-07-06T11:40:45Z</time>
      </trkpt>
      <trkpt lat="51.277754" lon="-0.171154">
        <ele>213.0</ele>
        <time>2014-07-06T11:40:49Z</time>
      </trkpt>
      <trkpt lat="51.277415" lon="-0.171103">
        <ele>212.0</ele>
        <time>2014-07-06T11:40:54Z</time>
      </trkpt>
      <trkpt lat="51.27714" lon="-0.17091">
        <ele>210.0</ele>
        <time>2014-07-06T11:40:58Z</time>
      </trkpt>
      <trkpt lat="51.276888" lon="-0.170638">
        <ele>209.0</ele>
        <time>2014-07-06T11:41:02Z</time>
      </trkpt>
      <trkpt lat="51.276654" lon="-0.170325">
        <ele>208.0</ele>
        <time>2014-07-06T11:41:06Z</time>
      </trkpt>
      <trkpt lat="51.276441" lon="-0.170089">
        <ele>207.0</ele>
        <time>2014-07-06T11:41:10Z</time>
      </trkpt>
      <trkpt lat="51.276197" lon="-0.169931">
        <ele>205.0</ele>
        <time>2014-07-06T11:41:14Z</time>
      </trkpt>
      <trkpt lat="51.275933" lon="-0.169814">
        <ele>204.0</ele>
        <time>2014-07-06T11:41:19Z</time>
      </trkpt>
      <trkpt lat="51.275697" lon="-0.16988">
        <ele>203.0</ele>
        <time>2014-07-06T11:41:24Z</time>
      </trkpt>
      <trkpt lat="51.275528" lon="-0.169927">
        <ele>203.0</ele>
        <time>2014-07-06T11:41:28Z</time>
      </trkpt>
      <trkpt lat="51.275324" lon="-0.169909">
        <ele>205.0</ele>
        <time>2014-07-06T11:41:33Z</time>
      </trkpt>
      <trkpt lat="51.275174" lon="-0.169917">
        <ele>208.0</ele>
        <time>2014-07-06T11:41:37Z</time>
      </trkpt>
      <trkpt lat="51.275031" lon="-0.169918">
        <ele>206.0</ele>
        <time>2014-07-06T11:41:41Z</time>
      </trkpt>
      <trkpt lat="51.274784" lon="-0.170023">
        <ele>210.0</ele>
        <time>2014-07-06T11:41:46Z</time>
      </trkpt>
      <trkpt lat="51.274597" lon="-0.170183">
        <ele>207.0</ele>
        <time>2014-07-06T11:41:51Z</time>
      </trkpt>
      <trkpt lat="51.274387" lon="-0.170232">
        <ele>207.0</ele>
        <time>2014-07-06T11:41:55Z</time>
      </trkpt>
      <trkpt lat="51.274158" lon="-0.170428">
        <ele>208.0</ele>
        <time>2014-07-06T11:42:00Z</time>
      </trkpt>
      <trkpt lat="51.273943" lon="-0.170689">
        <ele>206.0</ele>
        <time>2014-07-06T11:42:04Z</time>
      </trkpt>
      <trkpt lat="51.273613" lon="-0.171157">
        <ele>206.0</ele>
        <time>2014-07-06T11:42:09Z</time>
      </trkpt>
      <trkpt lat="51.273147" lon="-0.171683">
        <ele>207.0</ele>
        <time>2014-07-06T11:42:14Z</time>
      </trkpt>
      <trkpt lat="51.272831" lon="-0.171947">
        <ele>205.0</ele>
        <time>2014-07-06T11:42:18Z</time>
      </trkpt>
      <trkpt lat="51.272373" lon="-0.172074">
        <ele>202.0</ele>
        <time>2014-07-06T11:42:23Z</time>
      </trkpt>
      <trkpt lat="51.272069" lon="-0.17208">
        <ele>200.0</ele>
        <time>2014-07-06T11:42:27Z</time>
      </trkpt>
      <trkpt lat="51.271764" lon="-0.172074">
        <ele>199.0</ele>
        <time>2014-07-06T11:42:31Z</time>
      </trkpt>
      <trkpt lat="51.271393" lon="-0.172175">
        <ele>193.0</ele>
        <time>2014-07-06T11:42:35Z</time>
      </trkpt>
      <trkpt lat="51.270959" lon="-0.172046">
        <ele>191.0</ele>
        <time>2014-07-06T11:42:40Z</time>
      </trkpt>
      <trkpt lat="51.270636" lon="-0.171993">
        <ele>187.0</ele>
        <time>2014-07-06T11:42:44Z</time>
      </trkpt>
      <trkpt lat="51.270318" lon="-0.172037">
        <ele>185.0</ele>
        <time>2014-07-06T11:42:48Z</time>
      </trkpt>
      <trkpt lat="51.269856" lon="-0.172084">
        <ele>182.0</ele>
        <time>2014-07-06T11:42:53Z</time>
      </trkpt>
      <trkpt lat="51.269464" lon="-0.171733">
        <ele>179.0</ele>
        <time>2014-07-06T11:42:57Z</time>
      </trkpt>
      <trkpt lat="51.26911" lon="-0.171345">
        <ele>176.0</ele>
        <time>2014-07-06T11:43:01Z</time>
      </trkpt>
      <trkpt lat="51.268631" lon="-0.170866">
        <ele>168.0</ele>
        <time>2014-07-06T11:43:06Z</time>
      </trkpt>
      <trkpt lat="51.268056" lon="-0.170431">
        <ele>165.0</ele>
        <time>2014-07-06T11:43:11Z</time>
      </trkpt>
      <trkpt lat="51.26763" lon="-0.170146">
        <ele>165.0</ele>
        <time>2014-07-06T11:43:15Z</time>
      </trkpt>
      <trkpt lat="51.26739" lon="-0.169986">
        <ele>161.0</ele>
        <time>2014-07-06T11:43:19Z</time>
      </trkpt>
      <trkpt lat="51.267248" lon="-0.16989">
        <ele>161.0</ele>
        <time>2014-07-06T11:43:24Z</time>
      </trkpt>
      <trkpt lat="51.267165" lon="-0.169849">
        <ele>158.0</ele>
        <time>2014-07-06T11:44:49Z</time>
      </trkpt>
      <trkpt lat="51.267083" lon="-0.169798">
        <ele>156.0</ele>
        <time>2014-07-06T11:45:09Z</time>
      </trkpt>
      <trkpt lat="51.267005" lon="-0.169856">
        <ele>157.0</ele>
        <time>2014-07-06T11:45:13Z</time>
      </trkpt>
      <trkpt lat="51.266911" lon="-0.170147">
        <ele>159.0</ele>
        <time>2014-07-06T11:45:18Z</time>
      </trkpt>
      <trkpt lat="51.266817" lon="-0.17043">
        <ele>159.0</ele>
        <time>2014-07-06T11:45:22Z</time>
      </trkpt>
      <trkpt lat="51.266697" lon="-0.170777">
        <ele>158.0</ele>
        <time>2014-07-06T11:45:27Z</time>
      </trkpt>
      <trkpt lat="51.266587" lon="-0.171116">
        <ele>160.0</ele>
        <time>2014-07-06T11:45:32Z</time>
      </trkpt>
      <trkpt lat="51.266484" lon="-0.171418">
        <ele>160.0</ele>
        <time>2014-07-06T11:45:36Z</time>
      </trkpt>
      <trkpt lat="51.266375" lon="-0.171777">
        <ele>163.0</ele>
        <time>2014-07-06T11:45:41Z</time>
      </trkpt>
      <trkpt lat="51.266266" lon="-0.172121">
        <ele>162.0</ele>
        <time>2014-07-06T11:45:46Z</time>
      </trkpt>
      <trkpt lat="51.266171" lon="-0.172396">
        <ele>163.0</ele>
        <time>2014-07-06T11:45:50Z</time>
      </trkpt>
      <trkpt lat="51.266069" lon="-0.172726">
        <ele>163.0</ele>
        <time>2014-07-06T11:45:55Z</time>
      </trkpt>
      <trkpt lat="51.265977" lon="-0.173043">
        <ele>165.0</ele>
        <time>2014-07-06T11:46:00Z</time>
      </trkpt>
      <trkpt lat="51.265809" lon="-0.173198">
        <ele>165.0</ele>
        <time>2014-07-06T11:46:05Z</time>
      </trkpt>
      <trkpt lat="51.265641" lon="-0.173153">
        <ele>167.0</ele>
        <time>2014-07-06T11:46:09Z</time>
      </trkpt>
      <trkpt lat="51.265502" lon="-0.173064">
        <ele>167.0</ele>
        <time>2014-07-06T11:46:13Z</time>
      </trkpt>
      <trkpt lat="51.265313" lon="-0.172999">
        <ele>165.0</ele>
        <time>2014-07-06T11:46:18Z</time>
      </trkpt>
      <trkpt lat="51.26523" lon="-0.172981">
        <ele>165.0</ele>
        <time>2014-07-06T11:46:23Z</time>
      </trkpt>
      <trkpt lat="51.265102" lon="-0.172922">
        <ele>167.0</ele>
        <time>2014-07-06T11:46:28Z</time>
      </trkpt>
      <trkpt lat="51.264928" lon="-0.172805">
        <ele>171.0</ele>
        <time>2014-07-06T11:46:33Z</time>
      </trkpt>
      <trkpt lat="51.264785" lon="-0.172746">
        <ele>168.0</ele>
        <time>2014-07-06T11:46:37Z</time>
      </trkpt>
      <trkpt lat="51.264645" lon="-0.172688">
        <ele>172.0</ele>
        <time>2014-07-06T11:46:42Z</time>
      </trkpt>
      <trkpt lat="51.264551" lon="-0.172638">
        <ele>172.0</ele>
        <time>2014-07-06T11:46:46Z</time>
      </trkpt>
      <trkpt lat="51.264469" lon="-0.172591">
        <ele>174.0</ele>
        <time>2014-07-06T11:46:50Z</time>
      </trkpt>
      <trkpt lat="51.264346" lon="-0.17253">
        <ele>173.0</ele>
        <time>2014-07-06T11:46:55Z</time>
      </trkpt>
      <trkpt lat="51.264231" lon="-0.17248">
        <ele>175.0</ele>
        <time>2014-07-06T11:46:59Z</time>
      </trkpt>
      <trkpt lat="51.26411" lon="-0.172414">
        <ele>174.0</ele>
        <time>2014-07-06T11:47:04Z</time>
      </trkpt>
      <trkpt lat="51.26402" lon="-0.172354">
        <ele>175.0</ele>
        <time>2014-07-06T11:47:08Z</time>
      </trkpt>
      <trkpt lat="51.263924" lon="-0.172295">
        <ele>174.0</ele>
        <time>2014-07-06T11:47:12Z</time>
      </trkpt>
      <trkpt lat="51.263825" lon="-0.172245">
        <ele>175.0</ele>
        <time>2014-07-06T11:47:16Z</time>
      </trkpt>
      <trkpt lat="51.263702" lon="-0.172122">
        <ele>176.0</ele>
        <time>2014-07-06T11:47:21Z</time>
      </trkpt>
      <trkpt lat="51.263592" lon="-0.171981">
        <ele>177.0</ele>
        <time>2014-07-06T11:47:25Z</time>
      </trkpt>
      <trkpt lat="51.263545" lon="-0.171778">
        <ele>176.0</ele>
        <time>2014-07-06T11:47:29Z</time>
      </trkpt>
      <trkpt lat="51.26362" lon="-0.171518">
        <ele>177.0</ele>
        <time>2014-07-06T11:47:34Z</time>
      </trkpt>
      <trkpt lat="51.263703" lon="-0.171319">
        <ele>176.0</ele>
        <time>2014-07-06T11:47:38Z</time>
      </trkpt>
      <trkpt lat="51.263773" lon="-0.171106">
        <ele>174.0</ele>
        <time>2014-07-06T11:47:42Z</time>
      </trkpt>
      <trkpt lat="51.263785" lon="-0.17088">
        <ele>175.0</ele>
        <time>2014-07-06T11:47:46Z</time>
      </trkpt>
      <trkpt lat="51.263761" lon="-0.170663">
        <ele>174.0</ele>
        <time>2014-07-06T11:47:50Z</time>
      </trkpt>
      <trkpt lat="51.263744" lon="-0.170452">
        <ele>176.0</ele>
        <time>2014-07-06T11:47:54Z</time>
      </trkpt>
      <trkpt lat="51.263698" lon="-0.170249">
        <ele>177.0</ele>
        <time>2014-07-06T11:47:59Z</time>
      </trkpt>
      <trkpt lat="51.263642" lon="-0.170084">
        <ele>173.0</ele>
        <time>2014-07-06T11:48:03Z</time>
      </trkpt>
      <trkpt lat="51.263547" lon="-0.169853">
        <ele>168.0</ele>
        <time>2014-07-06T11:48:08Z</time>
      </trkpt>
      <trkpt lat="51.263422" lon="-0.169674">
        <ele>168.0</ele>
        <time>2014-07-06T11:48:12Z</time>
      </trkpt>
      <trkpt lat="51.263265" lon="-0.169414">
        <ele>167.0</ele>
        <time>2014-07-06T11:48:16Z</time>
      </trkpt>
      <trkpt lat="51.263179" lon="-0.16904">
        <ele>168.0</ele>
        <time>2014-07-06T11:48:21Z</time>
      </trkpt>
      <trkpt lat="51.263118" lon="-0.168478">
        <ele>164.0</ele>
        <time>2014-07-06T11:48:26Z</time>
      </trkpt>
      <trkpt lat="51.263098" lon="-0.167949">
        <ele>163.0</ele>
        <time>2014-07-06T11:48:30Z</time>
      </trkpt>
      <trkpt lat="51.263152" lon="-0.167555">
        <ele>162.0</ele>
        <time>2014-07-06T11:48:34Z</time>
      </trkpt>
      <trkpt lat="51.263128" lon="-0.167186">
        <ele>155.0</ele>
        <time>2014-07-06T11:48:39Z</time>
      </trkpt>
      <trkpt lat="51.262923" lon="-0.166809">
        <ele>150.0</ele>
        <time>2014-07-06T11:48:43Z</time>
      </trkpt>
      <trkpt lat="51.262572" lon="-0.16627">
        <ele>145.0</ele>
        <time>2014-07-06T11:48:48Z</time>
      </trkpt>
      <trkpt lat="51.262337" lon="-0.165733">
        <ele>146.0</ele>
        <time>2014-07-06T11:48:52Z</time>
      </trkpt>
      <trkpt lat="51.262208" lon="-0.165195">
        <ele>141.0</ele>
        <time>2014-07-06T11:48:56Z</time>
      </trkpt>
      <trkpt lat="51.262031" lon="-0.164644">
        <ele>140.0</ele>
        <time>2014-07-06T11:49:00Z</time>
      </trkpt>
      <trkpt lat="51.261797" lon="-0.164138">
        <ele>140.0</ele>
        <time>2014-07-06T11:49:04Z</time>
      </trkpt>
      <trkpt lat="51.261575" lon="-0.163637">
        <ele>139.0</ele>
        <time>2014-07-06T11:49:08Z</time>
      </trkpt>
      <trkpt lat="51.261328" lon="-0.162959">
        <ele>135.0</ele>
        <time>2014-07-06T11:49:13Z</time>
      </trkpt>
      <trkpt lat="51.261083" lon="-0.162462">
        <ele>134.0</ele>
        <time>2014-07-06T11:49:17Z</time>
      </trkpt>
      <trkpt lat="51.260839" lon="-0.162016">
        <ele>134.0</ele>
        <time>2014-07-06T11:49:21Z</time>
      </trkpt>
      <trkpt lat="51.260569" lon="-0.161587">
        <ele>132.0</ele>
        <time>2014-07-06T11:49:25Z</time>
      </trkpt>
      <trkpt lat="51.260262" lon="-0.161309">
        <ele>132.0</ele>
        <time>2014-07-06T11:49:29Z</time>
      </trkpt>
      <trkpt lat="51.259867" lon="-0.16113">
        <ele>132.0</ele>
        <time>2014-07-06T11:49:34Z</time>
      </trkpt>
      <trkpt lat="51.259596" lon="-0.161075">
        <ele>132.0</ele>
        <time>2014-07-06T11:49:38Z</time>
      </trkpt>
      <trkpt lat="51.259271" lon="-0.160994">
        <ele>134.0</ele>
        <time>2014-07-06T11:49:43Z</time>
      </trkpt>
      <trkpt lat="51.259014" lon="-0.160874">
        <ele>135.0</ele>
        <time>2014-07-06T11:49:47Z</time>
      </trkpt>
      <trkpt lat="51.258697" lon="-0.160696">
        <ele>134.0</ele>
        <time>2014-07-06T11:49:52Z</time>
      </trkpt>
      <trkpt lat="51.258348" lon="-0.160543">
        <ele>132.0</ele>
        <time>2014-07-06T11:49:57Z</time>
      </trkpt>
      <trkpt lat="51.258082" lon="-0.160383">
        <ele>131.0</ele>
        <time>2014-07-06T11:50:01Z</time>
      </trkpt>
      <trkpt lat="51.257829" lon="-0.160152">
        <ele>132.0</ele>
        <time>2014-07-06T11:50:05Z</time>
      </trkpt>
      <trkpt lat="51.25753" lon="-0.159809">
        <ele>132.0</ele>
        <time>2014-07-06T11:50:10Z</time>
      </trkpt>
      <trkpt lat="51.257249" lon="-0.159473">
        <ele>132.0</ele>
        <time>2014-07-06T11:50:15Z</time>
      </trkpt>
      <trkpt lat="51.257034" lon="-0.159315">
        <ele>133.0</ele>
        <time>2014-07-06T11:50:19Z</time>
      </trkpt>
      <trkpt lat="51.256788" lon="-0.159109">
        <ele>132.0</ele>
        <time>2014-07-06T11:50:24Z</time>
      </trkpt>
      <trkpt lat="51.256679" lon="-0.158929">
        <ele>130.0</ele>
        <time>2014-07-06T11:50:28Z</time>
      </trkpt>
      <trkpt lat="51.256598" lon="-0.158841">
        <ele>130.0</ele>
        <time>2014-07-06T11:50:33Z</time>
      </trkpt>
      <trkpt lat="51.256707" lon="-0.158691">
        <ele>131.0</ele>
        <time>2014-07-06T11:50:38Z</time>
      </trkpt>
      <trkpt lat="51.256838" lon="-0.158538">
        <ele>131.0</ele>
        <time>2014-07-06T11:50:42Z</time>
      </trkpt>
      <trkpt lat="51.25699" lon="-0.158367">
        <ele>132.0</ele>
        <time>2014-07-06T11:50:46Z</time>
      </trkpt>
      <trkpt lat="51.25714" lon="-0.158179">
        <ele>131.0</ele>
        <time>2014-07-06T11:50:50Z</time>
      </trkpt>
      <trkpt lat="51.257344" lon="-0.15797">
        <ele>133.0</ele>
        <time>2014-07-06T11:50:55Z</time>
      </trkpt>
      <trkpt lat="51.257533" lon="-0.157791">
        <ele>133.0</ele>
        <time>2014-07-06T11:50:59Z</time>
      </trkpt>
      <trkpt lat="51.257767" lon="-0.157578">
        <ele>133.0</ele>
        <time>2014-07-06T11:51:04Z</time>
      </trkpt>
      <trkpt lat="51.257959" lon="-0.157359">
        <ele>135.0</ele>
        <time>2014-07-06T11:51:08Z</time>
      </trkpt>
      <trkpt lat="51.258165" lon="-0.157129">
        <ele>133.0</ele>
        <time>2014-07-06T11:51:12Z</time>
      </trkpt>
      <trkpt lat="51.258395" lon="-0.156873">
        <ele>133.0</ele>
        <time>2014-07-06T11:51:17Z</time>
      </trkpt>
      <trkpt lat="51.258575" lon="-0.156672">
        <ele>133.0</ele>
        <time>2014-07-06T11:51:21Z</time>
      </trkpt>
      <trkpt lat="51.258732" lon="-0.156496">
        <ele>134.0</ele>
        <time>2014-07-06T11:51:25Z</time>
      </trkpt>
      <trkpt lat="51.258913" lon="-0.156336">
        <ele>133.0</ele>
        <time>2014-07-06T11:51:29Z</time>
      </trkpt>
      <trkpt lat="51.259085" lon="-0.156148">
        <ele>133.0</ele>
        <time>2014-07-06T11:51:33Z</time>
      </trkpt>
      <trkpt lat="51.259286" lon="-0.155938">
        <ele>135.0</ele>
        <time>2014-07-06T11:51:38Z</time>
      </trkpt>
      <trkpt lat="51.259472" lon="-0.155765">
        <ele>136.0</ele>
        <time>2014-07-06T11:51:43Z</time>
      </trkpt>
      <trkpt lat="51.259611" lon="-0.155601">
        <ele>139.0</ele>
        <time>2014-07-06T11:51:47Z</time>
      </trkpt>
      <trkpt lat="51.259805" lon="-0.155387">
        <ele>140.0</ele>
        <time>2014-07-06T11:51:52Z</time>
      </trkpt>
      <trkpt lat="51.25996" lon="-0.155239">
        <ele>141.0</ele>
        <time>2014-07-06T11:51:56Z</time>
      </trkpt>
      <trkpt lat="51.260146" lon="-0.155082">
        <ele>141.0</ele>
        <time>2014-07-06T11:52:01Z</time>
      </trkpt>
      <trkpt lat="51.260279" lon="-0.154967">
        <ele>141.0</ele>
        <time>2014-07-06T11:52:05Z</time>
      </trkpt>
      <trkpt lat="51.260434" lon="-0.154794">
        <ele>141.0</ele>
        <time>2014-07-06T11:52:10Z</time>
      </trkpt>
      <trkpt lat="51.260575" lon="-0.154678">
        <ele>139.0</ele>
        <time>2014-07-06T11:52:14Z</time>
      </trkpt>
      <trkpt lat="51.260713" lon="-0.154548">
        <ele>140.0</ele>
        <time>2014-07-06T11:52:18Z</time>
      </trkpt>
      <trkpt lat="51.26084" lon="-0.154411">
        <ele>139.0</ele>
        <time>2014-07-06T11:52:22Z</time>
      </trkpt>
      <trkpt lat="51.260974" lon="-0.154283">
        <ele>140.0</ele>
        <time>2014-07-06T11:52:26Z</time>
      </trkpt>
      <trkpt lat="51.261107" lon="-0.154166">
        <ele>141.0</ele>
        <time>2014-07-06T11:52:30Z</time>
      </trkpt>
      <trkpt lat="51.261228" lon="-0.154029">
        <ele>143.0</ele>
        <time>2014-07-06T11:52:34Z</time>
      </trkpt>
      <trkpt lat="51.261379" lon="-0.15386">
        <ele>143.0</ele>
        <time>2014-07-06T11:52:39Z</time>
      </trkpt>
      <trkpt lat="51.261555" lon="-0.153689">
        <ele>143.0</ele>
        <time>2014-07-06T11:52:44Z</time>
      </trkpt>
      <trkpt lat="51.261742" lon="-0.153545">
        <ele>140.0</ele>
        <time>2014-07-06T11:52:48Z</time>
      </trkpt>
      <trkpt lat="51.261928" lon="-0.153365">
        <ele>140.0</ele>
        <time>2014-07-06T11:52:53Z</time>
      </trkpt>
      <trkpt lat="51.26211" lon="-0.153237">
        <ele>138.0</ele>
        <time>2014-07-06T11:52:57Z</time>
      </trkpt>
      <trkpt lat="51.262274" lon="-0.153087">
        <ele>142.0</ele>
        <time>2014-07-06T11:53:01Z</time>
      </trkpt>
      <trkpt lat="51.262482" lon="-0.152893">
        <ele>142.0</ele>
        <time>2014-07-06T11:53:06Z</time>
      </trkpt>
      <trkpt lat="51.262641" lon="-0.152714">
        <ele>142.0</ele>
        <time>2014-07-06T11:53:10Z</time>
      </trkpt>
      <trkpt lat="51.262874" lon="-0.152535">
        <ele>140.0</ele>
        <time>2014-07-06T11:53:15Z</time>
      </trkpt>
      <trkpt lat="51.263053" lon="-0.152385">
        <ele>143.0</ele>
        <time>2014-07-06T11:53:19Z</time>
      </trkpt>
      <trkpt lat="51.263268" lon="-0.152294">
        <ele>143.0</ele>
        <time>2014-07-06T11:53:23Z</time>
      </trkpt>
      <trkpt lat="51.263477" lon="-0.15226">
        <ele>142.0</ele>
        <time>2014-07-06T11:53:27Z</time>
      </trkpt>
      <trkpt lat="51.263677" lon="-0.152247">
        <ele>141.0</ele>
        <time>2014-07-06T11:53:31Z</time>
      </trkpt>
      <trkpt lat="51.263922" lon="-0.152306">
        <ele>143.0</ele>
        <time>2014-07-06T11:53:36Z</time>
      </trkpt>
      <trkpt lat="51.264106" lon="-0.152419">
        <ele>144.0</ele>
        <time>2014-07-06T11:53:40Z</time>
      </trkpt>
      <trkpt lat="51.264218" lon="-0.152536">
        <ele>144.0</ele>
        <time>2014-07-06T11:53:45Z</time>
      </trkpt>
      <trkpt lat="51.264189" lon="-0.152406">
        <ele>147.0</ele>
        <time>2014-07-06T11:55:16Z</time>
      </trkpt>
      <trkpt lat="51.264025" lon="-0.152274">
        <ele>148.0</ele>
        <time>2014-07-06T11:55:21Z</time>
      </trkpt>
      <trkpt lat="51.263877" lon="-0.152169">
        <ele>146.0</ele>
        <time>2014-07-06T11:55:25Z</time>
      </trkpt>
      <trkpt lat="51.263708" lon="-0.152106">
        <ele>146.0</ele>
        <time>2014-07-06T11:55:29Z</time>
      </trkpt>
      <trkpt lat="51.263493" lon="-0.1521">
        <ele>145.0</ele>
        <time>2014-07-06T11:55:34Z</time>
      </trkpt>
      <trkpt lat="51.263339" lon="-0.151892">
        <ele>143.0</ele>
        <time>2014-07-06T11:55:39Z</time>
      </trkpt>
      <trkpt lat="51.26313" lon="-0.151822">
        <ele>142.0</ele>
        <time>2014-07-06T11:55:43Z</time>
      </trkpt>
      <trkpt lat="51.26284" lon="-0.151705">
        <ele>145.0</ele>
        <time>2014-07-06T11:55:48Z</time>
      </trkpt>
      <trkpt lat="51.262569" lon="-0.151629">
        <ele>143.0</ele>
        <time>2014-07-06T11:55:53Z</time>
      </trkpt>
      <trkpt lat="51.262276" lon="-0.15153">
        <ele>142.0</ele>
        <time>2014-07-06T11:55:58Z</time>
      </trkpt>
      <trkpt lat="51.262015" lon="-0.151458">
        <ele>138.0</ele>
        <time>2014-07-06T11:56:02Z</time>
      </trkpt>
      <trkpt lat="51.261697" lon="-0.151388">
        <ele>136.0</ele>
        <time>2014-07-06T11:56:07Z</time>
      </trkpt>
      <trkpt lat="51.261435" lon="-0.151276">
        <ele>135.0</ele>
        <time>2014-07-06T11:56:11Z</time>
      </trkpt>
      <trkpt lat="51.261277" lon="-0.151024">
        <ele>134.0</ele>
        <time>2014-07-06T11:56:15Z</time>
      </trkpt>
      <trkpt lat="51.261199" lon="-0.150689">
        <ele>133.0</ele>
        <time>2014-07-06T11:56:19Z</time>
      </trkpt>
      <trkpt lat="51.261069" lon="-0.150387">
        <ele>132.0</ele>
        <time>2014-07-06T11:56:23Z</time>
      </trkpt>
      <trkpt lat="51.260894" lon="-0.15">
        <ele>132.0</ele>
        <time>2014-07-06T11:56:28Z</time>
      </trkpt>
      <trkpt lat="51.260705" lon="-0.149646">
        <ele>132.0</ele>
        <time>2014-07-06T11:56:33Z</time>
      </trkpt>
      <trkpt lat="51.260556" lon="-0.149396">
        <ele>131.0</ele>
        <time>2014-07-06T11:56:37Z</time>
      </trkpt>
      <trkpt lat="51.260417" lon="-0.149067">
        <ele>130.0</ele>
        <time>2014-07-06T11:56:41Z</time>
      </trkpt>
      <trkpt lat="51.260302" lon="-0.14874">
        <ele>133.0</ele>
        <time>2014-07-06T11:56:45Z</time>
      </trkpt>
      <trkpt lat="51.260245" lon="-0.148275">
        <ele>132.0</ele>
        <time>2014-07-06T11:56:50Z</time>
      </trkpt>
      <trkpt lat="51.260237" lon="-0.147938">
        <ele>133.0</ele>
        <time>2014-07-06T11:56:54Z</time>
      </trkpt>
      <trkpt lat="51.260255" lon="-0.147594">
        <ele>132.0</ele>
        <time>2014-07-06T11:56:58Z</time>
      </trkpt>
      <trkpt lat="51.260282" lon="-0.147154">
        <ele>132.0</ele>
        <time>2014-07-06T11:57:03Z</time>
      </trkpt>
      <trkpt lat="51.260315" lon="-0.146826">
        <ele>132.0</ele>
        <time>2014-07-06T11:57:07Z</time>
      </trkpt>
      <trkpt lat="51.260286" lon="-0.146477">
        <ele>133.0</ele>
        <time>2014-07-06T11:57:12Z</time>
      </trkpt>
      <trkpt lat="51.260228" lon="-0.14614">
        <ele>133.0</ele>
        <time>2014-07-06T11:57:17Z</time>
      </trkpt>
      <trkpt lat="51.260162" lon="-0.145853">
        <ele>133.0</ele>
        <time>2014-07-06T11:57:21Z</time>
      </trkpt>
      <trkpt lat="51.26011" lon="-0.145553">
        <ele>135.0</ele>
        <time>2014-07-06T11:57:25Z</time>
      </trkpt>
      <trkpt lat="51.260034" lon="-0.14526">
        <ele>136.0</ele>
        <time>2014-07-06T11:57:29Z</time>
      </trkpt>
      <trkpt lat="51.259927" lon="-0.14485">
        <ele>135.0</ele>
        <time>2014-07-06T11:57:34Z</time>
      </trkpt>
      <trkpt lat="51.25982" lon="-0.144461">
        <ele>136.0</ele>
        <time>2014-07-06T11:57:38Z</time>
      </trkpt>
      <trkpt lat="51.259766" lon="-0.144106">
        <ele>128.0</ele>
        <time>2014-07-06T11:57:42Z</time>
      </trkpt>
      <trkpt lat="51.259634" lon="-0.143634">
        <ele>130.0</ele>
        <time>2014-07-06T11:57:47Z</time>
      </trkpt>
      <trkpt lat="51.259544" lon="-0.143273">
        <ele>133.0</ele>
        <time>2014-07-06T11:57:51Z</time>
      </trkpt>
      <trkpt lat="51.259454" lon="-0.142819">
        <ele>132.0</ele>
        <time>2014-07-06T11:57:56Z</time>
      </trkpt>
      <trkpt lat="51.259402" lon="-0.142465">
        <ele>131.0</ele>
        <time>2014-07-06T11:58:00Z</time>
      </trkpt>
      <trkpt lat="51.259346" lon="-0.142065">
        <ele>131.0</ele>
        <time>2014-07-06T11:58:04Z</time>
      </trkpt>
      <trkpt lat="51.259304" lon="-0.141597">
        <ele>132.0</ele>
        <time>2014-07-06T11:58:09Z</time>
      </trkpt>
      <trkpt lat="51.259275" lon="-0.141249">
        <ele>130.0</ele>
        <time>2014-07-06T11:58:13Z</time>
      </trkpt>
      <trkpt lat="51.259273" lon="-0.140921">
        <ele>132.0</ele>
        <time>2014-07-06T11:58:17Z</time>
      </trkpt>
      <trkpt lat="51.25926" lon="-0.140607">
        <ele>133.0</ele>
        <time>2014-07-06T11:58:21Z</time>
      </trkpt>
      <trkpt lat="51.259236" lon="-0.140307">
        <ele>132.0</ele>
        <time>2014-07-06T11:58:25Z</time>
      </trkpt>
      <trkpt lat="51.259242" lon="-0.139916">
        <ele>131.0</ele>
        <time>2014-07-06T11:58:30Z</time>
      </trkpt>
      <trkpt lat="51.259225" lon="-0.140049">
        <ele>133.0</ele>
        <time>2014-07-06T11:58:41Z</time>
      </trkpt>
      <trkpt lat="51.259234" lon="-0.140196">
        <ele>133.0</ele>
        <time>2014-07-06T11:58:45Z</time>
      </trkpt>
      <trkpt lat="51.259229" lon="-0.140393">
        <ele>133.0</ele>
        <time>2014-07-06T11:58:50Z</time>
      </trkpt>
      <trkpt lat="51.259232" lon="-0.140627">
        <ele>130.0</ele>
        <time>2014-07-06T11:58:55Z</time>
      </trkpt>
      <trkpt lat="51.259247" lon="-0.140811">
        <ele>129.0</ele>
        <time>2014-07-06T11:58:59Z</time>
      </trkpt>
      <trkpt lat="51.259249" lon="-0.141053">
        <ele>129.0</ele>
        <time>2014-07-06T11:59:04Z</time>
      </trkpt>
      <trkpt lat="51.259252" lon="-0.141344">
        <ele>130.0</ele>
        <time>2014-07-06T11:59:08Z</time>
      </trkpt>
      <trkpt lat="51.259266" lon="-0.14167">
        <ele>127.0</ele>
        <time>2014-07-06T11:59:13Z</time>
      </trkpt>
      <trkpt lat="51.259305" lon="-0.142062">
        <ele>126.0</ele>
        <time>2014-07-06T11:59:18Z</time>
      </trkpt>
      <trkpt lat="51.259344" lon="-0.14237">
        <ele>127.0</ele>
        <time>2014-07-06T11:59:22Z</time>
      </trkpt>
      <trkpt lat="51.259379" lon="-0.142664">
        <ele>129.0</ele>
        <time>2014-07-06T11:59:26Z</time>
      </trkpt>
      <trkpt lat="51.259435" lon="-0.142964">
        <ele>131.0</ele>
        <time>2014-07-06T11:59:30Z</time>
      </trkpt>
      <trkpt lat="51.2595" lon="-0.143282">
        <ele>133.0</ele>
        <time>2014-07-06T11:59:35Z</time>
      </trkpt>
      <trkpt lat="51.259583" lon="-0.143594">
        <ele>135.0</ele>
        <time>2014-07-06T11:59:40Z</time>
      </trkpt>
      <trkpt lat="51.259667" lon="-0.143865">
        <ele>135.0</ele>
        <time>2014-07-06T11:59:44Z</time>
      </trkpt>
      <trkpt lat="51.25975" lon="-0.144194">
        <ele>136.0</ele>
        <time>2014-07-06T11:59:49Z</time>
      </trkpt>
      <trkpt lat="51.259818" lon="-0.144454">
        <ele>136.0</ele>
        <time>2014-07-06T11:59:53Z</time>
      </trkpt>
      <trkpt lat="51.259879" lon="-0.144688">
        <ele>135.0</ele>
        <time>2014-07-06T11:59:57Z</time>
      </trkpt>
      <trkpt lat="51.259957" lon="-0.144969">
        <ele>134.0</ele>
        <time>2014-07-06T12:00:02Z</time>
      </trkpt>
      <trkpt lat="51.260012" lon="-0.145255">
        <ele>131.0</ele>
        <time>2014-07-06T12:00:07Z</time>
      </trkpt>
      <trkpt lat="51.260066" lon="-0.145478">
        <ele>134.0</ele>
        <time>2014-07-06T12:00:11Z</time>
      </trkpt>
      <trkpt lat="51.260106" lon="-0.145715">
        <ele>133.0</ele>
        <time>2014-07-06T12:00:15Z</time>
      </trkpt>
      <trkpt lat="51.260173" lon="-0.146073">
        <ele>133.0</ele>
        <time>2014-07-06T12:00:20Z</time>
      </trkpt>
      <trkpt lat="51.260208" lon="-0.146353">
        <ele>131.0</ele>
        <time>2014-07-06T12:00:24Z</time>
      </trkpt>
      <trkpt lat="51.260256" lon="-0.146743">
        <ele>132.0</ele>
        <time>2014-07-06T12:00:29Z</time>
      </trkpt>
      <trkpt lat="51.260248" lon="-0.14715">
        <ele>131.0</ele>
        <time>2014-07-06T12:00:34Z</time>
      </trkpt>
      <trkpt lat="51.260231" lon="-0.147478">
        <ele>130.0</ele>
        <time>2014-07-06T12:00:38Z</time>
      </trkpt>
      <trkpt lat="51.260222" lon="-0.147824">
        <ele>130.0</ele>
        <time>2014-07-06T12:00:42Z</time>
      </trkpt>
      <trkpt lat="51.260204" lon="-0.148296">
        <ele>129.0</ele>
        <time>2014-07-06T12:00:47Z</time>
      </trkpt>
      <trkpt lat="51.260224" lon="-0.148656">
        <ele>129.0</ele>
        <time>2014-07-06T12:00:51Z</time>
      </trkpt>
      <trkpt lat="51.260346" lon="-0.149045">
        <ele>128.0</ele>
        <time>2014-07-06T12:00:56Z</time>
      </trkpt>
      <trkpt lat="51.260433" lon="-0.149328">
        <ele>130.0</ele>
        <time>2014-07-06T12:01:00Z</time>
      </trkpt>
      <trkpt lat="51.260598" lon="-0.149531">
        <ele>130.0</ele>
        <time>2014-07-06T12:01:04Z</time>
      </trkpt>
      <trkpt lat="51.26079" lon="-0.149822">
        <ele>132.0</ele>
        <time>2014-07-06T12:01:09Z</time>
      </trkpt>
      <trkpt lat="51.260926" lon="-0.150083">
        <ele>134.0</ele>
        <time>2014-07-06T12:01:13Z</time>
      </trkpt>
      <trkpt lat="51.261059" lon="-0.1504">
        <ele>133.0</ele>
        <time>2014-07-06T12:01:18Z</time>
      </trkpt>
      <trkpt lat="51.261156" lon="-0.150564">
        <ele>136.0</ele>
        <time>2014-07-06T12:01:22Z</time>
      </trkpt>
      <trkpt lat="51.261128" lon="-0.150838">
        <ele>138.0</ele>
        <time>2014-07-06T12:01:26Z</time>
      </trkpt>
      <trkpt lat="51.260975" lon="-0.15102">
        <ele>140.0</ele>
        <time>2014-07-06T12:01:31Z</time>
      </trkpt>
      <trkpt lat="51.260795" lon="-0.151122">
        <ele>141.0</ele>
        <time>2014-07-06T12:01:36Z</time>
      </trkpt>
      <trkpt lat="51.260604" lon="-0.151131">
        <ele>142.0</ele>
        <time>2014-07-06T12:01:41Z</time>
      </trkpt>
      <trkpt lat="51.260445" lon="-0.151131">
        <ele>141.0</ele>
        <time>2014-07-06T12:01:45Z</time>
      </trkpt>
      <trkpt lat="51.260244" lon="-0.151085">
        <ele>135.0</ele>
        <time>2014-07-06T12:01:50Z</time>
      </trkpt>
      <trkpt lat="51.260077" lon="-0.151111">
        <ele>135.0</ele>
        <time>2014-07-06T12:01:54Z</time>
      </trkpt>
      <trkpt lat="51.25987" lon="-0.151156">
        <ele>135.0</ele>
        <time>2014-07-06T12:01:59Z</time>
      </trkpt>
      <trkpt lat="51.259709" lon="-0.151154">
        <ele>135.0</ele>
        <time>2014-07-06T12:02:03Z</time>
      </trkpt>
      <trkpt lat="51.259473" lon="-0.151178">
        <ele>134.0</ele>
        <time>2014-07-06T12:02:08Z</time>
      </trkpt>
      <trkpt lat="51.259208" lon="-0.151181">
        <ele>135.0</ele>
        <time>2014-07-06T12:02:13Z</time>
      </trkpt>
      <trkpt lat="51.259013" lon="-0.151165">
        <ele>136.0</ele>
        <time>2014-07-06T12:02:17Z</time>
      </trkpt>
      <trkpt lat="51.258723" lon="-0.151114">
        <ele>138.0</ele>
        <time>2014-07-06T12:02:22Z</time>
      </trkpt>
      <trkpt lat="51.25853" lon="-0.151042">
        <ele>136.0</ele>
        <time>2014-07-06T12:02:26Z</time>
      </trkpt>
      <trkpt lat="51.258306" lon="-0.150933">
        <ele>137.0</ele>
        <time>2014-07-06T12:02:31Z</time>
      </trkpt>
      <trkpt lat="51.258112" lon="-0.150862">
        <ele>136.0</ele>
        <time>2014-07-06T12:02:35Z</time>
      </trkpt>
      <trkpt lat="51.257864" lon="-0.150731">
        <ele>135.0</ele>
        <time>2014-07-06T12:02:40Z</time>
      </trkpt>
      <trkpt lat="51.257661" lon="-0.150626">
        <ele>136.0</ele>
        <time>2014-07-06T12:02:44Z</time>
      </trkpt>
      <trkpt lat="51.257455" lon="-0.150524">
        <ele>133.0</ele>
        <time>2014-07-06T12:02:48Z</time>
      </trkpt>
      <trkpt lat="51.25719" lon="-0.150394">
        <ele>133.0</ele>
        <time>2014-07-06T12:02:53Z</time>
      </trkpt>
      <trkpt lat="51.257048" lon="-0.150332">
        <ele>131.0</ele>
        <time>2014-07-06T12:02:57Z</time>
      </trkpt>
      <trkpt lat="51.256839" lon="-0.150194">
        <ele>132.0</ele>
        <time>2014-07-06T12:03:01Z</time>
      </trkpt>
      <trkpt lat="51.256561" lon="-0.150113">
        <ele>136.0</ele>
        <time>2014-07-06T12:03:06Z</time>
      </trkpt>
      <trkpt lat="51.256304" lon="-0.149931">
        <ele>134.0</ele>
        <time>2014-07-06T12:03:11Z</time>
      </trkpt>
      <trkpt lat="51.256079" lon="-0.149825">
        <ele>136.0</ele>
        <time>2014-07-06T12:03:15Z</time>
      </trkpt>
      <trkpt lat="51.25588" lon="-0.149704">
        <ele>138.0</ele>
        <time>2014-07-06T12:03:19Z</time>
      </trkpt>
      <trkpt lat="51.255677" lon="-0.149552">
        <ele>135.0</ele>
        <time>2014-07-06T12:03:23Z</time>
      </trkpt>
      <trkpt lat="51.255472" lon="-0.14944">
        <ele>135.0</ele>
        <time>2014-07-06T12:03:27Z</time>
      </trkpt>
      <trkpt lat="51.255229" lon="-0.149303">
        <ele>133.0</ele>
        <time>2014-07-06T12:03:32Z</time>
      </trkpt>
      <trkpt lat="51.25502" lon="-0.149224">
        <ele>132.0</ele>
        <time>2014-07-06T12:03:36Z</time>
      </trkpt>
      <trkpt lat="51.254768" lon="-0.149088">
        <ele>133.0</ele>
        <time>2014-07-06T12:03:41Z</time>
      </trkpt>
      <trkpt lat="51.254558" lon="-0.149044">
        <ele>132.0</ele>
        <time>2014-07-06T12:03:45Z</time>
      </trkpt>
      <trkpt lat="51.254363" lon="-0.149008">
        <ele>130.0</ele>
        <time>2014-07-06T12:03:49Z</time>
      </trkpt>
      <trkpt lat="51.254156" lon="-0.149066">
        <ele>129.0</ele>
        <time>2014-07-06T12:03:53Z</time>
      </trkpt>
      <trkpt lat="51.253924" lon="-0.149238">
        <ele>131.0</ele>
        <time>2014-07-06T12:03:58Z</time>
      </trkpt>
      <trkpt lat="51.253752" lon="-0.149383">
        <ele>130.0</ele>
        <time>2014-07-06T12:04:02Z</time>
      </trkpt>
      <trkpt lat="51.253464" lon="-0.149521">
        <ele>130.0</ele>
        <time>2014-07-06T12:04:07Z</time>
      </trkpt>
      <trkpt lat="51.253201" lon="-0.149403">
        <ele>131.0</ele>
        <time>2014-07-06T12:04:12Z</time>
      </trkpt>
      <trkpt lat="51.252971" lon="-0.149176">
        <ele>132.0</ele>
        <time>2014-07-06T12:04:17Z</time>
      </trkpt>
      <trkpt lat="51.252738" lon="-0.148928">
        <ele>131.0</ele>
        <time>2014-07-06T12:04:22Z</time>
      </trkpt>
      <trkpt lat="51.252552" lon="-0.148771">
        <ele>131.0</ele>
        <time>2014-07-06T12:04:26Z</time>
      </trkpt>
      <trkpt lat="51.252363" lon="-0.148593">
        <ele>130.0</ele>
        <time>2014-07-06T12:04:30Z</time>
      </trkpt>
      <trkpt lat="51.252185" lon="-0.148356">
        <ele>130.0</ele>
        <time>2014-07-06T12:04:34Z</time>
      </trkpt>
      <trkpt lat="51.252019" lon="-0.148109">
        <ele>128.0</ele>
        <time>2014-07-06T12:04:38Z</time>
      </trkpt>
      <trkpt lat="51.251792" lon="-0.147835">
        <ele>131.0</ele>
        <time>2014-07-06T12:04:43Z</time>
      </trkpt>
      <trkpt lat="51.2516" lon="-0.147613">
        <ele>131.0</ele>
        <time>2014-07-06T12:04:47Z</time>
      </trkpt>
      <trkpt lat="51.251358" lon="-0.147355">
        <ele>130.0</ele>
        <time>2014-07-06T12:04:52Z</time>
      </trkpt>
      <trkpt lat="51.251158" lon="-0.147139">
        <ele>128.0</ele>
        <time>2014-07-06T12:04:56Z</time>
      </trkpt>
      <trkpt lat="51.250861" lon="-0.146898">
        <ele>128.0</ele>
        <time>2014-07-06T12:05:01Z</time>
      </trkpt>
      <trkpt lat="51.250624" lon="-0.146645">
        <ele>127.0</ele>
        <time>2014-07-06T12:05:05Z</time>
      </trkpt>
      <trkpt lat="51.250319" lon="-0.146285">
        <ele>127.0</ele>
        <time>2014-07-06T12:05:10Z</time>
      </trkpt>
      <trkpt lat="51.250088" lon="-0.146032">
        <ele>127.0</ele>
        <time>2014-07-06T12:05:14Z</time>
      </trkpt>
      <trkpt lat="51.249793" lon="-0.145858">
        <ele>127.0</ele>
        <time>2014-07-06T12:05:19Z</time>
      </trkpt>
      <trkpt lat="51.249568" lon="-0.145794">
        <ele>128.0</ele>
        <time>2014-07-06T12:05:23Z</time>
      </trkpt>
      <trkpt lat="51.249287" lon="-0.145669">
        <ele>127.0</ele>
        <time>2014-07-06T12:05:28Z</time>
      </trkpt>
      <trkpt lat="51.249078" lon="-0.145514">
        <ele>128.0</ele>
        <time>2014-07-06T12:05:32Z</time>
      </trkpt>
      <trkpt lat="51.248913" lon="-0.145177">
        <ele>126.0</ele>
        <time>2014-07-06T12:05:37Z</time>
      </trkpt>
      <trkpt lat="51.248869" lon="-0.144884">
        <ele>125.0</ele>
        <time>2014-07-06T12:05:41Z</time>
      </trkpt>
      <trkpt lat="51.248841" lon="-0.144489">
        <ele>126.0</ele>
        <time>2014-07-06T12:05:46Z</time>
      </trkpt>
      <trkpt lat="51.248877" lon="-0.144095">
        <ele>125.0</ele>
        <time>2014-07-06T12:05:51Z</time>
      </trkpt>
      <trkpt lat="51.248939" lon="-0.143729">
        <ele>125.0</ele>
        <time>2014-07-06T12:05:55Z</time>
      </trkpt>
      <trkpt lat="51.249037" lon="-0.143358">
        <ele>123.0</ele>
        <time>2014-07-06T12:05:59Z</time>
      </trkpt>
      <trkpt lat="51.249139" lon="-0.143003">
        <ele>124.0</ele>
        <time>2014-07-06T12:06:03Z</time>
      </trkpt>
      <trkpt lat="51.249194" lon="-0.14266">
        <ele>122.0</ele>
        <time>2014-07-06T12:06:07Z</time>
      </trkpt>
      <trkpt lat="51.249221" lon="-0.142234">
        <ele>122.0</ele>
        <time>2014-07-06T12:06:11Z</time>
      </trkpt>
      <trkpt lat="51.249258" lon="-0.141815">
        <ele>125.0</ele>
        <time>2014-07-06T12:06:15Z</time>
      </trkpt>
      <trkpt lat="51.249282" lon="-0.141401">
        <ele>126.0</ele>
        <time>2014-07-06T12:06:19Z</time>
      </trkpt>
      <trkpt lat="51.249323" lon="-0.140896">
        <ele>127.0</ele>
        <time>2014-07-06T12:06:24Z</time>
      </trkpt>
      <trkpt lat="51.24944" lon="-0.140446">
        <ele>124.0</ele>
        <time>2014-07-06T12:06:29Z</time>
      </trkpt>
      <trkpt lat="51.249534" lon="-0.140062">
        <ele>125.0</ele>
        <time>2014-07-06T12:06:33Z</time>
      </trkpt>
      <trkpt lat="51.249592" lon="-0.139663">
        <ele>126.0</ele>
        <time>2014-07-06T12:06:37Z</time>
      </trkpt>
      <trkpt lat="51.249641" lon="-0.139262">
        <ele>123.0</ele>
        <time>2014-07-06T12:06:41Z</time>
      </trkpt>
      <trkpt lat="51.249668" lon="-0.138771">
        <ele>124.0</ele>
        <time>2014-07-06T12:06:46Z</time>
      </trkpt>
      <trkpt lat="51.249637" lon="-0.138427">
        <ele>120.0</ele>
        <time>2014-07-06T12:06:50Z</time>
      </trkpt>
      <trkpt lat="51.249508" lon="-0.138088">
        <ele>120.0</ele>
        <time>2014-07-06T12:06:54Z</time>
      </trkpt>
      <trkpt lat="51.249272" lon="-0.137764">
        <ele>123.0</ele>
        <time>2014-07-06T12:06:59Z</time>
      </trkpt>
      <trkpt lat="51.249092" lon="-0.13751">
        <ele>127.0</ele>
        <time>2014-07-06T12:07:03Z</time>
      </trkpt>
      <trkpt lat="51.248945" lon="-0.137188">
        <ele>128.0</ele>
        <time>2014-07-06T12:07:07Z</time>
      </trkpt>
      <trkpt lat="51.24882" lon="-0.136839">
        <ele>129.0</ele>
        <time>2014-07-06T12:07:11Z</time>
      </trkpt>
      <trkpt lat="51.248719" lon="-0.13651">
        <ele>129.0</ele>
        <time>2014-07-06T12:07:15Z</time>
      </trkpt>
      <trkpt lat="51.248617" lon="-0.1362">
        <ele>128.0</ele>
        <time>2014-07-06T12:07:19Z</time>
      </trkpt>
      <trkpt lat="51.2485" lon="-0.135792">
        <ele>127.0</ele>
        <time>2014-07-06T12:07:24Z</time>
      </trkpt>
      <trkpt lat="51.248406" lon="-0.135517">
        <ele>127.0</ele>
        <time>2014-07-06T12:07:28Z</time>
      </trkpt>
      <trkpt lat="51.248295" lon="-0.135161">
        <ele>126.0</ele>
        <time>2014-07-06T12:07:33Z</time>
      </trkpt>
      <trkpt lat="51.248215" lon="-0.134878">
        <ele>128.0</ele>
        <time>2014-07-06T12:07:37Z</time>
      </trkpt>
      <trkpt lat="51.248105" lon="-0.134689">
        <ele>137.0</ele>
        <time>2014-07-06T12:07:41Z</time>
      </trkpt>
      <trkpt lat="51.247992" lon="-0.134401">
        <ele>137.0</ele>
        <time>2014-07-06T12:07:45Z</time>
      </trkpt>
      <trkpt lat="51.247876" lon="-0.134073">
        <ele>133.0</ele>
        <time>2014-07-06T12:07:50Z</time>
      </trkpt>
      <trkpt lat="51.247835" lon="-0.133741">
        <ele>135.0</ele>
        <time>2014-07-06T12:07:54Z</time>
      </trkpt>
      <trkpt lat="51.2478" lon="-0.133376">
        <ele>134.0</ele>
        <time>2014-07-06T12:07:59Z</time>
      </trkpt>
      <trkpt lat="51.247758" lon="-0.133068">
        <ele>136.0</ele>
        <time>2014-07-06T12:08:04Z</time>
      </trkpt>
      <trkpt lat="51.247696" lon="-0.132797">
        <ele>137.0</ele>
        <time>2014-07-06T12:08:09Z</time>
      </trkpt>
      <trkpt lat="51.247638" lon="-0.132609">
        <ele>135.0</ele>
        <time>2014-07-06T12:08:13Z</time>
      </trkpt>
      <trkpt lat="51.247567" lon="-0.132355">
        <ele>133.0</ele>
        <time>2014-07-06T12:08:18Z</time>
      </trkpt>
      <trkpt lat="51.247503" lon="-0.132131">
        <ele>133.0</ele>
        <time>2014-07-06T12:08:22Z</time>
      </trkpt>
      <trkpt lat="51.247419" lon="-0.131891">
        <ele>132.0</ele>
        <time>2014-07-06T12:08:26Z</time>
      </trkpt>
      <trkpt lat="51.247355" lon="-0.131627">
        <ele>135.0</ele>
        <time>2014-07-06T12:08:30Z</time>
      </trkpt>
      <trkpt lat="51.247191" lon="-0.131361">
        <ele>137.0</ele>
        <time>2014-07-06T12:08:35Z</time>
      </trkpt>
      <trkpt lat="51.247052" lon="-0.13117">
        <ele>137.0</ele>
        <time>2014-07-06T12:08:39Z</time>
      </trkpt>
      <trkpt lat="51.246871" lon="-0.130946">
        <ele>138.0</ele>
        <time>2014-07-06T12:08:44Z</time>
      </trkpt>
      <trkpt lat="51.246695" lon="-0.130704">
        <ele>137.0</ele>
        <time>2014-07-06T12:08:49Z</time>
      </trkpt>
      <trkpt lat="51.246556" lon="-0.130531">
        <ele>139.0</ele>
        <time>2014-07-06T12:08:53Z</time>
      </trkpt>
      <trkpt lat="51.246413" lon="-0.130337">
        <ele>137.0</ele>
        <time>2014-07-06T12:08:58Z</time>
      </trkpt>
      <trkpt lat="51.246304" lon="-0.130179">
        <ele>137.0</ele>
        <time>2014-07-06T12:09:02Z</time>
      </trkpt>
      <trkpt lat="51.2462" lon="-0.13002">
        <ele>138.0</ele>
        <time>2014-07-06T12:09:06Z</time>
      </trkpt>
      <trkpt lat="51.246076" lon="-0.129796">
        <ele>138.0</ele>
        <time>2014-07-06T12:09:11Z</time>
      </trkpt>
      <trkpt lat="51.245963" lon="-0.129553">
        <ele>139.0</ele>
        <time>2014-07-06T12:09:16Z</time>
      </trkpt>
      <trkpt lat="51.245873" lon="-0.129367">
        <ele>139.0</ele>
        <time>2014-07-06T12:09:20Z</time>
      </trkpt>
      <trkpt lat="51.245752" lon="-0.129141">
        <ele>140.0</ele>
        <time>2014-07-06T12:09:25Z</time>
      </trkpt>
      <trkpt lat="51.245639" lon="-0.128982">
        <ele>140.0</ele>
        <time>2014-07-06T12:09:29Z</time>
      </trkpt>
      <trkpt lat="51.245493" lon="-0.128819">
        <ele>141.0</ele>
        <time>2014-07-06T12:09:34Z</time>
      </trkpt>
      <trkpt lat="51.245371" lon="-0.128715">
        <ele>141.0</ele>
        <time>2014-07-06T12:09:38Z</time>
      </trkpt>
      <trkpt lat="51.245246" lon="-0.128633">
        <ele>141.0</ele>
        <time>2014-07-06T12:09:42Z</time>
      </trkpt>
      <trkpt lat="51.245121" lon="-0.128566">
        <ele>142.0</ele>
        <time>2014-07-06T12:09:46Z</time>
      </trkpt>
      <trkpt lat="51.245005" lon="-0.128498">
        <ele>143.0</ele>
        <time>2014-07-06T12:09:50Z</time>
      </trkpt>
      <trkpt lat="51.244863" lon="-0.128429">
        <ele>144.0</ele>
        <time>2014-07-06T12:09:55Z</time>
      </trkpt>
      <trkpt lat="51.244721" lon="-0.128374">
        <ele>145.0</ele>
        <time>2014-07-06T12:10:00Z</time>
      </trkpt>
      <trkpt lat="51.244601" lon="-0.12835">
        <ele>141.0</ele>
        <time>2014-07-06T12:10:04Z</time>
      </trkpt>
      <trkpt lat="51.244485" lon="-0.128269">
        <ele>142.0</ele>
        <time>2014-07-06T12:10:08Z</time>
      </trkpt>
      <trkpt lat="51.244352" lon="-0.128175">
        <ele>141.0</ele>
        <time>2014-07-06T12:10:13Z</time>
      </trkpt>
      <trkpt lat="51.244219" lon="-0.128076">
        <ele>141.0</ele>
        <time>2014-07-06T12:10:18Z</time>
      </trkpt>
      <trkpt lat="51.244091" lon="-0.127969">
        <ele>142.0</ele>
        <time>2014-07-06T12:10:23Z</time>
      </trkpt>
      <trkpt lat="51.243985" lon="-0.127863">
        <ele>144.0</ele>
        <time>2014-07-06T12:10:27Z</time>
      </trkpt>
      <trkpt lat="51.243876" lon="-0.127732">
        <ele>144.0</ele>
        <time>2014-07-06T12:10:31Z</time>
      </trkpt>
      <trkpt lat="51.243733" lon="-0.127621">
        <ele>148.0</ele>
        <time>2014-07-06T12:10:36Z</time>
      </trkpt>
      <trkpt lat="51.243622" lon="-0.127553">
        <ele>148.0</ele>
        <time>2014-07-06T12:10:40Z</time>
      </trkpt>
      <trkpt lat="51.243527" lon="-0.127503">
        <ele>151.0</ele>
        <time>2014-07-06T12:10:45Z</time>
      </trkpt>
      <trkpt lat="51.243457" lon="-0.127457">
        <ele>150.0</ele>
        <time>2014-07-06T12:10:50Z</time>
      </trkpt>
      <trkpt lat="51.24339" lon="-0.127414">
        <ele>151.0</ele>
        <time>2014-07-06T12:10:54Z</time>
      </trkpt>
      <trkpt lat="51.243273" lon="-0.127346">
        <ele>151.0</ele>
        <time>2014-07-06T12:10:59Z</time>
      </trkpt>
      <trkpt lat="51.243174" lon="-0.127292">
        <ele>149.0</ele>
        <time>2014-07-06T12:11:03Z</time>
      </trkpt>
      <trkpt lat="51.243051" lon="-0.127234">
        <ele>149.0</ele>
        <time>2014-07-06T12:11:08Z</time>
      </trkpt>
      <trkpt lat="51.242954" lon="-0.127197">
        <ele>149.0</ele>
        <time>2014-07-06T12:11:12Z</time>
      </trkpt>
      <trkpt lat="51.242832" lon="-0.127168">
        <ele>154.0</ele>
        <time>2014-07-06T12:11:17Z</time>
      </trkpt>
      <trkpt lat="51.242738" lon="-0.127166">
        <ele>158.0</ele>
        <time>2014-07-06T12:11:21Z</time>
      </trkpt>
      <trkpt lat="51.24265" lon="-0.12716">
        <ele>159.0</ele>
        <time>2014-07-06T12:11:25Z</time>
      </trkpt>
      <trkpt lat="51.242546" lon="-0.127148">
        <ele>161.0</ele>
        <time>2014-07-06T12:11:29Z</time>
      </trkpt>
      <trkpt lat="51.242421" lon="-0.127114">
        <ele>163.0</ele>
        <time>2014-07-06T12:11:33Z</time>
      </trkpt>
      <trkpt lat="51.242309" lon="-0.127012">
        <ele>162.0</ele>
        <time>2014-07-06T12:11:37Z</time>
      </trkpt>
      <trkpt lat="51.242234" lon="-0.12692">
        <ele>162.0</ele>
        <time>2014-07-06T12:11:41Z</time>
      </trkpt>
      <trkpt lat="51.242173" lon="-0.126832">
        <ele>162.0</ele>
        <time>2014-07-06T12:11:45Z</time>
      </trkpt>
      <trkpt lat="51.242103" lon="-0.126727">
        <ele>162.0</ele>
        <time>2014-07-06T12:11:49Z</time>
      </trkpt>
      <trkpt lat="51.242013" lon="-0.126629">
        <ele>165.0</ele>
        <time>2014-07-06T12:11:54Z</time>
      </trkpt>
      <trkpt lat="51.241949" lon="-0.126519">
        <ele>165.0</ele>
        <time>2014-07-06T12:11:58Z</time>
      </trkpt>
      <trkpt lat="51.241847" lon="-0.126402">
        <ele>167.0</ele>
        <time>2014-07-06T12:12:03Z</time>
      </trkpt>
      <trkpt lat="51.241748" lon="-0.126257">
        <ele>167.0</ele>
        <time>2014-07-06T12:12:07Z</time>
      </trkpt>
      <trkpt lat="51.241674" lon="-0.126084">
        <ele>167.0</ele>
        <time>2014-07-06T12:12:11Z</time>
      </trkpt>
      <trkpt lat="51.241583" lon="-0.12587">
        <ele>170.0</ele>
        <time>2014-07-06T12:12:16Z</time>
      </trkpt>
      <trkpt lat="51.241463" lon="-0.125743">
        <ele>172.0</ele>
        <time>2014-07-06T12:12:21Z</time>
      </trkpt>
      <trkpt lat="51.241373" lon="-0.125696">
        <ele>173.0</ele>
        <time>2014-07-06T12:12:25Z</time>
      </trkpt>
      <trkpt lat="51.241289" lon="-0.125647">
        <ele>175.0</ele>
        <time>2014-07-06T12:12:29Z</time>
      </trkpt>
      <trkpt lat="51.2412" lon="-0.125647">
        <ele>179.0</ele>
        <time>2014-07-06T12:12:35Z</time>
      </trkpt>
      <trkpt lat="51.241128" lon="-0.125607">
        <ele>178.0</ele>
        <time>2014-07-06T12:12:39Z</time>
      </trkpt>
      <trkpt lat="51.241057" lon="-0.125556">
        <ele>181.0</ele>
        <time>2014-07-06T12:12:43Z</time>
      </trkpt>
      <trkpt lat="51.240974" lon="-0.12551">
        <ele>185.0</ele>
        <time>2014-07-06T12:12:48Z</time>
      </trkpt>
      <trkpt lat="51.240907" lon="-0.125484">
        <ele>187.0</ele>
        <time>2014-07-06T12:12:52Z</time>
      </trkpt>
      <trkpt lat="51.240827" lon="-0.125441">
        <ele>193.0</ele>
        <time>2014-07-06T12:12:56Z</time>
      </trkpt>
      <trkpt lat="51.240748" lon="-0.125403">
        <ele>190.0</ele>
        <time>2014-07-06T12:13:00Z</time>
      </trkpt>
      <trkpt lat="51.240655" lon="-0.125357">
        <ele>188.0</ele>
        <time>2014-07-06T12:13:04Z</time>
      </trkpt>
      <trkpt lat="51.240563" lon="-0.125329">
        <ele>188.0</ele>
        <time>2014-07-06T12:13:08Z</time>
      </trkpt>
      <trkpt lat="51.240449" lon="-0.125309">
        <ele>190.0</ele>
        <time>2014-07-06T12:13:12Z</time>
      </trkpt>
      <trkpt lat="51.240362" lon="-0.125286">
        <ele>189.0</ele>
        <time>2014-07-06T12:13:18Z</time>
      </trkpt>
      <trkpt lat="51.240278" lon="-0.125282">
        <ele>183.0</ele>
        <time>2014-07-06T12:21:38Z</time>
      </trkpt>
      <trkpt lat="51.240174" lon="-0.125245">
        <ele>183.0</ele>
        <time>2014-07-06T12:21:42Z</time>
      </trkpt>
      <trkpt lat="51.240045" lon="-0.125188">
        <ele>183.0</ele>
        <time>2014-07-06T12:21:47Z</time>
      </trkpt>
      <trkpt lat="51.239941" lon="-0.125164">
        <ele>183.0</ele>
        <time>2014-07-06T12:21:51Z</time>
      </trkpt>
      <trkpt lat="51.239854" lon="-0.125147">
        <ele>185.0</ele>
        <time>2014-07-06T12:22:14Z</time>
      </trkpt>
      <trkpt lat="51.239775" lon="-0.125122">
        <ele>185.0</ele>
        <time>2014-07-06T12:22:20Z</time>
      </trkpt>
      <trkpt lat="51.239666" lon="-0.1251">
        <ele>186.0</ele>
        <time>2014-07-06T12:22:24Z</time>
      </trkpt>
      <trkpt lat="51.239556" lon="-0.125092">
        <ele>185.0</ele>
        <time>2014-07-06T12:22:28Z</time>
      </trkpt>
      <trkpt lat="51.23943" lon="-0.125035">
        <ele>185.0</ele>
        <time>2014-07-06T12:22:32Z</time>
      </trkpt>
      <trkpt lat="51.239289" lon="-0.124977">
        <ele>186.0</ele>
        <time>2014-07-06T12:22:36Z</time>
      </trkpt>
      <trkpt lat="51.239136" lon="-0.124901">
        <ele>184.0</ele>
        <time>2014-07-06T12:22:40Z</time>
      </trkpt>
      <trkpt lat="51.23894" lon="-0.124833">
        <ele>181.0</ele>
        <time>2014-07-06T12:22:44Z</time>
      </trkpt>
      <trkpt lat="51.238687" lon="-0.124742">
        <ele>184.0</ele>
        <time>2014-07-06T12:22:49Z</time>
      </trkpt>
      <trkpt lat="51.238436" lon="-0.124612">
        <ele>183.0</ele>
        <time>2014-07-06T12:22:53Z</time>
      </trkpt>
      <trkpt lat="51.238256" lon="-0.124559">
        <ele>184.0</ele>
        <time>2014-07-06T12:22:57Z</time>
      </trkpt>
      <trkpt lat="51.238038" lon="-0.124458">
        <ele>187.0</ele>
        <time>2014-07-06T12:23:02Z</time>
      </trkpt>
      <trkpt lat="51.237874" lon="-0.124404">
        <ele>190.0</ele>
        <time>2014-07-06T12:23:06Z</time>
      </trkpt>
      <trkpt lat="51.237713" lon="-0.124373">
        <ele>187.0</ele>
        <time>2014-07-06T12:23:10Z</time>
      </trkpt>
      <trkpt lat="51.237547" lon="-0.124383">
        <ele>185.0</ele>
        <time>2014-07-06T12:23:14Z</time>
      </trkpt>
      <trkpt lat="51.237318" lon="-0.124467">
        <ele>179.0</ele>
        <time>2014-07-06T12:23:19Z</time>
      </trkpt>
      <trkpt lat="51.237088" lon="-0.124466">
        <ele>176.0</ele>
        <time>2014-07-06T12:23:23Z</time>
      </trkpt>
      <trkpt lat="51.236794" lon="-0.124359">
        <ele>179.0</ele>
        <time>2014-07-06T12:23:28Z</time>
      </trkpt>
      <trkpt lat="51.236539" lon="-0.124116">
        <ele>177.0</ele>
        <time>2014-07-06T12:23:32Z</time>
      </trkpt>
      <trkpt lat="51.236253" lon="-0.123929">
        <ele>175.0</ele>
        <time>2014-07-06T12:23:36Z</time>
      </trkpt>
      <trkpt lat="51.235786" lon="-0.123746">
        <ele>176.0</ele>
        <time>2014-07-06T12:23:41Z</time>
      </trkpt>
      <trkpt lat="51.235292" lon="-0.123532">
        <ele>171.0</ele>
        <time>2014-07-06T12:23:46Z</time>
      </trkpt>
      <trkpt lat="51.234918" lon="-0.123387">
        <ele>168.0</ele>
        <time>2014-07-06T12:23:50Z</time>
      </trkpt>
      <trkpt lat="51.23457" lon="-0.123164">
        <ele>164.0</ele>
        <time>2014-07-06T12:23:54Z</time>
      </trkpt>
      <trkpt lat="51.234206" lon="-0.122866">
        <ele>160.0</ele>
        <time>2014-07-06T12:23:58Z</time>
      </trkpt>
      <trkpt lat="51.233816" lon="-0.122589">
        <ele>157.0</ele>
        <time>2014-07-06T12:24:02Z</time>
      </trkpt>
      <trkpt lat="51.233347" lon="-0.122362">
        <ele>155.0</ele>
        <time>2014-07-06T12:24:07Z</time>
      </trkpt>
      <trkpt lat="51.233019" lon="-0.122202">
        <ele>153.0</ele>
        <time>2014-07-06T12:24:11Z</time>
      </trkpt>
      <trkpt lat="51.23272" lon="-0.12231">
        <ele>151.0</ele>
        <time>2014-07-06T12:24:15Z</time>
      </trkpt>
      <trkpt lat="51.232455" lon="-0.122553">
        <ele>151.0</ele>
        <time>2014-07-06T12:24:19Z</time>
      </trkpt>
      <trkpt lat="51.232183" lon="-0.122681">
        <ele>153.0</ele>
        <time>2014-07-06T12:24:23Z</time>
      </trkpt>
      <trkpt lat="51.231961" lon="-0.122838">
        <ele>155.0</ele>
        <time>2014-07-06T12:24:27Z</time>
      </trkpt>
      <trkpt lat="51.231787" lon="-0.122908">
        <ele>155.0</ele>
        <time>2014-07-06T12:24:31Z</time>
      </trkpt>
      <trkpt lat="51.231562" lon="-0.122794">
        <ele>153.0</ele>
        <time>2014-07-06T12:24:35Z</time>
      </trkpt>
      <trkpt lat="51.231263" lon="-0.122671">
        <ele>149.0</ele>
        <time>2014-07-06T12:24:39Z</time>
      </trkpt>
      <trkpt lat="51.230945" lon="-0.122415">
        <ele>144.0</ele>
        <time>2014-07-06T12:24:44Z</time>
      </trkpt>
      <trkpt lat="51.230702" lon="-0.121977">
        <ele>143.0</ele>
        <time>2014-07-06T12:24:49Z</time>
      </trkpt>
      <trkpt lat="51.230528" lon="-0.12153">
        <ele>144.0</ele>
        <time>2014-07-06T12:24:53Z</time>
      </trkpt>
      <trkpt lat="51.230261" lon="-0.120992">
        <ele>138.0</ele>
        <time>2014-07-06T12:24:58Z</time>
      </trkpt>
      <trkpt lat="51.229951" lon="-0.1203">
        <ele>137.0</ele>
        <time>2014-07-06T12:25:02Z</time>
      </trkpt>
      <trkpt lat="51.229567" lon="-0.119707">
        <ele>134.0</ele>
        <time>2014-07-06T12:25:07Z</time>
      </trkpt>
      <trkpt lat="51.229267" lon="-0.119236">
        <ele>133.0</ele>
        <time>2014-07-06T12:25:11Z</time>
      </trkpt>
      <trkpt lat="51.22898" lon="-0.118618">
        <ele>131.0</ele>
        <time>2014-07-06T12:25:16Z</time>
      </trkpt>
      <trkpt lat="51.228771" lon="-0.118256">
        <ele>130.0</ele>
        <time>2014-07-06T12:25:20Z</time>
      </trkpt>
      <trkpt lat="51.228505" lon="-0.117924">
        <ele>127.0</ele>
        <time>2014-07-06T12:25:25Z</time>
      </trkpt>
      <trkpt lat="51.228257" lon="-0.117683">
        <ele>129.0</ele>
        <time>2014-07-06T12:25:29Z</time>
      </trkpt>
      <trkpt lat="51.22796" lon="-0.117541">
        <ele>128.0</ele>
        <time>2014-07-06T12:25:33Z</time>
      </trkpt>
      <trkpt lat="51.227561" lon="-0.117542">
        <ele>123.0</ele>
        <time>2014-07-06T12:25:38Z</time>
      </trkpt>
      <trkpt lat="51.227105" lon="-0.117618">
        <ele>119.0</ele>
        <time>2014-07-06T12:25:43Z</time>
      </trkpt>
      <trkpt lat="51.22672" lon="-0.117699">
        <ele>117.0</ele>
        <time>2014-07-06T12:25:47Z</time>
      </trkpt>
      <trkpt lat="51.226363" lon="-0.117845">
        <ele>115.0</ele>
        <time>2014-07-06T12:25:51Z</time>
      </trkpt>
      <trkpt lat="51.225967" lon="-0.117932">
        <ele>113.0</ele>
        <time>2014-07-06T12:25:55Z</time>
      </trkpt>
      <trkpt lat="51.225599" lon="-0.118039">
        <ele>108.0</ele>
        <time>2014-07-06T12:25:59Z</time>
      </trkpt>
      <trkpt lat="51.225223" lon="-0.118128">
        <ele>107.0</ele>
        <time>2014-07-06T12:26:03Z</time>
      </trkpt>
      <trkpt lat="51.224871" lon="-0.118192">
        <ele>106.0</ele>
        <time>2014-07-06T12:26:07Z</time>
      </trkpt>
      <trkpt lat="51.224544" lon="-0.118261">
        <ele>107.0</ele>
        <time>2014-07-06T12:26:11Z</time>
      </trkpt>
      <trkpt lat="51.224246" lon="-0.118319">
        <ele>111.0</ele>
        <time>2014-07-06T12:26:15Z</time>
      </trkpt>
      <trkpt lat="51.224023" lon="-0.118428">
        <ele>114.0</ele>
        <time>2014-07-06T12:26:19Z</time>
      </trkpt>
      <trkpt lat="51.223834" lon="-0.118326">
        <ele>108.0</ele>
        <time>2014-07-06T12:26:24Z</time>
      </trkpt>
      <trkpt lat="51.223618" lon="-0.118353">
        <ele>114.0</ele>
        <time>2014-07-06T12:26:28Z</time>
      </trkpt>
      <trkpt lat="51.223427" lon="-0.118332">
        <ele>117.0</ele>
        <time>2014-07-06T12:26:33Z</time>
      </trkpt>
      <trkpt lat="51.223238" lon="-0.118315">
        <ele>118.0</ele>
        <time>2014-07-06T12:26:38Z</time>
      </trkpt>
      <trkpt lat="51.223086" lon="-0.118289">
        <ele>122.0</ele>
        <time>2014-07-06T12:26:42Z</time>
      </trkpt>
      <trkpt lat="51.22295" lon="-0.118248">
        <ele>124.0</ele>
        <time>2014-07-06T12:26:46Z</time>
      </trkpt>
      <trkpt lat="51.22283" lon="-0.118211">
        <ele>124.0</ele>
        <time>2014-07-06T12:26:50Z</time>
      </trkpt>
      <trkpt lat="51.222703" lon="-0.118181">
        <ele>127.0</ele>
        <time>2014-07-06T12:26:54Z</time>
      </trkpt>
      <trkpt lat="51.222576" lon="-0.118147">
        <ele>130.0</ele>
        <time>2014-07-06T12:26:58Z</time>
      </trkpt>
      <trkpt lat="51.222447" lon="-0.118113">
        <ele>134.0</ele>
        <time>2014-07-06T12:27:02Z</time>
      </trkpt>
      <trkpt lat="51.222284" lon="-0.118048">
        <ele>133.0</ele>
        <time>2014-07-06T12:27:07Z</time>
      </trkpt>
      <trkpt lat="51.22214" lon="-0.117999">
        <ele>130.0</ele>
        <time>2014-07-06T12:27:11Z</time>
      </trkpt>
      <trkpt lat="51.221887" lon="-0.117928">
        <ele>132.0</ele>
        <time>2014-07-06T12:27:16Z</time>
      </trkpt>
      <trkpt lat="51.221696" lon="-0.117864">
        <ele>131.0</ele>
        <time>2014-07-06T12:27:20Z</time>
      </trkpt>
      <trkpt lat="51.22153" lon="-0.117816">
        <ele>132.0</ele>
        <time>2014-07-06T12:27:24Z</time>
      </trkpt>
      <trkpt lat="51.221413" lon="-0.117783">
        <ele>134.0</ele>
        <time>2014-07-06T12:27:27Z</time>
      </trkpt>
      <trkpt lat="51.221197" lon="-0.117743">
        <ele>133.0</ele>
        <time>2014-07-06T12:27:32Z</time>
      </trkpt>
      <trkpt lat="51.221003" lon="-0.117717">
        <ele>131.0</ele>
        <time>2014-07-06T12:27:36Z</time>
      </trkpt>
      <trkpt lat="51.220783" lon="-0.117679">
        <ele>131.0</ele>
        <time>2014-07-06T12:27:40Z</time>
      </trkpt>
      <trkpt lat="51.220549" lon="-0.117674">
        <ele>127.0</ele>
        <time>2014-07-06T12:27:44Z</time>
      </trkpt>
      <trkpt lat="51.2202" lon="-0.117624">
        <ele>121.0</ele>
        <time>2014-07-06T12:27:49Z</time>
      </trkpt>
      <trkpt lat="51.219878" lon="-0.117603">
        <ele>120.0</ele>
        <time>2014-07-06T12:27:53Z</time>
      </trkpt>
      <trkpt lat="51.219311" lon="-0.117751">
        <ele>109.0</ele>
        <time>2014-07-06T12:27:58Z</time>
      </trkpt>
      <trkpt lat="51.21886" lon="-0.117973">
        <ele>111.0</ele>
        <time>2014-07-06T12:28:02Z</time>
      </trkpt>
      <trkpt lat="51.218325" lon="-0.118234">
        <ele>111.0</ele>
        <time>2014-07-06T12:28:07Z</time>
      </trkpt>
      <trkpt lat="51.217893" lon="-0.118421">
        <ele>110.0</ele>
        <time>2014-07-06T12:28:11Z</time>
      </trkpt>
      <trkpt lat="51.21748" lon="-0.118576">
        <ele>108.0</ele>
        <time>2014-07-06T12:28:15Z</time>
      </trkpt>
      <trkpt lat="51.216966" lon="-0.118796">
        <ele>108.0</ele>
        <time>2014-07-06T12:28:20Z</time>
      </trkpt>
      <trkpt lat="51.21655" lon="-0.118937">
        <ele>107.0</ele>
        <time>2014-07-06T12:28:24Z</time>
      </trkpt>
      <trkpt lat="51.216041" lon="-0.11908">
        <ele>106.0</ele>
        <time>2014-07-06T12:28:29Z</time>
      </trkpt>
      <trkpt lat="51.215645" lon="-0.119206">
        <ele>109.0</ele>
        <time>2014-07-06T12:28:33Z</time>
      </trkpt>
      <trkpt lat="51.215157" lon="-0.11929">
        <ele>110.0</ele>
        <time>2014-07-06T12:28:38Z</time>
      </trkpt>
      <trkpt lat="51.214704" lon="-0.119303">
        <ele>108.0</ele>
        <time>2014-07-06T12:28:43Z</time>
      </trkpt>
      <trkpt lat="51.214292" lon="-0.11924">
        <ele>106.0</ele>
        <time>2014-07-06T12:28:48Z</time>
      </trkpt>
      <trkpt lat="51.213993" lon="-0.119113">
        <ele>112.0</ele>
        <time>2014-07-06T12:28:52Z</time>
      </trkpt>
      <trkpt lat="51.213717" lon="-0.118987">
        <ele>109.0</ele>
        <time>2014-07-06T12:28:56Z</time>
      </trkpt>
      <trkpt lat="51.21345" lon="-0.118862">
        <ele>113.0</ele>
        <time>2014-07-06T12:29:01Z</time>
      </trkpt>
      <trkpt lat="51.213255" lon="-0.118773">
        <ele>109.0</ele>
        <time>2014-07-06T12:29:05Z</time>
      </trkpt>
      <trkpt lat="51.213047" lon="-0.1187">
        <ele>104.0</ele>
        <time>2014-07-06T12:29:10Z</time>
      </trkpt>
      <trkpt lat="51.212907" lon="-0.118669">
        <ele>106.0</ele>
        <time>2014-07-06T12:29:14Z</time>
      </trkpt>
      <trkpt lat="51.212725" lon="-0.118661">
        <ele>106.0</ele>
        <time>2014-07-06T12:29:18Z</time>
      </trkpt>
      <trkpt lat="51.212514" lon="-0.118624">
        <ele>107.0</ele>
        <time>2014-07-06T12:29:23Z</time>
      </trkpt>
      <trkpt lat="51.212348" lon="-0.118626">
        <ele>108.0</ele>
        <time>2014-07-06T12:29:27Z</time>
      </trkpt>
      <trkpt lat="51.212216" lon="-0.118643">
        <ele>108.0</ele>
        <time>2014-07-06T12:29:31Z</time>
      </trkpt>
      <trkpt lat="51.212091" lon="-0.118642">
        <ele>110.0</ele>
        <time>2014-07-06T12:29:35Z</time>
      </trkpt>
      <trkpt lat="51.211927" lon="-0.118675">
        <ele>109.0</ele>
        <time>2014-07-06T12:29:40Z</time>
      </trkpt>
      <trkpt lat="51.211758" lon="-0.118746">
        <ele>112.0</ele>
        <time>2014-07-06T12:29:45Z</time>
      </trkpt>
      <trkpt lat="51.211648" lon="-0.118793">
        <ele>111.0</ele>
        <time>2014-07-06T12:29:49Z</time>
      </trkpt>
      <trkpt lat="51.211542" lon="-0.118886">
        <ele>111.0</ele>
        <time>2014-07-06T12:29:54Z</time>
      </trkpt>
      <trkpt lat="51.211433" lon="-0.118966">
        <ele>112.0</ele>
        <time>2014-07-06T12:29:59Z</time>
      </trkpt>
      <trkpt lat="51.211314" lon="-0.11909">
        <ele>112.0</ele>
        <time>2014-07-06T12:30:04Z</time>
      </trkpt>
      <trkpt lat="51.21124" lon="-0.119202">
        <ele>115.0</ele>
        <time>2014-07-06T12:30:08Z</time>
      </trkpt>
      <trkpt lat="51.211152" lon="-0.119299">
        <ele>116.0</ele>
        <time>2014-07-06T12:30:12Z</time>
      </trkpt>
      <trkpt lat="51.211048" lon="-0.119377">
        <ele>113.0</ele>
        <time>2014-07-06T12:30:16Z</time>
      </trkpt>
      <trkpt lat="51.210905" lon="-0.119465">
        <ele>110.0</ele>
        <time>2014-07-06T12:30:21Z</time>
      </trkpt>
      <trkpt lat="51.210769" lon="-0.119531">
        <ele>110.0</ele>
        <time>2014-07-06T12:30:26Z</time>
      </trkpt>
      <trkpt lat="51.210661" lon="-0.119574">
        <ele>111.0</ele>
        <time>2014-07-06T12:30:30Z</time>
      </trkpt>
      <trkpt lat="51.210535" lon="-0.119633">
        <ele>112.0</ele>
        <time>2014-07-06T12:30:34Z</time>
      </trkpt>
      <trkpt lat="51.210318" lon="-0.119719">
        <ele>114.0</ele>
        <time>2014-07-06T12:30:39Z</time>
      </trkpt>
      <trkpt lat="51.210144" lon="-0.11979">
        <ele>113.0</ele>
        <time>2014-07-06T12:30:43Z</time>
      </trkpt>
      <trkpt lat="51.209954" lon="-0.119877">
        <ele>114.0</ele>
        <time>2014-07-06T12:30:47Z</time>
      </trkpt>
      <trkpt lat="51.209783" lon="-0.119959">
        <ele>115.0</ele>
        <time>2014-07-06T12:30:51Z</time>
      </trkpt>
      <trkpt lat="51.209556" lon="-0.120063">
        <ele>113.0</ele>
        <time>2014-07-06T12:30:56Z</time>
      </trkpt>
      <trkpt lat="51.209373" lon="-0.120157">
        <ele>112.0</ele>
        <time>2014-07-06T12:31:00Z</time>
      </trkpt>
      <trkpt lat="51.209192" lon="-0.120232">
        <ele>114.0</ele>
        <time>2014-07-06T12:31:04Z</time>
      </trkpt>
      <trkpt lat="51.208946" lon="-0.12037">
        <ele>116.0</ele>
        <time>2014-07-06T12:31:09Z</time>
      </trkpt>
      <trkpt lat="51.208737" lon="-0.120475">
        <ele>113.0</ele>
        <time>2014-07-06T12:31:13Z</time>
      </trkpt>
      <trkpt lat="51.208491" lon="-0.1206">
        <ele>116.0</ele>
        <time>2014-07-06T12:31:18Z</time>
      </trkpt>
      <trkpt lat="51.208259" lon="-0.120679">
        <ele>117.0</ele>
        <time>2014-07-06T12:31:23Z</time>
      </trkpt>
      <trkpt lat="51.208089" lon="-0.120764">
        <ele>115.0</ele>
        <time>2014-07-06T12:31:27Z</time>
      </trkpt>
      <trkpt lat="51.207928" lon="-0.120887">
        <ele>114.0</ele>
        <time>2014-07-06T12:31:31Z</time>
      </trkpt>
      <trkpt lat="51.207751" lon="-0.120966">
        <ele>114.0</ele>
        <time>2014-07-06T12:31:35Z</time>
      </trkpt>
      <trkpt lat="51.207528" lon="-0.121104">
        <ele>116.0</ele>
        <time>2014-07-06T12:31:40Z</time>
      </trkpt>
      <trkpt lat="51.207317" lon="-0.121233">
        <ele>118.0</ele>
        <time>2014-07-06T12:31:45Z</time>
      </trkpt>
      <trkpt lat="51.207153" lon="-0.121338">
        <ele>119.0</ele>
        <time>2014-07-06T12:31:49Z</time>
      </trkpt>
      <trkpt lat="51.206961" lon="-0.121429">
        <ele>118.0</ele>
        <time>2014-07-06T12:31:54Z</time>
      </trkpt>
      <trkpt lat="51.206815" lon="-0.121498">
        <ele>118.0</ele>
        <time>2014-07-06T12:31:58Z</time>
      </trkpt>
      <trkpt lat="51.206643" lon="-0.121554">
        <ele>118.0</ele>
        <time>2014-07-06T12:32:03Z</time>
      </trkpt>
      <trkpt lat="51.206468" lon="-0.121598">
        <ele>118.0</ele>
        <time>2014-07-06T12:32:08Z</time>
      </trkpt>
      <trkpt lat="51.206327" lon="-0.121616">
        <ele>118.0</ele>
        <time>2014-07-06T12:32:12Z</time>
      </trkpt>
      <trkpt lat="51.206193" lon="-0.121644">
        <ele>118.0</ele>
        <time>2014-07-06T12:32:16Z</time>
      </trkpt>
      <trkpt lat="51.206053" lon="-0.121682">
        <ele>121.0</ele>
        <time>2014-07-06T12:32:20Z</time>
      </trkpt>
      <trkpt lat="51.205915" lon="-0.121724">
        <ele>122.0</ele>
        <time>2014-07-06T12:32:24Z</time>
      </trkpt>
      <trkpt lat="51.20574" lon="-0.121762">
        <ele>123.0</ele>
        <time>2014-07-06T12:32:29Z</time>
      </trkpt>
      <trkpt lat="51.205602" lon="-0.121789">
        <ele>124.0</ele>
        <time>2014-07-06T12:32:33Z</time>
      </trkpt>
      <trkpt lat="51.20546" lon="-0.121799">
        <ele>124.0</ele>
        <time>2014-07-06T12:32:37Z</time>
      </trkpt>
      <trkpt lat="51.205269" lon="-0.121815">
        <ele>126.0</ele>
        <time>2014-07-06T12:32:42Z</time>
      </trkpt>
      <trkpt lat="51.205107" lon="-0.121831">
        <ele>128.0</ele>
        <time>2014-07-06T12:32:46Z</time>
      </trkpt>
      <trkpt lat="51.204899" lon="-0.121853">
        <ele>128.0</ele>
        <time>2014-07-06T12:32:51Z</time>
      </trkpt>
      <trkpt lat="51.204732" lon="-0.121866">
        <ele>130.0</ele>
        <time>2014-07-06T12:32:55Z</time>
      </trkpt>
      <trkpt lat="51.204562" lon="-0.121878">
        <ele>131.0</ele>
        <time>2014-07-06T12:32:59Z</time>
      </trkpt>
      <trkpt lat="51.204355" lon="-0.121885">
        <ele>132.0</ele>
        <time>2014-07-06T12:33:04Z</time>
      </trkpt>
      <trkpt lat="51.204191" lon="-0.121862">
        <ele>129.0</ele>
        <time>2014-07-06T12:33:08Z</time>
      </trkpt>
      <trkpt lat="51.20396" lon="-0.121813">
        <ele>130.0</ele>
        <time>2014-07-06T12:33:13Z</time>
      </trkpt>
      <trkpt lat="51.203755" lon="-0.121782">
        <ele>130.0</ele>
        <time>2014-07-06T12:33:17Z</time>
      </trkpt>
      <trkpt lat="51.203515" lon="-0.121751">
        <ele>130.0</ele>
        <time>2014-07-06T12:33:21Z</time>
      </trkpt>
      <trkpt lat="51.203228" lon="-0.12177">
        <ele>132.0</ele>
        <time>2014-07-06T12:33:26Z</time>
      </trkpt>
      <trkpt lat="51.202997" lon="-0.121799">
        <ele>131.0</ele>
        <time>2014-07-06T12:33:30Z</time>
      </trkpt>
      <trkpt lat="51.202689" lon="-0.121891">
        <ele>131.0</ele>
        <time>2014-07-06T12:33:35Z</time>
      </trkpt>
      <trkpt lat="51.202467" lon="-0.121973">
        <ele>129.0</ele>
        <time>2014-07-06T12:33:39Z</time>
      </trkpt>
      <trkpt lat="51.202159" lon="-0.122069">
        <ele>127.0</ele>
        <time>2014-07-06T12:33:44Z</time>
      </trkpt>
      <trkpt lat="51.201876" lon="-0.122157">
        <ele>123.0</ele>
        <time>2014-07-06T12:33:49Z</time>
      </trkpt>
      <trkpt lat="51.201639" lon="-0.122189">
        <ele>126.0</ele>
        <time>2014-07-06T12:33:53Z</time>
      </trkpt>
      <trkpt lat="51.201374" lon="-0.122211">
        <ele>127.0</ele>
        <time>2014-07-06T12:33:57Z</time>
      </trkpt>
      <trkpt lat="51.201099" lon="-0.122259">
        <ele>129.0</ele>
        <time>2014-07-06T12:34:02Z</time>
      </trkpt>
      <trkpt lat="51.200858" lon="-0.122288">
        <ele>128.0</ele>
        <time>2014-07-06T12:34:06Z</time>
      </trkpt>
      <trkpt lat="51.200646" lon="-0.122258">
        <ele>130.0</ele>
        <time>2014-07-06T12:34:10Z</time>
      </trkpt>
      <trkpt lat="51.200345" lon="-0.122215">
        <ele>132.0</ele>
        <time>2014-07-06T12:34:15Z</time>
      </trkpt>
      <trkpt lat="51.200121" lon="-0.122173">
        <ele>133.0</ele>
        <time>2014-07-06T12:34:19Z</time>
      </trkpt>
      <trkpt lat="51.199846" lon="-0.12213">
        <ele>133.0</ele>
        <time>2014-07-06T12:34:24Z</time>
      </trkpt>
      <trkpt lat="51.199644" lon="-0.122125">
        <ele>132.0</ele>
        <time>2014-07-06T12:34:28Z</time>
      </trkpt>
      <trkpt lat="51.199451" lon="-0.122196">
        <ele>132.0</ele>
        <time>2014-07-06T12:34:32Z</time>
      </trkpt>
      <trkpt lat="51.199188" lon="-0.122311">
        <ele>128.0</ele>
        <time>2014-07-06T12:34:37Z</time>
      </trkpt>
      <trkpt lat="51.198958" lon="-0.122405">
        <ele>132.0</ele>
        <time>2014-07-06T12:34:41Z</time>
      </trkpt>
      <trkpt lat="51.198718" lon="-0.12245">
        <ele>133.0</ele>
        <time>2014-07-06T12:34:45Z</time>
      </trkpt>
      <trkpt lat="51.198466" lon="-0.122523">
        <ele>132.0</ele>
        <time>2014-07-06T12:34:49Z</time>
      </trkpt>
      <trkpt lat="51.198223" lon="-0.122583">
        <ele>130.0</ele>
        <time>2014-07-06T12:34:53Z</time>
      </trkpt>
      <trkpt lat="51.197993" lon="-0.122665">
        <ele>133.0</ele>
        <time>2014-07-06T12:34:57Z</time>
      </trkpt>
      <trkpt lat="51.197715" lon="-0.122754">
        <ele>130.0</ele>
        <time>2014-07-06T12:35:02Z</time>
      </trkpt>
      <trkpt lat="51.197486" lon="-0.122835">
        <ele>133.0</ele>
        <time>2014-07-06T12:35:06Z</time>
      </trkpt>
      <trkpt lat="51.197212" lon="-0.122957">
        <ele>134.0</ele>
        <time>2014-07-06T12:35:11Z</time>
      </trkpt>
      <trkpt lat="51.196981" lon="-0.123038">
        <ele>136.0</ele>
        <time>2014-07-06T12:35:15Z</time>
      </trkpt>
      <trkpt lat="51.196702" lon="-0.123121">
        <ele>136.0</ele>
        <time>2014-07-06T12:35:20Z</time>
      </trkpt>
      <trkpt lat="51.196477" lon="-0.123125">
        <ele>136.0</ele>
        <time>2014-07-06T12:35:24Z</time>
      </trkpt>
      <trkpt lat="51.19625" lon="-0.123012">
        <ele>136.0</ele>
        <time>2014-07-06T12:35:28Z</time>
      </trkpt>
      <trkpt lat="51.195971" lon="-0.122754">
        <ele>135.0</ele>
        <time>2014-07-06T12:35:33Z</time>
      </trkpt>
      <trkpt lat="51.195787" lon="-0.122533">
        <ele>135.0</ele>
        <time>2014-07-06T12:35:37Z</time>
      </trkpt>
      <trkpt lat="51.195615" lon="-0.122309">
        <ele>135.0</ele>
        <time>2014-07-06T12:35:41Z</time>
      </trkpt>
      <trkpt lat="51.195376" lon="-0.122055">
        <ele>134.0</ele>
        <time>2014-07-06T12:35:46Z</time>
      </trkpt>
      <trkpt lat="51.195145" lon="-0.121791">
        <ele>133.0</ele>
        <time>2014-07-06T12:35:51Z</time>
      </trkpt>
      <trkpt lat="51.19495" lon="-0.121623">
        <ele>137.0</ele>
        <time>2014-07-06T12:35:55Z</time>
      </trkpt>
      <trkpt lat="51.194749" lon="-0.12145">
        <ele>135.0</ele>
        <time>2014-07-06T12:35:59Z</time>
      </trkpt>
      <trkpt lat="51.194542" lon="-0.121305">
        <ele>137.0</ele>
        <time>2014-07-06T12:36:03Z</time>
      </trkpt>
      <trkpt lat="51.194325" lon="-0.121102">
        <ele>139.0</ele>
        <time>2014-07-06T12:36:08Z</time>
      </trkpt>
      <trkpt lat="51.194158" lon="-0.120942">
        <ele>138.0</ele>
        <time>2014-07-06T12:36:12Z</time>
      </trkpt>
      <trkpt lat="51.193934" lon="-0.120751">
        <ele>137.0</ele>
        <time>2014-07-06T12:36:17Z</time>
      </trkpt>
      <trkpt lat="51.193703" lon="-0.120567">
        <ele>140.0</ele>
        <time>2014-07-06T12:36:22Z</time>
      </trkpt>
      <trkpt lat="51.193493" lon="-0.120424">
        <ele>143.0</ele>
        <time>2014-07-06T12:36:26Z</time>
      </trkpt>
      <trkpt lat="51.193313" lon="-0.120276">
        <ele>141.0</ele>
        <time>2014-07-06T12:36:30Z</time>
      </trkpt>
      <trkpt lat="51.193111" lon="-0.120116">
        <ele>141.0</ele>
        <time>2014-07-06T12:36:35Z</time>
      </trkpt>
      <trkpt lat="51.192943" lon="-0.119984">
        <ele>142.0</ele>
        <time>2014-07-06T12:36:39Z</time>
      </trkpt>
      <trkpt lat="51.192811" lon="-0.119888">
        <ele>144.0</ele>
        <time>2014-07-06T12:36:43Z</time>
      </trkpt>
      <trkpt lat="51.192709" lon="-0.119832">
        <ele>143.0</ele>
        <time>2014-07-06T12:36:47Z</time>
      </trkpt>
      <trkpt lat="51.192708" lon="-0.119689">
        <ele>141.0</ele>
        <time>2014-07-06T12:38:40Z</time>
      </trkpt>
      <trkpt lat="51.192673" lon="-0.119568">
        <ele>141.0</ele>
        <time>2014-07-06T12:38:46Z</time>
      </trkpt>
      <trkpt lat="51.192627" lon="-0.119385">
        <ele>143.0</ele>
        <time>2014-07-06T12:38:51Z</time>
      </trkpt>
      <trkpt lat="51.192575" lon="-0.119168">
        <ele>143.0</ele>
        <time>2014-07-06T12:38:55Z</time>
      </trkpt>
      <trkpt lat="51.192528" lon="-0.118886">
        <ele>144.0</ele>
        <time>2014-07-06T12:39:00Z</time>
      </trkpt>
      <trkpt lat="51.192471" lon="-0.118654">
        <ele>149.0</ele>
        <time>2014-07-06T12:39:05Z</time>
      </trkpt>
      <trkpt lat="51.192429" lon="-0.118444">
        <ele>149.0</ele>
        <time>2014-07-06T12:39:09Z</time>
      </trkpt>
      <trkpt lat="51.192379" lon="-0.118177">
        <ele>150.0</ele>
        <time>2014-07-06T12:39:14Z</time>
      </trkpt>
      <trkpt lat="51.192332" lon="-0.11793">
        <ele>150.0</ele>
        <time>2014-07-06T12:39:18Z</time>
      </trkpt>
      <trkpt lat="51.19226" lon="-0.117666">
        <ele>147.0</ele>
        <time>2014-07-06T12:39:22Z</time>
      </trkpt>
      <trkpt lat="51.192203" lon="-0.117417">
        <ele>146.0</ele>
        <time>2014-07-06T12:39:26Z</time>
      </trkpt>
      <trkpt lat="51.192171" lon="-0.117165">
        <ele>146.0</ele>
        <time>2014-07-06T12:39:30Z</time>
      </trkpt>
      <trkpt lat="51.19212" lon="-0.116908">
        <ele>144.0</ele>
        <time>2014-07-06T12:39:34Z</time>
      </trkpt>
      <trkpt lat="51.192078" lon="-0.11663">
        <ele>144.0</ele>
        <time>2014-07-06T12:39:38Z</time>
      </trkpt>
      <trkpt lat="51.192035" lon="-0.116366">
        <ele>142.0</ele>
        <time>2014-07-06T12:39:42Z</time>
      </trkpt>
      <trkpt lat="51.191994" lon="-0.116103">
        <ele>142.0</ele>
        <time>2014-07-06T12:39:47Z</time>
      </trkpt>
      <trkpt lat="51.191963" lon="-0.115891">
        <ele>139.0</ele>
        <time>2014-07-06T12:39:52Z</time>
      </trkpt>
      <trkpt lat="51.19195" lon="-0.115735">
        <ele>138.0</ele>
        <time>2014-07-06T12:39:56Z</time>
      </trkpt>
      <trkpt lat="51.192019" lon="-0.115681">
        <ele>145.0</ele>
        <time>2014-07-06T12:44:04Z</time>
      </trkpt>
      <trkpt lat="51.192019" lon="-0.115681">
        <ele>145.0</ele>
        <time>2014-07-06T12:44:05Z</time>
      </trkpt>
    </trkseg>
    <trkseg>
      <trkpt lat="51.192014" lon="-0.115657">
        <ele>146.0</ele>
        <time>2014-07-06T12:44:21Z</time>
      </trkpt>
      <trkpt lat="51.191929" lon="-0.115619">
        <ele>145.0</ele>
        <time>2014-07-06T12:56:42Z</time>
      </trkpt>
      <trkpt lat="51.191981" lon="-0.115722">
        <ele>149.0</ele>
        <time>2014-07-06T13:09:16Z</time>
      </trkpt>
      <trkpt lat="51.191925" lon="-0.115615">
        <ele>150.0</ele>
        <time>2014-07-06T13:49:17Z</time>
      </trkpt>
      <trkpt lat="51.191964" lon="-0.115724">
        <ele>149.0</ele>
        <time>2014-07-06T13:53:34Z</time>
      </trkpt>
      <trkpt lat="51.191975" lon="-0.115856">
        <ele>148.0</ele>
        <time>2014-07-06T13:53:40Z</time>
      </trkpt>
      <trkpt lat="51.191991" lon="-0.115993">
        <ele>147.0</ele>
        <time>2014-07-06T13:53:44Z</time>
      </trkpt>
      <trkpt lat="51.192022" lon="-0.116205">
        <ele>147.0</ele>
        <time>2014-07-06T13:53:48Z</time>
      </trkpt>
      <trkpt lat="51.19206" lon="-0.1165">
        <ele>143.0</ele>
        <time>2014-07-06T13:53:53Z</time>
      </trkpt>
      <trkpt lat="51.192104" lon="-0.116762">
        <ele>143.0</ele>
        <time>2014-07-06T13:53:57Z</time>
      </trkpt>
      <trkpt lat="51.192183" lon="-0.117102">
        <ele>142.0</ele>
        <time>2014-07-06T13:54:01Z</time>
      </trkpt>
      <trkpt lat="51.192235" lon="-0.117381">
        <ele>142.0</ele>
        <time>2014-07-06T13:54:05Z</time>
      </trkpt>
      <trkpt lat="51.192312" lon="-0.117781">
        <ele>143.0</ele>
        <time>2014-07-06T13:54:10Z</time>
      </trkpt>
      <trkpt lat="51.192364" lon="-0.118098">
        <ele>141.0</ele>
        <time>2014-07-06T13:54:14Z</time>
      </trkpt>
      <trkpt lat="51.19244" lon="-0.118413">
        <ele>141.0</ele>
        <time>2014-07-06T13:54:18Z</time>
      </trkpt>
      <trkpt lat="51.192479" lon="-0.118754">
        <ele>139.0</ele>
        <time>2014-07-06T13:54:22Z</time>
      </trkpt>
      <trkpt lat="51.192554" lon="-0.11913">
        <ele>139.0</ele>
        <time>2014-07-06T13:54:26Z</time>
      </trkpt>
      <trkpt lat="51.192641" lon="-0.11949">
        <ele>141.0</ele>
        <time>2014-07-06T13:54:31Z</time>
      </trkpt>
      <trkpt lat="51.192669" lon="-0.119687">
        <ele>140.0</ele>
        <time>2014-07-06T13:54:35Z</time>
      </trkpt>
      <trkpt lat="51.192592" lon="-0.119813">
        <ele>140.0</ele>
        <time>2014-07-06T13:54:39Z</time>
      </trkpt>
      <trkpt lat="51.192431" lon="-0.119831">
        <ele>138.0</ele>
        <time>2014-07-06T13:54:43Z</time>
      </trkpt>
      <trkpt lat="51.192267" lon="-0.119847">
        <ele>137.0</ele>
        <time>2014-07-06T13:54:47Z</time>
      </trkpt>
      <trkpt lat="51.19213" lon="-0.119918">
        <ele>133.0</ele>
        <time>2014-07-06T13:54:51Z</time>
      </trkpt>
      <trkpt lat="51.191992" lon="-0.119976">
        <ele>135.0</ele>
        <time>2014-07-06T13:54:56Z</time>
      </trkpt>
      <trkpt lat="51.191826" lon="-0.119995">
        <ele>137.0</ele>
        <time>2014-07-06T13:55:00Z</time>
      </trkpt>
      <trkpt lat="51.191584" lon="-0.120061">
        <ele>137.0</ele>
        <time>2014-07-06T13:55:04Z</time>
      </trkpt>
      <trkpt lat="51.191256" lon="-0.120143">
        <ele>139.0</ele>
        <time>2014-07-06T13:55:09Z</time>
      </trkpt>
      <trkpt lat="51.19091" lon="-0.120318">
        <ele>139.0</ele>
        <time>2014-07-06T13:55:14Z</time>
      </trkpt>
      <trkpt lat="51.19068" lon="-0.120279">
        <ele>133.0</ele>
        <time>2014-07-06T13:55:18Z</time>
      </trkpt>
      <trkpt lat="51.190374" lon="-0.12032">
        <ele>134.0</ele>
        <time>2014-07-06T13:55:22Z</time>
      </trkpt>
      <trkpt lat="51.190145" lon="-0.120471">
        <ele>133.0</ele>
        <time>2014-07-06T13:55:26Z</time>
      </trkpt>
      <trkpt lat="51.189766" lon="-0.120605">
        <ele>130.0</ele>
        <time>2014-07-06T13:55:31Z</time>
      </trkpt>
      <trkpt lat="51.18933" lon="-0.120729">
        <ele>129.0</ele>
        <time>2014-07-06T13:55:36Z</time>
      </trkpt>
      <trkpt lat="51.188971" lon="-0.120919">
        <ele>125.0</ele>
        <time>2014-07-06T13:55:40Z</time>
      </trkpt>
      <trkpt lat="51.188551" lon="-0.121076">
        <ele>124.0</ele>
        <time>2014-07-06T13:55:44Z</time>
      </trkpt>
      <trkpt lat="51.188234" lon="-0.12118">
        <ele>121.0</ele>
        <time>2014-07-06T13:55:48Z</time>
      </trkpt>
      <trkpt lat="51.187927" lon="-0.121079">
        <ele>120.0</ele>
        <time>2014-07-06T13:55:52Z</time>
      </trkpt>
      <trkpt lat="51.187683" lon="-0.12076">
        <ele>122.0</ele>
        <time>2014-07-06T13:55:56Z</time>
      </trkpt>
      <trkpt lat="51.187448" lon="-0.120294">
        <ele>120.0</ele>
        <time>2014-07-06T13:56:01Z</time>
      </trkpt>
      <trkpt lat="51.187233" lon="-0.119959">
        <ele>120.0</ele>
        <time>2014-07-06T13:56:05Z</time>
      </trkpt>
      <trkpt lat="51.186946" lon="-0.119519">
        <ele>124.0</ele>
        <time>2014-07-06T13:56:10Z</time>
      </trkpt>
      <trkpt lat="51.186729" lon="-0.11915">
        <ele>122.0</ele>
        <time>2014-07-06T13:56:14Z</time>
      </trkpt>
      <trkpt lat="51.186472" lon="-0.11864">
        <ele>121.0</ele>
        <time>2014-07-06T13:56:19Z</time>
      </trkpt>
      <trkpt lat="51.186247" lon="-0.118145">
        <ele>120.0</ele>
        <time>2014-07-06T13:56:24Z</time>
      </trkpt>
      <trkpt lat="51.186024" lon="-0.117672">
        <ele>121.0</ele>
        <time>2014-07-06T13:56:29Z</time>
      </trkpt>
      <trkpt lat="51.185896" lon="-0.117224">
        <ele>119.0</ele>
        <time>2014-07-06T13:56:33Z</time>
      </trkpt>
      <trkpt lat="51.185771" lon="-0.116792">
        <ele>117.0</ele>
        <time>2014-07-06T13:56:37Z</time>
      </trkpt>
      <trkpt lat="51.185643" lon="-0.11638">
        <ele>116.0</ele>
        <time>2014-07-06T13:56:41Z</time>
      </trkpt>
      <trkpt lat="51.185552" lon="-0.11603">
        <ele>114.0</ele>
        <time>2014-07-06T13:56:45Z</time>
      </trkpt>
      <trkpt lat="51.185416" lon="-0.115688">
        <ele>116.0</ele>
        <time>2014-07-06T13:56:49Z</time>
      </trkpt>
      <trkpt lat="51.185307" lon="-0.115394">
        <ele>116.0</ele>
        <time>2014-07-06T13:56:53Z</time>
      </trkpt>
      <trkpt lat="51.185199" lon="-0.11504">
        <ele>114.0</ele>
        <time>2014-07-06T13:56:58Z</time>
      </trkpt>
      <trkpt lat="51.185103" lon="-0.11477">
        <ele>111.0</ele>
        <time>2014-07-06T13:57:02Z</time>
      </trkpt>
      <trkpt lat="51.185066" lon="-0.114708">
        <ele>111.0</ele>
        <time>2014-07-06T13:57:03Z</time>
      </trkpt>
      <trkpt lat="51.185066" lon="-0.114708">
        <ele>111.0</ele>
        <time>2014-07-06T13:57:04Z</time>
      </trkpt>
    </trkseg>
    <trkseg>
      <trkpt lat="51.184906" lon="-0.114455">
        <ele>113.0</ele>
        <time>2014-07-06T13:57:06Z</time>
      </trkpt>
      <trkpt lat="51.184794" lon="-0.114268">
        <ele>112.0</ele>
        <time>2014-07-06T13:57:11Z</time>
      </trkpt>
      <trkpt lat="51.184575" lon="-0.113848">
        <ele>113.0</ele>
        <time>2014-07-06T13:57:16Z</time>
      </trkpt>
      <trkpt lat="51.184356" lon="-0.113489">
        <ele>113.0</ele>
        <time>2014-07-06T13:57:21Z</time>
      </trkpt>
      <trkpt lat="51.184081" lon="-0.113352">
        <ele>111.0</ele>
        <time>2014-07-06T13:57:25Z</time>
      </trkpt>
      <trkpt lat="51.18378" lon="-0.11339">
        <ele>112.0</ele>
        <time>2014-07-06T13:57:29Z</time>
      </trkpt>
      <trkpt lat="51.183488" lon="-0.113462">
        <ele>113.0</ele>
        <time>2014-07-06T13:57:33Z</time>
      </trkpt>
      <trkpt lat="51.183124" lon="-0.113582">
        <ele>112.0</ele>
        <time>2014-07-06T13:57:38Z</time>
      </trkpt>
      <trkpt lat="51.18281" lon="-0.113641">
        <ele>110.0</ele>
        <time>2014-07-06T13:57:42Z</time>
      </trkpt>
      <trkpt lat="51.182436" lon="-0.113678">
        <ele>110.0</ele>
        <time>2014-07-06T13:57:47Z</time>
      </trkpt>
      <trkpt lat="51.182169" lon="-0.113599">
        <ele>108.0</ele>
        <time>2014-07-06T13:57:51Z</time>
      </trkpt>
      <trkpt lat="51.181892" lon="-0.113473">
        <ele>110.0</ele>
        <time>2014-07-06T13:57:55Z</time>
      </trkpt>
      <trkpt lat="51.181607" lon="-0.113362">
        <ele>108.0</ele>
        <time>2014-07-06T13:57:59Z</time>
      </trkpt>
      <trkpt lat="51.181339" lon="-0.113298">
        <ele>106.0</ele>
        <time>2014-07-06T13:58:03Z</time>
      </trkpt>
      <trkpt lat="51.181108" lon="-0.113276">
        <ele>107.0</ele>
        <time>2014-07-06T13:58:07Z</time>
      </trkpt>
      <trkpt lat="51.180929" lon="-0.113239">
        <ele>107.0</ele>
        <time>2014-07-06T13:58:11Z</time>
      </trkpt>
      <trkpt lat="51.180782" lon="-0.1132">
        <ele>107.0</ele>
        <time>2014-07-06T13:58:16Z</time>
      </trkpt>
      <trkpt lat="51.180676" lon="-0.113324">
        <ele>108.0</ele>
        <time>2014-07-06T13:58:20Z</time>
      </trkpt>
      <trkpt lat="51.180519" lon="-0.113515">
        <ele>109.0</ele>
        <time>2014-07-06T13:58:25Z</time>
      </trkpt>
      <trkpt lat="51.180292" lon="-0.113738">
        <ele>111.0</ele>
        <time>2014-07-06T13:58:30Z</time>
      </trkpt>
      <trkpt lat="51.180095" lon="-0.113906">
        <ele>112.0</ele>
        <time>2014-07-06T13:58:34Z</time>
      </trkpt>
      <trkpt lat="51.179819" lon="-0.114044">
        <ele>113.0</ele>
        <time>2014-07-06T13:58:39Z</time>
      </trkpt>
      <trkpt lat="51.17951" lon="-0.114328">
        <ele>113.0</ele>
        <time>2014-07-06T13:58:44Z</time>
      </trkpt>
      <trkpt lat="51.17925" lon="-0.114497">
        <ele>112.0</ele>
        <time>2014-07-06T13:58:48Z</time>
      </trkpt>
      <trkpt lat="51.178978" lon="-0.114668">
        <ele>112.0</ele>
        <time>2014-07-06T13:58:52Z</time>
      </trkpt>
      <trkpt lat="51.178625" lon="-0.114816">
        <ele>110.0</ele>
        <time>2014-07-06T13:58:57Z</time>
      </trkpt>
      <trkpt lat="51.178332" lon="-0.1149">
        <ele>108.0</ele>
        <time>2014-07-06T13:59:01Z</time>
      </trkpt>
      <trkpt lat="51.178043" lon="-0.114994">
        <ele>108.0</ele>
        <time>2014-07-06T13:59:05Z</time>
      </trkpt>
      <trkpt lat="51.177708" lon="-0.115136">
        <ele>108.0</ele>
        <time>2014-07-06T13:59:10Z</time>
      </trkpt>
      <trkpt lat="51.177402" lon="-0.115248">
        <ele>105.0</ele>
        <time>2014-07-06T13:59:14Z</time>
      </trkpt>
      <trkpt lat="51.177121" lon="-0.115341">
        <ele>103.0</ele>
        <time>2014-07-06T13:59:18Z</time>
      </trkpt>
      <trkpt lat="51.176841" lon="-0.115413">
        <ele>105.0</ele>
        <time>2014-07-06T13:59:22Z</time>
      </trkpt>
      <trkpt lat="51.176467" lon="-0.115472">
        <ele>104.0</ele>
        <time>2014-07-06T13:59:27Z</time>
      </trkpt>
      <trkpt lat="51.176174" lon="-0.115518">
        <ele>107.0</ele>
        <time>2014-07-06T13:59:31Z</time>
      </trkpt>
      <trkpt lat="51.175823" lon="-0.115593">
        <ele>108.0</ele>
        <time>2014-07-06T13:59:36Z</time>
      </trkpt>
      <trkpt lat="51.175527" lon="-0.115639">
        <ele>108.0</ele>
        <time>2014-07-06T13:59:40Z</time>
      </trkpt>
      <trkpt lat="51.175223" lon="-0.115709">
        <ele>108.0</ele>
        <time>2014-07-06T13:59:44Z</time>
      </trkpt>
      <trkpt lat="51.174862" lon="-0.115757">
        <ele>107.0</ele>
        <time>2014-07-06T13:59:49Z</time>
      </trkpt>
      <trkpt lat="51.174579" lon="-0.115808">
        <ele>108.0</ele>
        <time>2014-07-06T13:59:53Z</time>
      </trkpt>
      <trkpt lat="51.174238" lon="-0.115844">
        <ele>107.0</ele>
        <time>2014-07-06T13:59:58Z</time>
      </trkpt>
      <trkpt lat="51.173895" lon="-0.115911">
        <ele>108.0</ele>
        <time>2014-07-06T14:00:03Z</time>
      </trkpt>
      <trkpt lat="51.173575" lon="-0.115991">
        <ele>105.0</ele>
        <time>2014-07-06T14:00:07Z</time>
      </trkpt>
      <trkpt lat="51.173342" lon="-0.116032">
        <ele>107.0</ele>
        <time>2014-07-06T14:00:11Z</time>
      </trkpt>
      <trkpt lat="51.173077" lon="-0.116149">
        <ele>106.0</ele>
        <time>2014-07-06T14:00:16Z</time>
      </trkpt>
      <trkpt lat="51.172866" lon="-0.116192">
        <ele>104.0</ele>
        <time>2014-07-06T14:00:20Z</time>
      </trkpt>
      <trkpt lat="51.172672" lon="-0.11612">
        <ele>105.0</ele>
        <time>2014-07-06T14:00:24Z</time>
      </trkpt>
      <trkpt lat="51.172448" lon="-0.116056">
        <ele>104.0</ele>
        <time>2014-07-06T14:00:29Z</time>
      </trkpt>
      <trkpt lat="51.172265" lon="-0.116039">
        <ele>104.0</ele>
        <time>2014-07-06T14:00:33Z</time>
      </trkpt>
      <trkpt lat="51.172011" lon="-0.11599">
        <ele>104.0</ele>
        <time>2014-07-06T14:00:38Z</time>
      </trkpt>
      <trkpt lat="51.171796" lon="-0.115933">
        <ele>103.0</ele>
        <time>2014-07-06T14:00:42Z</time>
      </trkpt>
      <trkpt lat="51.171522" lon="-0.11588">
        <ele>102.0</ele>
        <time>2014-07-06T14:00:47Z</time>
      </trkpt>
      <trkpt lat="51.171335" lon="-0.115839">
        <ele>102.0</ele>
        <time>2014-07-06T14:00:51Z</time>
      </trkpt>
      <trkpt lat="51.171139" lon="-0.115784">
        <ele>102.0</ele>
        <time>2014-07-06T14:00:55Z</time>
      </trkpt>
      <trkpt lat="51.170926" lon="-0.11576">
        <ele>104.0</ele>
        <time>2014-07-06T14:00:59Z</time>
      </trkpt>
      <trkpt lat="51.170742" lon="-0.115706">
        <ele>102.0</ele>
        <time>2014-07-06T14:01:03Z</time>
      </trkpt>
      <trkpt lat="51.170522" lon="-0.115643">
        <ele>104.0</ele>
        <time>2014-07-06T14:01:08Z</time>
      </trkpt>
      <trkpt lat="51.170291" lon="-0.115596">
        <ele>107.0</ele>
        <time>2014-07-06T14:01:13Z</time>
      </trkpt>
      <trkpt lat="51.170092" lon="-0.115531">
        <ele>105.0</ele>
        <time>2014-07-06T14:01:17Z</time>
      </trkpt>
      <trkpt lat="51.169814" lon="-0.115465">
        <ele>103.0</ele>
        <time>2014-07-06T14:01:22Z</time>
      </trkpt>
      <trkpt lat="51.16958" lon="-0.115415">
        <ele>104.0</ele>
        <time>2014-07-06T14:01:27Z</time>
      </trkpt>
      <trkpt lat="51.169363" lon="-0.115368">
        <ele>105.0</ele>
        <time>2014-07-06T14:01:31Z</time>
      </trkpt>
      <trkpt lat="51.169113" lon="-0.115326">
        <ele>108.0</ele>
        <time>2014-07-06T14:01:36Z</time>
      </trkpt>
      <trkpt lat="51.168913" lon="-0.115343">
        <ele>108.0</ele>
        <time>2014-07-06T14:01:40Z</time>
      </trkpt>
      <trkpt lat="51.168679" lon="-0.115339">
        <ele>111.0</ele>
        <time>2014-07-06T14:01:45Z</time>
      </trkpt>
      <trkpt lat="51.168512" lon="-0.115278">
        <ele>110.0</ele>
        <time>2014-07-06T14:01:49Z</time>
      </trkpt>
      <trkpt lat="51.168296" lon="-0.115263">
        <ele>111.0</ele>
        <time>2014-07-06T14:01:54Z</time>
      </trkpt>
      <trkpt lat="51.168084" lon="-0.115257">
        <ele>113.0</ele>
        <time>2014-07-06T14:01:59Z</time>
      </trkpt>
      <trkpt lat="51.167913" lon="-0.115224">
        <ele>113.0</ele>
        <time>2014-07-06T14:02:03Z</time>
      </trkpt>
      <trkpt lat="51.167685" lon="-0.115181">
        <ele>113.0</ele>
        <time>2014-07-06T14:02:08Z</time>
      </trkpt>
      <trkpt lat="51.167473" lon="-0.11518">
        <ele>112.0</ele>
        <time>2014-07-06T14:02:13Z</time>
      </trkpt>
      <trkpt lat="51.167265" lon="-0.115113">
        <ele>112.0</ele>
        <time>2014-07-06T14:02:17Z</time>
      </trkpt>
      <trkpt lat="51.167045" lon="-0.115066">
        <ele>109.0</ele>
        <time>2014-07-06T14:02:21Z</time>
      </trkpt>
      <trkpt lat="51.166854" lon="-0.115043">
        <ele>108.0</ele>
        <time>2014-07-06T14:02:25Z</time>
      </trkpt>
      <trkpt lat="51.166614" lon="-0.115002">
        <ele>110.0</ele>
        <time>2014-07-06T14:02:30Z</time>
      </trkpt>
      <trkpt lat="51.166413" lon="-0.114978">
        <ele>111.0</ele>
        <time>2014-07-06T14:02:34Z</time>
      </trkpt>
      <trkpt lat="51.166231" lon="-0.114938">
        <ele>112.0</ele>
        <time>2014-07-06T14:02:38Z</time>
      </trkpt>
      <trkpt lat="51.166038" lon="-0.114905">
        <ele>114.0</ele>
        <time>2014-07-06T14:02:43Z</time>
      </trkpt>
      <trkpt lat="51.165851" lon="-0.114872">
        <ele>113.0</ele>
        <time>2014-07-06T14:02:47Z</time>
      </trkpt>
      <trkpt lat="51.165625" lon="-0.114821">
        <ele>112.0</ele>
        <time>2014-07-06T14:02:52Z</time>
      </trkpt>
      <trkpt lat="51.165436" lon="-0.114804">
        <ele>111.0</ele>
        <time>2014-07-06T14:02:56Z</time>
      </trkpt>
      <trkpt lat="51.165268" lon="-0.114778">
        <ele>113.0</ele>
        <time>2014-07-06T14:03:00Z</time>
      </trkpt>
      <trkpt lat="51.165076" lon="-0.114769">
        <ele>113.0</ele>
        <time>2014-07-06T14:03:04Z</time>
      </trkpt>
      <trkpt lat="51.164874" lon="-0.114749">
        <ele>111.0</ele>
        <time>2014-07-06T14:03:08Z</time>
      </trkpt>
      <trkpt lat="51.164638" lon="-0.114728">
        <ele>110.0</ele>
        <time>2014-07-06T14:03:13Z</time>
      </trkpt>
      <trkpt lat="51.16446" lon="-0.11466">
        <ele>113.0</ele>
        <time>2014-07-06T14:03:17Z</time>
      </trkpt>
      <trkpt lat="51.164233" lon="-0.114434">
        <ele>112.0</ele>
        <time>2014-07-06T14:03:22Z</time>
      </trkpt>
      <trkpt lat="51.164036" lon="-0.114104">
        <ele>109.0</ele>
        <time>2014-07-06T14:03:27Z</time>
      </trkpt>
      <trkpt lat="51.163812" lon="-0.113883">
        <ele>110.0</ele>
        <time>2014-07-06T14:03:32Z</time>
      </trkpt>
      <trkpt lat="51.163603" lon="-0.113726">
        <ele>110.0</ele>
        <time>2014-07-06T14:03:36Z</time>
      </trkpt>
      <trkpt lat="51.163395" lon="-0.113631">
        <ele>109.0</ele>
        <time>2014-07-06T14:03:40Z</time>
      </trkpt>
      <trkpt lat="51.163137" lon="-0.113579">
        <ele>110.0</ele>
        <time>2014-07-06T14:03:45Z</time>
      </trkpt>
      <trkpt lat="51.162896" lon="-0.113514">
        <ele>109.0</ele>
        <time>2014-07-06T14:03:49Z</time>
      </trkpt>
      <trkpt lat="51.16266" lon="-0.113452">
        <ele>110.0</ele>
        <time>2014-07-06T14:03:53Z</time>
      </trkpt>
      <trkpt lat="51.162391" lon="-0.113402">
        <ele>111.0</ele>
        <time>2014-07-06T14:03:57Z</time>
      </trkpt>
      <trkpt lat="51.162038" lon="-0.113348">
        <ele>109.0</ele>
        <time>2014-07-06T14:04:02Z</time>
      </trkpt>
      <trkpt lat="51.161771" lon="-0.113268">
        <ele>107.0</ele>
        <time>2014-07-06T14:04:06Z</time>
      </trkpt>
      <trkpt lat="51.161545" lon="-0.113324">
        <ele>106.0</ele>
        <time>2014-07-06T14:04:10Z</time>
      </trkpt>
      <trkpt lat="51.161273" lon="-0.113376">
        <ele>108.0</ele>
        <time>2014-07-06T14:04:14Z</time>
      </trkpt>
      <trkpt lat="51.161018" lon="-0.113396">
        <ele>108.0</ele>
        <time>2014-07-06T14:04:18Z</time>
      </trkpt>
      <trkpt lat="51.160737" lon="-0.11344">
        <ele>109.0</ele>
        <time>2014-07-06T14:04:23Z</time>
      </trkpt>
      <trkpt lat="51.160477" lon="-0.113454">
        <ele>108.0</ele>
        <time>2014-07-06T14:04:27Z</time>
      </trkpt>
      <trkpt lat="51.160218" lon="-0.113448">
        <ele>109.0</ele>
        <time>2014-07-06T14:04:32Z</time>
      </trkpt>
      <trkpt lat="51.160002" lon="-0.113495">
        <ele>107.0</ele>
        <time>2014-07-06T14:04:36Z</time>
      </trkpt>
      <trkpt lat="51.159716" lon="-0.113519">
        <ele>110.0</ele>
        <time>2014-07-06T14:04:41Z</time>
      </trkpt>
      <trkpt lat="51.159441" lon="-0.113576">
        <ele>109.0</ele>
        <time>2014-07-06T14:04:46Z</time>
      </trkpt>
      <trkpt lat="51.159247" lon="-0.1136">
        <ele>109.0</ele>
        <time>2014-07-06T14:04:51Z</time>
      </trkpt>
      <trkpt lat="51.159074" lon="-0.113649">
        <ele>106.0</ele>
        <time>2014-07-06T14:04:55Z</time>
      </trkpt>
      <trkpt lat="51.158791" lon="-0.113673">
        <ele>107.0</ele>
        <time>2014-07-06T14:05:00Z</time>
      </trkpt>
      <trkpt lat="51.158519" lon="-0.113654">
        <ele>106.0</ele>
        <time>2014-07-06T14:05:05Z</time>
      </trkpt>
      <trkpt lat="51.15831" lon="-0.113648">
        <ele>107.0</ele>
        <time>2014-07-06T14:05:09Z</time>
      </trkpt>
      <trkpt lat="51.158011" lon="-0.113454">
        <ele>107.0</ele>
        <time>2014-07-06T14:05:14Z</time>
      </trkpt>
      <trkpt lat="51.157772" lon="-0.113308">
        <ele>107.0</ele>
        <time>2014-07-06T14:05:19Z</time>
      </trkpt>
      <trkpt lat="51.157586" lon="-0.113159">
        <ele>110.0</ele>
        <time>2014-07-06T14:05:23Z</time>
      </trkpt>
      <trkpt lat="51.15738" lon="-0.113112">
        <ele>108.0</ele>
        <time>2014-07-06T14:05:28Z</time>
      </trkpt>
      <trkpt lat="51.157242" lon="-0.112941">
        <ele>108.0</ele>
        <time>2014-07-06T14:05:32Z</time>
      </trkpt>
      <trkpt lat="51.157034" lon="-0.112894">
        <ele>109.0</ele>
        <time>2014-07-06T14:05:36Z</time>
      </trkpt>
      <trkpt lat="51.156761" lon="-0.112766">
        <ele>108.0</ele>
        <time>2014-07-06T14:05:41Z</time>
      </trkpt>
      <trkpt lat="51.156499" lon="-0.112614">
        <ele>110.0</ele>
        <time>2014-07-06T14:05:45Z</time>
      </trkpt>
      <trkpt lat="51.156257" lon="-0.112469">
        <ele>111.0</ele>
        <time>2014-07-06T14:05:49Z</time>
      </trkpt>
      <trkpt lat="51.156012" lon="-0.112267">
        <ele>108.0</ele>
        <time>2014-07-06T14:05:53Z</time>
      </trkpt>
      <trkpt lat="51.155703" lon="-0.112018">
        <ele>111.0</ele>
        <time>2014-07-06T14:05:58Z</time>
      </trkpt>
      <trkpt lat="51.155462" lon="-0.111875">
        <ele>111.0</ele>
        <time>2014-07-06T14:06:02Z</time>
      </trkpt>
      <trkpt lat="51.155244" lon="-0.1117">
        <ele>112.0</ele>
        <time>2014-07-06T14:06:06Z</time>
      </trkpt>
      <trkpt lat="51.155036" lon="-0.111542">
        <ele>112.0</ele>
        <time>2014-07-06T14:06:10Z</time>
      </trkpt>
      <trkpt lat="51.154774" lon="-0.111383">
        <ele>112.0</ele>
        <time>2014-07-06T14:06:15Z</time>
      </trkpt>
      <trkpt lat="51.154582" lon="-0.111276">
        <ele>113.0</ele>
        <time>2014-07-06T14:06:19Z</time>
      </trkpt>
      <trkpt lat="51.154375" lon="-0.111158">
        <ele>115.0</ele>
        <time>2014-07-06T14:06:23Z</time>
      </trkpt>
      <trkpt lat="51.154119" lon="-0.111068">
        <ele>113.0</ele>
        <time>2014-07-06T14:06:28Z</time>
      </trkpt>
      <trkpt lat="51.15393" lon="-0.111021">
        <ele>112.0</ele>
        <time>2014-07-06T14:06:32Z</time>
      </trkpt>
      <trkpt lat="51.153745" lon="-0.111025">
        <ele>112.0</ele>
        <time>2014-07-06T14:06:36Z</time>
      </trkpt>
      <trkpt lat="51.153583" lon="-0.111002">
        <ele>112.0</ele>
        <time>2014-07-06T14:06:40Z</time>
      </trkpt>
      <trkpt lat="51.153473" lon="-0.110982">
        <ele>114.0</ele>
        <time>2014-07-06T14:06:44Z</time>
      </trkpt>
      <trkpt lat="51.153389" lon="-0.110992">
        <ele>114.0</ele>
        <time>2014-07-06T14:07:45Z</time>
      </trkpt>
      <trkpt lat="51.153302" lon="-0.111">
        <ele>115.0</ele>
        <time>2014-07-06T14:07:50Z</time>
      </trkpt>
      <trkpt lat="51.153188" lon="-0.111021">
        <ele>115.0</ele>
        <time>2014-07-06T14:07:55Z</time>
      </trkpt>
      <trkpt lat="51.153107" lon="-0.110962">
        <ele>116.0</ele>
        <time>2014-07-06T14:09:50Z</time>
      </trkpt>
      <trkpt lat="51.153029" lon="-0.1109">
        <ele>116.0</ele>
        <time>2014-07-06T14:09:55Z</time>
      </trkpt>
      <trkpt lat="51.152932" lon="-0.110661">
        <ele>115.0</ele>
        <time>2014-07-06T14:10:00Z</time>
      </trkpt>
      <trkpt lat="51.152833" lon="-0.110358">
        <ele>115.0</ele>
        <time>2014-07-06T14:10:04Z</time>
      </trkpt>
      <trkpt lat="51.152693" lon="-0.110019">
        <ele>117.0</ele>
        <time>2014-07-06T14:10:09Z</time>
      </trkpt>
      <trkpt lat="51.152579" lon="-0.109737">
        <ele>117.0</ele>
        <time>2014-07-06T14:10:13Z</time>
      </trkpt>
      <trkpt lat="51.152451" lon="-0.10941">
        <ele>116.0</ele>
        <time>2014-07-06T14:10:17Z</time>
      </trkpt>
      <trkpt lat="51.152296" lon="-0.109029">
        <ele>115.0</ele>
        <time>2014-07-06T14:10:22Z</time>
      </trkpt>
      <trkpt lat="51.152117" lon="-0.108631">
        <ele>115.0</ele>
        <time>2014-07-06T14:10:27Z</time>
      </trkpt>
      <trkpt lat="51.151985" lon="-0.108294">
        <ele>116.0</ele>
        <time>2014-07-06T14:10:31Z</time>
      </trkpt>
      <trkpt lat="51.151832" lon="-0.107849">
        <ele>116.0</ele>
        <time>2014-07-06T14:10:36Z</time>
      </trkpt>
      <trkpt lat="51.151669" lon="-0.107441">
        <ele>116.0</ele>
        <time>2014-07-06T14:10:41Z</time>
      </trkpt>
      <trkpt lat="51.151519" lon="-0.107138">
        <ele>119.0</ele>
        <time>2014-07-06T14:10:45Z</time>
      </trkpt>
      <trkpt lat="51.151367" lon="-0.106786">
        <ele>118.0</ele>
        <time>2014-07-06T14:10:49Z</time>
      </trkpt>
      <trkpt lat="51.151212" lon="-0.106374">
        <ele>117.0</ele>
        <time>2014-07-06T14:10:54Z</time>
      </trkpt>
      <trkpt lat="51.151072" lon="-0.10605">
        <ele>115.0</ele>
        <time>2014-07-06T14:10:58Z</time>
      </trkpt>
      <trkpt lat="51.150948" lon="-0.105701">
        <ele>116.0</ele>
        <time>2014-07-06T14:11:02Z</time>
      </trkpt>
      <trkpt lat="51.150817" lon="-0.10534">
        <ele>115.0</ele>
        <time>2014-07-06T14:11:06Z</time>
      </trkpt>
      <trkpt lat="51.150651" lon="-0.104901">
        <ele>118.0</ele>
        <time>2014-07-06T14:11:11Z</time>
      </trkpt>
      <trkpt lat="51.150534" lon="-0.104581">
        <ele>118.0</ele>
        <time>2014-07-06T14:11:15Z</time>
      </trkpt>
      <trkpt lat="51.15039" lon="-0.104198">
        <ele>118.0</ele>
        <time>2014-07-06T14:11:20Z</time>
      </trkpt>
      <trkpt lat="51.15027" lon="-0.103894">
        <ele>118.0</ele>
        <time>2014-07-06T14:11:24Z</time>
      </trkpt>
      <trkpt lat="51.150167" lon="-0.103625">
        <ele>119.0</ele>
        <time>2014-07-06T14:11:28Z</time>
      </trkpt>
      <trkpt lat="51.150044" lon="-0.103373">
        <ele>120.0</ele>
        <time>2014-07-06T14:11:32Z</time>
      </trkpt>
      <trkpt lat="51.149917" lon="-0.103032">
        <ele>121.0</ele>
        <time>2014-07-06T14:11:37Z</time>
      </trkpt>
      <trkpt lat="51.149806" lon="-0.102779">
        <ele>122.0</ele>
        <time>2014-07-06T14:11:41Z</time>
      </trkpt>
      <trkpt lat="51.14969" lon="-0.102548">
        <ele>122.0</ele>
        <time>2014-07-06T14:11:45Z</time>
      </trkpt>
      <trkpt lat="51.149584" lon="-0.102196">
        <ele>122.0</ele>
        <time>2014-07-06T14:11:50Z</time>
      </trkpt>
      <trkpt lat="51.149451" lon="-0.101868">
        <ele>121.0</ele>
        <time>2014-07-06T14:11:55Z</time>
      </trkpt>
      <trkpt lat="51.149347" lon="-0.101584">
        <ele>119.0</ele>
        <time>2014-07-06T14:11:59Z</time>
      </trkpt>
      <trkpt lat="51.14918" lon="-0.101217">
        <ele>122.0</ele>
        <time>2014-07-06T14:12:04Z</time>
      </trkpt>
      <trkpt lat="51.149053" lon="-0.100851">
        <ele>122.0</ele>
        <time>2014-07-06T14:12:09Z</time>
      </trkpt>
      <trkpt lat="51.14895" lon="-0.100516">
        <ele>122.0</ele>
        <time>2014-07-06T14:12:14Z</time>
      </trkpt>
      <trkpt lat="51.148829" lon="-0.100259">
        <ele>125.0</ele>
        <time>2014-07-06T14:12:18Z</time>
      </trkpt>
      <trkpt lat="51.148728" lon="-0.09998">
        <ele>123.0</ele>
        <time>2014-07-06T14:12:23Z</time>
      </trkpt>
      <trkpt lat="51.148576" lon="-0.099652">
        <ele>123.0</ele>
        <time>2014-07-06T14:12:28Z</time>
      </trkpt>
      <trkpt lat="51.148458" lon="-0.09934">
        <ele>124.0</ele>
        <time>2014-07-06T14:12:32Z</time>
      </trkpt>
      <trkpt lat="51.148333" lon="-0.099009">
        <ele>126.0</ele>
        <time>2014-07-06T14:12:37Z</time>
      </trkpt>
      <trkpt lat="51.148241" lon="-0.098803">
        <ele>124.0</ele>
        <time>2014-07-06T14:12:41Z</time>
      </trkpt>
      <trkpt lat="51.148091" lon="-0.098466">
        <ele>126.0</ele>
        <time>2014-07-06T14:12:46Z</time>
      </trkpt>
      <trkpt lat="51.148021" lon="-0.098199">
        <ele>122.0</ele>
        <time>2014-07-06T14:12:50Z</time>
      </trkpt>
      <trkpt lat="51.147923" lon="-0.097931">
        <ele>122.0</ele>
        <time>2014-07-06T14:12:54Z</time>
      </trkpt>
      <trkpt lat="51.147821" lon="-0.097671">
        <ele>125.0</ele>
        <time>2014-07-06T14:12:58Z</time>
      </trkpt>
      <trkpt lat="51.147764" lon="-0.097483">
        <ele>125.0</ele>
        <time>2014-07-06T14:13:02Z</time>
      </trkpt>
      <trkpt lat="51.147631" lon="-0.097142">
        <ele>120.0</ele>
        <time>2014-07-06T14:13:07Z</time>
      </trkpt>
      <trkpt lat="51.147551" lon="-0.096902">
        <ele>118.0</ele>
        <time>2014-07-06T14:13:11Z</time>
      </trkpt>
      <trkpt lat="51.147432" lon="-0.096608">
        <ele>120.0</ele>
        <time>2014-07-06T14:13:15Z</time>
      </trkpt>
      <trkpt lat="51.14726" lon="-0.096232">
        <ele>119.0</ele>
        <time>2014-07-06T14:13:20Z</time>
      </trkpt>
      <trkpt lat="51.147104" lon="-0.095882">
        <ele>120.0</ele>
        <time>2014-07-06T14:13:25Z</time>
      </trkpt>
      <trkpt lat="51.146943" lon="-0.095666">
        <ele>130.0</ele>
        <time>2014-07-06T14:13:29Z</time>
      </trkpt>
      <trkpt lat="51.146857" lon="-0.095406">
        <ele>125.0</ele>
        <time>2014-07-06T14:13:33Z</time>
      </trkpt>
      <trkpt lat="51.146718" lon="-0.095204">
        <ele>131.0</ele>
        <time>2014-07-06T14:13:37Z</time>
      </trkpt>
      <trkpt lat="51.146554" lon="-0.094876">
        <ele>133.0</ele>
        <time>2014-07-06T14:13:42Z</time>
      </trkpt>
      <trkpt lat="51.146411" lon="-0.094629">
        <ele>133.0</ele>
        <time>2014-07-06T14:13:46Z</time>
      </trkpt>
      <trkpt lat="51.146333" lon="-0.094449">
        <ele>133.0</ele>
        <time>2014-07-06T14:13:50Z</time>
      </trkpt>
      <trkpt lat="51.146205" lon="-0.094187">
        <ele>134.0</ele>
        <time>2014-07-06T14:13:54Z</time>
      </trkpt>
      <trkpt lat="51.146051" lon="-0.093946">
        <ele>133.0</ele>
        <time>2014-07-06T14:13:59Z</time>
      </trkpt>
      <trkpt lat="51.145953" lon="-0.093723">
        <ele>133.0</ele>
        <time>2014-07-06T14:14:03Z</time>
      </trkpt>
      <trkpt lat="51.145815" lon="-0.093437">
        <ele>135.0</ele>
        <time>2014-07-06T14:14:08Z</time>
      </trkpt>
      <trkpt lat="51.14571" lon="-0.093231">
        <ele>135.0</ele>
        <time>2014-07-06T14:14:12Z</time>
      </trkpt>
      <trkpt lat="51.145557" lon="-0.093005">
        <ele>143.0</ele>
        <time>2014-07-06T14:14:16Z</time>
      </trkpt>
      <trkpt lat="51.145451" lon="-0.092793">
        <ele>139.0</ele>
        <time>2014-07-06T14:14:21Z</time>
      </trkpt>
      <trkpt lat="51.145361" lon="-0.092565">
        <ele>140.0</ele>
        <time>2014-07-06T14:14:25Z</time>
      </trkpt>
      <trkpt lat="51.145251" lon="-0.092334">
        <ele>140.0</ele>
        <time>2014-07-06T14:14:29Z</time>
      </trkpt>
      <trkpt lat="51.145141" lon="-0.092112">
        <ele>139.0</ele>
        <time>2014-07-06T14:14:33Z</time>
      </trkpt>
      <trkpt lat="51.145003" lon="-0.091848">
        <ele>139.0</ele>
        <time>2014-07-06T14:14:38Z</time>
      </trkpt>
      <trkpt lat="51.144901" lon="-0.091632">
        <ele>139.0</ele>
        <time>2014-07-06T14:14:42Z</time>
      </trkpt>
      <trkpt lat="51.144861" lon="-0.0914">
        <ele>135.0</ele>
        <time>2014-07-06T14:14:46Z</time>
      </trkpt>
      <trkpt lat="51.144775" lon="-0.091151">
        <ele>139.0</ele>
        <time>2014-07-06T14:14:51Z</time>
      </trkpt>
      <trkpt lat="51.144759" lon="-0.090916">
        <ele>134.0</ele>
        <time>2014-07-06T14:14:56Z</time>
      </trkpt>
      <trkpt lat="51.144775" lon="-0.090786">
        <ele>132.0</ele>
        <time>2014-07-06T14:15:00Z</time>
      </trkpt>
      <trkpt lat="51.144819" lon="-0.09067">
        <ele>130.0</ele>
        <time>2014-07-06T14:16:13Z</time>
      </trkpt>
      <trkpt lat="51.144795" lon="-0.090544">
        <ele>133.0</ele>
        <time>2014-07-06T14:16:30Z</time>
      </trkpt>
      <trkpt lat="51.144637" lon="-0.090464">
        <ele>133.0</ele>
        <time>2014-07-06T14:16:35Z</time>
      </trkpt>
      <trkpt lat="51.144484" lon="-0.090609">
        <ele>134.0</ele>
        <time>2014-07-06T14:16:39Z</time>
      </trkpt>
      <trkpt lat="51.14437" lon="-0.090819">
        <ele>135.0</ele>
        <time>2014-07-06T14:16:43Z</time>
      </trkpt>
      <trkpt lat="51.14424" lon="-0.090966">
        <ele>135.0</ele>
        <time>2014-07-06T14:16:47Z</time>
      </trkpt>
      <trkpt lat="51.144048" lon="-0.091092">
        <ele>135.0</ele>
        <time>2014-07-06T14:16:52Z</time>
      </trkpt>
      <trkpt lat="51.143786" lon="-0.091218">
        <ele>133.0</ele>
        <time>2014-07-06T14:16:57Z</time>
      </trkpt>
      <trkpt lat="51.143541" lon="-0.091395">
        <ele>134.0</ele>
        <time>2014-07-06T14:17:02Z</time>
      </trkpt>
      <trkpt lat="51.14326" lon="-0.091482">
        <ele>133.0</ele>
        <time>2014-07-06T14:17:07Z</time>
      </trkpt>
      <trkpt lat="51.143058" lon="-0.091612">
        <ele>134.0</ele>
        <time>2014-07-06T14:17:11Z</time>
      </trkpt>
      <trkpt lat="51.142808" lon="-0.091741">
        <ele>137.0</ele>
        <time>2014-07-06T14:17:15Z</time>
      </trkpt>
      <trkpt lat="51.142615" lon="-0.091841">
        <ele>135.0</ele>
        <time>2014-07-06T14:17:19Z</time>
      </trkpt>
      <trkpt lat="51.142378" lon="-0.091947">
        <ele>135.0</ele>
        <time>2014-07-06T14:17:24Z</time>
      </trkpt>
      <trkpt lat="51.142141" lon="-0.09203">
        <ele>138.0</ele>
        <time>2014-07-06T14:17:29Z</time>
      </trkpt>
      <trkpt lat="51.141916" lon="-0.092141">
        <ele>138.0</ele>
        <time>2014-07-06T14:17:34Z</time>
      </trkpt>
      <trkpt lat="51.141685" lon="-0.092179">
        <ele>138.0</ele>
        <time>2014-07-06T14:17:38Z</time>
      </trkpt>
      <trkpt lat="51.141514" lon="-0.092242">
        <ele>139.0</ele>
        <time>2014-07-06T14:17:42Z</time>
      </trkpt>
      <trkpt lat="51.141309" lon="-0.092354">
        <ele>139.0</ele>
        <time>2014-07-06T14:17:47Z</time>
      </trkpt>
      <trkpt lat="51.141079" lon="-0.092394">
        <ele>139.0</ele>
        <time>2014-07-06T14:17:51Z</time>
      </trkpt>
      <trkpt lat="51.140905" lon="-0.092533">
        <ele>139.0</ele>
        <time>2014-07-06T14:17:56Z</time>
      </trkpt>
      <trkpt lat="51.140726" lon="-0.092573">
        <ele>141.0</ele>
        <time>2014-07-06T14:18:00Z</time>
      </trkpt>
      <trkpt lat="51.140477" lon="-0.092691">
        <ele>140.0</ele>
        <time>2014-07-06T14:18:05Z</time>
      </trkpt>
      <trkpt lat="51.140303" lon="-0.092737">
        <ele>141.0</ele>
        <time>2014-07-06T14:18:09Z</time>
      </trkpt>
      <trkpt lat="51.140082" lon="-0.092821">
        <ele>142.0</ele>
        <time>2014-07-06T14:18:14Z</time>
      </trkpt>
      <trkpt lat="51.139873" lon="-0.092887">
        <ele>143.0</ele>
        <time>2014-07-06T14:18:19Z</time>
      </trkpt>
      <trkpt lat="51.139662" lon="-0.092888">
        <ele>143.0</ele>
        <time>2014-07-06T14:18:24Z</time>
      </trkpt>
      <trkpt lat="51.139432" lon="-0.093011">
        <ele>144.0</ele>
        <time>2014-07-06T14:18:29Z</time>
      </trkpt>
      <trkpt lat="51.139245" lon="-0.093099">
        <ele>145.0</ele>
        <time>2014-07-06T14:18:34Z</time>
      </trkpt>
      <trkpt lat="51.139119" lon="-0.093128">
        <ele>150.0</ele>
        <time>2014-07-06T14:18:38Z</time>
      </trkpt>
      <trkpt lat="51.138966" lon="-0.093159">
        <ele>153.0</ele>
        <time>2014-07-06T14:18:42Z</time>
      </trkpt>
      <trkpt lat="51.138804" lon="-0.093167">
        <ele>152.0</ele>
        <time>2014-07-06T14:18:46Z</time>
      </trkpt>
      <trkpt lat="51.138625" lon="-0.093167">
        <ele>148.0</ele>
        <time>2014-07-06T14:18:50Z</time>
      </trkpt>
      <trkpt lat="51.138443" lon="-0.093198">
        <ele>149.0</ele>
        <time>2014-07-06T14:18:54Z</time>
      </trkpt>
      <trkpt lat="51.138194" lon="-0.093187">
        <ele>150.0</ele>
        <time>2014-07-06T14:18:59Z</time>
      </trkpt>
      <trkpt lat="51.138001" lon="-0.09311">
        <ele>146.0</ele>
        <time>2014-07-06T14:19:03Z</time>
      </trkpt>
      <trkpt lat="51.137803" lon="-0.093109">
        <ele>147.0</ele>
        <time>2014-07-06T14:19:07Z</time>
      </trkpt>
      <trkpt lat="51.137602" lon="-0.093099">
        <ele>146.0</ele>
        <time>2014-07-06T14:19:11Z</time>
      </trkpt>
      <trkpt lat="51.13741" lon="-0.093119">
        <ele>143.0</ele>
        <time>2014-07-06T14:19:15Z</time>
      </trkpt>
      <trkpt lat="51.137184" lon="-0.093144">
        <ele>144.0</ele>
        <time>2014-07-06T14:19:20Z</time>
      </trkpt>
      <trkpt lat="51.13693" lon="-0.093144">
        <ele>145.0</ele>
        <time>2014-07-06T14:19:25Z</time>
      </trkpt>
      <trkpt lat="51.136752" lon="-0.093027">
        <ele>146.0</ele>
        <time>2014-07-06T14:19:29Z</time>
      </trkpt>
      <trkpt lat="51.136587" lon="-0.092804">
        <ele>145.0</ele>
        <time>2014-07-06T14:19:33Z</time>
      </trkpt>
      <trkpt lat="51.1363" lon="-0.092881">
        <ele>143.0</ele>
        <time>2014-07-06T14:19:38Z</time>
      </trkpt>
      <trkpt lat="51.13604" lon="-0.092841">
        <ele>141.0</ele>
        <time>2014-07-06T14:19:43Z</time>
      </trkpt>
      <trkpt lat="51.135881" lon="-0.092748">
        <ele>142.0</ele>
        <time>2014-07-06T14:19:47Z</time>
      </trkpt>
      <trkpt lat="51.135813" lon="-0.092687">
        <ele>146.0</ele>
        <time>2014-07-06T14:33:03Z</time>
      </trkpt>
      <trkpt lat="51.135715" lon="-0.092679">
        <ele>139.0</ele>
        <time>2014-07-06T14:33:07Z</time>
      </trkpt>
      <trkpt lat="51.135516" lon="-0.092602">
        <ele>140.0</ele>
        <time>2014-07-06T14:33:12Z</time>
      </trkpt>
      <trkpt lat="51.135311" lon="-0.092503">
        <ele>140.0</ele>
        <time>2014-07-06T14:33:16Z</time>
      </trkpt>
      <trkpt lat="51.135074" lon="-0.092462">
        <ele>142.0</ele>
        <time>2014-07-06T14:33:21Z</time>
      </trkpt>
      <trkpt lat="51.134872" lon="-0.092321">
        <ele>142.0</ele>
        <time>2014-07-06T14:33:25Z</time>
      </trkpt>
      <trkpt lat="51.134586" lon="-0.092315">
        <ele>138.0</ele>
        <time>2014-07-06T14:33:30Z</time>
      </trkpt>
      <trkpt lat="51.134368" lon="-0.092285">
        <ele>140.0</ele>
        <time>2014-07-06T14:33:34Z</time>
      </trkpt>
      <trkpt lat="51.134163" lon="-0.092231">
        <ele>139.0</ele>
        <time>2014-07-06T14:33:38Z</time>
      </trkpt>
      <trkpt lat="51.133994" lon="-0.092161">
        <ele>144.0</ele>
        <time>2014-07-06T14:33:43Z</time>
      </trkpt>
      <trkpt lat="51.133782" lon="-0.092189">
        <ele>145.0</ele>
        <time>2014-07-06T14:33:48Z</time>
      </trkpt>
      <trkpt lat="51.133554" lon="-0.092199">
        <ele>143.0</ele>
        <time>2014-07-06T14:33:53Z</time>
      </trkpt>
      <trkpt lat="51.133365" lon="-0.092218">
        <ele>144.0</ele>
        <time>2014-07-06T14:33:57Z</time>
      </trkpt>
      <trkpt lat="51.133164" lon="-0.092263">
        <ele>143.0</ele>
        <time>2014-07-06T14:34:02Z</time>
      </trkpt>
      <trkpt lat="51.132986" lon="-0.092281">
        <ele>143.0</ele>
        <time>2014-07-06T14:34:06Z</time>
      </trkpt>
      <trkpt lat="51.132744" lon="-0.092373">
        <ele>144.0</ele>
        <time>2014-07-06T14:34:11Z</time>
      </trkpt>
      <trkpt lat="51.132532" lon="-0.092369">
        <ele>140.0</ele>
        <time>2014-07-06T14:34:16Z</time>
      </trkpt>
      <trkpt lat="51.132408" lon="-0.092399">
        <ele>145.0</ele>
        <time>2014-07-06T14:34:20Z</time>
      </trkpt>
      <trkpt lat="51.132248" lon="-0.0924">
        <ele>146.0</ele>
        <time>2014-07-06T14:34:25Z</time>
      </trkpt>
      <trkpt lat="51.132087" lon="-0.092402">
        <ele>149.0</ele>
        <time>2014-07-06T14:34:30Z</time>
      </trkpt>
      <trkpt lat="51.131962" lon="-0.092339">
        <ele>152.0</ele>
        <time>2014-07-06T14:34:34Z</time>
      </trkpt>
      <trkpt lat="51.131841" lon="-0.092264">
        <ele>152.0</ele>
        <time>2014-07-06T14:34:38Z</time>
      </trkpt>
      <trkpt lat="51.131704" lon="-0.092197">
        <ele>150.0</ele>
        <time>2014-07-06T14:34:42Z</time>
      </trkpt>
      <trkpt lat="51.131519" lon="-0.092111">
        <ele>152.0</ele>
        <time>2014-07-06T14:34:47Z</time>
      </trkpt>
      <trkpt lat="51.131371" lon="-0.092009">
        <ele>148.0</ele>
        <time>2014-07-06T14:34:51Z</time>
      </trkpt>
      <trkpt lat="51.131153" lon="-0.091907">
        <ele>149.0</ele>
        <time>2014-07-06T14:34:56Z</time>
      </trkpt>
      <trkpt lat="51.130981" lon="-0.091845">
        <ele>148.0</ele>
        <time>2014-07-06T14:35:00Z</time>
      </trkpt>
      <trkpt lat="51.130826" lon="-0.091809">
        <ele>152.0</ele>
        <time>2014-07-06T14:35:05Z</time>
      </trkpt>
      <trkpt lat="51.130668" lon="-0.091767">
        <ele>156.0</ele>
        <time>2014-07-06T14:35:10Z</time>
      </trkpt>
      <trkpt lat="51.130542" lon="-0.091716">
        <ele>155.0</ele>
        <time>2014-07-06T14:35:14Z</time>
      </trkpt>
      <trkpt lat="51.130426" lon="-0.091651">
        <ele>156.0</ele>
        <time>2014-07-06T14:35:18Z</time>
      </trkpt>
      <trkpt lat="51.130285" lon="-0.091567">
        <ele>158.0</ele>
        <time>2014-07-06T14:35:23Z</time>
      </trkpt>
      <trkpt lat="51.130147" lon="-0.091498">
        <ele>159.0</ele>
        <time>2014-07-06T14:35:28Z</time>
      </trkpt>
      <trkpt lat="51.130036" lon="-0.091437">
        <ele>159.0</ele>
        <time>2014-07-06T14:35:32Z</time>
      </trkpt>
      <trkpt lat="51.129929" lon="-0.091381">
        <ele>161.0</ele>
        <time>2014-07-06T14:35:36Z</time>
      </trkpt>
      <trkpt lat="51.129857" lon="-0.091311">
        <ele>162.0</ele>
        <time>2014-07-06T14:35:40Z</time>
      </trkpt>
      <trkpt lat="51.129752" lon="-0.091271">
        <ele>162.0</ele>
        <time>2014-07-06T14:35:44Z</time>
      </trkpt>
      <trkpt lat="51.129648" lon="-0.091228">
        <ele>162.0</ele>
        <time>2014-07-06T14:35:48Z</time>
      </trkpt>
      <trkpt lat="51.129509" lon="-0.091199">
        <ele>164.0</ele>
        <time>2014-07-06T14:35:53Z</time>
      </trkpt>
      <trkpt lat="51.129422" lon="-0.091136">
        <ele>163.0</ele>
        <time>2014-07-06T14:35:57Z</time>
      </trkpt>
      <trkpt lat="51.129318" lon="-0.091066">
        <ele>162.0</ele>
        <time>2014-07-06T14:36:01Z</time>
      </trkpt>
      <trkpt lat="51.129187" lon="-0.091002">
        <ele>159.0</ele>
        <time>2014-07-06T14:36:05Z</time>
      </trkpt>
      <trkpt lat="51.129024" lon="-0.090902">
        <ele>159.0</ele>
        <time>2014-07-06T14:36:10Z</time>
      </trkpt>
      <trkpt lat="51.128885" lon="-0.090841">
        <ele>158.0</ele>
        <time>2014-07-06T14:36:14Z</time>
      </trkpt>
      <trkpt lat="51.12872" lon="-0.090763">
        <ele>158.0</ele>
        <time>2014-07-06T14:36:19Z</time>
      </trkpt>
      <trkpt lat="51.128592" lon="-0.090694">
        <ele>158.0</ele>
        <time>2014-07-06T14:36:23Z</time>
      </trkpt>
      <trkpt lat="51.128433" lon="-0.090619">
        <ele>158.0</ele>
        <time>2014-07-06T14:36:28Z</time>
      </trkpt>
      <trkpt lat="51.12829" lon="-0.090547">
        <ele>158.0</ele>
        <time>2014-07-06T14:36:33Z</time>
      </trkpt>
      <trkpt lat="51.128151" lon="-0.090478">
        <ele>158.0</ele>
        <time>2014-07-06T14:36:38Z</time>
      </trkpt>
      <trkpt lat="51.128001" lon="-0.090415">
        <ele>158.0</ele>
        <time>2014-07-06T14:36:43Z</time>
      </trkpt>
      <trkpt lat="51.127887" lon="-0.090356">
        <ele>158.0</ele>
        <time>2014-07-06T14:36:47Z</time>
      </trkpt>
      <trkpt lat="51.127779" lon="-0.090294">
        <ele>156.0</ele>
        <time>2014-07-06T14:36:51Z</time>
      </trkpt>
      <trkpt lat="51.127659" lon="-0.090251">
        <ele>154.0</ele>
        <time>2014-07-06T14:36:55Z</time>
      </trkpt>
      <trkpt lat="51.127515" lon="-0.090162">
        <ele>157.0</ele>
        <time>2014-07-06T14:37:00Z</time>
      </trkpt>
      <trkpt lat="51.12738" lon="-0.090113">
        <ele>158.0</ele>
        <time>2014-07-06T14:37:04Z</time>
      </trkpt>
      <trkpt lat="51.127195" lon="-0.090039">
        <ele>158.0</ele>
        <time>2014-07-06T14:37:09Z</time>
      </trkpt>
      <trkpt lat="51.127072" lon="-0.089957">
        <ele>160.0</ele>
        <time>2014-07-06T14:37:13Z</time>
      </trkpt>
      <trkpt lat="51.126959" lon="-0.089878">
        <ele>162.0</ele>
        <time>2014-07-06T14:37:17Z</time>
      </trkpt>
      <trkpt lat="51.126838" lon="-0.089814">
        <ele>164.0</ele>
        <time>2014-07-06T14:37:21Z</time>
      </trkpt>
      <trkpt lat="51.126673" lon="-0.089704">
        <ele>163.0</ele>
        <time>2014-07-06T14:37:26Z</time>
      </trkpt>
      <trkpt lat="51.126526" lon="-0.089624">
        <ele>164.0</ele>
        <time>2014-07-06T14:37:30Z</time>
      </trkpt>
      <trkpt lat="51.12638" lon="-0.089551">
        <ele>161.0</ele>
        <time>2014-07-06T14:37:34Z</time>
      </trkpt>
      <trkpt lat="51.126202" lon="-0.089465">
        <ele>164.0</ele>
        <time>2014-07-06T14:37:39Z</time>
      </trkpt>
      <trkpt lat="51.126062" lon="-0.089417">
        <ele>163.0</ele>
        <time>2014-07-06T14:37:43Z</time>
      </trkpt>
      <trkpt lat="51.125921" lon="-0.089332">
        <ele>160.0</ele>
        <time>2014-07-06T14:37:47Z</time>
      </trkpt>
      <trkpt lat="51.125745" lon="-0.08921">
        <ele>165.0</ele>
        <time>2014-07-06T14:37:52Z</time>
      </trkpt>
      <trkpt lat="51.125607" lon="-0.089117">
        <ele>166.0</ele>
        <time>2014-07-06T14:37:56Z</time>
      </trkpt>
      <trkpt lat="51.125438" lon="-0.08899">
        <ele>165.0</ele>
        <time>2014-07-06T14:38:01Z</time>
      </trkpt>
      <trkpt lat="51.125286" lon="-0.088873">
        <ele>164.0</ele>
        <time>2014-07-06T14:38:05Z</time>
      </trkpt>
      <trkpt lat="51.12509" lon="-0.088717">
        <ele>162.0</ele>
        <time>2014-07-06T14:38:10Z</time>
      </trkpt>
      <trkpt lat="51.124945" lon="-0.088576">
        <ele>164.0</ele>
        <time>2014-07-06T14:38:14Z</time>
      </trkpt>
      <trkpt lat="51.124817" lon="-0.088428">
        <ele>166.0</ele>
        <time>2014-07-06T14:38:18Z</time>
      </trkpt>
      <trkpt lat="51.124696" lon="-0.08824">
        <ele>164.0</ele>
        <time>2014-07-06T14:38:23Z</time>
      </trkpt>
      <trkpt lat="51.124585" lon="-0.088105">
        <ele>167.0</ele>
        <time>2014-07-06T14:38:27Z</time>
      </trkpt>
      <trkpt lat="51.124479" lon="-0.087952">
        <ele>168.0</ele>
        <time>2014-07-06T14:38:31Z</time>
      </trkpt>
      <trkpt lat="51.124371" lon="-0.087807">
        <ele>168.0</ele>
        <time>2014-07-06T14:38:35Z</time>
      </trkpt>
      <trkpt lat="51.124223" lon="-0.087627">
        <ele>172.0</ele>
        <time>2014-07-06T14:38:40Z</time>
      </trkpt>
      <trkpt lat="51.124108" lon="-0.087472">
        <ele>175.0</ele>
        <time>2014-07-06T14:38:44Z</time>
      </trkpt>
      <trkpt lat="51.123964" lon="-0.087259">
        <ele>176.0</ele>
        <time>2014-07-06T14:38:49Z</time>
      </trkpt>
      <trkpt lat="51.123807" lon="-0.087062">
        <ele>178.0</ele>
        <time>2014-07-06T14:38:54Z</time>
      </trkpt>
      <trkpt lat="51.123691" lon="-0.08691">
        <ele>182.0</ele>
        <time>2014-07-06T14:38:58Z</time>
      </trkpt>
      <trkpt lat="51.123567" lon="-0.086781">
        <ele>180.0</ele>
        <time>2014-07-06T14:39:02Z</time>
      </trkpt>
      <trkpt lat="51.123442" lon="-0.086638">
        <ele>180.0</ele>
        <time>2014-07-06T14:39:06Z</time>
      </trkpt>
      <trkpt lat="51.123319" lon="-0.08646">
        <ele>180.0</ele>
        <time>2014-07-06T14:39:10Z</time>
      </trkpt>
      <trkpt lat="51.123176" lon="-0.086293">
        <ele>179.0</ele>
        <time>2014-07-06T14:39:14Z</time>
      </trkpt>
      <trkpt lat="51.123007" lon="-0.086082">
        <ele>179.0</ele>
        <time>2014-07-06T14:39:18Z</time>
      </trkpt>
      <trkpt lat="51.12279" lon="-0.08586">
        <ele>175.0</ele>
        <time>2014-07-06T14:39:23Z</time>
      </trkpt>
      <trkpt lat="51.122607" lon="-0.085682">
        <ele>175.0</ele>
        <time>2014-07-06T14:39:27Z</time>
      </trkpt>
      <trkpt lat="51.122435" lon="-0.085509">
        <ele>173.0</ele>
        <time>2014-07-06T14:39:31Z</time>
      </trkpt>
      <trkpt lat="51.122213" lon="-0.085291">
        <ele>171.0</ele>
        <time>2014-07-06T14:39:36Z</time>
      </trkpt>
      <trkpt lat="51.122058" lon="-0.085163">
        <ele>172.0</ele>
        <time>2014-07-06T14:39:40Z</time>
      </trkpt>
      <trkpt lat="51.121889" lon="-0.084991">
        <ele>177.0</ele>
        <time>2014-07-06T14:39:45Z</time>
      </trkpt>
      <trkpt lat="51.121691" lon="-0.08485">
        <ele>177.0</ele>
        <time>2014-07-06T14:39:50Z</time>
      </trkpt>
      <trkpt lat="51.121517" lon="-0.084724">
        <ele>176.0</ele>
        <time>2014-07-06T14:39:54Z</time>
      </trkpt>
      <trkpt lat="51.121354" lon="-0.084641">
        <ele>180.0</ele>
        <time>2014-07-06T14:39:58Z</time>
      </trkpt>
      <trkpt lat="51.121173" lon="-0.084519">
        <ele>175.0</ele>
        <time>2014-07-06T14:40:02Z</time>
      </trkpt>
      <trkpt lat="51.12096" lon="-0.084423">
        <ele>175.0</ele>
        <time>2014-07-06T14:40:07Z</time>
      </trkpt>
      <trkpt lat="51.120771" lon="-0.084388">
        <ele>174.0</ele>
        <time>2014-07-06T14:40:12Z</time>
      </trkpt>
      <trkpt lat="51.120639" lon="-0.084281">
        <ele>175.0</ele>
        <time>2014-07-06T14:40:16Z</time>
      </trkpt>
      <trkpt lat="51.12044" lon="-0.084151">
        <ele>173.0</ele>
        <time>2014-07-06T14:40:21Z</time>
      </trkpt>
      <trkpt lat="51.120251" lon="-0.084057">
        <ele>174.0</ele>
        <time>2014-07-06T14:40:25Z</time>
      </trkpt>
      <trkpt lat="51.120017" lon="-0.083968">
        <ele>174.0</ele>
        <time>2014-07-06T14:40:30Z</time>
      </trkpt>
      <trkpt lat="51.119799" lon="-0.083905">
        <ele>173.0</ele>
        <time>2014-07-06T14:40:34Z</time>
      </trkpt>
      <trkpt lat="51.119593" lon="-0.083833">
        <ele>172.0</ele>
        <time>2014-07-06T14:40:38Z</time>
      </trkpt>
      <trkpt lat="51.119425" lon="-0.083779">
        <ele>171.0</ele>
        <time>2014-07-06T14:40:42Z</time>
      </trkpt>
      <trkpt lat="51.119242" lon="-0.083796">
        <ele>174.0</ele>
        <time>2014-07-06T14:40:47Z</time>
      </trkpt>
      <trkpt lat="51.119036" lon="-0.08379">
        <ele>170.0</ele>
        <time>2014-07-06T14:40:52Z</time>
      </trkpt>
      <trkpt lat="51.118834" lon="-0.083807">
        <ele>171.0</ele>
        <time>2014-07-06T14:40:57Z</time>
      </trkpt>
      <trkpt lat="51.118674" lon="-0.083883">
        <ele>171.0</ele>
        <time>2014-07-06T14:41:01Z</time>
      </trkpt>
      <trkpt lat="51.118446" lon="-0.083927">
        <ele>169.0</ele>
        <time>2014-07-06T14:41:06Z</time>
      </trkpt>
      <trkpt lat="51.118271" lon="-0.084049">
        <ele>169.0</ele>
        <time>2014-07-06T14:41:10Z</time>
      </trkpt>
      <trkpt lat="51.118088" lon="-0.084086">
        <ele>170.0</ele>
        <time>2014-07-06T14:41:15Z</time>
      </trkpt>
      <trkpt lat="51.117929" lon="-0.084154">
        <ele>172.0</ele>
        <time>2014-07-06T14:41:19Z</time>
      </trkpt>
      <trkpt lat="51.117746" lon="-0.08427">
        <ele>171.0</ele>
        <time>2014-07-06T14:41:23Z</time>
      </trkpt>
      <trkpt lat="51.117532" lon="-0.084432">
        <ele>174.0</ele>
        <time>2014-07-06T14:41:28Z</time>
      </trkpt>
      <trkpt lat="51.117304" lon="-0.08463">
        <ele>173.0</ele>
        <time>2014-07-06T14:41:32Z</time>
      </trkpt>
      <trkpt lat="51.117034" lon="-0.084862">
        <ele>172.0</ele>
        <time>2014-07-06T14:41:36Z</time>
      </trkpt>
      <trkpt lat="51.116703" lon="-0.085181">
        <ele>174.0</ele>
        <time>2014-07-06T14:41:41Z</time>
      </trkpt>
      <trkpt lat="51.116459" lon="-0.085392">
        <ele>173.0</ele>
        <time>2014-07-06T14:41:45Z</time>
      </trkpt>
      <trkpt lat="51.116217" lon="-0.085568">
        <ele>171.0</ele>
        <time>2014-07-06T14:41:49Z</time>
      </trkpt>
      <trkpt lat="51.115966" lon="-0.085832">
        <ele>171.0</ele>
        <time>2014-07-06T14:41:54Z</time>
      </trkpt>
      <trkpt lat="51.115739" lon="-0.086023">
        <ele>171.0</ele>
        <time>2014-07-06T14:41:58Z</time>
      </trkpt>
      <trkpt lat="51.115531" lon="-0.086183">
        <ele>170.0</ele>
        <time>2014-07-06T14:42:02Z</time>
      </trkpt>
      <trkpt lat="51.115382" lon="-0.086324">
        <ele>168.0</ele>
        <time>2014-07-06T14:42:06Z</time>
      </trkpt>
      <trkpt lat="51.115272" lon="-0.086437">
        <ele>168.0</ele>
        <time>2014-07-06T14:42:10Z</time>
      </trkpt>
      <trkpt lat="51.115201" lon="-0.086646">
        <ele>170.0</ele>
        <time>2014-07-06T14:42:15Z</time>
      </trkpt>
      <trkpt lat="51.115239" lon="-0.086853">
        <ele>169.0</ele>
        <time>2014-07-06T14:42:19Z</time>
      </trkpt>
      <trkpt lat="51.115337" lon="-0.08715">
        <ele>167.0</ele>
        <time>2014-07-06T14:42:23Z</time>
      </trkpt>
      <trkpt lat="51.115458" lon="-0.087617">
        <ele>167.0</ele>
        <time>2014-07-06T14:42:28Z</time>
      </trkpt>
      <trkpt lat="51.115549" lon="-0.088021">
        <ele>166.0</ele>
        <time>2014-07-06T14:42:32Z</time>
      </trkpt>
      <trkpt lat="51.115643" lon="-0.088489">
        <ele>162.0</ele>
        <time>2014-07-06T14:42:36Z</time>
      </trkpt>
      <trkpt lat="51.11575" lon="-0.088938">
        <ele>160.0</ele>
        <time>2014-07-06T14:42:40Z</time>
      </trkpt>
      <trkpt lat="51.115872" lon="-0.089441">
        <ele>156.0</ele>
        <time>2014-07-06T14:42:44Z</time>
      </trkpt>
      <trkpt lat="51.115997" lon="-0.089915">
        <ele>155.0</ele>
        <time>2014-07-06T14:42:48Z</time>
      </trkpt>
      <trkpt lat="51.116124" lon="-0.090451">
        <ele>153.0</ele>
        <time>2014-07-06T14:42:52Z</time>
      </trkpt>
      <trkpt lat="51.116244" lon="-0.091013">
        <ele>152.0</ele>
        <time>2014-07-06T14:42:56Z</time>
      </trkpt>
      <trkpt lat="51.116399" lon="-0.091654">
        <ele>149.0</ele>
        <time>2014-07-06T14:43:01Z</time>
      </trkpt>
      <trkpt lat="51.116535" lon="-0.092186">
        <ele>148.0</ele>
        <time>2014-07-06T14:43:05Z</time>
      </trkpt>
      <trkpt lat="51.116678" lon="-0.092653">
        <ele>149.0</ele>
        <time>2014-07-06T14:43:09Z</time>
      </trkpt>
      <trkpt lat="51.116798" lon="-0.092996">
        <ele>146.0</ele>
        <time>2014-07-06T14:43:13Z</time>
      </trkpt>
      <trkpt lat="51.116944" lon="-0.09334">
        <ele>150.0</ele>
        <time>2014-07-06T14:43:17Z</time>
      </trkpt>
      <trkpt lat="51.117069" lon="-0.09364">
        <ele>151.0</ele>
        <time>2014-07-06T14:43:22Z</time>
      </trkpt>
      <trkpt lat="51.117205" lon="-0.094015">
        <ele>149.0</ele>
        <time>2014-07-06T14:43:27Z</time>
      </trkpt>
      <trkpt lat="51.117281" lon="-0.094466">
        <ele>146.0</ele>
        <time>2014-07-06T14:43:32Z</time>
      </trkpt>
      <trkpt lat="51.117333" lon="-0.094883">
        <ele>147.0</ele>
        <time>2014-07-06T14:43:36Z</time>
      </trkpt>
      <trkpt lat="51.117343" lon="-0.095289">
        <ele>150.0</ele>
        <time>2014-07-06T14:43:40Z</time>
      </trkpt>
      <trkpt lat="51.117381" lon="-0.095789">
        <ele>150.0</ele>
        <time>2014-07-06T14:43:45Z</time>
      </trkpt>
      <trkpt lat="51.11743" lon="-0.096256">
        <ele>148.0</ele>
        <time>2014-07-06T14:43:49Z</time>
      </trkpt>
      <trkpt lat="51.117401" lon="-0.096765">
        <ele>146.0</ele>
        <time>2014-07-06T14:43:54Z</time>
      </trkpt>
      <trkpt lat="51.117409" lon="-0.097121">
        <ele>145.0</ele>
        <time>2014-07-06T14:43:58Z</time>
      </trkpt>
      <trkpt lat="51.117365" lon="-0.09757">
        <ele>145.0</ele>
        <time>2014-07-06T14:44:03Z</time>
      </trkpt>
      <trkpt lat="51.11731" lon="-0.097988">
        <ele>150.0</ele>
        <time>2014-07-06T14:44:07Z</time>
      </trkpt>
      <trkpt lat="51.117235" lon="-0.098517">
        <ele>152.0</ele>
        <time>2014-07-06T14:44:12Z</time>
      </trkpt>
      <trkpt lat="51.117193" lon="-0.098898">
        <ele>149.0</ele>
        <time>2014-07-06T14:44:16Z</time>
      </trkpt>
      <trkpt lat="51.117122" lon="-0.099293">
        <ele>152.0</ele>
        <time>2014-07-06T14:44:20Z</time>
      </trkpt>
      <trkpt lat="51.116986" lon="-0.099821">
        <ele>151.0</ele>
        <time>2014-07-06T14:44:25Z</time>
      </trkpt>
      <trkpt lat="51.116901" lon="-0.100213">
        <ele>151.0</ele>
        <time>2014-07-06T14:44:29Z</time>
      </trkpt>
      <trkpt lat="51.116869" lon="-0.100658">
        <ele>149.0</ele>
        <time>2014-07-06T14:44:34Z</time>
      </trkpt>
      <trkpt lat="51.116838" lon="-0.101058">
        <ele>146.0</ele>
        <time>2014-07-06T14:44:38Z</time>
      </trkpt>
      <trkpt lat="51.116816" lon="-0.101382">
        <ele>146.0</ele>
        <time>2014-07-06T14:44:42Z</time>
      </trkpt>
      <trkpt lat="51.116799" lon="-0.101764">
        <ele>146.0</ele>
        <time>2014-07-06T14:44:46Z</time>
      </trkpt>
      <trkpt lat="51.116757" lon="-0.10219">
        <ele>145.0</ele>
        <time>2014-07-06T14:44:51Z</time>
      </trkpt>
      <trkpt lat="51.116743" lon="-0.10253">
        <ele>145.0</ele>
        <time>2014-07-06T14:44:55Z</time>
      </trkpt>
      <trkpt lat="51.116764" lon="-0.10293">
        <ele>145.0</ele>
        <time>2014-07-06T14:45:00Z</time>
      </trkpt>
      <trkpt lat="51.116774" lon="-0.103222">
        <ele>142.0</ele>
        <time>2014-07-06T14:45:04Z</time>
      </trkpt>
      <trkpt lat="51.116806" lon="-0.103555">
        <ele>143.0</ele>
        <time>2014-07-06T14:45:08Z</time>
      </trkpt>
      <trkpt lat="51.116874" lon="-0.103882">
        <ele>142.0</ele>
        <time>2014-07-06T14:45:12Z</time>
      </trkpt>
      <trkpt lat="51.116971" lon="-0.104305">
        <ele>144.0</ele>
        <time>2014-07-06T14:45:17Z</time>
      </trkpt>
      <trkpt lat="51.117017" lon="-0.104615">
        <ele>145.0</ele>
        <time>2014-07-06T14:45:21Z</time>
      </trkpt>
      <trkpt lat="51.11709" lon="-0.105106">
        <ele>143.0</ele>
        <time>2014-07-06T14:45:26Z</time>
      </trkpt>
      <trkpt lat="51.117157" lon="-0.105784">
        <ele>142.0</ele>
        <time>2014-07-06T14:45:31Z</time>
      </trkpt>
      <trkpt lat="51.117172" lon="-0.106286">
        <ele>138.0</ele>
        <time>2014-07-06T14:45:35Z</time>
      </trkpt>
      <trkpt lat="51.117059" lon="-0.106758">
        <ele>140.0</ele>
        <time>2014-07-06T14:45:39Z</time>
      </trkpt>
      <trkpt lat="51.116962" lon="-0.107078">
        <ele>140.0</ele>
        <time>2014-07-06T14:45:43Z</time>
      </trkpt>
      <trkpt lat="51.116836" lon="-0.107344">
        <ele>144.0</ele>
        <time>2014-07-06T14:45:47Z</time>
      </trkpt>
      <trkpt lat="51.116712" lon="-0.107581">
        <ele>140.0</ele>
        <time>2014-07-06T14:45:52Z</time>
      </trkpt>
      <trkpt lat="51.116589" lon="-0.107875">
        <ele>139.0</ele>
        <time>2014-07-06T14:45:57Z</time>
      </trkpt>
      <trkpt lat="51.116461" lon="-0.108073">
        <ele>140.0</ele>
        <time>2014-07-06T14:46:01Z</time>
      </trkpt>
      <trkpt lat="51.116299" lon="-0.108292">
        <ele>142.0</ele>
        <time>2014-07-06T14:46:06Z</time>
      </trkpt>
      <trkpt lat="51.116211" lon="-0.108478">
        <ele>145.0</ele>
        <time>2014-07-06T14:46:10Z</time>
      </trkpt>
      <trkpt lat="51.11612" lon="-0.108623">
        <ele>148.0</ele>
        <time>2014-07-06T14:46:14Z</time>
      </trkpt>
      <trkpt lat="51.116039" lon="-0.108753">
        <ele>153.0</ele>
        <time>2014-07-06T14:46:18Z</time>
      </trkpt>
      <trkpt lat="51.115957" lon="-0.108869">
        <ele>153.0</ele>
        <time>2014-07-06T14:46:22Z</time>
      </trkpt>
      <trkpt lat="51.115864" lon="-0.109048">
        <ele>151.0</ele>
        <time>2014-07-06T14:46:27Z</time>
      </trkpt>
      <trkpt lat="51.115752" lon="-0.109216">
        <ele>149.0</ele>
        <time>2014-07-06T14:46:32Z</time>
      </trkpt>
      <trkpt lat="51.115667" lon="-0.109336">
        <ele>143.0</ele>
        <time>2014-07-06T14:46:36Z</time>
      </trkpt>
      <trkpt lat="51.115557" lon="-0.109484">
        <ele>144.0</ele>
        <time>2014-07-06T14:46:41Z</time>
      </trkpt>
      <trkpt lat="51.115479" lon="-0.109663">
        <ele>145.0</ele>
        <time>2014-07-06T14:46:45Z</time>
      </trkpt>
      <trkpt lat="51.115338" lon="-0.109877">
        <ele>146.0</ele>
        <time>2014-07-06T14:46:50Z</time>
      </trkpt>
      <trkpt lat="51.115245" lon="-0.110051">
        <ele>147.0</ele>
        <time>2014-07-06T14:46:54Z</time>
      </trkpt>
      <trkpt lat="51.115216" lon="-0.110187">
        <ele>149.0</ele>
        <time>2014-07-06T14:46:58Z</time>
      </trkpt>
      <trkpt lat="51.11517" lon="-0.110305">
        <ele>149.0</ele>
        <time>2014-07-06T14:47:03Z</time>
      </trkpt>
      <trkpt lat="51.115152" lon="-0.110444">
        <ele>149.0</ele>
        <time>2014-07-06T14:47:11Z</time>
      </trkpt>
      <trkpt lat="51.115111" lon="-0.110571">
        <ele>149.0</ele>
        <time>2014-07-06T14:52:15Z</time>
      </trkpt>
      <trkpt lat="51.115095" lon="-0.110695">
        <ele>148.0</ele>
        <time>2014-07-06T14:54:17Z</time>
      </trkpt>
      <trkpt lat="51.115077" lon="-0.110823">
        <ele>146.0</ele>
        <time>2014-07-06T14:54:24Z</time>
      </trkpt>
      <trkpt lat="51.115059" lon="-0.110684">
        <ele>141.0</ele>
        <time>2014-07-06T14:55:23Z</time>
      </trkpt>
      <trkpt lat="51.115003" lon="-0.11058">
        <ele>148.0</ele>
        <time>2014-07-06T14:56:06Z</time>
      </trkpt>
      <trkpt lat="51.114974" lon="-0.11069">
        <ele>150.0</ele>
        <time>2014-07-06T14:56:12Z</time>
      </trkpt>
      <trkpt lat="51.11493" lon="-0.110906">
        <ele>149.0</ele>
        <time>2014-07-06T14:56:17Z</time>
      </trkpt>
      <trkpt lat="51.114876" lon="-0.111142">
        <ele>150.0</ele>
        <time>2014-07-06T14:56:21Z</time>
      </trkpt>
      <trkpt lat="51.114813" lon="-0.111388">
        <ele>151.0</ele>
        <time>2014-07-06T14:56:25Z</time>
      </trkpt>
      <trkpt lat="51.114678" lon="-0.111721">
        <ele>152.0</ele>
        <time>2014-07-06T14:56:30Z</time>
      </trkpt>
      <trkpt lat="51.114616" lon="-0.11203">
        <ele>153.0</ele>
        <time>2014-07-06T14:56:35Z</time>
      </trkpt>
      <trkpt lat="51.114558" lon="-0.112297">
        <ele>157.0</ele>
        <time>2014-07-06T14:56:39Z</time>
      </trkpt>
      <trkpt lat="51.11449" lon="-0.112576">
        <ele>155.0</ele>
        <time>2014-07-06T14:56:43Z</time>
      </trkpt>
      <trkpt lat="51.11438" lon="-0.112976">
        <ele>158.0</ele>
        <time>2014-07-06T14:56:48Z</time>
      </trkpt>
      <trkpt lat="51.114273" lon="-0.113343">
        <ele>157.0</ele>
        <time>2014-07-06T14:56:53Z</time>
      </trkpt>
      <trkpt lat="51.114186" lon="-0.113563">
        <ele>156.0</ele>
        <time>2014-07-06T14:56:57Z</time>
      </trkpt>
      <trkpt lat="51.114141" lon="-0.113838">
        <ele>157.0</ele>
        <time>2014-07-06T14:57:02Z</time>
      </trkpt>
      <trkpt lat="51.114068" lon="-0.11405">
        <ele>158.0</ele>
        <time>2014-07-06T14:57:06Z</time>
      </trkpt>
      <trkpt lat="51.113991" lon="-0.114332">
        <ele>161.0</ele>
        <time>2014-07-06T14:57:11Z</time>
      </trkpt>
      <trkpt lat="51.113909" lon="-0.114574">
        <ele>162.0</ele>
        <time>2014-07-06T14:57:15Z</time>
      </trkpt>
      <trkpt lat="51.113815" lon="-0.1148">
        <ele>164.0</ele>
        <time>2014-07-06T14:57:19Z</time>
      </trkpt>
      <trkpt lat="51.113713" lon="-0.115071">
        <ele>166.0</ele>
        <time>2014-07-06T14:57:24Z</time>
      </trkpt>
      <trkpt lat="51.113634" lon="-0.115266">
        <ele>165.0</ele>
        <time>2014-07-06T14:57:28Z</time>
      </trkpt>
      <trkpt lat="51.113539" lon="-0.115513">
        <ele>164.0</ele>
        <time>2014-07-06T14:57:33Z</time>
      </trkpt>
      <trkpt lat="51.113452" lon="-0.115727">
        <ele>161.0</ele>
        <time>2014-07-06T14:57:37Z</time>
      </trkpt>
      <trkpt lat="51.113369" lon="-0.116038">
        <ele>159.0</ele>
        <time>2014-07-06T14:57:42Z</time>
      </trkpt>
      <trkpt lat="51.11325" lon="-0.116383">
        <ele>156.0</ele>
        <time>2014-07-06T14:57:47Z</time>
      </trkpt>
      <trkpt lat="51.113065" lon="-0.116369">
        <ele>158.0</ele>
        <time>2014-07-06T14:57:51Z</time>
      </trkpt>
      <trkpt lat="51.112992" lon="-0.11617">
        <ele>157.0</ele>
        <time>2014-07-06T14:57:55Z</time>
      </trkpt>
      <trkpt lat="51.112875" lon="-0.115953">
        <ele>156.0</ele>
        <time>2014-07-06T14:57:59Z</time>
      </trkpt>
      <trkpt lat="51.112767" lon="-0.115737">
        <ele>156.0</ele>
        <time>2014-07-06T14:58:03Z</time>
      </trkpt>
      <trkpt lat="51.112647" lon="-0.11552">
        <ele>157.0</ele>
        <time>2014-07-06T14:58:07Z</time>
      </trkpt>
      <trkpt lat="51.112506" lon="-0.11528">
        <ele>157.0</ele>
        <time>2014-07-06T14:58:11Z</time>
      </trkpt>
      <trkpt lat="51.112364" lon="-0.114983">
        <ele>157.0</ele>
        <time>2014-07-06T14:58:16Z</time>
      </trkpt>
      <trkpt lat="51.11224" lon="-0.114726">
        <ele>162.0</ele>
        <time>2014-07-06T14:58:20Z</time>
      </trkpt>
      <trkpt lat="51.112025" lon="-0.114447">
        <ele>162.0</ele>
        <time>2014-07-06T14:58:25Z</time>
      </trkpt>
      <trkpt lat="51.111858" lon="-0.114258">
        <ele>160.0</ele>
        <time>2014-07-06T14:58:29Z</time>
      </trkpt>
      <trkpt lat="51.111732" lon="-0.114042">
        <ele>157.0</ele>
        <time>2014-07-06T14:58:33Z</time>
      </trkpt>
      <trkpt lat="51.111634" lon="-0.113873">
        <ele>158.0</ele>
        <time>2014-07-06T14:58:37Z</time>
      </trkpt>
      <trkpt lat="51.111531" lon="-0.113778">
        <ele>157.0</ele>
        <time>2014-07-06T14:58:41Z</time>
      </trkpt>
      <trkpt lat="51.111392" lon="-0.113626">
        <ele>156.0</ele>
        <time>2014-07-06T14:58:46Z</time>
      </trkpt>
      <trkpt lat="51.111277" lon="-0.11349">
        <ele>158.0</ele>
        <time>2014-07-06T14:58:50Z</time>
      </trkpt>
      <trkpt lat="51.111141" lon="-0.11334">
        <ele>163.0</ele>
        <time>2014-07-06T14:58:54Z</time>
      </trkpt>
      <trkpt lat="51.110872" lon="-0.113228">
        <ele>161.0</ele>
        <time>2014-07-06T14:58:59Z</time>
      </trkpt>
      <trkpt lat="51.11061" lon="-0.113023">
        <ele>161.0</ele>
        <time>2014-07-06T14:59:03Z</time>
      </trkpt>
      <trkpt lat="51.110359" lon="-0.112838">
        <ele>159.0</ele>
        <time>2014-07-06T14:59:07Z</time>
      </trkpt>
      <trkpt lat="51.110079" lon="-0.112603">
        <ele>160.0</ele>
        <time>2014-07-06T14:59:12Z</time>
      </trkpt>
      <trkpt lat="51.109897" lon="-0.112388">
        <ele>160.0</ele>
        <time>2014-07-06T14:59:16Z</time>
      </trkpt>
      <trkpt lat="51.109709" lon="-0.112187">
        <ele>162.0</ele>
        <time>2014-07-06T14:59:21Z</time>
      </trkpt>
      <trkpt lat="51.109616" lon="-0.112043">
        <ele>165.0</ele>
        <time>2014-07-06T14:59:25Z</time>
      </trkpt>
      <trkpt lat="51.109485" lon="-0.11188">
        <ele>167.0</ele>
        <time>2014-07-06T14:59:30Z</time>
      </trkpt>
      <trkpt lat="51.109375" lon="-0.111747">
        <ele>166.0</ele>
        <time>2014-07-06T14:59:34Z</time>
      </trkpt>
      <trkpt lat="51.109289" lon="-0.111607">
        <ele>168.0</ele>
        <time>2014-07-06T14:59:38Z</time>
      </trkpt>
      <trkpt lat="51.109207" lon="-0.11152">
        <ele>167.0</ele>
        <time>2014-07-06T14:59:42Z</time>
      </trkpt>
      <trkpt lat="51.109119" lon="-0.111421">
        <ele>166.0</ele>
        <time>2014-07-06T14:59:46Z</time>
      </trkpt>
      <trkpt lat="51.10902" lon="-0.111297">
        <ele>170.0</ele>
        <time>2014-07-06T14:59:51Z</time>
      </trkpt>
      <trkpt lat="51.108946" lon="-0.111188">
        <ele>168.0</ele>
        <time>2014-07-06T14:59:55Z</time>
      </trkpt>
      <trkpt lat="51.108869" lon="-0.111081">
        <ele>172.0</ele>
        <time>2014-07-06T15:00:00Z</time>
      </trkpt>
      <trkpt lat="51.108806" lon="-0.110968">
        <ele>175.0</ele>
        <time>2014-07-06T15:00:04Z</time>
      </trkpt>
      <trkpt lat="51.108732" lon="-0.11086">
        <ele>175.0</ele>
        <time>2014-07-06T15:00:08Z</time>
      </trkpt>
      <trkpt lat="51.108657" lon="-0.110717">
        <ele>180.0</ele>
        <time>2014-07-06T15:00:13Z</time>
      </trkpt>
      <trkpt lat="51.108566" lon="-0.110612">
        <ele>182.0</ele>
        <time>2014-07-06T15:00:18Z</time>
      </trkpt>
      <trkpt lat="51.108493" lon="-0.1105">
        <ele>179.0</ele>
        <time>2014-07-06T15:00:23Z</time>
      </trkpt>
      <trkpt lat="51.108387" lon="-0.110351">
        <ele>178.0</ele>
        <time>2014-07-06T15:00:28Z</time>
      </trkpt>
      <trkpt lat="51.108284" lon="-0.110248">
        <ele>177.0</ele>
        <time>2014-07-06T15:00:32Z</time>
      </trkpt>
      <trkpt lat="51.108189" lon="-0.110158">
        <ele>178.0</ele>
        <time>2014-07-06T15:00:36Z</time>
      </trkpt>
      <trkpt lat="51.108065" lon="-0.110051">
        <ele>178.0</ele>
        <time>2014-07-06T15:00:41Z</time>
      </trkpt>
      <trkpt lat="51.107903" lon="-0.109937">
        <ele>178.0</ele>
        <time>2014-07-06T15:00:46Z</time>
      </trkpt>
      <trkpt lat="51.107747" lon="-0.109825">
        <ele>177.0</ele>
        <time>2014-07-06T15:00:50Z</time>
      </trkpt>
      <trkpt lat="51.10752" lon="-0.109643">
        <ele>178.0</ele>
        <time>2014-07-06T15:00:55Z</time>
      </trkpt>
      <trkpt lat="51.107306" lon="-0.109465">
        <ele>181.0</ele>
        <time>2014-07-06T15:01:00Z</time>
      </trkpt>
      <trkpt lat="51.107125" lon="-0.109245">
        <ele>176.0</ele>
        <time>2014-07-06T15:01:05Z</time>
      </trkpt>
      <trkpt lat="51.106962" lon="-0.109088">
        <ele>179.0</ele>
        <time>2014-07-06T15:01:09Z</time>
      </trkpt>
      <trkpt lat="51.106743" lon="-0.108855">
        <ele>181.0</ele>
        <time>2014-07-06T15:01:14Z</time>
      </trkpt>
      <trkpt lat="51.106498" lon="-0.108576">
        <ele>183.0</ele>
        <time>2014-07-06T15:01:18Z</time>
      </trkpt>
      <trkpt lat="51.106243" lon="-0.108203">
        <ele>184.0</ele>
        <time>2014-07-06T15:01:22Z</time>
      </trkpt>
      <trkpt lat="51.106046" lon="-0.10776">
        <ele>188.0</ele>
        <time>2014-07-06T15:01:26Z</time>
      </trkpt>
      <trkpt lat="51.105779" lon="-0.107309">
        <ele>189.0</ele>
        <time>2014-07-06T15:01:30Z</time>
      </trkpt>
      <trkpt lat="51.105508" lon="-0.106872">
        <ele>190.0</ele>
        <time>2014-07-06T15:01:34Z</time>
      </trkpt>
      <trkpt lat="51.105151" lon="-0.106391">
        <ele>194.0</ele>
        <time>2014-07-06T15:01:39Z</time>
      </trkpt>
      <trkpt lat="51.104983" lon="-0.10594">
        <ele>188.0</ele>
        <time>2014-07-06T15:01:44Z</time>
      </trkpt>
      <trkpt lat="51.104862" lon="-0.105626">
        <ele>191.0</ele>
        <time>2014-07-06T15:01:48Z</time>
      </trkpt>
      <trkpt lat="51.104721" lon="-0.105211">
        <ele>194.0</ele>
        <time>2014-07-06T15:01:53Z</time>
      </trkpt>
      <trkpt lat="51.104649" lon="-0.10481">
        <ele>192.0</ele>
        <time>2014-07-06T15:01:57Z</time>
      </trkpt>
      <trkpt lat="51.104591" lon="-0.104538">
        <ele>189.0</ele>
        <time>2014-07-06T15:02:01Z</time>
      </trkpt>
      <trkpt lat="51.10451" lon="-0.104309">
        <ele>188.0</ele>
        <time>2014-07-06T15:02:05Z</time>
      </trkpt>
      <trkpt lat="51.104393" lon="-0.104058">
        <ele>190.0</ele>
        <time>2014-07-06T15:02:10Z</time>
      </trkpt>
      <trkpt lat="51.104325" lon="-0.103886">
        <ele>191.0</ele>
        <time>2014-07-06T15:02:14Z</time>
      </trkpt>
      <trkpt lat="51.104265" lon="-0.103725">
        <ele>193.0</ele>
        <time>2014-07-06T15:02:18Z</time>
      </trkpt>
      <trkpt lat="51.104203" lon="-0.103553">
        <ele>191.0</ele>
        <time>2014-07-06T15:02:22Z</time>
      </trkpt>
      <trkpt lat="51.104132" lon="-0.10337">
        <ele>190.0</ele>
        <time>2014-07-06T15:02:26Z</time>
      </trkpt>
      <trkpt lat="51.104056" lon="-0.103124">
        <ele>193.0</ele>
        <time>2014-07-06T15:02:31Z</time>
      </trkpt>
      <trkpt lat="51.104025" lon="-0.102927">
        <ele>200.0</ele>
        <time>2014-07-06T15:02:36Z</time>
      </trkpt>
      <trkpt lat="51.104006" lon="-0.102784">
        <ele>204.0</ele>
        <time>2014-07-06T15:02:40Z</time>
      </trkpt>
      <trkpt lat="51.103977" lon="-0.10257">
        <ele>205.0</ele>
        <time>2014-07-06T15:02:45Z</time>
      </trkpt>
      <trkpt lat="51.103959" lon="-0.10239">
        <ele>207.0</ele>
        <time>2014-07-06T15:02:49Z</time>
      </trkpt>
      <trkpt lat="51.103933" lon="-0.102158">
        <ele>211.0</ele>
        <time>2014-07-06T15:02:54Z</time>
      </trkpt>
      <trkpt lat="51.103895" lon="-0.101954">
        <ele>213.0</ele>
        <time>2014-07-06T15:02:59Z</time>
      </trkpt>
      <trkpt lat="51.103855" lon="-0.101795">
        <ele>210.0</ele>
        <time>2014-07-06T15:03:03Z</time>
      </trkpt>
      <trkpt lat="51.103816" lon="-0.10158">
        <ele>210.0</ele>
        <time>2014-07-06T15:03:08Z</time>
      </trkpt>
      <trkpt lat="51.103762" lon="-0.101338">
        <ele>205.0</ele>
        <time>2014-07-06T15:03:13Z</time>
      </trkpt>
      <trkpt lat="51.103725" lon="-0.101133">
        <ele>204.0</ele>
        <time>2014-07-06T15:03:17Z</time>
      </trkpt>
      <trkpt lat="51.103686" lon="-0.100915">
        <ele>201.0</ele>
        <time>2014-07-06T15:03:21Z</time>
      </trkpt>
      <trkpt lat="51.103651" lon="-0.100639">
        <ele>203.0</ele>
        <time>2014-07-06T15:03:26Z</time>
      </trkpt>
      <trkpt lat="51.10363" lon="-0.100445">
        <ele>206.0</ele>
        <time>2014-07-06T15:03:30Z</time>
      </trkpt>
      <trkpt lat="51.103623" lon="-0.100262">
        <ele>207.0</ele>
        <time>2014-07-06T15:03:34Z</time>
      </trkpt>
      <trkpt lat="51.103601" lon="-0.100048">
        <ele>206.0</ele>
        <time>2014-07-06T15:03:39Z</time>
      </trkpt>
      <trkpt lat="51.103589" lon="-0.099871">
        <ele>205.0</ele>
        <time>2014-07-06T15:03:43Z</time>
      </trkpt>
      <trkpt lat="51.103573" lon="-0.099693">
        <ele>205.0</ele>
        <time>2014-07-06T15:03:47Z</time>
      </trkpt>
      <trkpt lat="51.10356" lon="-0.099496">
        <ele>210.0</ele>
        <time>2014-07-06T15:03:51Z</time>
      </trkpt>
      <trkpt lat="51.103528" lon="-0.099294">
        <ele>211.0</ele>
        <time>2014-07-06T15:03:55Z</time>
      </trkpt>
      <trkpt lat="51.103496" lon="-0.099089">
        <ele>213.0</ele>
        <time>2014-07-06T15:03:59Z</time>
      </trkpt>
      <trkpt lat="51.103464" lon="-0.098831">
        <ele>215.0</ele>
        <time>2014-07-06T15:04:04Z</time>
      </trkpt>
      <trkpt lat="51.103429" lon="-0.098632">
        <ele>215.0</ele>
        <time>2014-07-06T15:04:08Z</time>
      </trkpt>
      <trkpt lat="51.103392" lon="-0.09839">
        <ele>217.0</ele>
        <time>2014-07-06T15:04:13Z</time>
      </trkpt>
      <trkpt lat="51.103371" lon="-0.098197">
        <ele>211.0</ele>
        <time>2014-07-06T15:04:17Z</time>
      </trkpt>
      <trkpt lat="51.103344" lon="-0.098005">
        <ele>210.0</ele>
        <time>2014-07-06T15:04:21Z</time>
      </trkpt>
      <trkpt lat="51.103322" lon="-0.097768">
        <ele>212.0</ele>
        <time>2014-07-06T15:04:26Z</time>
      </trkpt>
      <trkpt lat="51.103295" lon="-0.097583">
        <ele>212.0</ele>
        <time>2014-07-06T15:04:30Z</time>
      </trkpt>
      <trkpt lat="51.103251" lon="-0.097356">
        <ele>215.0</ele>
        <time>2014-07-06T15:04:35Z</time>
      </trkpt>
      <trkpt lat="51.103211" lon="-0.097168">
        <ele>217.0</ele>
        <time>2014-07-06T15:04:39Z</time>
      </trkpt>
      <trkpt lat="51.103175" lon="-0.096941">
        <ele>220.0</ele>
        <time>2014-07-06T15:04:44Z</time>
      </trkpt>
      <trkpt lat="51.103129" lon="-0.096708">
        <ele>222.0</ele>
        <time>2014-07-06T15:04:49Z</time>
      </trkpt>
      <trkpt lat="51.103088" lon="-0.096524">
        <ele>220.0</ele>
        <time>2014-07-06T15:04:53Z</time>
      </trkpt>
      <trkpt lat="51.10304" lon="-0.096349">
        <ele>219.0</ele>
        <time>2014-07-06T15:04:57Z</time>
      </trkpt>
      <trkpt lat="51.102989" lon="-0.096093">
        <ele>217.0</ele>
        <time>2014-07-06T15:05:02Z</time>
      </trkpt>
      <trkpt lat="51.102969" lon="-0.095802">
        <ele>220.0</ele>
        <time>2014-07-06T15:05:07Z</time>
      </trkpt>
      <trkpt lat="51.102934" lon="-0.095479">
        <ele>222.0</ele>
        <time>2014-07-06T15:05:12Z</time>
      </trkpt>
      <trkpt lat="51.102889" lon="-0.09521">
        <ele>226.0</ele>
        <time>2014-07-06T15:05:17Z</time>
      </trkpt>
      <trkpt lat="51.102858" lon="-0.094995">
        <ele>228.0</ele>
        <time>2014-07-06T15:05:21Z</time>
      </trkpt>
      <trkpt lat="51.102814" lon="-0.094715">
        <ele>229.0</ele>
        <time>2014-07-06T15:05:26Z</time>
      </trkpt>
      <trkpt lat="51.102774" lon="-0.094504">
        <ele>235.0</ele>
        <time>2014-07-06T15:05:30Z</time>
      </trkpt>
      <trkpt lat="51.102732" lon="-0.094214">
        <ele>232.0</ele>
        <time>2014-07-06T15:05:35Z</time>
      </trkpt>
      <trkpt lat="51.102706" lon="-0.093949">
        <ele>230.0</ele>
        <time>2014-07-06T15:05:39Z</time>
      </trkpt>
      <trkpt lat="51.102679" lon="-0.093671">
        <ele>229.0</ele>
        <time>2014-07-06T15:05:43Z</time>
      </trkpt>
      <trkpt lat="51.102644" lon="-0.093332">
        <ele>229.0</ele>
        <time>2014-07-06T15:05:48Z</time>
      </trkpt>
      <trkpt lat="51.102615" lon="-0.093088">
        <ele>230.0</ele>
        <time>2014-07-06T15:05:52Z</time>
      </trkpt>
      <trkpt lat="51.102574" lon="-0.092857">
        <ele>230.0</ele>
        <time>2014-07-06T15:05:56Z</time>
      </trkpt>
      <trkpt lat="51.10254" lon="-0.092453">
        <ele>226.0</ele>
        <time>2014-07-06T15:06:01Z</time>
      </trkpt>
      <trkpt lat="51.102518" lon="-0.092203">
        <ele>227.0</ele>
        <time>2014-07-06T15:06:05Z</time>
      </trkpt>
      <trkpt lat="51.102496" lon="-0.091945">
        <ele>227.0</ele>
        <time>2014-07-06T15:06:09Z</time>
      </trkpt>
      <trkpt lat="51.102489" lon="-0.091722">
        <ele>229.0</ele>
        <time>2014-07-06T15:06:13Z</time>
      </trkpt>
      <trkpt lat="51.102473" lon="-0.091501">
        <ele>229.0</ele>
        <time>2014-07-06T15:06:17Z</time>
      </trkpt>
      <trkpt lat="51.102457" lon="-0.091289">
        <ele>227.0</ele>
        <time>2014-07-06T15:06:21Z</time>
      </trkpt>
      <trkpt lat="51.102432" lon="-0.091091">
        <ele>226.0</ele>
        <time>2014-07-06T15:06:25Z</time>
      </trkpt>
      <trkpt lat="51.102388" lon="-0.090867">
        <ele>229.0</ele>
        <time>2014-07-06T15:06:30Z</time>
      </trkpt>
      <trkpt lat="51.102348" lon="-0.090671">
        <ele>226.0</ele>
        <time>2014-07-06T15:06:34Z</time>
      </trkpt>
      <trkpt lat="51.102316" lon="-0.090449">
        <ele>225.0</ele>
        <time>2014-07-06T15:06:38Z</time>
      </trkpt>
      <trkpt lat="51.102298" lon="-0.089975">
        <ele>220.0</ele>
        <time>2014-07-06T15:06:43Z</time>
      </trkpt>
      <trkpt lat="51.102324" lon="-0.089686">
        <ele>221.0</ele>
        <time>2014-07-06T15:06:47Z</time>
      </trkpt>
      <trkpt lat="51.102343" lon="-0.089391">
        <ele>218.0</ele>
        <time>2014-07-06T15:06:52Z</time>
      </trkpt>
      <trkpt lat="51.102378" lon="-0.08918">
        <ele>219.0</ele>
        <time>2014-07-06T15:06:56Z</time>
      </trkpt>
      <trkpt lat="51.102397" lon="-0.089043">
        <ele>218.0</ele>
        <time>2014-07-06T15:07:05Z</time>
      </trkpt>
      <trkpt lat="51.102407" lon="-0.088928">
        <ele>218.0</ele>
        <time>2014-07-06T15:07:25Z</time>
      </trkpt>
      <trkpt lat="51.102428" lon="-0.088767">
        <ele>218.0</ele>
        <time>2014-07-06T15:07:29Z</time>
      </trkpt>
      <trkpt lat="51.102469" lon="-0.088592">
        <ele>217.0</ele>
        <time>2014-07-06T15:07:34Z</time>
      </trkpt>
      <trkpt lat="51.102527" lon="-0.0884">
        <ele>217.0</ele>
        <time>2014-07-06T15:07:38Z</time>
      </trkpt>
      <trkpt lat="51.102584" lon="-0.088163">
        <ele>218.0</ele>
        <time>2014-07-06T15:07:42Z</time>
      </trkpt>
      <trkpt lat="51.102638" lon="-0.087901">
        <ele>217.0</ele>
        <time>2014-07-06T15:07:46Z</time>
      </trkpt>
      <trkpt lat="51.102739" lon="-0.087571">
        <ele>217.0</ele>
        <time>2014-07-06T15:07:51Z</time>
      </trkpt>
      <trkpt lat="51.10284" lon="-0.087288">
        <ele>219.0</ele>
        <time>2014-07-06T15:07:55Z</time>
      </trkpt>
      <trkpt lat="51.102942" lon="-0.087003">
        <ele>220.0</ele>
        <time>2014-07-06T15:07:59Z</time>
      </trkpt>
      <trkpt lat="51.103096" lon="-0.086682">
        <ele>220.0</ele>
        <time>2014-07-06T15:08:04Z</time>
      </trkpt>
      <trkpt lat="51.103232" lon="-0.086335">
        <ele>219.0</ele>
        <time>2014-07-06T15:08:09Z</time>
      </trkpt>
      <trkpt lat="51.103301" lon="-0.086113">
        <ele>218.0</ele>
        <time>2014-07-06T15:08:13Z</time>
      </trkpt>
      <trkpt lat="51.103367" lon="-0.08591">
        <ele>217.0</ele>
        <time>2014-07-06T15:08:18Z</time>
      </trkpt>
      <trkpt lat="51.103396" lon="-0.085748">
        <ele>218.0</ele>
        <time>2014-07-06T15:08:23Z</time>
      </trkpt>
      <trkpt lat="51.103423" lon="-0.085624">
        <ele>216.0</ele>
        <time>2014-07-06T15:08:28Z</time>
      </trkpt>
      <trkpt lat="51.10342" lon="-0.085517">
        <ele>216.0</ele>
        <time>2014-07-06T15:08:56Z</time>
      </trkpt>
      <trkpt lat="51.103281" lon="-0.085388">
        <ele>214.0</ele>
        <time>2014-07-06T15:09:01Z</time>
      </trkpt>
      <trkpt lat="51.103041" lon="-0.08527">
        <ele>214.0</ele>
        <time>2014-07-06T15:09:05Z</time>
      </trkpt>
      <trkpt lat="51.102754" lon="-0.085202">
        <ele>218.0</ele>
        <time>2014-07-06T15:09:10Z</time>
      </trkpt>
      <trkpt lat="51.10243" lon="-0.085329">
        <ele>211.0</ele>
        <time>2014-07-06T15:09:15Z</time>
      </trkpt>
      <trkpt lat="51.102113" lon="-0.085443">
        <ele>209.0</ele>
        <time>2014-07-06T15:09:19Z</time>
      </trkpt>
      <trkpt lat="51.101783" lon="-0.085533">
        <ele>207.0</ele>
        <time>2014-07-06T15:09:23Z</time>
      </trkpt>
      <trkpt lat="51.101425" lon="-0.0857">
        <ele>203.0</ele>
        <time>2014-07-06T15:09:28Z</time>
      </trkpt>
      <trkpt lat="51.101088" lon="-0.085819">
        <ele>202.0</ele>
        <time>2014-07-06T15:09:32Z</time>
      </trkpt>
      <trkpt lat="51.100658" lon="-0.085869">
        <ele>199.0</ele>
        <time>2014-07-06T15:09:37Z</time>
      </trkpt>
      <trkpt lat="51.100229" lon="-0.085782">
        <ele>197.0</ele>
        <time>2014-07-06T15:09:42Z</time>
      </trkpt>
      <trkpt lat="51.099861" lon="-0.08562">
        <ele>196.0</ele>
        <time>2014-07-06T15:09:47Z</time>
      </trkpt>
      <trkpt lat="51.099628" lon="-0.085328">
        <ele>196.0</ele>
        <time>2014-07-06T15:09:51Z</time>
      </trkpt>
      <trkpt lat="51.099451" lon="-0.085077">
        <ele>196.0</ele>
        <time>2014-07-06T15:09:55Z</time>
      </trkpt>
      <trkpt lat="51.09926" lon="-0.084782">
        <ele>196.0</ele>
        <time>2014-07-06T15:10:00Z</time>
      </trkpt>
      <trkpt lat="51.099096" lon="-0.084599">
        <ele>198.0</ele>
        <time>2014-07-06T15:10:04Z</time>
      </trkpt>
      <trkpt lat="51.098915" lon="-0.084423">
        <ele>199.0</ele>
        <time>2014-07-06T15:10:09Z</time>
      </trkpt>
      <trkpt lat="51.098761" lon="-0.084331">
        <ele>201.0</ele>
        <time>2014-07-06T15:10:14Z</time>
      </trkpt>
      <trkpt lat="51.098614" lon="-0.084247">
        <ele>203.0</ele>
        <time>2014-07-06T15:10:19Z</time>
      </trkpt>
      <trkpt lat="51.098493" lon="-0.084192">
        <ele>202.0</ele>
        <time>2014-07-06T15:10:23Z</time>
      </trkpt>
      <trkpt lat="51.098364" lon="-0.084091">
        <ele>208.0</ele>
        <time>2014-07-06T15:10:28Z</time>
      </trkpt>
      <trkpt lat="51.098229" lon="-0.083991">
        <ele>209.0</ele>
        <time>2014-07-06T15:10:33Z</time>
      </trkpt>
      <trkpt lat="51.098106" lon="-0.083864">
        <ele>213.0</ele>
        <time>2014-07-06T15:10:38Z</time>
      </trkpt>
      <trkpt lat="51.098004" lon="-0.083761">
        <ele>216.0</ele>
        <time>2014-07-06T15:10:42Z</time>
      </trkpt>
      <trkpt lat="51.097876" lon="-0.083626">
        <ele>217.0</ele>
        <time>2014-07-06T15:10:47Z</time>
      </trkpt>
      <trkpt lat="51.09778" lon="-0.083517">
        <ele>217.0</ele>
        <time>2014-07-06T15:10:51Z</time>
      </trkpt>
      <trkpt lat="51.097682" lon="-0.083397">
        <ele>215.0</ele>
        <time>2014-07-06T15:10:55Z</time>
      </trkpt>
      <trkpt lat="51.097576" lon="-0.083276">
        <ele>216.0</ele>
        <time>2014-07-06T15:10:59Z</time>
      </trkpt>
      <trkpt lat="51.09742" lon="-0.083103">
        <ele>216.0</ele>
        <time>2014-07-06T15:11:04Z</time>
      </trkpt>
      <trkpt lat="51.097286" lon="-0.082953">
        <ele>217.0</ele>
        <time>2014-07-06T15:11:08Z</time>
      </trkpt>
      <trkpt lat="51.097146" lon="-0.082783">
        <ele>216.0</ele>
        <time>2014-07-06T15:11:12Z</time>
      </trkpt>
      <trkpt lat="51.097006" lon="-0.082616">
        <ele>217.0</ele>
        <time>2014-07-06T15:11:16Z</time>
      </trkpt>
      <trkpt lat="51.096842" lon="-0.082416">
        <ele>218.0</ele>
        <time>2014-07-06T15:11:20Z</time>
      </trkpt>
      <trkpt lat="51.096703" lon="-0.082248">
        <ele>218.0</ele>
        <time>2014-07-06T15:11:24Z</time>
      </trkpt>
      <trkpt lat="51.096561" lon="-0.082073">
        <ele>219.0</ele>
        <time>2014-07-06T15:11:28Z</time>
      </trkpt>
      <trkpt lat="51.096372" lon="-0.08184">
        <ele>218.0</ele>
        <time>2014-07-06T15:11:33Z</time>
      </trkpt>
      <trkpt lat="51.0962" lon="-0.081662">
        <ele>219.0</ele>
        <time>2014-07-06T15:11:37Z</time>
      </trkpt>
      <trkpt lat="51.09598" lon="-0.081415">
        <ele>219.0</ele>
        <time>2014-07-06T15:11:42Z</time>
      </trkpt>
      <trkpt lat="51.095805" lon="-0.081173">
        <ele>217.0</ele>
        <time>2014-07-06T15:11:46Z</time>
      </trkpt>
      <trkpt lat="51.0956" lon="-0.080845">
        <ele>215.0</ele>
        <time>2014-07-06T15:11:51Z</time>
      </trkpt>
      <trkpt lat="51.095432" lon="-0.080609">
        <ele>217.0</ele>
        <time>2014-07-06T15:11:55Z</time>
      </trkpt>
      <trkpt lat="51.095225" lon="-0.080307">
        <ele>218.0</ele>
        <time>2014-07-06T15:12:00Z</time>
      </trkpt>
      <trkpt lat="51.095071" lon="-0.080054">
        <ele>220.0</ele>
        <time>2014-07-06T15:12:05Z</time>
      </trkpt>
      <trkpt lat="51.094957" lon="-0.079865">
        <ele>221.0</ele>
        <time>2014-07-06T15:12:09Z</time>
      </trkpt>
      <trkpt lat="51.094819" lon="-0.079634">
        <ele>224.0</ele>
        <time>2014-07-06T15:12:14Z</time>
      </trkpt>
      <trkpt lat="51.094682" lon="-0.079469">
        <ele>225.0</ele>
        <time>2014-07-06T15:12:18Z</time>
      </trkpt>
      <trkpt lat="51.094522" lon="-0.079347">
        <ele>227.0</ele>
        <time>2014-07-06T15:12:22Z</time>
      </trkpt>
      <trkpt lat="51.094307" lon="-0.079224">
        <ele>226.0</ele>
        <time>2014-07-06T15:12:27Z</time>
      </trkpt>
      <trkpt lat="51.094136" lon="-0.079151">
        <ele>226.0</ele>
        <time>2014-07-06T15:12:31Z</time>
      </trkpt>
      <trkpt lat="51.093982" lon="-0.079061">
        <ele>227.0</ele>
        <time>2014-07-06T15:12:35Z</time>
      </trkpt>
      <trkpt lat="51.093781" lon="-0.078908">
        <ele>226.0</ele>
        <time>2014-07-06T15:12:40Z</time>
      </trkpt>
      <trkpt lat="51.093619" lon="-0.07877">
        <ele>228.0</ele>
        <time>2014-07-06T15:12:44Z</time>
      </trkpt>
      <trkpt lat="51.093429" lon="-0.078523">
        <ele>224.0</ele>
        <time>2014-07-06T15:12:49Z</time>
      </trkpt>
      <trkpt lat="51.093267" lon="-0.078361">
        <ele>225.0</ele>
        <time>2014-07-06T15:12:53Z</time>
      </trkpt>
      <trkpt lat="51.093097" lon="-0.078172">
        <ele>224.0</ele>
        <time>2014-07-06T15:12:57Z</time>
      </trkpt>
      <trkpt lat="51.092945" lon="-0.077928">
        <ele>227.0</ele>
        <time>2014-07-06T15:13:01Z</time>
      </trkpt>
      <trkpt lat="51.092814" lon="-0.077717">
        <ele>226.0</ele>
        <time>2014-07-06T15:13:05Z</time>
      </trkpt>
      <trkpt lat="51.092675" lon="-0.077556">
        <ele>229.0</ele>
        <time>2014-07-06T15:13:09Z</time>
      </trkpt>
      <trkpt lat="51.092524" lon="-0.077361">
        <ele>229.0</ele>
        <time>2014-07-06T15:13:14Z</time>
      </trkpt>
      <trkpt lat="51.092391" lon="-0.077202">
        <ele>231.0</ele>
        <time>2014-07-06T15:13:18Z</time>
      </trkpt>
      <trkpt lat="51.092208" lon="-0.077021">
        <ele>231.0</ele>
        <time>2014-07-06T15:13:23Z</time>
      </trkpt>
      <trkpt lat="51.09206" lon="-0.07687">
        <ele>233.0</ele>
        <time>2014-07-06T15:13:27Z</time>
      </trkpt>
      <trkpt lat="51.091919" lon="-0.076704">
        <ele>230.0</ele>
        <time>2014-07-06T15:13:31Z</time>
      </trkpt>
      <trkpt lat="51.091754" lon="-0.076405">
        <ele>229.0</ele>
        <time>2014-07-06T15:13:36Z</time>
      </trkpt>
      <trkpt lat="51.0916" lon="-0.076226">
        <ele>229.0</ele>
        <time>2014-07-06T15:13:40Z</time>
      </trkpt>
      <trkpt lat="51.091434" lon="-0.076052">
        <ele>230.0</ele>
        <time>2014-07-06T15:13:44Z</time>
      </trkpt>
      <trkpt lat="51.091243" lon="-0.075882">
        <ele>229.0</ele>
        <time>2014-07-06T15:13:48Z</time>
      </trkpt>
      <trkpt lat="51.091053" lon="-0.075839">
        <ele>228.0</ele>
        <time>2014-07-06T15:13:53Z</time>
      </trkpt>
      <trkpt lat="51.09098" lon="-0.075853">
        <ele>228.0</ele>
        <time>2014-07-06T15:14:27Z</time>
      </trkpt>
      <trkpt lat="51.09085" lon="-0.075857">
        <ele>229.0</ele>
        <time>2014-07-06T15:14:31Z</time>
      </trkpt>
      <trkpt lat="51.090571" lon="-0.075855">
        <ele>230.0</ele>
        <time>2014-07-06T15:14:36Z</time>
      </trkpt>
      <trkpt lat="51.090322" lon="-0.075865">
        <ele>231.0</ele>
        <time>2014-07-06T15:14:40Z</time>
      </trkpt>
      <trkpt lat="51.089931" lon="-0.07587">
        <ele>227.0</ele>
        <time>2014-07-06T15:14:45Z</time>
      </trkpt>
      <trkpt lat="51.089497" lon="-0.075941">
        <ele>223.0</ele>
        <time>2014-07-06T15:14:50Z</time>
      </trkpt>
      <trkpt lat="51.089137" lon="-0.075996">
        <ele>221.0</ele>
        <time>2014-07-06T15:14:54Z</time>
      </trkpt>
      <trkpt lat="51.088777" lon="-0.076024">
        <ele>220.0</ele>
        <time>2014-07-06T15:14:58Z</time>
      </trkpt>
      <trkpt lat="51.088288" lon="-0.076124">
        <ele>219.0</ele>
        <time>2014-07-06T15:15:03Z</time>
      </trkpt>
      <trkpt lat="51.08779" lon="-0.076282">
        <ele>219.0</ele>
        <time>2014-07-06T15:15:08Z</time>
      </trkpt>
      <trkpt lat="51.087394" lon="-0.076332">
        <ele>217.0</ele>
        <time>2014-07-06T15:15:12Z</time>
      </trkpt>
      <trkpt lat="51.086911" lon="-0.076241">
        <ele>217.0</ele>
        <time>2014-07-06T15:15:17Z</time>
      </trkpt>
      <trkpt lat="51.086505" lon="-0.076193">
        <ele>215.0</ele>
        <time>2014-07-06T15:15:21Z</time>
      </trkpt>
      <trkpt lat="51.086109" lon="-0.076221">
        <ele>211.0</ele>
        <time>2014-07-06T15:15:25Z</time>
      </trkpt>
      <trkpt lat="51.085688" lon="-0.076307">
        <ele>208.0</ele>
        <time>2014-07-06T15:15:29Z</time>
      </trkpt>
      <trkpt lat="51.085288" lon="-0.076458">
        <ele>207.0</ele>
        <time>2014-07-06T15:15:33Z</time>
      </trkpt>
      <trkpt lat="51.084799" lon="-0.076702">
        <ele>205.0</ele>
        <time>2014-07-06T15:15:38Z</time>
      </trkpt>
      <trkpt lat="51.084324" lon="-0.076944">
        <ele>202.0</ele>
        <time>2014-07-06T15:15:43Z</time>
      </trkpt>
      <trkpt lat="51.083847" lon="-0.077165">
        <ele>199.0</ele>
        <time>2014-07-06T15:15:48Z</time>
      </trkpt>
      <trkpt lat="51.083477" lon="-0.077334">
        <ele>200.0</ele>
        <time>2014-07-06T15:15:52Z</time>
      </trkpt>
      <trkpt lat="51.083113" lon="-0.077544">
        <ele>199.0</ele>
        <time>2014-07-06T15:15:56Z</time>
      </trkpt>
      <trkpt lat="51.082736" lon="-0.077721">
        <ele>196.0</ele>
        <time>2014-07-06T15:16:00Z</time>
      </trkpt>
      <trkpt lat="51.08228" lon="-0.077937">
        <ele>198.0</ele>
        <time>2014-07-06T15:16:05Z</time>
      </trkpt>
      <trkpt lat="51.08191" lon="-0.078151">
        <ele>199.0</ele>
        <time>2014-07-06T15:16:09Z</time>
      </trkpt>
      <trkpt lat="51.081471" lon="-0.078385">
        <ele>194.0</ele>
        <time>2014-07-06T15:16:14Z</time>
      </trkpt>
      <trkpt lat="51.081116" lon="-0.078605">
        <ele>194.0</ele>
        <time>2014-07-06T15:16:18Z</time>
      </trkpt>
      <trkpt lat="51.080795" lon="-0.078785">
        <ele>195.0</ele>
        <time>2014-07-06T15:16:22Z</time>
      </trkpt>
      <trkpt lat="51.080385" lon="-0.079016">
        <ele>195.0</ele>
        <time>2014-07-06T15:16:27Z</time>
      </trkpt>
      <trkpt lat="51.080072" lon="-0.079144">
        <ele>195.0</ele>
        <time>2014-07-06T15:16:31Z</time>
      </trkpt>
      <trkpt lat="51.079745" lon="-0.07933">
        <ele>195.0</ele>
        <time>2014-07-06T15:16:35Z</time>
      </trkpt>
      <trkpt lat="51.079434" lon="-0.079456">
        <ele>193.0</ele>
        <time>2014-07-06T15:16:39Z</time>
      </trkpt>
      <trkpt lat="51.079065" lon="-0.07968">
        <ele>193.0</ele>
        <time>2014-07-06T15:16:44Z</time>
      </trkpt>
      <trkpt lat="51.078778" lon="-0.079851">
        <ele>191.0</ele>
        <time>2014-07-06T15:16:48Z</time>
      </trkpt>
      <trkpt lat="51.0784" lon="-0.080066">
        <ele>189.0</ele>
        <time>2014-07-06T15:16:53Z</time>
      </trkpt>
      <trkpt lat="51.078032" lon="-0.080244">
        <ele>186.0</ele>
        <time>2014-07-06T15:16:58Z</time>
      </trkpt>
      <trkpt lat="51.0777" lon="-0.080463">
        <ele>187.0</ele>
        <time>2014-07-06T15:17:02Z</time>
      </trkpt>
      <trkpt lat="51.077253" lon="-0.080634">
        <ele>187.0</ele>
        <time>2014-07-06T15:17:07Z</time>
      </trkpt>
      <trkpt lat="51.07688" lon="-0.080753">
        <ele>186.0</ele>
        <time>2014-07-06T15:17:11Z</time>
      </trkpt>
      <trkpt lat="51.076339" lon="-0.080908">
        <ele>184.0</ele>
        <time>2014-07-06T15:17:16Z</time>
      </trkpt>
      <trkpt lat="51.075901" lon="-0.081036">
        <ele>184.0</ele>
        <time>2014-07-06T15:17:20Z</time>
      </trkpt>
      <trkpt lat="51.075354" lon="-0.081182">
        <ele>182.0</ele>
        <time>2014-07-06T15:17:25Z</time>
      </trkpt>
      <trkpt lat="51.074858" lon="-0.081338">
        <ele>180.0</ele>
        <time>2014-07-06T15:17:30Z</time>
      </trkpt>
      <trkpt lat="51.074468" lon="-0.081408">
        <ele>182.0</ele>
        <time>2014-07-06T15:17:34Z</time>
      </trkpt>
      <trkpt lat="51.074102" lon="-0.081525">
        <ele>182.0</ele>
        <time>2014-07-06T15:17:38Z</time>
      </trkpt>
      <trkpt lat="51.073632" lon="-0.081648">
        <ele>186.0</ele>
        <time>2014-07-06T15:17:43Z</time>
      </trkpt>
      <trkpt lat="51.073287" lon="-0.081681">
        <ele>184.0</ele>
        <time>2014-07-06T15:17:47Z</time>
      </trkpt>
      <trkpt lat="51.072854" lon="-0.081893">
        <ele>184.0</ele>
        <time>2014-07-06T15:17:52Z</time>
      </trkpt>
      <trkpt lat="51.072446" lon="-0.082217">
        <ele>188.0</ele>
        <time>2014-07-06T15:17:57Z</time>
      </trkpt>
      <trkpt lat="51.07212" lon="-0.08241">
        <ele>181.0</ele>
        <time>2014-07-06T15:18:01Z</time>
      </trkpt>
      <trkpt lat="51.071709" lon="-0.082598">
        <ele>181.0</ele>
        <time>2014-07-06T15:18:06Z</time>
      </trkpt>
      <trkpt lat="51.07132" lon="-0.082809">
        <ele>182.0</ele>
        <time>2014-07-06T15:18:11Z</time>
      </trkpt>
      <trkpt lat="51.07106" lon="-0.082885">
        <ele>181.0</ele>
        <time>2014-07-06T15:18:15Z</time>
      </trkpt>
      <trkpt lat="51.070823" lon="-0.082984">
        <ele>182.0</ele>
        <time>2014-07-06T15:18:19Z</time>
      </trkpt>
      <trkpt lat="51.070578" lon="-0.083192">
        <ele>181.0</ele>
        <time>2014-07-06T15:18:24Z</time>
      </trkpt>
      <trkpt lat="51.070413" lon="-0.083242">
        <ele>184.0</ele>
        <time>2014-07-06T15:18:28Z</time>
      </trkpt>
      <trkpt lat="51.070218" lon="-0.083365">
        <ele>183.0</ele>
        <time>2014-07-06T15:18:33Z</time>
      </trkpt>
      <trkpt lat="51.070044" lon="-0.083465">
        <ele>185.0</ele>
        <time>2014-07-06T15:18:38Z</time>
      </trkpt>
      <trkpt lat="51.069901" lon="-0.083561">
        <ele>183.0</ele>
        <time>2014-07-06T15:18:42Z</time>
      </trkpt>
      <trkpt lat="51.06975" lon="-0.083657">
        <ele>185.0</ele>
        <time>2014-07-06T15:18:46Z</time>
      </trkpt>
      <trkpt lat="51.069602" lon="-0.083715">
        <ele>187.0</ele>
        <time>2014-07-06T15:18:50Z</time>
      </trkpt>
      <trkpt lat="51.069426" lon="-0.083834">
        <ele>185.0</ele>
        <time>2014-07-06T15:18:55Z</time>
      </trkpt>
      <trkpt lat="51.069269" lon="-0.083929">
        <ele>185.0</ele>
        <time>2014-07-06T15:18:59Z</time>
      </trkpt>
      <trkpt lat="51.069025" lon="-0.084047">
        <ele>185.0</ele>
        <time>2014-07-06T15:19:04Z</time>
      </trkpt>
      <trkpt lat="51.06883" lon="-0.084097">
        <ele>187.0</ele>
        <time>2014-07-06T15:19:08Z</time>
      </trkpt>
      <trkpt lat="51.06863" lon="-0.084185">
        <ele>186.0</ele>
        <time>2014-07-06T15:19:12Z</time>
      </trkpt>
      <trkpt lat="51.068447" lon="-0.084233">
        <ele>185.0</ele>
        <time>2014-07-06T15:19:16Z</time>
      </trkpt>
      <trkpt lat="51.068304" lon="-0.084291">
        <ele>184.0</ele>
        <time>2014-07-06T15:19:20Z</time>
      </trkpt>
      <trkpt lat="51.068058" lon="-0.08431">
        <ele>184.0</ele>
        <time>2014-07-06T15:19:25Z</time>
      </trkpt>
      <trkpt lat="51.067826" lon="-0.084265">
        <ele>183.0</ele>
        <time>2014-07-06T15:19:29Z</time>
      </trkpt>
      <trkpt lat="51.067574" lon="-0.084221">
        <ele>183.0</ele>
        <time>2014-07-06T15:19:33Z</time>
      </trkpt>
      <trkpt lat="51.067275" lon="-0.084211">
        <ele>182.0</ele>
        <time>2014-07-06T15:19:38Z</time>
      </trkpt>
      <trkpt lat="51.066945" lon="-0.084166">
        <ele>181.0</ele>
        <time>2014-07-06T15:19:43Z</time>
      </trkpt>
      <trkpt lat="51.066681" lon="-0.084098">
        <ele>179.0</ele>
        <time>2014-07-06T15:19:47Z</time>
      </trkpt>
      <trkpt lat="51.066403" lon="-0.084067">
        <ele>179.0</ele>
        <time>2014-07-06T15:19:51Z</time>
      </trkpt>
      <trkpt lat="51.066125" lon="-0.084033">
        <ele>179.0</ele>
        <time>2014-07-06T15:19:55Z</time>
      </trkpt>
      <trkpt lat="51.065758" lon="-0.08407">
        <ele>178.0</ele>
        <time>2014-07-06T15:20:00Z</time>
      </trkpt>
      <trkpt lat="51.065424" lon="-0.084161">
        <ele>181.0</ele>
        <time>2014-07-06T15:20:05Z</time>
      </trkpt>
      <trkpt lat="51.06517" lon="-0.084193">
        <ele>181.0</ele>
        <time>2014-07-06T15:20:09Z</time>
      </trkpt>
      <trkpt lat="51.064865" lon="-0.084181">
        <ele>180.0</ele>
        <time>2014-07-06T15:20:14Z</time>
      </trkpt>
      <trkpt lat="51.064577" lon="-0.084204">
        <ele>181.0</ele>
        <time>2014-07-06T15:20:19Z</time>
      </trkpt>
      <trkpt lat="51.06436" lon="-0.084157">
        <ele>182.0</ele>
        <time>2014-07-06T15:20:23Z</time>
      </trkpt>
      <trkpt lat="51.064155" lon="-0.084125">
        <ele>182.0</ele>
        <time>2014-07-06T15:20:27Z</time>
      </trkpt>
      <trkpt lat="51.063947" lon="-0.084117">
        <ele>182.0</ele>
        <time>2014-07-06T15:20:31Z</time>
      </trkpt>
      <trkpt lat="51.063685" lon="-0.084052">
        <ele>181.0</ele>
        <time>2014-07-06T15:20:36Z</time>
      </trkpt>
      <trkpt lat="51.063479" lon="-0.084072">
        <ele>183.0</ele>
        <time>2014-07-06T15:20:40Z</time>
      </trkpt>
      <trkpt lat="51.063199" lon="-0.084122">
        <ele>182.0</ele>
        <time>2014-07-06T15:20:45Z</time>
      </trkpt>
      <trkpt lat="51.062971" lon="-0.084207">
        <ele>181.0</ele>
        <time>2014-07-06T15:20:49Z</time>
      </trkpt>
      <trkpt lat="51.062756" lon="-0.084281">
        <ele>180.0</ele>
        <time>2014-07-06T15:20:53Z</time>
      </trkpt>
      <trkpt lat="51.062464" lon="-0.084438">
        <ele>181.0</ele>
        <time>2014-07-06T15:20:58Z</time>
      </trkpt>
      <trkpt lat="51.062252" lon="-0.084576">
        <ele>182.0</ele>
        <time>2014-07-06T15:21:02Z</time>
      </trkpt>
      <trkpt lat="51.061962" lon="-0.08472">
        <ele>182.0</ele>
        <time>2014-07-06T15:21:07Z</time>
      </trkpt>
      <trkpt lat="51.061751" lon="-0.084867">
        <ele>182.0</ele>
        <time>2014-07-06T15:21:11Z</time>
      </trkpt>
      <trkpt lat="51.06149" lon="-0.084943">
        <ele>181.0</ele>
        <time>2014-07-06T15:21:15Z</time>
      </trkpt>
      <trkpt lat="51.061198" lon="-0.085158">
        <ele>182.0</ele>
        <time>2014-07-06T15:21:20Z</time>
      </trkpt>
      <trkpt lat="51.060892" lon="-0.085298">
        <ele>179.0</ele>
        <time>2014-07-06T15:21:25Z</time>
      </trkpt>
      <trkpt lat="51.060665" lon="-0.085443">
        <ele>177.0</ele>
        <time>2014-07-06T15:21:29Z</time>
      </trkpt>
      <trkpt lat="51.06045" lon="-0.085571">
        <ele>179.0</ele>
        <time>2014-07-06T15:21:33Z</time>
      </trkpt>
      <trkpt lat="51.060218" lon="-0.085684">
        <ele>180.0</ele>
        <time>2014-07-06T15:21:37Z</time>
      </trkpt>
      <trkpt lat="51.0599" lon="-0.085811">
        <ele>182.0</ele>
        <time>2014-07-06T15:21:42Z</time>
      </trkpt>
      <trkpt lat="51.059617" lon="-0.085864">
        <ele>183.0</ele>
        <time>2014-07-06T15:21:46Z</time>
      </trkpt>
      <trkpt lat="51.059342" lon="-0.085848">
        <ele>182.0</ele>
        <time>2014-07-06T15:21:50Z</time>
      </trkpt>
      <trkpt lat="51.058995" lon="-0.085768">
        <ele>181.0</ele>
        <time>2014-07-06T15:21:55Z</time>
      </trkpt>
      <trkpt lat="51.058713" lon="-0.085668">
        <ele>181.0</ele>
        <time>2014-07-06T15:21:59Z</time>
      </trkpt>
      <trkpt lat="51.058435" lon="-0.085512">
        <ele>181.0</ele>
        <time>2014-07-06T15:22:03Z</time>
      </trkpt>
      <trkpt lat="51.058155" lon="-0.085375">
        <ele>180.0</ele>
        <time>2014-07-06T15:22:07Z</time>
      </trkpt>
      <trkpt lat="51.057836" lon="-0.085159">
        <ele>178.0</ele>
        <time>2014-07-06T15:22:12Z</time>
      </trkpt>
      <trkpt lat="51.057562" lon="-0.084978">
        <ele>179.0</ele>
        <time>2014-07-06T15:22:16Z</time>
      </trkpt>
      <trkpt lat="51.057306" lon="-0.084761">
        <ele>181.0</ele>
        <time>2014-07-06T15:22:20Z</time>
      </trkpt>
      <trkpt lat="51.057019" lon="-0.084415">
        <ele>178.0</ele>
        <time>2014-07-06T15:22:25Z</time>
      </trkpt>
      <trkpt lat="51.056809" lon="-0.084096">
        <ele>177.0</ele>
        <time>2014-07-06T15:22:29Z</time>
      </trkpt>
      <trkpt lat="51.056524" lon="-0.083654">
        <ele>173.0</ele>
        <time>2014-07-06T15:22:34Z</time>
      </trkpt>
      <trkpt lat="51.056257" lon="-0.083192">
        <ele>171.0</ele>
        <time>2014-07-06T15:22:39Z</time>
      </trkpt>
      <trkpt lat="51.05603" lon="-0.082852">
        <ele>173.0</ele>
        <time>2014-07-06T15:22:43Z</time>
      </trkpt>
      <trkpt lat="51.055781" lon="-0.082552">
        <ele>172.0</ele>
        <time>2014-07-06T15:22:47Z</time>
      </trkpt>
      <trkpt lat="51.055443" lon="-0.082245">
        <ele>171.0</ele>
        <time>2014-07-06T15:22:52Z</time>
      </trkpt>
      <trkpt lat="51.055145" lon="-0.082057">
        <ele>170.0</ele>
        <time>2014-07-06T15:22:56Z</time>
      </trkpt>
      <trkpt lat="51.054798" lon="-0.081773">
        <ele>169.0</ele>
        <time>2014-07-06T15:23:01Z</time>
      </trkpt>
      <trkpt lat="51.054433" lon="-0.081496">
        <ele>170.0</ele>
        <time>2014-07-06T15:23:06Z</time>
      </trkpt>
      <trkpt lat="51.054163" lon="-0.081266">
        <ele>169.0</ele>
        <time>2014-07-06T15:23:10Z</time>
      </trkpt>
      <trkpt lat="51.053816" lon="-0.080986">
        <ele>173.0</ele>
        <time>2014-07-06T15:23:15Z</time>
      </trkpt>
      <trkpt lat="51.053544" lon="-0.080688">
        <ele>171.0</ele>
        <time>2014-07-06T15:23:19Z</time>
      </trkpt>
      <trkpt lat="51.053197" lon="-0.080396">
        <ele>173.0</ele>
        <time>2014-07-06T15:23:24Z</time>
      </trkpt>
      <trkpt lat="51.052911" lon="-0.080181">
        <ele>170.0</ele>
        <time>2014-07-06T15:23:28Z</time>
      </trkpt>
      <trkpt lat="51.052554" lon="-0.079954">
        <ele>171.0</ele>
        <time>2014-07-06T15:23:33Z</time>
      </trkpt>
      <trkpt lat="51.052191" lon="-0.07976">
        <ele>170.0</ele>
        <time>2014-07-06T15:23:38Z</time>
      </trkpt>
      <trkpt lat="51.051901" lon="-0.079606">
        <ele>171.0</ele>
        <time>2014-07-06T15:23:42Z</time>
      </trkpt>
      <trkpt lat="51.051608" lon="-0.079484">
        <ele>172.0</ele>
        <time>2014-07-06T15:23:46Z</time>
      </trkpt>
      <trkpt lat="51.051231" lon="-0.079255">
        <ele>172.0</ele>
        <time>2014-07-06T15:23:51Z</time>
      </trkpt>
      <trkpt lat="51.050942" lon="-0.079056">
        <ele>169.0</ele>
        <time>2014-07-06T15:23:55Z</time>
      </trkpt>
      <trkpt lat="51.050523" lon="-0.078904">
        <ele>170.0</ele>
        <time>2014-07-06T15:24:00Z</time>
      </trkpt>
      <trkpt lat="51.050077" lon="-0.078707">
        <ele>170.0</ele>
        <time>2014-07-06T15:24:05Z</time>
      </trkpt>
      <trkpt lat="51.049652" lon="-0.078503">
        <ele>164.0</ele>
        <time>2014-07-06T15:24:10Z</time>
      </trkpt>
      <trkpt lat="51.049285" lon="-0.07839">
        <ele>166.0</ele>
        <time>2014-07-06T15:24:14Z</time>
      </trkpt>
      <trkpt lat="51.048873" lon="-0.078271">
        <ele>162.0</ele>
        <time>2014-07-06T15:24:19Z</time>
      </trkpt>
      <trkpt lat="51.048546" lon="-0.078055">
        <ele>162.0</ele>
        <time>2014-07-06T15:24:23Z</time>
      </trkpt>
      <trkpt lat="51.04829" lon="-0.077826">
        <ele>162.0</ele>
        <time>2014-07-06T15:24:27Z</time>
      </trkpt>
      <trkpt lat="51.048182" lon="-0.077693">
        <ele>162.0</ele>
        <time>2014-07-06T15:24:32Z</time>
      </trkpt>
      <trkpt lat="51.048121" lon="-0.077649">
        <ele>160.0</ele>
        <time>2014-07-06T15:26:16Z</time>
      </trkpt>
      <trkpt lat="51.048009" lon="-0.077526">
        <ele>159.0</ele>
        <time>2014-07-06T15:26:21Z</time>
      </trkpt>
      <trkpt lat="51.047849" lon="-0.077377">
        <ele>159.0</ele>
        <time>2014-07-06T15:26:25Z</time>
      </trkpt>
      <trkpt lat="51.047665" lon="-0.077185">
        <ele>159.0</ele>
        <time>2014-07-06T15:26:29Z</time>
      </trkpt>
      <trkpt lat="51.0474" lon="-0.076884">
        <ele>157.0</ele>
        <time>2014-07-06T15:26:34Z</time>
      </trkpt>
      <trkpt lat="51.047147" lon="-0.07664">
        <ele>158.0</ele>
        <time>2014-07-06T15:26:38Z</time>
      </trkpt>
      <trkpt lat="51.046807" lon="-0.076295">
        <ele>156.0</ele>
        <time>2014-07-06T15:26:43Z</time>
      </trkpt>
      <trkpt lat="51.046404" lon="-0.075964">
        <ele>155.0</ele>
        <time>2014-07-06T15:26:48Z</time>
      </trkpt>
      <trkpt lat="51.04605" lon="-0.075777">
        <ele>156.0</ele>
        <time>2014-07-06T15:26:52Z</time>
      </trkpt>
      <trkpt lat="51.045568" lon="-0.075544">
        <ele>156.0</ele>
        <time>2014-07-06T15:26:57Z</time>
      </trkpt>
      <trkpt lat="51.045202" lon="-0.075293">
        <ele>154.0</ele>
        <time>2014-07-06T15:27:01Z</time>
      </trkpt>
      <trkpt lat="51.044879" lon="-0.074872">
        <ele>148.0</ele>
        <time>2014-07-06T15:27:05Z</time>
      </trkpt>
      <trkpt lat="51.044567" lon="-0.074514">
        <ele>146.0</ele>
        <time>2014-07-06T15:27:09Z</time>
      </trkpt>
      <trkpt lat="51.04436" lon="-0.073964">
        <ele>139.0</ele>
        <time>2014-07-06T15:27:13Z</time>
      </trkpt>
      <trkpt lat="51.04424" lon="-0.073377">
        <ele>140.0</ele>
        <time>2014-07-06T15:27:17Z</time>
      </trkpt>
      <trkpt lat="51.044231" lon="-0.072747">
        <ele>139.0</ele>
        <time>2014-07-06T15:27:21Z</time>
      </trkpt>
      <trkpt lat="51.044248" lon="-0.072177">
        <ele>140.0</ele>
        <time>2014-07-06T15:27:25Z</time>
      </trkpt>
      <trkpt lat="51.044214" lon="-0.071488">
        <ele>141.0</ele>
        <time>2014-07-06T15:27:30Z</time>
      </trkpt>
      <trkpt lat="51.04413" lon="-0.070988">
        <ele>143.0</ele>
        <time>2014-07-06T15:27:34Z</time>
      </trkpt>
      <trkpt lat="51.044019" lon="-0.070482">
        <ele>135.0</ele>
        <time>2014-07-06T15:27:38Z</time>
      </trkpt>
      <trkpt lat="51.043846" lon="-0.070026">
        <ele>131.0</ele>
        <time>2014-07-06T15:27:42Z</time>
      </trkpt>
      <trkpt lat="51.043555" lon="-0.069558">
        <ele>131.0</ele>
        <time>2014-07-06T15:27:47Z</time>
      </trkpt>
      <trkpt lat="51.043331" lon="-0.06922">
        <ele>134.0</ele>
        <time>2014-07-06T15:27:51Z</time>
      </trkpt>
      <trkpt lat="51.043038" lon="-0.068794">
        <ele>134.0</ele>
        <time>2014-07-06T15:27:56Z</time>
      </trkpt>
      <trkpt lat="51.042812" lon="-0.068463">
        <ele>133.0</ele>
        <time>2014-07-06T15:28:00Z</time>
      </trkpt>
      <trkpt lat="51.04254" lon="-0.067981">
        <ele>135.0</ele>
        <time>2014-07-06T15:28:05Z</time>
      </trkpt>
      <trkpt lat="51.042286" lon="-0.067616">
        <ele>139.0</ele>
        <time>2014-07-06T15:28:09Z</time>
      </trkpt>
      <trkpt lat="51.041953" lon="-0.067104">
        <ele>133.0</ele>
        <time>2014-07-06T15:28:14Z</time>
      </trkpt>
      <trkpt lat="51.041655" lon="-0.066757">
        <ele>129.0</ele>
        <time>2014-07-06T15:28:18Z</time>
      </trkpt>
      <trkpt lat="51.041333" lon="-0.066451">
        <ele>127.0</ele>
        <time>2014-07-06T15:28:22Z</time>
      </trkpt>
      <trkpt lat="51.040997" lon="-0.066199">
        <ele>127.0</ele>
        <time>2014-07-06T15:28:26Z</time>
      </trkpt>
      <trkpt lat="51.040658" lon="-0.066044">
        <ele>126.0</ele>
        <time>2014-07-06T15:28:30Z</time>
      </trkpt>
      <trkpt lat="51.040196" lon="-0.065917">
        <ele>125.0</ele>
        <time>2014-07-06T15:28:35Z</time>
      </trkpt>
      <trkpt lat="51.039838" lon="-0.065876">
        <ele>124.0</ele>
        <time>2014-07-06T15:28:39Z</time>
      </trkpt>
      <trkpt lat="51.039488" lon="-0.065767">
        <ele>126.0</ele>
        <time>2014-07-06T15:28:43Z</time>
      </trkpt>
      <trkpt lat="51.03913" lon="-0.065675">
        <ele>127.0</ele>
        <time>2014-07-06T15:28:47Z</time>
      </trkpt>
      <trkpt lat="51.038721" lon="-0.065596">
        <ele>126.0</ele>
        <time>2014-07-06T15:28:52Z</time>
      </trkpt>
      <trkpt lat="51.038412" lon="-0.065499">
        <ele>124.0</ele>
        <time>2014-07-06T15:28:56Z</time>
      </trkpt>
      <trkpt lat="51.038122" lon="-0.06544">
        <ele>125.0</ele>
        <time>2014-07-06T15:29:00Z</time>
      </trkpt>
      <trkpt lat="51.03783" lon="-0.065388">
        <ele>126.0</ele>
        <time>2014-07-06T15:29:04Z</time>
      </trkpt>
      <trkpt lat="51.037483" lon="-0.065281">
        <ele>123.0</ele>
        <time>2014-07-06T15:29:09Z</time>
      </trkpt>
      <trkpt lat="51.037187" lon="-0.065206">
        <ele>124.0</ele>
        <time>2014-07-06T15:29:13Z</time>
      </trkpt>
      <trkpt lat="51.036911" lon="-0.065134">
        <ele>125.0</ele>
        <time>2014-07-06T15:29:17Z</time>
      </trkpt>
      <trkpt lat="51.036559" lon="-0.065078">
        <ele>124.0</ele>
        <time>2014-07-06T15:29:22Z</time>
      </trkpt>
      <trkpt lat="51.036256" lon="-0.065022">
        <ele>123.0</ele>
        <time>2014-07-06T15:29:26Z</time>
      </trkpt>
      <trkpt lat="51.035825" lon="-0.064929">
        <ele>124.0</ele>
        <time>2014-07-06T15:29:31Z</time>
      </trkpt>
      <trkpt lat="51.035422" lon="-0.064823">
        <ele>123.0</ele>
        <time>2014-07-06T15:29:36Z</time>
      </trkpt>
      <trkpt lat="51.035108" lon="-0.064746">
        <ele>122.0</ele>
        <time>2014-07-06T15:29:40Z</time>
      </trkpt>
      <trkpt lat="51.034792" lon="-0.064682">
        <ele>122.0</ele>
        <time>2014-07-06T15:29:44Z</time>
      </trkpt>
      <trkpt lat="51.034427" lon="-0.064532">
        <ele>122.0</ele>
        <time>2014-07-06T15:29:49Z</time>
      </trkpt>
      <trkpt lat="51.034149" lon="-0.06436">
        <ele>122.0</ele>
        <time>2014-07-06T15:29:53Z</time>
      </trkpt>
      <trkpt lat="51.033866" lon="-0.064284">
        <ele>122.0</ele>
        <time>2014-07-06T15:29:58Z</time>
      </trkpt>
      <trkpt lat="51.033657" lon="-0.064255">
        <ele>122.0</ele>
        <time>2014-07-06T15:30:02Z</time>
      </trkpt>
      <trkpt lat="51.033489" lon="-0.064143">
        <ele>127.0</ele>
        <time>2014-07-06T15:30:06Z</time>
      </trkpt>
      <trkpt lat="51.033336" lon="-0.064062">
        <ele>126.0</ele>
        <time>2014-07-06T15:30:10Z</time>
      </trkpt>
      <trkpt lat="51.033137" lon="-0.064062">
        <ele>126.0</ele>
        <time>2014-07-06T15:30:15Z</time>
      </trkpt>
      <trkpt lat="51.032984" lon="-0.06409">
        <ele>132.0</ele>
        <time>2014-07-06T15:30:19Z</time>
      </trkpt>
      <trkpt lat="51.03281" lon="-0.064155">
        <ele>131.0</ele>
        <time>2014-07-06T15:30:23Z</time>
      </trkpt>
      <trkpt lat="51.032609" lon="-0.064227">
        <ele>132.0</ele>
        <time>2014-07-06T15:30:27Z</time>
      </trkpt>
      <trkpt lat="51.032359" lon="-0.064323">
        <ele>134.0</ele>
        <time>2014-07-06T15:30:32Z</time>
      </trkpt>
      <trkpt lat="51.032154" lon="-0.064374">
        <ele>134.0</ele>
        <time>2014-07-06T15:30:36Z</time>
      </trkpt>
      <trkpt lat="51.031933" lon="-0.064428">
        <ele>133.0</ele>
        <time>2014-07-06T15:30:40Z</time>
      </trkpt>
      <trkpt lat="51.031685" lon="-0.064471">
        <ele>133.0</ele>
        <time>2014-07-06T15:30:45Z</time>
      </trkpt>
      <trkpt lat="51.031442" lon="-0.064543">
        <ele>131.0</ele>
        <time>2014-07-06T15:30:49Z</time>
      </trkpt>
      <trkpt lat="51.031255" lon="-0.064612">
        <ele>131.0</ele>
        <time>2014-07-06T15:30:53Z</time>
      </trkpt>
      <trkpt lat="51.031005" lon="-0.064686">
        <ele>129.0</ele>
        <time>2014-07-06T15:30:58Z</time>
      </trkpt>
      <trkpt lat="51.030778" lon="-0.064765">
        <ele>131.0</ele>
        <time>2014-07-06T15:31:02Z</time>
      </trkpt>
      <trkpt lat="51.030541" lon="-0.064893">
        <ele>131.0</ele>
        <time>2014-07-06T15:31:06Z</time>
      </trkpt>
      <trkpt lat="51.030301" lon="-0.065117">
        <ele>130.0</ele>
        <time>2014-07-06T15:31:10Z</time>
      </trkpt>
      <trkpt lat="51.030069" lon="-0.065478">
        <ele>130.0</ele>
        <time>2014-07-06T15:31:15Z</time>
      </trkpt>
      <trkpt lat="51.02992" lon="-0.065848">
        <ele>131.0</ele>
        <time>2014-07-06T15:31:19Z</time>
      </trkpt>
      <trkpt lat="51.029758" lon="-0.066282">
        <ele>131.0</ele>
        <time>2014-07-06T15:31:23Z</time>
      </trkpt>
      <trkpt lat="51.02947" lon="-0.067013">
        <ele>128.0</ele>
        <time>2014-07-06T15:31:28Z</time>
      </trkpt>
      <trkpt lat="51.029224" lon="-0.067581">
        <ele>125.0</ele>
        <time>2014-07-06T15:31:32Z</time>
      </trkpt>
      <trkpt lat="51.028776" lon="-0.068423">
        <ele>117.0</ele>
        <time>2014-07-06T15:31:37Z</time>
      </trkpt>
      <trkpt lat="51.028176" lon="-0.068997">
        <ele>113.0</ele>
        <time>2014-07-06T15:31:42Z</time>
      </trkpt>
      <trkpt lat="51.027754" lon="-0.069359">
        <ele>113.0</ele>
        <time>2014-07-06T15:31:46Z</time>
      </trkpt>
      <trkpt lat="51.027412" lon="-0.069627">
        <ele>113.0</ele>
        <time>2014-07-06T15:31:50Z</time>
      </trkpt>
      <trkpt lat="51.027042" lon="-0.069966">
        <ele>109.0</ele>
        <time>2014-07-06T15:31:55Z</time>
      </trkpt>
      <trkpt lat="51.026763" lon="-0.07018">
        <ele>104.0</ele>
        <time>2014-07-06T15:31:59Z</time>
      </trkpt>
      <trkpt lat="51.026399" lon="-0.070502">
        <ele>103.0</ele>
        <time>2014-07-06T15:32:04Z</time>
      </trkpt>
      <trkpt lat="51.026071" lon="-0.070745">
        <ele>105.0</ele>
        <time>2014-07-06T15:32:09Z</time>
      </trkpt>
      <trkpt lat="51.025747" lon="-0.070883">
        <ele>99.0</ele>
        <time>2014-07-06T15:32:13Z</time>
      </trkpt>
      <trkpt lat="51.025322" lon="-0.071066">
        <ele>100.0</ele>
        <time>2014-07-06T15:32:18Z</time>
      </trkpt>
      <trkpt lat="51.024963" lon="-0.071146">
        <ele>101.0</ele>
        <time>2014-07-06T15:32:22Z</time>
      </trkpt>
      <trkpt lat="51.024475" lon="-0.071374">
        <ele>98.0</ele>
        <time>2014-07-06T15:32:27Z</time>
      </trkpt>
      <trkpt lat="51.024082" lon="-0.071592">
        <ele>96.0</ele>
        <time>2014-07-06T15:32:31Z</time>
      </trkpt>
      <trkpt lat="51.023538" lon="-0.071884">
        <ele>93.0</ele>
        <time>2014-07-06T15:32:36Z</time>
      </trkpt>
      <trkpt lat="51.022941" lon="-0.072258">
        <ele>94.0</ele>
        <time>2014-07-06T15:32:41Z</time>
      </trkpt>
      <trkpt lat="51.022475" lon="-0.072438">
        <ele>92.0</ele>
        <time>2014-07-06T15:32:45Z</time>
      </trkpt>
      <trkpt lat="51.021983" lon="-0.072631">
        <ele>90.0</ele>
        <time>2014-07-06T15:32:49Z</time>
      </trkpt>
      <trkpt lat="51.021422" lon="-0.072835">
        <ele>84.0</ele>
        <time>2014-07-06T15:32:54Z</time>
      </trkpt>
      <trkpt lat="51.021002" lon="-0.072876">
        <ele>81.0</ele>
        <time>2014-07-06T15:32:58Z</time>
      </trkpt>
      <trkpt lat="51.020592" lon="-0.072971">
        <ele>82.0</ele>
        <time>2014-07-06T15:33:02Z</time>
      </trkpt>
      <trkpt lat="51.020255" lon="-0.07316">
        <ele>80.0</ele>
        <time>2014-07-06T15:33:06Z</time>
      </trkpt>
      <trkpt lat="51.019912" lon="-0.073468">
        <ele>80.0</ele>
        <time>2014-07-06T15:33:11Z</time>
      </trkpt>
      <trkpt lat="51.019687" lon="-0.073846">
        <ele>78.0</ele>
        <time>2014-07-06T15:33:15Z</time>
      </trkpt>
      <trkpt lat="51.019442" lon="-0.074321">
        <ele>79.0</ele>
        <time>2014-07-06T15:33:20Z</time>
      </trkpt>
      <trkpt lat="51.019235" lon="-0.074749">
        <ele>81.0</ele>
        <time>2014-07-06T15:33:25Z</time>
      </trkpt>
      <trkpt lat="51.019073" lon="-0.074978">
        <ele>80.0</ele>
        <time>2014-07-06T15:33:29Z</time>
      </trkpt>
      <trkpt lat="51.018887" lon="-0.075384">
        <ele>81.0</ele>
        <time>2014-07-06T15:33:34Z</time>
      </trkpt>
      <trkpt lat="51.018765" lon="-0.075725">
        <ele>84.0</ele>
        <time>2014-07-06T15:33:38Z</time>
      </trkpt>
      <trkpt lat="51.018668" lon="-0.076097">
        <ele>86.0</ele>
        <time>2014-07-06T15:33:43Z</time>
      </trkpt>
      <trkpt lat="51.018579" lon="-0.076346">
        <ele>83.0</ele>
        <time>2014-07-06T15:33:47Z</time>
      </trkpt>
      <trkpt lat="51.018425" lon="-0.076454">
        <ele>84.0</ele>
        <time>2014-07-06T15:33:52Z</time>
      </trkpt>
      <trkpt lat="51.018311" lon="-0.076559">
        <ele>90.0</ele>
        <time>2014-07-06T15:33:57Z</time>
      </trkpt>
      <trkpt lat="51.018219" lon="-0.07665">
        <ele>90.0</ele>
        <time>2014-07-06T15:34:01Z</time>
      </trkpt>
      <trkpt lat="51.01812" lon="-0.076789">
        <ele>91.0</ele>
        <time>2014-07-06T15:34:05Z</time>
      </trkpt>
      <trkpt lat="51.017991" lon="-0.076857">
        <ele>93.0</ele>
        <time>2014-07-06T15:34:10Z</time>
      </trkpt>
      <trkpt lat="51.017856" lon="-0.076926">
        <ele>94.0</ele>
        <time>2014-07-06T15:34:15Z</time>
      </trkpt>
      <trkpt lat="51.017726" lon="-0.076938">
        <ele>96.0</ele>
        <time>2014-07-06T15:34:20Z</time>
      </trkpt>
      <trkpt lat="51.017635" lon="-0.076952">
        <ele>98.0</ele>
        <time>2014-07-06T15:34:24Z</time>
      </trkpt>
      <trkpt lat="51.017555" lon="-0.076956">
        <ele>98.0</ele>
        <time>2014-07-06T15:34:28Z</time>
      </trkpt>
      <trkpt lat="51.017463" lon="-0.076997">
        <ele>99.0</ele>
        <time>2014-07-06T15:34:33Z</time>
      </trkpt>
      <trkpt lat="51.017367" lon="-0.077044">
        <ele>98.0</ele>
        <time>2014-07-06T15:34:38Z</time>
      </trkpt>
      <trkpt lat="51.017283" lon="-0.0771">
        <ele>99.0</ele>
        <time>2014-07-06T15:34:42Z</time>
      </trkpt>
      <trkpt lat="51.017189" lon="-0.077156">
        <ele>101.0</ele>
        <time>2014-07-06T15:34:46Z</time>
      </trkpt>
      <trkpt lat="51.017076" lon="-0.077252">
        <ele>104.0</ele>
        <time>2014-07-06T15:34:51Z</time>
      </trkpt>
      <trkpt lat="51.016989" lon="-0.077347">
        <ele>104.0</ele>
        <time>2014-07-06T15:34:55Z</time>
      </trkpt>
      <trkpt lat="51.016906" lon="-0.077467">
        <ele>102.0</ele>
        <time>2014-07-06T15:34:59Z</time>
      </trkpt>
      <trkpt lat="51.016826" lon="-0.077648">
        <ele>100.0</ele>
        <time>2014-07-06T15:35:03Z</time>
      </trkpt>
      <trkpt lat="51.0168" lon="-0.077809">
        <ele>101.0</ele>
        <time>2014-07-06T15:35:07Z</time>
      </trkpt>
      <trkpt lat="51.016802" lon="-0.077925">
        <ele>101.0</ele>
        <time>2014-07-06T15:37:31Z</time>
      </trkpt>
      <trkpt lat="51.016772" lon="-0.078137">
        <ele>99.0</ele>
        <time>2014-07-06T15:37:36Z</time>
      </trkpt>
      <trkpt lat="51.016717" lon="-0.078329">
        <ele>99.0</ele>
        <time>2014-07-06T15:37:40Z</time>
      </trkpt>
      <trkpt lat="51.016582" lon="-0.078471">
        <ele>97.0</ele>
        <time>2014-07-06T15:37:44Z</time>
      </trkpt>
      <trkpt lat="51.016336" lon="-0.078546">
        <ele>98.0</ele>
        <time>2014-07-06T15:37:49Z</time>
      </trkpt>
      <trkpt lat="51.016109" lon="-0.078616">
        <ele>97.0</ele>
        <time>2014-07-06T15:37:53Z</time>
      </trkpt>
      <trkpt lat="51.015867" lon="-0.078662">
        <ele>101.0</ele>
        <time>2014-07-06T15:37:57Z</time>
      </trkpt>
      <trkpt lat="51.015658" lon="-0.078746">
        <ele>99.0</ele>
        <time>2014-07-06T15:38:01Z</time>
      </trkpt>
      <trkpt lat="51.015397" lon="-0.078903">
        <ele>95.0</ele>
        <time>2014-07-06T15:38:06Z</time>
      </trkpt>
      <trkpt lat="51.015141" lon="-0.079213">
        <ele>94.0</ele>
        <time>2014-07-06T15:38:11Z</time>
      </trkpt>
      <trkpt lat="51.014935" lon="-0.079437">
        <ele>93.0</ele>
        <time>2014-07-06T15:38:15Z</time>
      </trkpt>
      <trkpt lat="51.014741" lon="-0.079639">
        <ele>94.0</ele>
        <time>2014-07-06T15:38:19Z</time>
      </trkpt>
      <trkpt lat="51.014558" lon="-0.079847">
        <ele>96.0</ele>
        <time>2014-07-06T15:38:23Z</time>
      </trkpt>
      <trkpt lat="51.014283" lon="-0.080073">
        <ele>96.0</ele>
        <time>2014-07-06T15:38:28Z</time>
      </trkpt>
      <trkpt lat="51.01405" lon="-0.080254">
        <ele>93.0</ele>
        <time>2014-07-06T15:38:32Z</time>
      </trkpt>
      <trkpt lat="51.013735" lon="-0.080504">
        <ele>91.0</ele>
        <time>2014-07-06T15:38:37Z</time>
      </trkpt>
      <trkpt lat="51.013466" lon="-0.08073">
        <ele>91.0</ele>
        <time>2014-07-06T15:38:41Z</time>
      </trkpt>
      <trkpt lat="51.013218" lon="-0.080945">
        <ele>90.0</ele>
        <time>2014-07-06T15:38:45Z</time>
      </trkpt>
      <trkpt lat="51.012968" lon="-0.081089">
        <ele>90.0</ele>
        <time>2014-07-06T15:38:49Z</time>
      </trkpt>
      <trkpt lat="51.012654" lon="-0.081246">
        <ele>91.0</ele>
        <time>2014-07-06T15:38:53Z</time>
      </trkpt>
      <trkpt lat="51.012411" lon="-0.081363">
        <ele>86.0</ele>
        <time>2014-07-06T15:38:57Z</time>
      </trkpt>
      <trkpt lat="51.012069" lon="-0.081469">
        <ele>86.0</ele>
        <time>2014-07-06T15:39:02Z</time>
      </trkpt>
      <trkpt lat="51.011782" lon="-0.081544">
        <ele>83.0</ele>
        <time>2014-07-06T15:39:06Z</time>
      </trkpt>
      <trkpt lat="51.011414" lon="-0.081488">
        <ele>82.0</ele>
        <time>2014-07-06T15:39:11Z</time>
      </trkpt>
      <trkpt lat="51.011146" lon="-0.081477">
        <ele>82.0</ele>
        <time>2014-07-06T15:39:15Z</time>
      </trkpt>
      <trkpt lat="51.010912" lon="-0.081624">
        <ele>82.0</ele>
        <time>2014-07-06T15:39:19Z</time>
      </trkpt>
      <trkpt lat="51.010609" lon="-0.081868">
        <ele>82.0</ele>
        <time>2014-07-06T15:39:24Z</time>
      </trkpt>
      <trkpt lat="51.010422" lon="-0.082115">
        <ele>83.0</ele>
        <time>2014-07-06T15:39:28Z</time>
      </trkpt>
      <trkpt lat="51.010273" lon="-0.082414">
        <ele>84.0</ele>
        <time>2014-07-06T15:39:33Z</time>
      </trkpt>
      <trkpt lat="51.010194" lon="-0.082643">
        <ele>84.0</ele>
        <time>2014-07-06T15:39:37Z</time>
      </trkpt>
      <trkpt lat="51.01015" lon="-0.082931">
        <ele>83.0</ele>
        <time>2014-07-06T15:39:42Z</time>
      </trkpt>
      <trkpt lat="51.010197" lon="-0.083197">
        <ele>83.0</ele>
        <time>2014-07-06T15:39:46Z</time>
      </trkpt>
      <trkpt lat="51.010267" lon="-0.083449">
        <ele>87.0</ele>
        <time>2014-07-06T15:39:50Z</time>
      </trkpt>
      <trkpt lat="51.010369" lon="-0.083731">
        <ele>89.0</ele>
        <time>2014-07-06T15:39:55Z</time>
      </trkpt>
      <trkpt lat="51.010445" lon="-0.083909">
        <ele>88.0</ele>
        <time>2014-07-06T15:39:59Z</time>
      </trkpt>
      <trkpt lat="51.010516" lon="-0.084113">
        <ele>86.0</ele>
        <time>2014-07-06T15:40:03Z</time>
      </trkpt>
      <trkpt lat="51.010602" lon="-0.084282">
        <ele>88.0</ele>
        <time>2014-07-06T15:40:07Z</time>
      </trkpt>
      <trkpt lat="51.010713" lon="-0.084448">
        <ele>90.0</ele>
        <time>2014-07-06T15:40:11Z</time>
      </trkpt>
      <trkpt lat="51.01081" lon="-0.084648">
        <ele>90.0</ele>
        <time>2014-07-06T15:40:15Z</time>
      </trkpt>
      <trkpt lat="51.010903" lon="-0.084826">
        <ele>90.0</ele>
        <time>2014-07-06T15:40:19Z</time>
      </trkpt>
      <trkpt lat="51.011004" lon="-0.085002">
        <ele>88.0</ele>
        <time>2014-07-06T15:40:23Z</time>
      </trkpt>
      <trkpt lat="51.011116" lon="-0.085172">
        <ele>90.0</ele>
        <time>2014-07-06T15:40:27Z</time>
      </trkpt>
      <trkpt lat="51.011238" lon="-0.085322">
        <ele>95.0</ele>
        <time>2014-07-06T15:40:31Z</time>
      </trkpt>
      <trkpt lat="51.011403" lon="-0.085496">
        <ele>95.0</ele>
        <time>2014-07-06T15:40:36Z</time>
      </trkpt>
      <trkpt lat="51.011614" lon="-0.085721">
        <ele>94.0</ele>
        <time>2014-07-06T15:40:41Z</time>
      </trkpt>
      <trkpt lat="51.011755" lon="-0.085988">
        <ele>93.0</ele>
        <time>2014-07-06T15:40:45Z</time>
      </trkpt>
      <trkpt lat="51.011834" lon="-0.086431">
        <ele>89.0</ele>
        <time>2014-07-06T15:40:49Z</time>
      </trkpt>
      <trkpt lat="51.01177" lon="-0.087077">
        <ele>87.0</ele>
        <time>2014-07-06T15:40:53Z</time>
      </trkpt>
      <trkpt lat="51.01166" lon="-0.087773">
        <ele>86.0</ele>
        <time>2014-07-06T15:40:58Z</time>
      </trkpt>
      <trkpt lat="51.011443" lon="-0.088383">
        <ele>88.0</ele>
        <time>2014-07-06T15:41:03Z</time>
      </trkpt>
      <trkpt lat="51.011241" lon="-0.088857">
        <ele>89.0</ele>
        <time>2014-07-06T15:41:07Z</time>
      </trkpt>
      <trkpt lat="51.010978" lon="-0.089366">
        <ele>85.0</ele>
        <time>2014-07-06T15:41:12Z</time>
      </trkpt>
      <trkpt lat="51.010768" lon="-0.0898">
        <ele>85.0</ele>
        <time>2014-07-06T15:41:17Z</time>
      </trkpt>
      <trkpt lat="51.010605" lon="-0.09011">
        <ele>87.0</ele>
        <time>2014-07-06T15:41:21Z</time>
      </trkpt>
      <trkpt lat="51.010396" lon="-0.090468">
        <ele>89.0</ele>
        <time>2014-07-06T15:41:26Z</time>
      </trkpt>
      <trkpt lat="51.010221" lon="-0.090741">
        <ele>89.0</ele>
        <time>2014-07-06T15:41:30Z</time>
      </trkpt>
      <trkpt lat="51.010066" lon="-0.091075">
        <ele>90.0</ele>
        <time>2014-07-06T15:41:35Z</time>
      </trkpt>
      <trkpt lat="51.009921" lon="-0.091303">
        <ele>91.0</ele>
        <time>2014-07-06T15:41:39Z</time>
      </trkpt>
      <trkpt lat="51.009781" lon="-0.091554">
        <ele>89.0</ele>
        <time>2014-07-06T15:41:43Z</time>
      </trkpt>
      <trkpt lat="51.00966" lon="-0.091784">
        <ele>89.0</ele>
        <time>2014-07-06T15:41:47Z</time>
      </trkpt>
      <trkpt lat="51.009479" lon="-0.092003">
        <ele>90.0</ele>
        <time>2014-07-06T15:41:51Z</time>
      </trkpt>
      <trkpt lat="51.009302" lon="-0.092261">
        <ele>93.0</ele>
        <time>2014-07-06T15:41:55Z</time>
      </trkpt>
      <trkpt lat="51.009103" lon="-0.092622">
        <ele>95.0</ele>
        <time>2014-07-06T15:42:00Z</time>
      </trkpt>
      <trkpt lat="51.008856" lon="-0.093072">
        <ele>90.0</ele>
        <time>2014-07-06T15:42:05Z</time>
      </trkpt>
      <trkpt lat="51.008606" lon="-0.093469">
        <ele>89.0</ele>
        <time>2014-07-06T15:42:10Z</time>
      </trkpt>
      <trkpt lat="51.008414" lon="-0.093792">
        <ele>87.0</ele>
        <time>2014-07-06T15:42:14Z</time>
      </trkpt>
      <trkpt lat="51.008246" lon="-0.094123">
        <ele>89.0</ele>
        <time>2014-07-06T15:42:18Z</time>
      </trkpt>
      <trkpt lat="51.008072" lon="-0.094424">
        <ele>88.0</ele>
        <time>2014-07-06T15:42:23Z</time>
      </trkpt>
      <trkpt lat="51.007968" lon="-0.094605">
        <ele>87.0</ele>
        <time>2014-07-06T15:42:27Z</time>
      </trkpt>
      <trkpt lat="51.007929" lon="-0.094698">
        <ele>88.0</ele>
        <time>2014-07-06T15:42:37Z</time>
      </trkpt>
      <trkpt lat="51.007882" lon="-0.094802">
        <ele>88.0</ele>
        <time>2014-07-06T15:42:41Z</time>
      </trkpt>
      <trkpt lat="51.007783" lon="-0.094986">
        <ele>86.0</ele>
        <time>2014-07-06T15:42:45Z</time>
      </trkpt>
      <trkpt lat="51.007649" lon="-0.095175">
        <ele>86.0</ele>
        <time>2014-07-06T15:42:49Z</time>
      </trkpt>
      <trkpt lat="51.007486" lon="-0.095339">
        <ele>86.0</ele>
        <time>2014-07-06T15:42:53Z</time>
      </trkpt>
      <trkpt lat="51.00729" lon="-0.095513">
        <ele>85.0</ele>
        <time>2014-07-06T15:42:57Z</time>
      </trkpt>
      <trkpt lat="51.007079" lon="-0.095687">
        <ele>85.0</ele>
        <time>2014-07-06T15:43:02Z</time>
      </trkpt>
      <trkpt lat="51.006922" lon="-0.095849">
        <ele>86.0</ele>
        <time>2014-07-06T15:43:06Z</time>
      </trkpt>
      <trkpt lat="51.006748" lon="-0.096017">
        <ele>87.0</ele>
        <time>2014-07-06T15:43:11Z</time>
      </trkpt>
      <trkpt lat="51.006603" lon="-0.096108">
        <ele>87.0</ele>
        <time>2014-07-06T15:43:15Z</time>
      </trkpt>
      <trkpt lat="51.006451" lon="-0.0962">
        <ele>89.0</ele>
        <time>2014-07-06T15:43:20Z</time>
      </trkpt>
      <trkpt lat="51.006345" lon="-0.096275">
        <ele>92.0</ele>
        <time>2014-07-06T15:43:24Z</time>
      </trkpt>
      <trkpt lat="51.006275" lon="-0.096355">
        <ele>94.0</ele>
        <time>2014-07-06T15:43:29Z</time>
      </trkpt>
      <trkpt lat="51.006206" lon="-0.096427">
        <ele>97.0</ele>
        <time>2014-07-06T15:43:35Z</time>
      </trkpt>
      <trkpt lat="51.006091" lon="-0.096524">
        <ele>97.0</ele>
        <time>2014-07-06T15:43:40Z</time>
      </trkpt>
      <trkpt lat="51.005965" lon="-0.096618">
        <ele>94.0</ele>
        <time>2014-07-06T15:43:45Z</time>
      </trkpt>
      <trkpt lat="51.005859" lon="-0.096706">
        <ele>92.0</ele>
        <time>2014-07-06T15:43:49Z</time>
      </trkpt>
      <trkpt lat="51.005741" lon="-0.096793">
        <ele>94.0</ele>
        <time>2014-07-06T15:43:53Z</time>
      </trkpt>
      <trkpt lat="51.005605" lon="-0.096912">
        <ele>95.0</ele>
        <time>2014-07-06T15:43:58Z</time>
      </trkpt>
      <trkpt lat="51.005481" lon="-0.097008">
        <ele>96.0</ele>
        <time>2014-07-06T15:44:02Z</time>
      </trkpt>
      <trkpt lat="51.005328" lon="-0.097123">
        <ele>97.0</ele>
        <time>2014-07-06T15:44:07Z</time>
      </trkpt>
      <trkpt lat="51.005216" lon="-0.097222">
        <ele>97.0</ele>
        <time>2014-07-06T15:44:11Z</time>
      </trkpt>
      <trkpt lat="51.005105" lon="-0.097316">
        <ele>99.0</ele>
        <time>2014-07-06T15:44:15Z</time>
      </trkpt>
      <trkpt lat="51.004998" lon="-0.097396">
        <ele>99.0</ele>
        <time>2014-07-06T15:44:19Z</time>
      </trkpt>
      <trkpt lat="51.004909" lon="-0.097495">
        <ele>96.0</ele>
        <time>2014-07-06T15:44:24Z</time>
      </trkpt>
      <trkpt lat="51.004796" lon="-0.097576">
        <ele>98.0</ele>
        <time>2014-07-06T15:44:29Z</time>
      </trkpt>
      <trkpt lat="51.004711" lon="-0.097645">
        <ele>96.0</ele>
        <time>2014-07-06T15:44:33Z</time>
      </trkpt>
      <trkpt lat="51.004624" lon="-0.097734">
        <ele>100.0</ele>
        <time>2014-07-06T15:44:37Z</time>
      </trkpt>
      <trkpt lat="51.004521" lon="-0.09781">
        <ele>99.0</ele>
        <time>2014-07-06T15:44:41Z</time>
      </trkpt>
      <trkpt lat="51.004385" lon="-0.097881">
        <ele>102.0</ele>
        <time>2014-07-06T15:44:46Z</time>
      </trkpt>
      <trkpt lat="51.004265" lon="-0.097994">
        <ele>104.0</ele>
        <time>2014-07-06T15:44:50Z</time>
      </trkpt>
      <trkpt lat="51.004122" lon="-0.098121">
        <ele>104.0</ele>
        <time>2014-07-06T15:44:55Z</time>
      </trkpt>
      <trkpt lat="51.003981" lon="-0.098226">
        <ele>105.0</ele>
        <time>2014-07-06T15:44:59Z</time>
      </trkpt>
      <trkpt lat="51.003824" lon="-0.098363">
        <ele>104.0</ele>
        <time>2014-07-06T15:45:04Z</time>
      </trkpt>
      <trkpt lat="51.003685" lon="-0.098505">
        <ele>104.0</ele>
        <time>2014-07-06T15:45:09Z</time>
      </trkpt>
      <trkpt lat="51.003564" lon="-0.098614">
        <ele>106.0</ele>
        <time>2014-07-06T15:45:13Z</time>
      </trkpt>
      <trkpt lat="51.003438" lon="-0.098739">
        <ele>105.0</ele>
        <time>2014-07-06T15:45:17Z</time>
      </trkpt>
      <trkpt lat="51.003254" lon="-0.098852">
        <ele>105.0</ele>
        <time>2014-07-06T15:45:22Z</time>
      </trkpt>
      <trkpt lat="51.003052" lon="-0.098991">
        <ele>107.0</ele>
        <time>2014-07-06T15:45:27Z</time>
      </trkpt>
      <trkpt lat="51.0029" lon="-0.099106">
        <ele>108.0</ele>
        <time>2014-07-06T15:45:31Z</time>
      </trkpt>
      <trkpt lat="51.002714" lon="-0.099255">
        <ele>109.0</ele>
        <time>2014-07-06T15:45:36Z</time>
      </trkpt>
      <trkpt lat="51.002562" lon="-0.099373">
        <ele>109.0</ele>
        <time>2014-07-06T15:45:40Z</time>
      </trkpt>
      <trkpt lat="51.002379" lon="-0.099521">
        <ele>111.0</ele>
        <time>2014-07-06T15:45:45Z</time>
      </trkpt>
      <trkpt lat="51.002262" lon="-0.099634">
        <ele>113.0</ele>
        <time>2014-07-06T15:45:49Z</time>
      </trkpt>
      <trkpt lat="51.002147" lon="-0.099755">
        <ele>114.0</ele>
        <time>2014-07-06T15:45:54Z</time>
      </trkpt>
      <trkpt lat="51.002074" lon="-0.099845">
        <ele>113.0</ele>
        <time>2014-07-06T15:45:58Z</time>
      </trkpt>
      <trkpt lat="51.001983" lon="-0.099935">
        <ele>114.0</ele>
        <time>2014-07-06T15:46:02Z</time>
      </trkpt>
      <trkpt lat="51.001844" lon="-0.100032">
        <ele>115.0</ele>
        <time>2014-07-06T15:46:07Z</time>
      </trkpt>
      <trkpt lat="51.001734" lon="-0.100114">
        <ele>114.0</ele>
        <time>2014-07-06T15:46:11Z</time>
      </trkpt>
      <trkpt lat="51.001577" lon="-0.10022">
        <ele>114.0</ele>
        <time>2014-07-06T15:46:16Z</time>
      </trkpt>
      <trkpt lat="51.001398" lon="-0.100341">
        <ele>115.0</ele>
        <time>2014-07-06T15:46:21Z</time>
      </trkpt>
      <trkpt lat="51.001267" lon="-0.100443">
        <ele>113.0</ele>
        <time>2014-07-06T15:46:25Z</time>
      </trkpt>
      <trkpt lat="51.001118" lon="-0.100528">
        <ele>114.0</ele>
        <time>2014-07-06T15:46:29Z</time>
      </trkpt>
      <trkpt lat="51.000949" lon="-0.100616">
        <ele>114.0</ele>
        <time>2014-07-06T15:46:34Z</time>
      </trkpt>
      <trkpt lat="51.000832" lon="-0.100683">
        <ele>115.0</ele>
        <time>2014-07-06T15:46:38Z</time>
      </trkpt>
      <trkpt lat="51.000679" lon="-0.100755">
        <ele>118.0</ele>
        <time>2014-07-06T15:46:43Z</time>
      </trkpt>
      <trkpt lat="51.00055" lon="-0.100807">
        <ele>120.0</ele>
        <time>2014-07-06T15:46:47Z</time>
      </trkpt>
      <trkpt lat="51.000391" lon="-0.100865">
        <ele>118.0</ele>
        <time>2014-07-06T15:46:52Z</time>
      </trkpt>
      <trkpt lat="51.00024" lon="-0.100906">
        <ele>119.0</ele>
        <time>2014-07-06T15:46:57Z</time>
      </trkpt>
      <trkpt lat="51.00012" lon="-0.100937">
        <ele>121.0</ele>
        <time>2014-07-06T15:47:01Z</time>
      </trkpt>
      <trkpt lat="50.999991" lon="-0.100969">
        <ele>123.0</ele>
        <time>2014-07-06T15:47:05Z</time>
      </trkpt>
      <trkpt lat="50.999865" lon="-0.101">
        <ele>124.0</ele>
        <time>2014-07-06T15:47:09Z</time>
      </trkpt>
      <trkpt lat="50.999739" lon="-0.101015">
        <ele>125.0</ele>
        <time>2014-07-06T15:47:13Z</time>
      </trkpt>
      <trkpt lat="50.999585" lon="-0.10103">
        <ele>125.0</ele>
        <time>2014-07-06T15:47:18Z</time>
      </trkpt>
      <trkpt lat="50.999477" lon="-0.101038">
        <ele>125.0</ele>
        <time>2014-07-06T15:47:22Z</time>
      </trkpt>
      <trkpt lat="50.999363" lon="-0.101058">
        <ele>130.0</ele>
        <time>2014-07-06T15:47:26Z</time>
      </trkpt>
      <trkpt lat="50.999244" lon="-0.101053">
        <ele>130.0</ele>
        <time>2014-07-06T15:47:30Z</time>
      </trkpt>
      <trkpt lat="50.999123" lon="-0.101032">
        <ele>131.0</ele>
        <time>2014-07-06T15:47:34Z</time>
      </trkpt>
      <trkpt lat="50.999001" lon="-0.10101">
        <ele>131.0</ele>
        <time>2014-07-06T15:47:38Z</time>
      </trkpt>
      <trkpt lat="50.998825" lon="-0.100981">
        <ele>132.0</ele>
        <time>2014-07-06T15:47:43Z</time>
      </trkpt>
      <trkpt lat="50.998622" lon="-0.100943">
        <ele>131.0</ele>
        <time>2014-07-06T15:47:48Z</time>
      </trkpt>
      <trkpt lat="50.998421" lon="-0.100894">
        <ele>131.0</ele>
        <time>2014-07-06T15:47:52Z</time>
      </trkpt>
      <trkpt lat="50.998206" lon="-0.10086">
        <ele>127.0</ele>
        <time>2014-07-06T15:47:56Z</time>
      </trkpt>
      <trkpt lat="50.997939" lon="-0.10082">
        <ele>126.0</ele>
        <time>2014-07-06T15:48:00Z</time>
      </trkpt>
      <trkpt lat="50.997593" lon="-0.100829">
        <ele>125.0</ele>
        <time>2014-07-06T15:48:05Z</time>
      </trkpt>
      <trkpt lat="50.997375" lon="-0.100791">
        <ele>124.0</ele>
        <time>2014-07-06T15:48:09Z</time>
      </trkpt>
      <trkpt lat="50.997053" lon="-0.10073">
        <ele>123.0</ele>
        <time>2014-07-06T15:48:14Z</time>
      </trkpt>
      <trkpt lat="50.99681" lon="-0.100667">
        <ele>123.0</ele>
        <time>2014-07-06T15:48:18Z</time>
      </trkpt>
      <trkpt lat="50.996475" lon="-0.100617">
        <ele>124.0</ele>
        <time>2014-07-06T15:48:23Z</time>
      </trkpt>
      <trkpt lat="50.996255" lon="-0.100531">
        <ele>123.0</ele>
        <time>2014-07-06T15:48:27Z</time>
      </trkpt>
      <trkpt lat="50.996002" lon="-0.100307">
        <ele>121.0</ele>
        <time>2014-07-06T15:48:32Z</time>
      </trkpt>
      <trkpt lat="50.99574" lon="-0.100125">
        <ele>119.0</ele>
        <time>2014-07-06T15:48:37Z</time>
      </trkpt>
      <trkpt lat="50.995588" lon="-0.100295">
        <ele>118.0</ele>
        <time>2014-07-06T15:48:41Z</time>
      </trkpt>
      <trkpt lat="50.995416" lon="-0.100464">
        <ele>118.0</ele>
        <time>2014-07-06T15:48:45Z</time>
      </trkpt>
      <trkpt lat="50.995155" lon="-0.100424">
        <ele>119.0</ele>
        <time>2014-07-06T15:48:50Z</time>
      </trkpt>
      <trkpt lat="50.994875" lon="-0.100428">
        <ele>122.0</ele>
        <time>2014-07-06T15:48:55Z</time>
      </trkpt>
      <trkpt lat="50.994577" lon="-0.10039">
        <ele>121.0</ele>
        <time>2014-07-06T15:49:00Z</time>
      </trkpt>
      <trkpt lat="50.994328" lon="-0.100352">
        <ele>121.0</ele>
        <time>2014-07-06T15:49:04Z</time>
      </trkpt>
      <trkpt lat="50.994066" lon="-0.100354">
        <ele>125.0</ele>
        <time>2014-07-06T15:49:08Z</time>
      </trkpt>
      <trkpt lat="50.993811" lon="-0.100334">
        <ele>122.0</ele>
        <time>2014-07-06T15:49:12Z</time>
      </trkpt>
      <trkpt lat="50.993544" lon="-0.100212">
        <ele>123.0</ele>
        <time>2014-07-06T15:49:16Z</time>
      </trkpt>
      <trkpt lat="50.993185" lon="-0.100197">
        <ele>121.0</ele>
        <time>2014-07-06T15:49:21Z</time>
      </trkpt>
      <trkpt lat="50.992833" lon="-0.100142">
        <ele>117.0</ele>
        <time>2014-07-06T15:49:25Z</time>
      </trkpt>
      <trkpt lat="50.992344" lon="-0.100072">
        <ele>115.0</ele>
        <time>2014-07-06T15:49:30Z</time>
      </trkpt>
      <trkpt lat="50.991985" lon="-0.100042">
        <ele>116.0</ele>
        <time>2014-07-06T15:49:34Z</time>
      </trkpt>
      <trkpt lat="50.991601" lon="-0.100025">
        <ele>117.0</ele>
        <time>2014-07-06T15:49:39Z</time>
      </trkpt>
      <trkpt lat="50.991362" lon="-0.100053">
        <ele>116.0</ele>
        <time>2014-07-06T15:49:43Z</time>
      </trkpt>
      <trkpt lat="50.991167" lon="-0.10007">
        <ele>119.0</ele>
        <time>2014-07-06T15:49:47Z</time>
      </trkpt>
      <trkpt lat="50.991001" lon="-0.100109">
        <ele>120.0</ele>
        <time>2014-07-06T15:49:51Z</time>
      </trkpt>
      <trkpt lat="50.990793" lon="-0.100177">
        <ele>120.0</ele>
        <time>2014-07-06T15:49:56Z</time>
      </trkpt>
      <trkpt lat="50.990633" lon="-0.100254">
        <ele>119.0</ele>
        <time>2014-07-06T15:50:00Z</time>
      </trkpt>
      <trkpt lat="50.990442" lon="-0.100318">
        <ele>121.0</ele>
        <time>2014-07-06T15:50:04Z</time>
      </trkpt>
      <trkpt lat="50.99023" lon="-0.100397">
        <ele>122.0</ele>
        <time>2014-07-06T15:50:08Z</time>
      </trkpt>
      <trkpt lat="50.98994" lon="-0.100519">
        <ele>120.0</ele>
        <time>2014-07-06T15:50:13Z</time>
      </trkpt>
      <trkpt lat="50.989661" lon="-0.100632">
        <ele>120.0</ele>
        <time>2014-07-06T15:50:18Z</time>
      </trkpt>
      <trkpt lat="50.989434" lon="-0.100681">
        <ele>122.0</ele>
        <time>2014-07-06T15:50:22Z</time>
      </trkpt>
      <trkpt lat="50.98922" lon="-0.100762">
        <ele>119.0</ele>
        <time>2014-07-06T15:50:26Z</time>
      </trkpt>
      <trkpt lat="50.989025" lon="-0.100787">
        <ele>119.0</ele>
        <time>2014-07-06T15:50:30Z</time>
      </trkpt>
      <trkpt lat="50.988789" lon="-0.100857">
        <ele>119.0</ele>
        <time>2014-07-06T15:50:35Z</time>
      </trkpt>
      <trkpt lat="50.988554" lon="-0.100894">
        <ele>118.0</ele>
        <time>2014-07-06T15:50:40Z</time>
      </trkpt>
      <trkpt lat="50.988297" lon="-0.100979">
        <ele>120.0</ele>
        <time>2014-07-06T15:50:45Z</time>
      </trkpt>
      <trkpt lat="50.988117" lon="-0.101003">
        <ele>122.0</ele>
        <time>2014-07-06T15:50:49Z</time>
      </trkpt>
      <trkpt lat="50.987943" lon="-0.101071">
        <ele>123.0</ele>
        <time>2014-07-06T15:50:53Z</time>
      </trkpt>
      <trkpt lat="50.987797" lon="-0.100941">
        <ele>124.0</ele>
        <time>2014-07-06T15:50:57Z</time>
      </trkpt>
      <trkpt lat="50.987688" lon="-0.100696">
        <ele>122.0</ele>
        <time>2014-07-06T15:51:01Z</time>
      </trkpt>
      <trkpt lat="50.987495" lon="-0.100707">
        <ele>122.0</ele>
        <time>2014-07-06T15:51:05Z</time>
      </trkpt>
      <trkpt lat="50.987273" lon="-0.10094">
        <ele>123.0</ele>
        <time>2014-07-06T15:51:10Z</time>
      </trkpt>
      <trkpt lat="50.987012" lon="-0.101083">
        <ele>119.0</ele>
        <time>2014-07-06T15:51:14Z</time>
      </trkpt>
      <trkpt lat="50.986703" lon="-0.100971">
        <ele>120.0</ele>
        <time>2014-07-06T15:51:18Z</time>
      </trkpt>
      <trkpt lat="50.986303" lon="-0.100826">
        <ele>118.0</ele>
        <time>2014-07-06T15:51:23Z</time>
      </trkpt>
      <trkpt lat="50.985932" lon="-0.100546">
        <ele>116.0</ele>
        <time>2014-07-06T15:51:28Z</time>
      </trkpt>
      <trkpt lat="50.985622" lon="-0.100309">
        <ele>114.0</ele>
        <time>2014-07-06T15:51:32Z</time>
      </trkpt>
      <trkpt lat="50.985285" lon="-0.100016">
        <ele>114.0</ele>
        <time>2014-07-06T15:51:36Z</time>
      </trkpt>
      <trkpt lat="50.984809" lon="-0.099618">
        <ele>114.0</ele>
        <time>2014-07-06T15:51:41Z</time>
      </trkpt>
      <trkpt lat="50.984427" lon="-0.099274">
        <ele>116.0</ele>
        <time>2014-07-06T15:51:45Z</time>
      </trkpt>
      <trkpt lat="50.984036" lon="-0.098975">
        <ele>114.0</ele>
        <time>2014-07-06T15:51:49Z</time>
      </trkpt>
      <trkpt lat="50.983576" lon="-0.098488">
        <ele>103.0</ele>
        <time>2014-07-06T15:51:54Z</time>
      </trkpt>
      <trkpt lat="50.983022" lon="-0.098075">
        <ele>98.0</ele>
        <time>2014-07-06T15:51:59Z</time>
      </trkpt>
      <trkpt lat="50.982552" lon="-0.097691">
        <ele>95.0</ele>
        <time>2014-07-06T15:52:03Z</time>
      </trkpt>
      <trkpt lat="50.982101" lon="-0.097338">
        <ele>93.0</ele>
        <time>2014-07-06T15:52:07Z</time>
      </trkpt>
      <trkpt lat="50.981652" lon="-0.096875">
        <ele>87.0</ele>
        <time>2014-07-06T15:52:12Z</time>
      </trkpt>
      <trkpt lat="50.981278" lon="-0.096543">
        <ele>85.0</ele>
        <time>2014-07-06T15:52:16Z</time>
      </trkpt>
      <trkpt lat="50.980925" lon="-0.096259">
        <ele>84.0</ele>
        <time>2014-07-06T15:52:20Z</time>
      </trkpt>
      <trkpt lat="50.980567" lon="-0.095995">
        <ele>80.0</ele>
        <time>2014-07-06T15:52:24Z</time>
      </trkpt>
      <trkpt lat="50.980204" lon="-0.095719">
        <ele>85.0</ele>
        <time>2014-07-06T15:52:28Z</time>
      </trkpt>
      <trkpt lat="50.979864" lon="-0.095458">
        <ele>84.0</ele>
        <time>2014-07-06T15:52:32Z</time>
      </trkpt>
      <trkpt lat="50.979536" lon="-0.095235">
        <ele>84.0</ele>
        <time>2014-07-06T15:52:36Z</time>
      </trkpt>
      <trkpt lat="50.979118" lon="-0.094926">
        <ele>82.0</ele>
        <time>2014-07-06T15:52:41Z</time>
      </trkpt>
      <trkpt lat="50.978815" lon="-0.094741">
        <ele>83.0</ele>
        <time>2014-07-06T15:52:45Z</time>
      </trkpt>
      <trkpt lat="50.97864" lon="-0.094635">
        <ele>82.0</ele>
        <time>2014-07-06T15:52:49Z</time>
      </trkpt>
      <trkpt lat="50.978395" lon="-0.094458">
        <ele>82.0</ele>
        <time>2014-07-06T15:52:54Z</time>
      </trkpt>
      <trkpt lat="50.978222" lon="-0.094332">
        <ele>87.0</ele>
        <time>2014-07-06T15:52:58Z</time>
      </trkpt>
      <trkpt lat="50.977955" lon="-0.094198">
        <ele>88.0</ele>
        <time>2014-07-06T15:53:03Z</time>
      </trkpt>
      <trkpt lat="50.977798" lon="-0.094077">
        <ele>87.0</ele>
        <time>2014-07-06T15:53:07Z</time>
      </trkpt>
      <trkpt lat="50.977633" lon="-0.09396">
        <ele>88.0</ele>
        <time>2014-07-06T15:53:12Z</time>
      </trkpt>
      <trkpt lat="50.97745" lon="-0.093876">
        <ele>93.0</ele>
        <time>2014-07-06T15:53:16Z</time>
      </trkpt>
      <trkpt lat="50.977224" lon="-0.093722">
        <ele>89.0</ele>
        <time>2014-07-06T15:53:21Z</time>
      </trkpt>
      <trkpt lat="50.977013" lon="-0.093612">
        <ele>89.0</ele>
        <time>2014-07-06T15:53:25Z</time>
      </trkpt>
      <trkpt lat="50.976732" lon="-0.093414">
        <ele>89.0</ele>
        <time>2014-07-06T15:53:30Z</time>
      </trkpt>
      <trkpt lat="50.976381" lon="-0.093194">
        <ele>86.0</ele>
        <time>2014-07-06T15:53:34Z</time>
      </trkpt>
      <trkpt lat="50.976013" lon="-0.092948">
        <ele>84.0</ele>
        <time>2014-07-06T15:53:39Z</time>
      </trkpt>
      <trkpt lat="50.975694" lon="-0.092797">
        <ele>84.0</ele>
        <time>2014-07-06T15:53:43Z</time>
      </trkpt>
      <trkpt lat="50.975399" lon="-0.092626">
        <ele>83.0</ele>
        <time>2014-07-06T15:53:47Z</time>
      </trkpt>
      <trkpt lat="50.975089" lon="-0.092489">
        <ele>82.0</ele>
        <time>2014-07-06T15:53:51Z</time>
      </trkpt>
      <trkpt lat="50.974782" lon="-0.092366">
        <ele>82.0</ele>
        <time>2014-07-06T15:53:55Z</time>
      </trkpt>
      <trkpt lat="50.974496" lon="-0.092246">
        <ele>82.0</ele>
        <time>2014-07-06T15:53:59Z</time>
      </trkpt>
      <trkpt lat="50.974202" lon="-0.092131">
        <ele>82.0</ele>
        <time>2014-07-06T15:54:03Z</time>
      </trkpt>
      <trkpt lat="50.973939" lon="-0.091997">
        <ele>82.0</ele>
        <time>2014-07-06T15:54:07Z</time>
      </trkpt>
      <trkpt lat="50.973592" lon="-0.091903">
        <ele>82.0</ele>
        <time>2014-07-06T15:54:12Z</time>
      </trkpt>
      <trkpt lat="50.973301" lon="-0.091807">
        <ele>83.0</ele>
        <time>2014-07-06T15:54:16Z</time>
      </trkpt>
      <trkpt lat="50.972988" lon="-0.091698">
        <ele>82.0</ele>
        <time>2014-07-06T15:54:21Z</time>
      </trkpt>
      <trkpt lat="50.972736" lon="-0.09163">
        <ele>81.0</ele>
        <time>2014-07-06T15:54:25Z</time>
      </trkpt>
      <trkpt lat="50.97249" lon="-0.091571">
        <ele>82.0</ele>
        <time>2014-07-06T15:54:29Z</time>
      </trkpt>
      <trkpt lat="50.972253" lon="-0.09148">
        <ele>83.0</ele>
        <time>2014-07-06T15:54:33Z</time>
      </trkpt>
      <trkpt lat="50.971981" lon="-0.09138">
        <ele>84.0</ele>
        <time>2014-07-06T15:54:38Z</time>
      </trkpt>
      <trkpt lat="50.971755" lon="-0.091328">
        <ele>84.0</ele>
        <time>2014-07-06T15:54:43Z</time>
      </trkpt>
      <trkpt lat="50.971573" lon="-0.091244">
        <ele>84.0</ele>
        <time>2014-07-06T15:54:47Z</time>
      </trkpt>
      <trkpt lat="50.971357" lon="-0.091212">
        <ele>86.0</ele>
        <time>2014-07-06T15:54:52Z</time>
      </trkpt>
      <trkpt lat="50.971185" lon="-0.091132">
        <ele>87.0</ele>
        <time>2014-07-06T15:54:56Z</time>
      </trkpt>
      <trkpt lat="50.97101" lon="-0.091103">
        <ele>87.0</ele>
        <time>2014-07-06T15:55:00Z</time>
      </trkpt>
      <trkpt lat="50.970807" lon="-0.091093">
        <ele>87.0</ele>
        <time>2014-07-06T15:55:05Z</time>
      </trkpt>
      <trkpt lat="50.970651" lon="-0.091072">
        <ele>87.0</ele>
        <time>2014-07-06T15:55:09Z</time>
      </trkpt>
      <trkpt lat="50.97045" lon="-0.091026">
        <ele>87.0</ele>
        <time>2014-07-06T15:55:14Z</time>
      </trkpt>
      <trkpt lat="50.970211" lon="-0.090975">
        <ele>88.0</ele>
        <time>2014-07-06T15:55:19Z</time>
      </trkpt>
      <trkpt lat="50.969982" lon="-0.090949">
        <ele>90.0</ele>
        <time>2014-07-06T15:55:23Z</time>
      </trkpt>
      <trkpt lat="50.969743" lon="-0.090925">
        <ele>89.0</ele>
        <time>2014-07-06T15:55:27Z</time>
      </trkpt>
      <trkpt lat="50.969484" lon="-0.090871">
        <ele>89.0</ele>
        <time>2014-07-06T15:55:31Z</time>
      </trkpt>
      <trkpt lat="50.969161" lon="-0.09087">
        <ele>88.0</ele>
        <time>2014-07-06T15:55:36Z</time>
      </trkpt>
      <trkpt lat="50.968892" lon="-0.090819">
        <ele>87.0</ele>
        <time>2014-07-06T15:55:40Z</time>
      </trkpt>
      <trkpt lat="50.968576" lon="-0.090749">
        <ele>85.0</ele>
        <time>2014-07-06T15:55:45Z</time>
      </trkpt>
      <trkpt lat="50.96826" lon="-0.090712">
        <ele>83.0</ele>
        <time>2014-07-06T15:55:50Z</time>
      </trkpt>
      <trkpt lat="50.967999" lon="-0.090751">
        <ele>81.0</ele>
        <time>2014-07-06T15:55:54Z</time>
      </trkpt>
      <trkpt lat="50.96765" lon="-0.090921">
        <ele>78.0</ele>
        <time>2014-07-06T15:55:59Z</time>
      </trkpt>
      <trkpt lat="50.96734" lon="-0.09109">
        <ele>80.0</ele>
        <time>2014-07-06T15:56:03Z</time>
      </trkpt>
      <trkpt lat="50.967079" lon="-0.091295">
        <ele>80.0</ele>
        <time>2014-07-06T15:56:07Z</time>
      </trkpt>
      <trkpt lat="50.966889" lon="-0.091417">
        <ele>80.0</ele>
        <time>2014-07-06T15:56:11Z</time>
      </trkpt>
      <trkpt lat="50.966633" lon="-0.091569">
        <ele>82.0</ele>
        <time>2014-07-06T15:56:15Z</time>
      </trkpt>
      <trkpt lat="50.96639" lon="-0.091683">
        <ele>83.0</ele>
        <time>2014-07-06T15:56:19Z</time>
      </trkpt>
      <trkpt lat="50.966093" lon="-0.091818">
        <ele>84.0</ele>
        <time>2014-07-06T15:56:24Z</time>
      </trkpt>
      <trkpt lat="50.96588" lon="-0.091946">
        <ele>81.0</ele>
        <time>2014-07-06T15:56:28Z</time>
      </trkpt>
      <trkpt lat="50.965663" lon="-0.092044">
        <ele>85.0</ele>
        <time>2014-07-06T15:56:32Z</time>
      </trkpt>
      <trkpt lat="50.965477" lon="-0.092155">
        <ele>81.0</ele>
        <time>2014-07-06T15:56:36Z</time>
      </trkpt>
      <trkpt lat="50.965208" lon="-0.092302">
        <ele>81.0</ele>
        <time>2014-07-06T15:56:41Z</time>
      </trkpt>
      <trkpt lat="50.964977" lon="-0.092425">
        <ele>81.0</ele>
        <time>2014-07-06T15:56:45Z</time>
      </trkpt>
      <trkpt lat="50.964741" lon="-0.092525">
        <ele>81.0</ele>
        <time>2014-07-06T15:56:49Z</time>
      </trkpt>
      <trkpt lat="50.964401" lon="-0.092656">
        <ele>81.0</ele>
        <time>2014-07-06T15:56:54Z</time>
      </trkpt>
      <trkpt lat="50.964168" lon="-0.092785">
        <ele>82.0</ele>
        <time>2014-07-06T15:56:58Z</time>
      </trkpt>
      <trkpt lat="50.963932" lon="-0.092922">
        <ele>80.0</ele>
        <time>2014-07-06T15:57:02Z</time>
      </trkpt>
      <trkpt lat="50.963635" lon="-0.093089">
        <ele>80.0</ele>
        <time>2014-07-06T15:57:07Z</time>
      </trkpt>
      <trkpt lat="50.963327" lon="-0.093258">
        <ele>80.0</ele>
        <time>2014-07-06T15:57:12Z</time>
      </trkpt>
      <trkpt lat="50.963079" lon="-0.093381">
        <ele>79.0</ele>
        <time>2014-07-06T15:57:16Z</time>
      </trkpt>
      <trkpt lat="50.962793" lon="-0.093517">
        <ele>80.0</ele>
        <time>2014-07-06T15:57:21Z</time>
      </trkpt>
      <trkpt lat="50.962553" lon="-0.093601">
        <ele>81.0</ele>
        <time>2014-07-06T15:57:25Z</time>
      </trkpt>
      <trkpt lat="50.962274" lon="-0.093731">
        <ele>82.0</ele>
        <time>2014-07-06T15:57:30Z</time>
      </trkpt>
      <trkpt lat="50.962017" lon="-0.093854">
        <ele>84.0</ele>
        <time>2014-07-06T15:57:35Z</time>
      </trkpt>
      <trkpt lat="50.961811" lon="-0.093952">
        <ele>84.0</ele>
        <time>2014-07-06T15:57:39Z</time>
      </trkpt>
      <trkpt lat="50.961537" lon="-0.094257">
        <ele>86.0</ele>
        <time>2014-07-06T15:57:44Z</time>
      </trkpt>
      <trkpt lat="50.96142" lon="-0.094526">
        <ele>89.0</ele>
        <time>2014-07-06T15:57:48Z</time>
      </trkpt>
      <trkpt lat="50.961395" lon="-0.094718">
        <ele>90.0</ele>
        <time>2014-07-06T15:57:53Z</time>
      </trkpt>
      <trkpt lat="50.961374" lon="-0.094834">
        <ele>88.0</ele>
        <time>2014-07-06T16:00:57Z</time>
      </trkpt>
      <trkpt lat="50.96135" lon="-0.094949">
        <ele>90.0</ele>
        <time>2014-07-06T16:01:03Z</time>
      </trkpt>
      <trkpt lat="50.961295" lon="-0.095121">
        <ele>86.0</ele>
        <time>2014-07-06T16:01:08Z</time>
      </trkpt>
      <trkpt lat="50.961185" lon="-0.095324">
        <ele>82.0</ele>
        <time>2014-07-06T16:01:12Z</time>
      </trkpt>
      <trkpt lat="50.960999" lon="-0.095624">
        <ele>80.0</ele>
        <time>2014-07-06T16:01:17Z</time>
      </trkpt>
      <trkpt lat="50.960852" lon="-0.095894">
        <ele>81.0</ele>
        <time>2014-07-06T16:01:21Z</time>
      </trkpt>
      <trkpt lat="50.960704" lon="-0.096183">
        <ele>81.0</ele>
        <time>2014-07-06T16:01:25Z</time>
      </trkpt>
      <trkpt lat="50.960562" lon="-0.096436">
        <ele>80.0</ele>
        <time>2014-07-06T16:01:29Z</time>
      </trkpt>
      <trkpt lat="50.960417" lon="-0.096817">
        <ele>80.0</ele>
        <time>2014-07-06T16:01:34Z</time>
      </trkpt>
      <trkpt lat="50.96028" lon="-0.097069">
        <ele>81.0</ele>
        <time>2014-07-06T16:01:38Z</time>
      </trkpt>
      <trkpt lat="50.960099" lon="-0.097351">
        <ele>80.0</ele>
        <time>2014-07-06T16:01:43Z</time>
      </trkpt>
      <trkpt lat="50.959927" lon="-0.097686">
        <ele>83.0</ele>
        <time>2014-07-06T16:01:48Z</time>
      </trkpt>
      <trkpt lat="50.959788" lon="-0.097939">
        <ele>83.0</ele>
        <time>2014-07-06T16:01:52Z</time>
      </trkpt>
      <trkpt lat="50.9596" lon="-0.098226">
        <ele>84.0</ele>
        <time>2014-07-06T16:01:57Z</time>
      </trkpt>
      <trkpt lat="50.959456" lon="-0.098482">
        <ele>83.0</ele>
        <time>2014-07-06T16:02:02Z</time>
      </trkpt>
      <trkpt lat="50.959317" lon="-0.098664">
        <ele>85.0</ele>
        <time>2014-07-06T16:02:06Z</time>
      </trkpt>
      <trkpt lat="50.959202" lon="-0.09883">
        <ele>83.0</ele>
        <time>2014-07-06T16:02:10Z</time>
      </trkpt>
      <trkpt lat="50.959064" lon="-0.09899">
        <ele>84.0</ele>
        <time>2014-07-06T16:02:14Z</time>
      </trkpt>
      <trkpt lat="50.95889" lon="-0.099177">
        <ele>84.0</ele>
        <time>2014-07-06T16:02:19Z</time>
      </trkpt>
      <trkpt lat="50.958773" lon="-0.099307">
        <ele>84.0</ele>
        <time>2014-07-06T16:02:23Z</time>
      </trkpt>
      <trkpt lat="50.958612" lon="-0.099466">
        <ele>84.0</ele>
        <time>2014-07-06T16:02:28Z</time>
      </trkpt>
      <trkpt lat="50.958446" lon="-0.099601">
        <ele>83.0</ele>
        <time>2014-07-06T16:02:32Z</time>
      </trkpt>
      <trkpt lat="50.958253" lon="-0.099738">
        <ele>84.0</ele>
        <time>2014-07-06T16:02:36Z</time>
      </trkpt>
      <trkpt lat="50.957986" lon="-0.099946">
        <ele>84.0</ele>
        <time>2014-07-06T16:02:41Z</time>
      </trkpt>
      <trkpt lat="50.957739" lon="-0.100093">
        <ele>83.0</ele>
        <time>2014-07-06T16:02:45Z</time>
      </trkpt>
      <trkpt lat="50.957478" lon="-0.100277">
        <ele>82.0</ele>
        <time>2014-07-06T16:02:49Z</time>
      </trkpt>
      <trkpt lat="50.957197" lon="-0.100439">
        <ele>81.0</ele>
        <time>2014-07-06T16:02:53Z</time>
      </trkpt>
      <trkpt lat="50.956866" lon="-0.100638">
        <ele>81.0</ele>
        <time>2014-07-06T16:02:58Z</time>
      </trkpt>
      <trkpt lat="50.956636" lon="-0.100796">
        <ele>83.0</ele>
        <time>2014-07-06T16:03:02Z</time>
      </trkpt>
      <trkpt lat="50.956427" lon="-0.100945">
        <ele>83.0</ele>
        <time>2014-07-06T16:03:06Z</time>
      </trkpt>
      <trkpt lat="50.956198" lon="-0.101151">
        <ele>85.0</ele>
        <time>2014-07-06T16:03:11Z</time>
      </trkpt>
      <trkpt lat="50.956008" lon="-0.101261">
        <ele>86.0</ele>
        <time>2014-07-06T16:03:15Z</time>
      </trkpt>
      <trkpt lat="50.955801" lon="-0.101437">
        <ele>90.0</ele>
        <time>2014-07-06T16:03:20Z</time>
      </trkpt>
      <trkpt lat="50.955623" lon="-0.101574">
        <ele>91.0</ele>
        <time>2014-07-06T16:03:25Z</time>
      </trkpt>
      <trkpt lat="50.955442" lon="-0.101614">
        <ele>89.0</ele>
        <time>2014-07-06T16:03:29Z</time>
      </trkpt>
      <trkpt lat="50.955284" lon="-0.101705">
        <ele>88.0</ele>
        <time>2014-07-06T16:03:33Z</time>
      </trkpt>
      <trkpt lat="50.955134" lon="-0.10178">
        <ele>89.0</ele>
        <time>2014-07-06T16:03:37Z</time>
      </trkpt>
      <trkpt lat="50.954972" lon="-0.101908">
        <ele>89.0</ele>
        <time>2014-07-06T16:03:42Z</time>
      </trkpt>
      <trkpt lat="50.954809" lon="-0.102029">
        <ele>90.0</ele>
        <time>2014-07-06T16:03:47Z</time>
      </trkpt>
      <trkpt lat="50.954681" lon="-0.102104">
        <ele>90.0</ele>
        <time>2014-07-06T16:03:51Z</time>
      </trkpt>
      <trkpt lat="50.95451" lon="-0.102215">
        <ele>92.0</ele>
        <time>2014-07-06T16:03:56Z</time>
      </trkpt>
      <trkpt lat="50.954368" lon="-0.102304">
        <ele>93.0</ele>
        <time>2014-07-06T16:04:00Z</time>
      </trkpt>
      <trkpt lat="50.954228" lon="-0.102383">
        <ele>93.0</ele>
        <time>2014-07-06T16:04:04Z</time>
      </trkpt>
      <trkpt lat="50.954123" lon="-0.102437">
        <ele>93.0</ele>
        <time>2014-07-06T16:04:07Z</time>
      </trkpt>
      <trkpt lat="50.953955" lon="-0.102531">
        <ele>95.0</ele>
        <time>2014-07-06T16:04:12Z</time>
      </trkpt>
      <trkpt lat="50.953819" lon="-0.102605">
        <ele>95.0</ele>
        <time>2014-07-06T16:04:16Z</time>
      </trkpt>
      <trkpt lat="50.953599" lon="-0.102693">
        <ele>94.0</ele>
        <time>2014-07-06T16:04:21Z</time>
      </trkpt>
      <trkpt lat="50.953329" lon="-0.102744">
        <ele>95.0</ele>
        <time>2014-07-06T16:04:25Z</time>
      </trkpt>
      <trkpt lat="50.952962" lon="-0.102796">
        <ele>91.0</ele>
        <time>2014-07-06T16:04:30Z</time>
      </trkpt>
      <trkpt lat="50.952591" lon="-0.10288">
        <ele>91.0</ele>
        <time>2014-07-06T16:04:34Z</time>
      </trkpt>
      <trkpt lat="50.952158" lon="-0.102912">
        <ele>90.0</ele>
        <time>2014-07-06T16:04:38Z</time>
      </trkpt>
      <trkpt lat="50.95178" lon="-0.102976">
        <ele>90.0</ele>
        <time>2014-07-06T16:04:42Z</time>
      </trkpt>
      <trkpt lat="50.951396" lon="-0.103031">
        <ele>90.0</ele>
        <time>2014-07-06T16:04:46Z</time>
      </trkpt>
      <trkpt lat="50.951012" lon="-0.103033">
        <ele>87.0</ele>
        <time>2014-07-06T16:04:51Z</time>
      </trkpt>
      <trkpt lat="50.950689" lon="-0.103063">
        <ele>85.0</ele>
        <time>2014-07-06T16:04:55Z</time>
      </trkpt>
      <trkpt lat="50.950383" lon="-0.103107">
        <ele>91.0</ele>
        <time>2014-07-06T16:04:59Z</time>
      </trkpt>
      <trkpt lat="50.950119" lon="-0.103153">
        <ele>93.0</ele>
        <time>2014-07-06T16:05:04Z</time>
      </trkpt>
      <trkpt lat="50.94994" lon="-0.103177">
        <ele>93.0</ele>
        <time>2014-07-06T16:05:08Z</time>
      </trkpt>
      <trkpt lat="50.949715" lon="-0.103171">
        <ele>91.0</ele>
        <time>2014-07-06T16:05:12Z</time>
      </trkpt>
      <trkpt lat="50.949379" lon="-0.10322">
        <ele>91.0</ele>
        <time>2014-07-06T16:05:17Z</time>
      </trkpt>
      <trkpt lat="50.949047" lon="-0.10328">
        <ele>91.0</ele>
        <time>2014-07-06T16:05:21Z</time>
      </trkpt>
      <trkpt lat="50.948753" lon="-0.103308">
        <ele>90.0</ele>
        <time>2014-07-06T16:05:25Z</time>
      </trkpt>
      <trkpt lat="50.948402" lon="-0.103336">
        <ele>91.0</ele>
        <time>2014-07-06T16:05:30Z</time>
      </trkpt>
      <trkpt lat="50.948103" lon="-0.103378">
        <ele>91.0</ele>
        <time>2014-07-06T16:05:35Z</time>
      </trkpt>
      <trkpt lat="50.947884" lon="-0.103399">
        <ele>90.0</ele>
        <time>2014-07-06T16:05:39Z</time>
      </trkpt>
      <trkpt lat="50.947675" lon="-0.103425">
        <ele>88.0</ele>
        <time>2014-07-06T16:05:43Z</time>
      </trkpt>
      <trkpt lat="50.947429" lon="-0.103443">
        <ele>89.0</ele>
        <time>2014-07-06T16:05:48Z</time>
      </trkpt>
      <trkpt lat="50.947243" lon="-0.103459">
        <ele>88.0</ele>
        <time>2014-07-06T16:05:52Z</time>
      </trkpt>
      <trkpt lat="50.946991" lon="-0.103511">
        <ele>90.0</ele>
        <time>2014-07-06T16:05:57Z</time>
      </trkpt>
      <trkpt lat="50.946808" lon="-0.103523">
        <ele>93.0</ele>
        <time>2014-07-06T16:06:01Z</time>
      </trkpt>
      <trkpt lat="50.946611" lon="-0.103545">
        <ele>95.0</ele>
        <time>2014-07-06T16:06:06Z</time>
      </trkpt>
      <trkpt lat="50.946464" lon="-0.103478">
        <ele>95.0</ele>
        <time>2014-07-06T16:06:10Z</time>
      </trkpt>
      <trkpt lat="50.946291" lon="-0.10352">
        <ele>95.0</ele>
        <time>2014-07-06T16:06:15Z</time>
      </trkpt>
      <trkpt lat="50.946131" lon="-0.103621">
        <ele>97.0</ele>
        <time>2014-07-06T16:06:19Z</time>
      </trkpt>
      <trkpt lat="50.945915" lon="-0.103654">
        <ele>98.0</ele>
        <time>2014-07-06T16:06:24Z</time>
      </trkpt>
      <trkpt lat="50.94577" lon="-0.103674">
        <ele>99.0</ele>
        <time>2014-07-06T16:06:28Z</time>
      </trkpt>
      <trkpt lat="50.945589" lon="-0.103702">
        <ele>101.0</ele>
        <time>2014-07-06T16:06:33Z</time>
      </trkpt>
      <trkpt lat="50.945411" lon="-0.103722">
        <ele>102.0</ele>
        <time>2014-07-06T16:06:38Z</time>
      </trkpt>
      <trkpt lat="50.945284" lon="-0.103736">
        <ele>103.0</ele>
        <time>2014-07-06T16:06:42Z</time>
      </trkpt>
      <trkpt lat="50.945164" lon="-0.103753">
        <ele>105.0</ele>
        <time>2014-07-06T16:06:46Z</time>
      </trkpt>
      <trkpt lat="50.945037" lon="-0.10378">
        <ele>106.0</ele>
        <time>2014-07-06T16:06:50Z</time>
      </trkpt>
      <trkpt lat="50.944911" lon="-0.103815">
        <ele>105.0</ele>
        <time>2014-07-06T16:06:54Z</time>
      </trkpt>
      <trkpt lat="50.944751" lon="-0.103864">
        <ele>104.0</ele>
        <time>2014-07-06T16:06:58Z</time>
      </trkpt>
      <trkpt lat="50.94447" lon="-0.103964">
        <ele>102.0</ele>
        <time>2014-07-06T16:07:03Z</time>
      </trkpt>
      <trkpt lat="50.944165" lon="-0.104088">
        <ele>101.0</ele>
        <time>2014-07-06T16:07:08Z</time>
      </trkpt>
      <trkpt lat="50.943932" lon="-0.104172">
        <ele>100.0</ele>
        <time>2014-07-06T16:07:12Z</time>
      </trkpt>
      <trkpt lat="50.94357" lon="-0.104301">
        <ele>98.0</ele>
        <time>2014-07-06T16:07:17Z</time>
      </trkpt>
      <trkpt lat="50.943237" lon="-0.104401">
        <ele>100.0</ele>
        <time>2014-07-06T16:07:21Z</time>
      </trkpt>
      <trkpt lat="50.942891" lon="-0.104557">
        <ele>98.0</ele>
        <time>2014-07-06T16:07:26Z</time>
      </trkpt>
      <trkpt lat="50.942624" lon="-0.104635">
        <ele>99.0</ele>
        <time>2014-07-06T16:07:30Z</time>
      </trkpt>
      <trkpt lat="50.942327" lon="-0.104719">
        <ele>100.0</ele>
        <time>2014-07-06T16:07:35Z</time>
      </trkpt>
      <trkpt lat="50.942116" lon="-0.104789">
        <ele>101.0</ele>
        <time>2014-07-06T16:07:39Z</time>
      </trkpt>
      <trkpt lat="50.941944" lon="-0.10489">
        <ele>104.0</ele>
        <time>2014-07-06T16:07:43Z</time>
      </trkpt>
      <trkpt lat="50.941732" lon="-0.104968">
        <ele>103.0</ele>
        <time>2014-07-06T16:07:48Z</time>
      </trkpt>
      <trkpt lat="50.941581" lon="-0.105018">
        <ele>103.0</ele>
        <time>2014-07-06T16:07:52Z</time>
      </trkpt>
      <trkpt lat="50.941421" lon="-0.105086">
        <ele>104.0</ele>
        <time>2014-07-06T16:07:56Z</time>
      </trkpt>
      <trkpt lat="50.941258" lon="-0.105142">
        <ele>104.0</ele>
        <time>2014-07-06T16:08:00Z</time>
      </trkpt>
      <trkpt lat="50.941052" lon="-0.105223">
        <ele>102.0</ele>
        <time>2014-07-06T16:08:04Z</time>
      </trkpt>
      <trkpt lat="50.940787" lon="-0.10533">
        <ele>101.0</ele>
        <time>2014-07-06T16:08:08Z</time>
      </trkpt>
      <trkpt lat="50.940403" lon="-0.105451">
        <ele>98.0</ele>
        <time>2014-07-06T16:08:13Z</time>
      </trkpt>
      <trkpt lat="50.940081" lon="-0.105577">
        <ele>96.0</ele>
        <time>2014-07-06T16:08:17Z</time>
      </trkpt>
      <trkpt lat="50.939732" lon="-0.1057">
        <ele>97.0</ele>
        <time>2014-07-06T16:08:21Z</time>
      </trkpt>
      <trkpt lat="50.939373" lon="-0.10582">
        <ele>96.0</ele>
        <time>2014-07-06T16:08:25Z</time>
      </trkpt>
      <trkpt lat="50.938986" lon="-0.105962">
        <ele>93.0</ele>
        <time>2014-07-06T16:08:30Z</time>
      </trkpt>
      <trkpt lat="50.938569" lon="-0.105975">
        <ele>91.0</ele>
        <time>2014-07-06T16:08:35Z</time>
      </trkpt>
      <trkpt lat="50.938207" lon="-0.105993">
        <ele>89.0</ele>
        <time>2014-07-06T16:08:39Z</time>
      </trkpt>
      <trkpt lat="50.937789" lon="-0.106013">
        <ele>90.0</ele>
        <time>2014-07-06T16:08:44Z</time>
      </trkpt>
      <trkpt lat="50.937378" lon="-0.106205">
        <ele>90.0</ele>
        <time>2014-07-06T16:08:49Z</time>
      </trkpt>
      <trkpt lat="50.937068" lon="-0.106333">
        <ele>90.0</ele>
        <time>2014-07-06T16:08:53Z</time>
      </trkpt>
      <trkpt lat="50.936725" lon="-0.10649">
        <ele>87.0</ele>
        <time>2014-07-06T16:08:58Z</time>
      </trkpt>
      <trkpt lat="50.936383" lon="-0.106666">
        <ele>89.0</ele>
        <time>2014-07-06T16:09:03Z</time>
      </trkpt>
      <trkpt lat="50.936135" lon="-0.106801">
        <ele>89.0</ele>
        <time>2014-07-06T16:09:07Z</time>
      </trkpt>
      <trkpt lat="50.935893" lon="-0.106945">
        <ele>88.0</ele>
        <time>2014-07-06T16:09:11Z</time>
      </trkpt>
      <trkpt lat="50.935636" lon="-0.107099">
        <ele>87.0</ele>
        <time>2014-07-06T16:09:15Z</time>
      </trkpt>
      <trkpt lat="50.935382" lon="-0.107278">
        <ele>87.0</ele>
        <time>2014-07-06T16:09:19Z</time>
      </trkpt>
      <trkpt lat="50.935094" lon="-0.1075">
        <ele>88.0</ele>
        <time>2014-07-06T16:09:24Z</time>
      </trkpt>
      <trkpt lat="50.934777" lon="-0.107747">
        <ele>89.0</ele>
        <time>2014-07-06T16:09:29Z</time>
      </trkpt>
      <trkpt lat="50.93448" lon="-0.107974">
        <ele>90.0</ele>
        <time>2014-07-06T16:09:34Z</time>
      </trkpt>
      <trkpt lat="50.934258" lon="-0.108183">
        <ele>90.0</ele>
        <time>2014-07-06T16:09:38Z</time>
      </trkpt>
      <trkpt lat="50.934008" lon="-0.108354">
        <ele>90.0</ele>
        <time>2014-07-06T16:09:42Z</time>
      </trkpt>
      <trkpt lat="50.933752" lon="-0.108545">
        <ele>89.0</ele>
        <time>2014-07-06T16:09:46Z</time>
      </trkpt>
      <trkpt lat="50.933553" lon="-0.108728">
        <ele>90.0</ele>
        <time>2014-07-06T16:09:50Z</time>
      </trkpt>
      <trkpt lat="50.933323" lon="-0.10889">
        <ele>90.0</ele>
        <time>2014-07-06T16:09:54Z</time>
      </trkpt>
      <trkpt lat="50.933065" lon="-0.109108">
        <ele>91.0</ele>
        <time>2014-07-06T16:09:59Z</time>
      </trkpt>
      <trkpt lat="50.93287" lon="-0.109297">
        <ele>91.0</ele>
        <time>2014-07-06T16:10:03Z</time>
      </trkpt>
      <trkpt lat="50.932631" lon="-0.109483">
        <ele>92.0</ele>
        <time>2014-07-06T16:10:08Z</time>
      </trkpt>
      <trkpt lat="50.932443" lon="-0.109624">
        <ele>91.0</ele>
        <time>2014-07-06T16:10:12Z</time>
      </trkpt>
      <trkpt lat="50.932237" lon="-0.109819">
        <ele>92.0</ele>
        <time>2014-07-06T16:10:17Z</time>
      </trkpt>
      <trkpt lat="50.932054" lon="-0.109975">
        <ele>93.0</ele>
        <time>2014-07-06T16:10:21Z</time>
      </trkpt>
      <trkpt lat="50.931876" lon="-0.110106">
        <ele>93.0</ele>
        <time>2014-07-06T16:10:25Z</time>
      </trkpt>
      <trkpt lat="50.931663" lon="-0.110285">
        <ele>94.0</ele>
        <time>2014-07-06T16:10:30Z</time>
      </trkpt>
      <trkpt lat="50.931475" lon="-0.1104">
        <ele>93.0</ele>
        <time>2014-07-06T16:10:34Z</time>
      </trkpt>
      <trkpt lat="50.931287" lon="-0.110498">
        <ele>94.0</ele>
        <time>2014-07-06T16:10:38Z</time>
      </trkpt>
      <trkpt lat="50.931079" lon="-0.110598">
        <ele>95.0</ele>
        <time>2014-07-06T16:10:43Z</time>
      </trkpt>
      <trkpt lat="50.930924" lon="-0.110684">
        <ele>97.0</ele>
        <time>2014-07-06T16:10:47Z</time>
      </trkpt>
      <trkpt lat="50.930755" lon="-0.110732">
        <ele>95.0</ele>
        <time>2014-07-06T16:10:51Z</time>
      </trkpt>
      <trkpt lat="50.930537" lon="-0.110854">
        <ele>95.0</ele>
        <time>2014-07-06T16:10:56Z</time>
      </trkpt>
      <trkpt lat="50.930347" lon="-0.110999">
        <ele>96.0</ele>
        <time>2014-07-06T16:11:00Z</time>
      </trkpt>
      <trkpt lat="50.930152" lon="-0.11121">
        <ele>98.0</ele>
        <time>2014-07-06T16:11:05Z</time>
      </trkpt>
      <trkpt lat="50.930008" lon="-0.111332">
        <ele>97.0</ele>
        <time>2014-07-06T16:11:09Z</time>
      </trkpt>
      <trkpt lat="50.929855" lon="-0.111443">
        <ele>97.0</ele>
        <time>2014-07-06T16:11:13Z</time>
      </trkpt>
      <trkpt lat="50.929701" lon="-0.11155">
        <ele>97.0</ele>
        <time>2014-07-06T16:11:17Z</time>
      </trkpt>
      <trkpt lat="50.929506" lon="-0.111695">
        <ele>97.0</ele>
        <time>2014-07-06T16:11:22Z</time>
      </trkpt>
      <trkpt lat="50.929333" lon="-0.111873">
        <ele>96.0</ele>
        <time>2014-07-06T16:11:27Z</time>
      </trkpt>
      <trkpt lat="50.929183" lon="-0.111996">
        <ele>97.0</ele>
        <time>2014-07-06T16:11:31Z</time>
      </trkpt>
      <trkpt lat="50.929004" lon="-0.112199">
        <ele>100.0</ele>
        <time>2014-07-06T16:11:36Z</time>
      </trkpt>
      <trkpt lat="50.928864" lon="-0.112459">
        <ele>100.0</ele>
        <time>2014-07-06T16:11:41Z</time>
      </trkpt>
      <trkpt lat="50.928765" lon="-0.112674">
        <ele>100.0</ele>
        <time>2014-07-06T16:11:45Z</time>
      </trkpt>
      <trkpt lat="50.928625" lon="-0.112891">
        <ele>99.0</ele>
        <time>2014-07-06T16:11:49Z</time>
      </trkpt>
      <trkpt lat="50.928497" lon="-0.113138">
        <ele>102.0</ele>
        <time>2014-07-06T16:11:53Z</time>
      </trkpt>
      <trkpt lat="50.928371" lon="-0.113337">
        <ele>102.0</ele>
        <time>2014-07-06T16:11:57Z</time>
      </trkpt>
      <trkpt lat="50.928121" lon="-0.113493">
        <ele>101.0</ele>
        <time>2014-07-06T16:12:02Z</time>
      </trkpt>
      <trkpt lat="50.92802" lon="-0.113706">
        <ele>102.0</ele>
        <time>2014-07-06T16:12:06Z</time>
      </trkpt>
      <trkpt lat="50.927834" lon="-0.113858">
        <ele>102.0</ele>
        <time>2014-07-06T16:12:10Z</time>
      </trkpt>
      <trkpt lat="50.927582" lon="-0.11403">
        <ele>103.0</ele>
        <time>2014-07-06T16:12:15Z</time>
      </trkpt>
      <trkpt lat="50.927391" lon="-0.11416">
        <ele>104.0</ele>
        <time>2014-07-06T16:12:19Z</time>
      </trkpt>
      <trkpt lat="50.927215" lon="-0.114212">
        <ele>104.0</ele>
        <time>2014-07-06T16:12:23Z</time>
      </trkpt>
      <trkpt lat="50.927045" lon="-0.114239">
        <ele>105.0</ele>
        <time>2014-07-06T16:12:27Z</time>
      </trkpt>
      <trkpt lat="50.926885" lon="-0.114245">
        <ele>105.0</ele>
        <time>2014-07-06T16:12:31Z</time>
      </trkpt>
      <trkpt lat="50.926647" lon="-0.114308">
        <ele>105.0</ele>
        <time>2014-07-06T16:12:36Z</time>
      </trkpt>
      <trkpt lat="50.926362" lon="-0.114365">
        <ele>109.0</ele>
        <time>2014-07-06T16:12:41Z</time>
      </trkpt>
      <trkpt lat="50.92617" lon="-0.114424">
        <ele>109.0</ele>
        <time>2014-07-06T16:12:45Z</time>
      </trkpt>
      <trkpt lat="50.925991" lon="-0.114456">
        <ele>107.0</ele>
        <time>2014-07-06T16:12:49Z</time>
      </trkpt>
      <trkpt lat="50.925777" lon="-0.114528">
        <ele>107.0</ele>
        <time>2014-07-06T16:12:54Z</time>
      </trkpt>
      <trkpt lat="50.925625" lon="-0.114548">
        <ele>107.0</ele>
        <time>2014-07-06T16:12:58Z</time>
      </trkpt>
      <trkpt lat="50.925403" lon="-0.114542">
        <ele>109.0</ele>
        <time>2014-07-06T16:13:03Z</time>
      </trkpt>
      <trkpt lat="50.925174" lon="-0.114548">
        <ele>109.0</ele>
        <time>2014-07-06T16:13:08Z</time>
      </trkpt>
      <trkpt lat="50.924999" lon="-0.114551">
        <ele>109.0</ele>
        <time>2014-07-06T16:13:12Z</time>
      </trkpt>
      <trkpt lat="50.924791" lon="-0.114501">
        <ele>109.0</ele>
        <time>2014-07-06T16:13:17Z</time>
      </trkpt>
      <trkpt lat="50.924626" lon="-0.114495">
        <ele>110.0</ele>
        <time>2014-07-06T16:13:21Z</time>
      </trkpt>
      <trkpt lat="50.924463" lon="-0.11449">
        <ele>109.0</ele>
        <time>2014-07-06T16:13:25Z</time>
      </trkpt>
      <trkpt lat="50.924256" lon="-0.114534">
        <ele>110.0</ele>
        <time>2014-07-06T16:13:30Z</time>
      </trkpt>
      <trkpt lat="50.924089" lon="-0.114557">
        <ele>111.0</ele>
        <time>2014-07-06T16:13:34Z</time>
      </trkpt>
      <trkpt lat="50.923928" lon="-0.114584">
        <ele>111.0</ele>
        <time>2014-07-06T16:13:38Z</time>
      </trkpt>
      <trkpt lat="50.923771" lon="-0.114631">
        <ele>110.0</ele>
        <time>2014-07-06T16:13:42Z</time>
      </trkpt>
      <trkpt lat="50.923569" lon="-0.114703">
        <ele>114.0</ele>
        <time>2014-07-06T16:13:47Z</time>
      </trkpt>
      <trkpt lat="50.923394" lon="-0.114749">
        <ele>113.0</ele>
        <time>2014-07-06T16:13:51Z</time>
      </trkpt>
      <trkpt lat="50.923155" lon="-0.114867">
        <ele>113.0</ele>
        <time>2014-07-06T16:13:56Z</time>
      </trkpt>
      <trkpt lat="50.922978" lon="-0.11493">
        <ele>112.0</ele>
        <time>2014-07-06T16:14:00Z</time>
      </trkpt>
      <trkpt lat="50.922744" lon="-0.114948">
        <ele>111.0</ele>
        <time>2014-07-06T16:14:05Z</time>
      </trkpt>
      <trkpt lat="50.922526" lon="-0.11489">
        <ele>110.0</ele>
        <time>2014-07-06T16:14:10Z</time>
      </trkpt>
      <trkpt lat="50.922339" lon="-0.114884">
        <ele>111.0</ele>
        <time>2014-07-06T16:14:14Z</time>
      </trkpt>
      <trkpt lat="50.922095" lon="-0.114814">
        <ele>115.0</ele>
        <time>2014-07-06T16:14:19Z</time>
      </trkpt>
      <trkpt lat="50.921878" lon="-0.114791">
        <ele>114.0</ele>
        <time>2014-07-06T16:14:24Z</time>
      </trkpt>
      <trkpt lat="50.921625" lon="-0.114781">
        <ele>109.0</ele>
        <time>2014-07-06T16:14:29Z</time>
      </trkpt>
      <trkpt lat="50.921447" lon="-0.114763">
        <ele>111.0</ele>
        <time>2014-07-06T16:14:33Z</time>
      </trkpt>
      <trkpt lat="50.921184" lon="-0.114758">
        <ele>109.0</ele>
        <time>2014-07-06T16:14:38Z</time>
      </trkpt>
      <trkpt lat="50.921003" lon="-0.114845">
        <ele>109.0</ele>
        <time>2014-07-06T16:14:42Z</time>
      </trkpt>
      <trkpt lat="50.920838" lon="-0.114938">
        <ele>106.0</ele>
        <time>2014-07-06T16:14:47Z</time>
      </trkpt>
      <trkpt lat="50.920774" lon="-0.115038">
        <ele>106.0</ele>
        <time>2014-07-06T16:15:12Z</time>
      </trkpt>
      <trkpt lat="50.920649" lon="-0.115074">
        <ele>104.0</ele>
        <time>2014-07-06T16:15:16Z</time>
      </trkpt>
      <trkpt lat="50.920511" lon="-0.11508">
        <ele>103.0</ele>
        <time>2014-07-06T16:15:20Z</time>
      </trkpt>
      <trkpt lat="50.920394" lon="-0.115098">
        <ele>101.0</ele>
        <time>2014-07-06T16:15:25Z</time>
      </trkpt>
      <trkpt lat="50.920262" lon="-0.115177">
        <ele>103.0</ele>
        <time>2014-07-06T16:15:29Z</time>
      </trkpt>
      <trkpt lat="50.920051" lon="-0.115249">
        <ele>104.0</ele>
        <time>2014-07-06T16:15:34Z</time>
      </trkpt>
      <trkpt lat="50.919852" lon="-0.115348">
        <ele>106.0</ele>
        <time>2014-07-06T16:15:38Z</time>
      </trkpt>
      <trkpt lat="50.919726" lon="-0.115419">
        <ele>106.0</ele>
        <time>2014-07-06T16:15:42Z</time>
      </trkpt>
      <trkpt lat="50.919556" lon="-0.115316">
        <ele>108.0</ele>
        <time>2014-07-06T16:15:46Z</time>
      </trkpt>
      <trkpt lat="50.91937" lon="-0.115248">
        <ele>106.0</ele>
        <time>2014-07-06T16:15:50Z</time>
      </trkpt>
      <trkpt lat="50.919221" lon="-0.11519">
        <ele>106.0</ele>
        <time>2014-07-06T16:15:55Z</time>
      </trkpt>
      <trkpt lat="50.919146" lon="-0.115133">
        <ele>103.0</ele>
        <time>2014-07-06T16:19:55Z</time>
      </trkpt>
      <trkpt lat="50.919004" lon="-0.115105">
        <ele>104.0</ele>
        <time>2014-07-06T16:20:00Z</time>
      </trkpt>
      <trkpt lat="50.918841" lon="-0.115073">
        <ele>105.0</ele>
        <time>2014-07-06T16:20:04Z</time>
      </trkpt>
      <trkpt lat="50.918637" lon="-0.115017">
        <ele>102.0</ele>
        <time>2014-07-06T16:20:08Z</time>
      </trkpt>
      <trkpt lat="50.918401" lon="-0.115037">
        <ele>102.0</ele>
        <time>2014-07-06T16:20:13Z</time>
      </trkpt>
      <trkpt lat="50.918178" lon="-0.115066">
        <ele>103.0</ele>
        <time>2014-07-06T16:20:18Z</time>
      </trkpt>
      <trkpt lat="50.917957" lon="-0.115057">
        <ele>104.0</ele>
        <time>2014-07-06T16:20:22Z</time>
      </trkpt>
      <trkpt lat="50.917754" lon="-0.115072">
        <ele>103.0</ele>
        <time>2014-07-06T16:20:27Z</time>
      </trkpt>
      <trkpt lat="50.917531" lon="-0.115083">
        <ele>105.0</ele>
        <time>2014-07-06T16:20:32Z</time>
      </trkpt>
      <trkpt lat="50.917379" lon="-0.115076">
        <ele>106.0</ele>
        <time>2014-07-06T16:20:36Z</time>
      </trkpt>
      <trkpt lat="50.917224" lon="-0.115088">
        <ele>106.0</ele>
        <time>2014-07-06T16:20:40Z</time>
      </trkpt>
      <trkpt lat="50.917084" lon="-0.11507">
        <ele>106.0</ele>
        <time>2014-07-06T16:20:44Z</time>
      </trkpt>
      <trkpt lat="50.916914" lon="-0.115049">
        <ele>104.0</ele>
        <time>2014-07-06T16:20:49Z</time>
      </trkpt>
      <trkpt lat="50.916767" lon="-0.115036">
        <ele>104.0</ele>
        <time>2014-07-06T16:20:53Z</time>
      </trkpt>
      <trkpt lat="50.916582" lon="-0.115046">
        <ele>104.0</ele>
        <time>2014-07-06T16:20:58Z</time>
      </trkpt>
      <trkpt lat="50.916424" lon="-0.115056">
        <ele>106.0</ele>
        <time>2014-07-06T16:21:03Z</time>
      </trkpt>
      <trkpt lat="50.916272" lon="-0.115039">
        <ele>99.0</ele>
        <time>2014-07-06T16:21:08Z</time>
      </trkpt>
      <trkpt lat="50.916138" lon="-0.115037">
        <ele>100.0</ele>
        <time>2014-07-06T16:21:12Z</time>
      </trkpt>
      <trkpt lat="50.915988" lon="-0.115034">
        <ele>101.0</ele>
        <time>2014-07-06T16:21:16Z</time>
      </trkpt>
      <trkpt lat="50.915825" lon="-0.11505">
        <ele>102.0</ele>
        <time>2014-07-06T16:21:20Z</time>
      </trkpt>
      <trkpt lat="50.915562" lon="-0.115091">
        <ele>104.0</ele>
        <time>2014-07-06T16:21:25Z</time>
      </trkpt>
      <trkpt lat="50.915358" lon="-0.115116">
        <ele>107.0</ele>
        <time>2014-07-06T16:21:29Z</time>
      </trkpt>
      <trkpt lat="50.915176" lon="-0.115169">
        <ele>105.0</ele>
        <time>2014-07-06T16:21:33Z</time>
      </trkpt>
      <trkpt lat="50.915" lon="-0.115186">
        <ele>108.0</ele>
        <time>2014-07-06T16:21:37Z</time>
      </trkpt>
      <trkpt lat="50.914863" lon="-0.115259">
        <ele>112.0</ele>
        <time>2014-07-06T16:21:41Z</time>
      </trkpt>
      <trkpt lat="50.914681" lon="-0.115273">
        <ele>114.0</ele>
        <time>2014-07-06T16:21:45Z</time>
      </trkpt>
      <trkpt lat="50.914528" lon="-0.115283">
        <ele>114.0</ele>
        <time>2014-07-06T16:21:49Z</time>
      </trkpt>
      <trkpt lat="50.914257" lon="-0.115337">
        <ele>113.0</ele>
        <time>2014-07-06T16:21:53Z</time>
      </trkpt>
      <trkpt lat="50.913976" lon="-0.11533">
        <ele>113.0</ele>
        <time>2014-07-06T16:21:58Z</time>
      </trkpt>
      <trkpt lat="50.913766" lon="-0.115373">
        <ele>113.0</ele>
        <time>2014-07-06T16:22:03Z</time>
      </trkpt>
      <trkpt lat="50.913562" lon="-0.115383">
        <ele>113.0</ele>
        <time>2014-07-06T16:22:07Z</time>
      </trkpt>
      <trkpt lat="50.913366" lon="-0.115388">
        <ele>112.0</ele>
        <time>2014-07-06T16:22:11Z</time>
      </trkpt>
      <trkpt lat="50.91315" lon="-0.115426">
        <ele>113.0</ele>
        <time>2014-07-06T16:22:15Z</time>
      </trkpt>
      <trkpt lat="50.91297" lon="-0.115476">
        <ele>116.0</ele>
        <time>2014-07-06T16:22:19Z</time>
      </trkpt>
      <trkpt lat="50.912735" lon="-0.115514">
        <ele>116.0</ele>
        <time>2014-07-06T16:22:24Z</time>
      </trkpt>
      <trkpt lat="50.912494" lon="-0.115556">
        <ele>116.0</ele>
        <time>2014-07-06T16:22:29Z</time>
      </trkpt>
      <trkpt lat="50.912365" lon="-0.115616">
        <ele>115.0</ele>
        <time>2014-07-06T16:22:33Z</time>
      </trkpt>
      <trkpt lat="50.912193" lon="-0.115649">
        <ele>116.0</ele>
        <time>2014-07-06T16:22:37Z</time>
      </trkpt>
      <trkpt lat="50.912032" lon="-0.11567">
        <ele>117.0</ele>
        <time>2014-07-06T16:22:41Z</time>
      </trkpt>
      <trkpt lat="50.911886" lon="-0.115677">
        <ele>117.0</ele>
        <time>2014-07-06T16:22:45Z</time>
      </trkpt>
      <trkpt lat="50.9117" lon="-0.115665">
        <ele>120.0</ele>
        <time>2014-07-06T16:22:50Z</time>
      </trkpt>
      <trkpt lat="50.911546" lon="-0.115642">
        <ele>119.0</ele>
        <time>2014-07-06T16:22:54Z</time>
      </trkpt>
      <trkpt lat="50.911357" lon="-0.115588">
        <ele>120.0</ele>
        <time>2014-07-06T16:22:59Z</time>
      </trkpt>
      <trkpt lat="50.911191" lon="-0.115525">
        <ele>119.0</ele>
        <time>2014-07-06T16:23:03Z</time>
      </trkpt>
      <trkpt lat="50.911031" lon="-0.115504">
        <ele>119.0</ele>
        <time>2014-07-06T16:23:07Z</time>
      </trkpt>
      <trkpt lat="50.910881" lon="-0.115483">
        <ele>120.0</ele>
        <time>2014-07-06T16:23:12Z</time>
      </trkpt>
      <trkpt lat="50.910746" lon="-0.115462">
        <ele>123.0</ele>
        <time>2014-07-06T16:23:17Z</time>
      </trkpt>
      <trkpt lat="50.910625" lon="-0.11545">
        <ele>123.0</ele>
        <time>2014-07-06T16:23:21Z</time>
      </trkpt>
      <trkpt lat="50.910519" lon="-0.115469">
        <ele>124.0</ele>
        <time>2014-07-06T16:23:25Z</time>
      </trkpt>
      <trkpt lat="50.910404" lon="-0.115496">
        <ele>126.0</ele>
        <time>2014-07-06T16:23:30Z</time>
      </trkpt>
      <trkpt lat="50.910285" lon="-0.115505">
        <ele>128.0</ele>
        <time>2014-07-06T16:23:34Z</time>
      </trkpt>
      <trkpt lat="50.910084" lon="-0.115486">
        <ele>128.0</ele>
        <time>2014-07-06T16:23:39Z</time>
      </trkpt>
      <trkpt lat="50.90992" lon="-0.115496">
        <ele>129.0</ele>
        <time>2014-07-06T16:23:43Z</time>
      </trkpt>
      <trkpt lat="50.909731" lon="-0.115511">
        <ele>128.0</ele>
        <time>2014-07-06T16:23:48Z</time>
      </trkpt>
      <trkpt lat="50.909572" lon="-0.115515">
        <ele>128.0</ele>
        <time>2014-07-06T16:23:52Z</time>
      </trkpt>
      <trkpt lat="50.909417" lon="-0.115517">
        <ele>128.0</ele>
        <time>2014-07-06T16:23:56Z</time>
      </trkpt>
      <trkpt lat="50.909234" lon="-0.115521">
        <ele>129.0</ele>
        <time>2014-07-06T16:24:01Z</time>
      </trkpt>
      <trkpt lat="50.909053" lon="-0.115533">
        <ele>130.0</ele>
        <time>2014-07-06T16:24:06Z</time>
      </trkpt>
      <trkpt lat="50.908867" lon="-0.115533">
        <ele>131.0</ele>
        <time>2014-07-06T16:24:11Z</time>
      </trkpt>
      <trkpt lat="50.908716" lon="-0.115524">
        <ele>132.0</ele>
        <time>2014-07-06T16:24:15Z</time>
      </trkpt>
      <trkpt lat="50.908536" lon="-0.115523">
        <ele>133.0</ele>
        <time>2014-07-06T16:24:20Z</time>
      </trkpt>
      <trkpt lat="50.908395" lon="-0.115519">
        <ele>133.0</ele>
        <time>2014-07-06T16:24:24Z</time>
      </trkpt>
      <trkpt lat="50.908264" lon="-0.115513">
        <ele>132.0</ele>
        <time>2014-07-06T16:24:28Z</time>
      </trkpt>
      <trkpt lat="50.908136" lon="-0.115471">
        <ele>133.0</ele>
        <time>2014-07-06T16:24:33Z</time>
      </trkpt>
      <trkpt lat="50.90803" lon="-0.115459">
        <ele>135.0</ele>
        <time>2014-07-06T16:24:38Z</time>
      </trkpt>
      <trkpt lat="50.907938" lon="-0.115441">
        <ele>136.0</ele>
        <time>2014-07-06T16:24:42Z</time>
      </trkpt>
      <trkpt lat="50.907849" lon="-0.115407">
        <ele>137.0</ele>
        <time>2014-07-06T16:24:46Z</time>
      </trkpt>
      <trkpt lat="50.907775" lon="-0.11534">
        <ele>138.0</ele>
        <time>2014-07-06T16:24:50Z</time>
      </trkpt>
      <trkpt lat="50.907723" lon="-0.115237">
        <ele>138.0</ele>
        <time>2014-07-06T16:24:55Z</time>
      </trkpt>
      <trkpt lat="50.907633" lon="-0.115091">
        <ele>140.0</ele>
        <time>2014-07-06T16:25:00Z</time>
      </trkpt>
      <trkpt lat="50.907592" lon="-0.11498">
        <ele>142.0</ele>
        <time>2014-07-06T16:25:05Z</time>
      </trkpt>
      <trkpt lat="50.907578" lon="-0.11486">
        <ele>144.0</ele>
        <time>2014-07-06T16:25:10Z</time>
      </trkpt>
      <trkpt lat="50.907536" lon="-0.114716">
        <ele>141.0</ele>
        <time>2014-07-06T16:25:15Z</time>
      </trkpt>
      <trkpt lat="50.90749" lon="-0.114591">
        <ele>142.0</ele>
        <time>2014-07-06T16:25:19Z</time>
      </trkpt>
      <trkpt lat="50.907444" lon="-0.114465">
        <ele>143.0</ele>
        <time>2014-07-06T16:25:23Z</time>
      </trkpt>
      <trkpt lat="50.907368" lon="-0.114347">
        <ele>140.0</ele>
        <time>2014-07-06T16:25:27Z</time>
      </trkpt>
      <trkpt lat="50.907298" lon="-0.114212">
        <ele>140.0</ele>
        <time>2014-07-06T16:25:32Z</time>
      </trkpt>
      <trkpt lat="50.907233" lon="-0.114111">
        <ele>139.0</ele>
        <time>2014-07-06T16:25:36Z</time>
      </trkpt>
      <trkpt lat="50.907168" lon="-0.114014">
        <ele>142.0</ele>
        <time>2014-07-06T16:25:40Z</time>
      </trkpt>
      <trkpt lat="50.907121" lon="-0.113897">
        <ele>143.0</ele>
        <time>2014-07-06T16:25:44Z</time>
      </trkpt>
      <trkpt lat="50.907062" lon="-0.113755">
        <ele>140.0</ele>
        <time>2014-07-06T16:25:49Z</time>
      </trkpt>
      <trkpt lat="50.907044" lon="-0.113632">
        <ele>140.0</ele>
        <time>2014-07-06T16:25:53Z</time>
      </trkpt>
      <trkpt lat="50.907004" lon="-0.11348">
        <ele>144.0</ele>
        <time>2014-07-06T16:25:58Z</time>
      </trkpt>
      <trkpt lat="50.906975" lon="-0.113367">
        <ele>147.0</ele>
        <time>2014-07-06T16:26:02Z</time>
      </trkpt>
      <trkpt lat="50.906922" lon="-0.113233">
        <ele>148.0</ele>
        <time>2014-07-06T16:26:07Z</time>
      </trkpt>
      <trkpt lat="50.906872" lon="-0.113144">
        <ele>150.0</ele>
        <time>2014-07-06T16:26:11Z</time>
      </trkpt>
      <trkpt lat="50.906812" lon="-0.113065">
        <ele>154.0</ele>
        <time>2014-07-06T16:26:15Z</time>
      </trkpt>
      <trkpt lat="50.906769" lon="-0.112925">
        <ele>152.0</ele>
        <time>2014-07-06T16:26:20Z</time>
      </trkpt>
      <trkpt lat="50.906711" lon="-0.112842">
        <ele>156.0</ele>
        <time>2014-07-06T16:26:26Z</time>
      </trkpt>
      <trkpt lat="50.906593" lon="-0.1128">
        <ele>162.0</ele>
        <time>2014-07-06T16:26:31Z</time>
      </trkpt>
      <trkpt lat="50.906492" lon="-0.112812">
        <ele>161.0</ele>
        <time>2014-07-06T16:26:35Z</time>
      </trkpt>
      <trkpt lat="50.906372" lon="-0.112839">
        <ele>160.0</ele>
        <time>2014-07-06T16:26:40Z</time>
      </trkpt>
      <trkpt lat="50.906277" lon="-0.112864">
        <ele>160.0</ele>
        <time>2014-07-06T16:26:45Z</time>
      </trkpt>
      <trkpt lat="50.906175" lon="-0.112904">
        <ele>160.0</ele>
        <time>2014-07-06T16:26:50Z</time>
      </trkpt>
      <trkpt lat="50.906067" lon="-0.112929">
        <ele>160.0</ele>
        <time>2014-07-06T16:26:55Z</time>
      </trkpt>
      <trkpt lat="50.90596" lon="-0.112991">
        <ele>162.0</ele>
        <time>2014-07-06T16:27:00Z</time>
      </trkpt>
      <trkpt lat="50.905848" lon="-0.113058">
        <ele>165.0</ele>
        <time>2014-07-06T16:27:04Z</time>
      </trkpt>
      <trkpt lat="50.905707" lon="-0.113112">
        <ele>162.0</ele>
        <time>2014-07-06T16:27:09Z</time>
      </trkpt>
      <trkpt lat="50.905631" lon="-0.11319">
        <ele>167.0</ele>
        <time>2014-07-06T16:27:13Z</time>
      </trkpt>
      <trkpt lat="50.905534" lon="-0.11328">
        <ele>172.0</ele>
        <time>2014-07-06T16:27:18Z</time>
      </trkpt>
      <trkpt lat="50.905454" lon="-0.113337">
        <ele>177.0</ele>
        <time>2014-07-06T16:27:23Z</time>
      </trkpt>
      <trkpt lat="50.905383" lon="-0.113408">
        <ele>181.0</ele>
        <time>2014-07-06T16:27:30Z</time>
      </trkpt>
      <trkpt lat="50.905315" lon="-0.113425">
        <ele>181.0</ele>
        <time>2014-07-06T16:27:36Z</time>
      </trkpt>
      <trkpt lat="50.905223" lon="-0.113433">
        <ele>181.0</ele>
        <time>2014-07-06T16:27:40Z</time>
      </trkpt>
      <trkpt lat="50.905148" lon="-0.113456">
        <ele>181.0</ele>
        <time>2014-07-06T16:27:44Z</time>
      </trkpt>
      <trkpt lat="50.905038" lon="-0.113434">
        <ele>181.0</ele>
        <time>2014-07-06T16:27:48Z</time>
      </trkpt>
      <trkpt lat="50.904978" lon="-0.113358">
        <ele>186.0</ele>
        <time>2014-07-06T16:27:56Z</time>
      </trkpt>
      <trkpt lat="50.904884" lon="-0.113285">
        <ele>187.0</ele>
        <time>2014-07-06T16:28:00Z</time>
      </trkpt>
      <trkpt lat="50.904825" lon="-0.113156">
        <ele>186.0</ele>
        <time>2014-07-06T16:28:05Z</time>
      </trkpt>
      <trkpt lat="50.904808" lon="-0.112962">
        <ele>186.0</ele>
        <time>2014-07-06T16:28:10Z</time>
      </trkpt>
      <trkpt lat="50.904785" lon="-0.11282">
        <ele>189.0</ele>
        <time>2014-07-06T16:28:14Z</time>
      </trkpt>
      <trkpt lat="50.904762" lon="-0.112689">
        <ele>188.0</ele>
        <time>2014-07-06T16:28:19Z</time>
      </trkpt>
      <trkpt lat="50.904813" lon="-0.11254">
        <ele>186.0</ele>
        <time>2014-07-06T16:28:24Z</time>
      </trkpt>
      <trkpt lat="50.904875" lon="-0.112383">
        <ele>186.0</ele>
        <time>2014-07-06T16:28:29Z</time>
      </trkpt>
      <trkpt lat="50.904918" lon="-0.112241">
        <ele>189.0</ele>
        <time>2014-07-06T16:28:33Z</time>
      </trkpt>
      <trkpt lat="50.904964" lon="-0.11211">
        <ele>187.0</ele>
        <time>2014-07-06T16:28:37Z</time>
      </trkpt>
      <trkpt lat="50.905016" lon="-0.111959">
        <ele>186.0</ele>
        <time>2014-07-06T16:28:42Z</time>
      </trkpt>
      <trkpt lat="50.905046" lon="-0.111847">
        <ele>188.0</ele>
        <time>2014-07-06T16:28:46Z</time>
      </trkpt>
      <trkpt lat="50.905077" lon="-0.11171">
        <ele>188.0</ele>
        <time>2014-07-06T16:28:51Z</time>
      </trkpt>
      <trkpt lat="50.905098" lon="-0.111595">
        <ele>189.0</ele>
        <time>2014-07-06T16:28:56Z</time>
      </trkpt>
      <trkpt lat="50.905115" lon="-0.111478">
        <ele>189.0</ele>
        <time>2014-07-06T16:29:00Z</time>
      </trkpt>
      <trkpt lat="50.90514" lon="-0.111299">
        <ele>187.0</ele>
        <time>2014-07-06T16:29:05Z</time>
      </trkpt>
      <trkpt lat="50.90516" lon="-0.11112">
        <ele>184.0</ele>
        <time>2014-07-06T16:29:10Z</time>
      </trkpt>
      <trkpt lat="50.905162" lon="-0.110947">
        <ele>188.0</ele>
        <time>2014-07-06T16:29:15Z</time>
      </trkpt>
      <trkpt lat="50.905128" lon="-0.110827">
        <ele>190.0</ele>
        <time>2014-07-06T16:29:19Z</time>
      </trkpt>
      <trkpt lat="50.905105" lon="-0.110699">
        <ele>191.0</ele>
        <time>2014-07-06T16:29:23Z</time>
      </trkpt>
      <trkpt lat="50.905102" lon="-0.110556">
        <ele>191.0</ele>
        <time>2014-07-06T16:29:27Z</time>
      </trkpt>
      <trkpt lat="50.905083" lon="-0.11043">
        <ele>192.0</ele>
        <time>2014-07-06T16:29:31Z</time>
      </trkpt>
      <trkpt lat="50.905064" lon="-0.110278">
        <ele>194.0</ele>
        <time>2014-07-06T16:29:36Z</time>
      </trkpt>
      <trkpt lat="50.905031" lon="-0.110168">
        <ele>194.0</ele>
        <time>2014-07-06T16:29:40Z</time>
      </trkpt>
      <trkpt lat="50.904993" lon="-0.110052">
        <ele>194.0</ele>
        <time>2014-07-06T16:29:44Z</time>
      </trkpt>
      <trkpt lat="50.904911" lon="-0.109969">
        <ele>199.0</ele>
        <time>2014-07-06T16:29:48Z</time>
      </trkpt>
      <trkpt lat="50.904863" lon="-0.109856">
        <ele>201.0</ele>
        <time>2014-07-06T16:29:53Z</time>
      </trkpt>
      <trkpt lat="50.904815" lon="-0.109738">
        <ele>200.0</ele>
        <time>2014-07-06T16:29:58Z</time>
      </trkpt>
      <trkpt lat="50.904789" lon="-0.109617">
        <ele>201.0</ele>
        <time>2014-07-06T16:30:04Z</time>
      </trkpt>
      <trkpt lat="50.90473" lon="-0.109529">
        <ele>206.0</ele>
        <time>2014-07-06T16:30:09Z</time>
      </trkpt>
      <trkpt lat="50.904658" lon="-0.109469">
        <ele>211.0</ele>
        <time>2014-07-06T16:30:14Z</time>
      </trkpt>
      <trkpt lat="50.904588" lon="-0.109392">
        <ele>208.0</ele>
        <time>2014-07-06T16:30:19Z</time>
      </trkpt>
      <trkpt lat="50.904519" lon="-0.109308">
        <ele>206.0</ele>
        <time>2014-07-06T16:30:24Z</time>
      </trkpt>
      <trkpt lat="50.90445" lon="-0.109244">
        <ele>207.0</ele>
        <time>2014-07-06T16:30:29Z</time>
      </trkpt>
      <trkpt lat="50.904379" lon="-0.109187">
        <ele>211.0</ele>
        <time>2014-07-06T16:30:34Z</time>
      </trkpt>
      <trkpt lat="50.90431" lon="-0.109128">
        <ele>212.0</ele>
        <time>2014-07-06T16:30:39Z</time>
      </trkpt>
      <trkpt lat="50.904238" lon="-0.109073">
        <ele>214.0</ele>
        <time>2014-07-06T16:30:44Z</time>
      </trkpt>
      <trkpt lat="50.904163" lon="-0.109023">
        <ele>215.0</ele>
        <time>2014-07-06T16:30:49Z</time>
      </trkpt>
      <trkpt lat="50.904093" lon="-0.108944">
        <ele>219.0</ele>
        <time>2014-07-06T16:30:54Z</time>
      </trkpt>
      <trkpt lat="50.904038" lon="-0.108865">
        <ele>218.0</ele>
        <time>2014-07-06T16:30:59Z</time>
      </trkpt>
      <trkpt lat="50.903984" lon="-0.108752">
        <ele>218.0</ele>
        <time>2014-07-06T16:31:04Z</time>
      </trkpt>
      <trkpt lat="50.903942" lon="-0.108659">
        <ele>224.0</ele>
        <time>2014-07-06T16:31:09Z</time>
      </trkpt>
      <trkpt lat="50.903931" lon="-0.108522">
        <ele>223.0</ele>
        <time>2014-07-06T16:31:13Z</time>
      </trkpt>
      <trkpt lat="50.90388" lon="-0.108364">
        <ele>223.0</ele>
        <time>2014-07-06T16:31:17Z</time>
      </trkpt>
      <trkpt lat="50.903824" lon="-0.10819">
        <ele>224.0</ele>
        <time>2014-07-06T16:31:22Z</time>
      </trkpt>
      <trkpt lat="50.903817" lon="-0.108061">
        <ele>226.0</ele>
        <time>2014-07-06T16:31:26Z</time>
      </trkpt>
      <trkpt lat="50.903858" lon="-0.107906">
        <ele>225.0</ele>
        <time>2014-07-06T16:31:31Z</time>
      </trkpt>
      <trkpt lat="50.903885" lon="-0.10776">
        <ele>225.0</ele>
        <time>2014-07-06T16:31:36Z</time>
      </trkpt>
      <trkpt lat="50.903898" lon="-0.107634">
        <ele>227.0</ele>
        <time>2014-07-06T16:31:40Z</time>
      </trkpt>
      <trkpt lat="50.903903" lon="-0.107475">
        <ele>227.0</ele>
        <time>2014-07-06T16:31:45Z</time>
      </trkpt>
      <trkpt lat="50.903881" lon="-0.107318">
        <ele>226.0</ele>
        <time>2014-07-06T16:31:50Z</time>
      </trkpt>
      <trkpt lat="50.90385" lon="-0.107167">
        <ele>226.0</ele>
        <time>2014-07-06T16:31:54Z</time>
      </trkpt>
      <trkpt lat="50.903795" lon="-0.106997">
        <ele>226.0</ele>
        <time>2014-07-06T16:31:59Z</time>
      </trkpt>
      <trkpt lat="50.903753" lon="-0.106877">
        <ele>226.0</ele>
        <time>2014-07-06T16:32:03Z</time>
      </trkpt>
      <trkpt lat="50.903675" lon="-0.106766">
        <ele>228.0</ele>
        <time>2014-07-06T16:32:08Z</time>
      </trkpt>
      <trkpt lat="50.903603" lon="-0.106686">
        <ele>231.0</ele>
        <time>2014-07-06T16:32:13Z</time>
      </trkpt>
      <trkpt lat="50.90352" lon="-0.106645">
        <ele>234.0</ele>
        <time>2014-07-06T16:32:18Z</time>
      </trkpt>
      <trkpt lat="50.903434" lon="-0.106628">
        <ele>235.0</ele>
        <time>2014-07-06T16:32:23Z</time>
      </trkpt>
      <trkpt lat="50.903344" lon="-0.106618">
        <ele>233.0</ele>
        <time>2014-07-06T16:32:27Z</time>
      </trkpt>
      <trkpt lat="50.903232" lon="-0.106587">
        <ele>233.0</ele>
        <time>2014-07-06T16:32:32Z</time>
      </trkpt>
      <trkpt lat="50.903144" lon="-0.106612">
        <ele>238.0</ele>
        <time>2014-07-06T16:32:39Z</time>
      </trkpt>
      <trkpt lat="50.903064" lon="-0.106675">
        <ele>241.0</ele>
        <time>2014-07-06T16:32:47Z</time>
      </trkpt>
      <trkpt lat="50.902982" lon="-0.106723">
        <ele>245.0</ele>
        <time>2014-07-06T16:32:55Z</time>
      </trkpt>
      <trkpt lat="50.902909" lon="-0.106724">
        <ele>248.0</ele>
        <time>2014-07-06T16:33:00Z</time>
      </trkpt>
      <trkpt lat="50.902832" lon="-0.106704">
        <ele>253.0</ele>
        <time>2014-07-06T16:33:11Z</time>
      </trkpt>
      <trkpt lat="50.902772" lon="-0.106604">
        <ele>255.0</ele>
        <time>2014-07-06T16:33:19Z</time>
      </trkpt>
      <trkpt lat="50.902628" lon="-0.106554">
        <ele>254.0</ele>
        <time>2014-07-06T16:33:24Z</time>
      </trkpt>
      <trkpt lat="50.902525" lon="-0.106472">
        <ele>255.0</ele>
        <time>2014-07-06T16:33:28Z</time>
      </trkpt>
      <trkpt lat="50.902424" lon="-0.106358">
        <ele>255.0</ele>
        <time>2014-07-06T16:33:33Z</time>
      </trkpt>
      <trkpt lat="50.902422" lon="-0.106242">
        <ele>259.0</ele>
        <time>2014-07-06T16:34:43Z</time>
      </trkpt>
      <trkpt lat="50.902335" lon="-0.106133">
        <ele>259.0</ele>
        <time>2014-07-06T16:34:47Z</time>
      </trkpt>
      <trkpt lat="50.902261" lon="-0.106001">
        <ele>263.0</ele>
        <time>2014-07-06T16:34:51Z</time>
      </trkpt>
      <trkpt lat="50.902211" lon="-0.10585">
        <ele>263.0</ele>
        <time>2014-07-06T16:34:55Z</time>
      </trkpt>
      <trkpt lat="50.902158" lon="-0.10572">
        <ele>261.0</ele>
        <time>2014-07-06T16:34:59Z</time>
      </trkpt>
      <trkpt lat="50.902107" lon="-0.105577">
        <ele>260.0</ele>
        <time>2014-07-06T16:35:04Z</time>
      </trkpt>
      <trkpt lat="50.902062" lon="-0.105465">
        <ele>261.0</ele>
        <time>2014-07-06T16:35:08Z</time>
      </trkpt>
      <trkpt lat="50.902034" lon="-0.105349">
        <ele>262.0</ele>
        <time>2014-07-06T16:35:13Z</time>
      </trkpt>
      <trkpt lat="50.901983" lon="-0.105222">
        <ele>266.0</ele>
        <time>2014-07-06T16:35:18Z</time>
      </trkpt>
      <trkpt lat="50.901927" lon="-0.105134">
        <ele>266.0</ele>
        <time>2014-07-06T16:35:22Z</time>
      </trkpt>
      <trkpt lat="50.901876" lon="-0.105046">
        <ele>263.0</ele>
        <time>2014-07-06T16:35:26Z</time>
      </trkpt>
      <trkpt lat="50.901761" lon="-0.104939">
        <ele>259.0</ele>
        <time>2014-07-06T16:35:31Z</time>
      </trkpt>
      <trkpt lat="50.90168" lon="-0.104874">
        <ele>258.0</ele>
        <time>2014-07-06T16:35:35Z</time>
      </trkpt>
      <trkpt lat="50.901611" lon="-0.104796">
        <ele>258.0</ele>
        <time>2014-07-06T16:35:39Z</time>
      </trkpt>
      <trkpt lat="50.901544" lon="-0.104741">
        <ele>260.0</ele>
        <time>2014-07-06T16:35:43Z</time>
      </trkpt>
      <trkpt lat="50.901476" lon="-0.10466">
        <ele>262.0</ele>
        <time>2014-07-06T16:35:48Z</time>
      </trkpt>
      <trkpt lat="50.9014" lon="-0.104595">
        <ele>264.0</ele>
        <time>2014-07-06T16:35:53Z</time>
      </trkpt>
      <trkpt lat="50.901335" lon="-0.104544">
        <ele>264.0</ele>
        <time>2014-07-06T16:35:57Z</time>
      </trkpt>
      <trkpt lat="50.901254" lon="-0.104488">
        <ele>265.0</ele>
        <time>2014-07-06T16:36:02Z</time>
      </trkpt>
      <trkpt lat="50.901186" lon="-0.104438">
        <ele>266.0</ele>
        <time>2014-07-06T16:36:06Z</time>
      </trkpt>
      <trkpt lat="50.901114" lon="-0.104394">
        <ele>266.0</ele>
        <time>2014-07-06T16:36:10Z</time>
      </trkpt>
      <trkpt lat="50.90104" lon="-0.104375">
        <ele>270.0</ele>
        <time>2014-07-06T16:36:14Z</time>
      </trkpt>
      <trkpt lat="50.900958" lon="-0.104385">
        <ele>270.0</ele>
        <time>2014-07-06T16:36:18Z</time>
      </trkpt>
      <trkpt lat="50.900881" lon="-0.104415">
        <ele>271.0</ele>
        <time>2014-07-06T16:36:22Z</time>
      </trkpt>
      <trkpt lat="50.900801" lon="-0.104473">
        <ele>273.0</ele>
        <time>2014-07-06T16:36:27Z</time>
      </trkpt>
      <trkpt lat="50.900727" lon="-0.104536">
        <ele>272.0</ele>
        <time>2014-07-06T16:36:32Z</time>
      </trkpt>
      <trkpt lat="50.900642" lon="-0.104571">
        <ele>271.0</ele>
        <time>2014-07-06T16:39:17Z</time>
      </trkpt>
      <trkpt lat="50.900603" lon="-0.104668">
        <ele>274.0</ele>
        <time>2014-07-06T16:41:23Z</time>
      </trkpt>
      <trkpt lat="50.900522" lon="-0.104783">
        <ele>273.0</ele>
        <time>2014-07-06T16:41:27Z</time>
      </trkpt>
      <trkpt lat="50.90039" lon="-0.104963">
        <ele>272.0</ele>
        <time>2014-07-06T16:41:32Z</time>
      </trkpt>
      <trkpt lat="50.900225" lon="-0.105183">
        <ele>271.0</ele>
        <time>2014-07-06T16:41:37Z</time>
      </trkpt>
      <trkpt lat="50.90006" lon="-0.105387">
        <ele>271.0</ele>
        <time>2014-07-06T16:41:41Z</time>
      </trkpt>
      <trkpt lat="50.899877" lon="-0.105611">
        <ele>272.0</ele>
        <time>2014-07-06T16:41:46Z</time>
      </trkpt>
      <trkpt lat="50.899695" lon="-0.105827">
        <ele>273.0</ele>
        <time>2014-07-06T16:41:51Z</time>
      </trkpt>
      <trkpt lat="50.899568" lon="-0.105987">
        <ele>273.0</ele>
        <time>2014-07-06T16:41:55Z</time>
      </trkpt>
      <trkpt lat="50.899412" lon="-0.106113">
        <ele>272.0</ele>
        <time>2014-07-06T16:41:59Z</time>
      </trkpt>
      <trkpt lat="50.89925" lon="-0.106258">
        <ele>272.0</ele>
        <time>2014-07-06T16:42:03Z</time>
      </trkpt>
      <trkpt lat="50.899099" lon="-0.106431">
        <ele>274.0</ele>
        <time>2014-07-06T16:42:07Z</time>
      </trkpt>
      <trkpt lat="50.89886" lon="-0.10662">
        <ele>272.0</ele>
        <time>2014-07-06T16:42:12Z</time>
      </trkpt>
      <trkpt lat="50.898668" lon="-0.106765">
        <ele>272.0</ele>
        <time>2014-07-06T16:42:16Z</time>
      </trkpt>
      <trkpt lat="50.898421" lon="-0.106919">
        <ele>270.0</ele>
        <time>2014-07-06T16:42:21Z</time>
      </trkpt>
      <trkpt lat="50.898172" lon="-0.107063">
        <ele>269.0</ele>
        <time>2014-07-06T16:42:26Z</time>
      </trkpt>
      <trkpt lat="50.897967" lon="-0.10721">
        <ele>271.0</ele>
        <time>2014-07-06T16:42:30Z</time>
      </trkpt>
      <trkpt lat="50.897753" lon="-0.1073">
        <ele>268.0</ele>
        <time>2014-07-06T16:42:34Z</time>
      </trkpt>
      <trkpt lat="50.897516" lon="-0.107373">
        <ele>267.0</ele>
        <time>2014-07-06T16:42:38Z</time>
      </trkpt>
      <trkpt lat="50.897293" lon="-0.107459">
        <ele>267.0</ele>
        <time>2014-07-06T16:42:42Z</time>
      </trkpt>
      <trkpt lat="50.897044" lon="-0.107552">
        <ele>266.0</ele>
        <time>2014-07-06T16:42:46Z</time>
      </trkpt>
      <trkpt lat="50.896794" lon="-0.107557">
        <ele>266.0</ele>
        <time>2014-07-06T16:42:50Z</time>
      </trkpt>
      <trkpt lat="50.896506" lon="-0.107629">
        <ele>265.0</ele>
        <time>2014-07-06T16:42:55Z</time>
      </trkpt>
      <trkpt lat="50.896295" lon="-0.10769">
        <ele>266.0</ele>
        <time>2014-07-06T16:42:59Z</time>
      </trkpt>
      <trkpt lat="50.895985" lon="-0.107737">
        <ele>267.0</ele>
        <time>2014-07-06T16:43:04Z</time>
      </trkpt>
      <trkpt lat="50.895755" lon="-0.107795">
        <ele>268.0</ele>
        <time>2014-07-06T16:43:08Z</time>
      </trkpt>
      <trkpt lat="50.895511" lon="-0.107875">
        <ele>268.0</ele>
        <time>2014-07-06T16:43:12Z</time>
      </trkpt>
      <trkpt lat="50.895221" lon="-0.107989">
        <ele>270.0</ele>
        <time>2014-07-06T16:43:17Z</time>
      </trkpt>
      <trkpt lat="50.894987" lon="-0.108053">
        <ele>267.0</ele>
        <time>2014-07-06T16:43:21Z</time>
      </trkpt>
      <trkpt lat="50.894718" lon="-0.108174">
        <ele>266.0</ele>
        <time>2014-07-06T16:43:25Z</time>
      </trkpt>
      <trkpt lat="50.894418" lon="-0.108279">
        <ele>264.0</ele>
        <time>2014-07-06T16:43:30Z</time>
      </trkpt>
      <trkpt lat="50.894175" lon="-0.108396">
        <ele>265.0</ele>
        <time>2014-07-06T16:43:34Z</time>
      </trkpt>
      <trkpt lat="50.893902" lon="-0.108443">
        <ele>262.0</ele>
        <time>2014-07-06T16:43:38Z</time>
      </trkpt>
      <trkpt lat="50.893598" lon="-0.108592">
        <ele>262.0</ele>
        <time>2014-07-06T16:43:43Z</time>
      </trkpt>
      <trkpt lat="50.893274" lon="-0.108734">
        <ele>260.0</ele>
        <time>2014-07-06T16:43:48Z</time>
      </trkpt>
      <trkpt lat="50.893006" lon="-0.108837">
        <ele>259.0</ele>
        <time>2014-07-06T16:43:52Z</time>
      </trkpt>
      <trkpt lat="50.892756" lon="-0.108961">
        <ele>261.0</ele>
        <time>2014-07-06T16:43:56Z</time>
      </trkpt>
      <trkpt lat="50.892506" lon="-0.109094">
        <ele>261.0</ele>
        <time>2014-07-06T16:44:00Z</time>
      </trkpt>
      <trkpt lat="50.892247" lon="-0.109219">
        <ele>260.0</ele>
        <time>2014-07-06T16:44:04Z</time>
      </trkpt>
      <trkpt lat="50.891932" lon="-0.109409">
        <ele>258.0</ele>
        <time>2014-07-06T16:44:09Z</time>
      </trkpt>
      <trkpt lat="50.891688" lon="-0.109607">
        <ele>259.0</ele>
        <time>2014-07-06T16:44:13Z</time>
      </trkpt>
      <trkpt lat="50.891447" lon="-0.109821">
        <ele>256.0</ele>
        <time>2014-07-06T16:44:17Z</time>
      </trkpt>
      <trkpt lat="50.891234" lon="-0.110079">
        <ele>257.0</ele>
        <time>2014-07-06T16:44:21Z</time>
      </trkpt>
      <trkpt lat="50.89097" lon="-0.110387">
        <ele>255.0</ele>
        <time>2014-07-06T16:44:26Z</time>
      </trkpt>
      <trkpt lat="50.890733" lon="-0.110759">
        <ele>256.0</ele>
        <time>2014-07-06T16:44:31Z</time>
      </trkpt>
      <trkpt lat="50.890542" lon="-0.111042">
        <ele>252.0</ele>
        <time>2014-07-06T16:44:35Z</time>
      </trkpt>
      <trkpt lat="50.89032" lon="-0.111402">
        <ele>252.0</ele>
        <time>2014-07-06T16:44:40Z</time>
      </trkpt>
      <trkpt lat="50.890138" lon="-0.111679">
        <ele>250.0</ele>
        <time>2014-07-06T16:44:44Z</time>
      </trkpt>
      <trkpt lat="50.889894" lon="-0.112033">
        <ele>253.0</ele>
        <time>2014-07-06T16:44:49Z</time>
      </trkpt>
      <trkpt lat="50.889703" lon="-0.112329">
        <ele>253.0</ele>
        <time>2014-07-06T16:44:53Z</time>
      </trkpt>
      <trkpt lat="50.889459" lon="-0.11271">
        <ele>250.0</ele>
        <time>2014-07-06T16:44:58Z</time>
      </trkpt>
      <trkpt lat="50.8892" lon="-0.113116">
        <ele>247.0</ele>
        <time>2014-07-06T16:45:03Z</time>
      </trkpt>
      <trkpt lat="50.88902" lon="-0.113504">
        <ele>246.0</ele>
        <time>2014-07-06T16:45:07Z</time>
      </trkpt>
      <trkpt lat="50.888863" lon="-0.113919">
        <ele>245.0</ele>
        <time>2014-07-06T16:45:11Z</time>
      </trkpt>
      <trkpt lat="50.88873" lon="-0.114315">
        <ele>244.0</ele>
        <time>2014-07-06T16:45:15Z</time>
      </trkpt>
      <trkpt lat="50.888592" lon="-0.11477">
        <ele>245.0</ele>
        <time>2014-07-06T16:45:20Z</time>
      </trkpt>
      <trkpt lat="50.888464" lon="-0.115132">
        <ele>243.0</ele>
        <time>2014-07-06T16:45:25Z</time>
      </trkpt>
      <trkpt lat="50.888348" lon="-0.115531">
        <ele>244.0</ele>
        <time>2014-07-06T16:45:30Z</time>
      </trkpt>
      <trkpt lat="50.888242" lon="-0.115936">
        <ele>245.0</ele>
        <time>2014-07-06T16:45:35Z</time>
      </trkpt>
      <trkpt lat="50.888143" lon="-0.116189">
        <ele>246.0</ele>
        <time>2014-07-06T16:45:39Z</time>
      </trkpt>
      <trkpt lat="50.888038" lon="-0.116489">
        <ele>247.0</ele>
        <time>2014-07-06T16:45:43Z</time>
      </trkpt>
      <trkpt lat="50.887917" lon="-0.116765">
        <ele>246.0</ele>
        <time>2014-07-06T16:45:47Z</time>
      </trkpt>
      <trkpt lat="50.887789" lon="-0.11705">
        <ele>245.0</ele>
        <time>2014-07-06T16:45:51Z</time>
      </trkpt>
      <trkpt lat="50.887623" lon="-0.117381">
        <ele>244.0</ele>
        <time>2014-07-06T16:45:56Z</time>
      </trkpt>
      <trkpt lat="50.88748" lon="-0.117635">
        <ele>243.0</ele>
        <time>2014-07-06T16:46:00Z</time>
      </trkpt>
      <trkpt lat="50.887295" lon="-0.117964">
        <ele>241.0</ele>
        <time>2014-07-06T16:46:05Z</time>
      </trkpt>
      <trkpt lat="50.887132" lon="-0.118233">
        <ele>241.0</ele>
        <time>2014-07-06T16:46:09Z</time>
      </trkpt>
      <trkpt lat="50.886956" lon="-0.118521">
        <ele>239.0</ele>
        <time>2014-07-06T16:46:13Z</time>
      </trkpt>
      <trkpt lat="50.886763" lon="-0.118813">
        <ele>239.0</ele>
        <time>2014-07-06T16:46:17Z</time>
      </trkpt>
      <trkpt lat="50.886469" lon="-0.119171">
        <ele>237.0</ele>
        <time>2014-07-06T16:46:22Z</time>
      </trkpt>
      <trkpt lat="50.886137" lon="-0.119493">
        <ele>235.0</ele>
        <time>2014-07-06T16:46:27Z</time>
      </trkpt>
      <trkpt lat="50.885855" lon="-0.119763">
        <ele>233.0</ele>
        <time>2014-07-06T16:46:31Z</time>
      </trkpt>
      <trkpt lat="50.88555" lon="-0.120021">
        <ele>231.0</ele>
        <time>2014-07-06T16:46:35Z</time>
      </trkpt>
      <trkpt lat="50.885266" lon="-0.120247">
        <ele>228.0</ele>
        <time>2014-07-06T16:46:39Z</time>
      </trkpt>
      <trkpt lat="50.884987" lon="-0.120462">
        <ele>228.0</ele>
        <time>2014-07-06T16:46:43Z</time>
      </trkpt>
      <trkpt lat="50.884737" lon="-0.120647">
        <ele>230.0</ele>
        <time>2014-07-06T16:46:47Z</time>
      </trkpt>
      <trkpt lat="50.884455" lon="-0.120825">
        <ele>230.0</ele>
        <time>2014-07-06T16:46:52Z</time>
      </trkpt>
      <trkpt lat="50.884213" lon="-0.120941">
        <ele>230.0</ele>
        <time>2014-07-06T16:46:57Z</time>
      </trkpt>
      <trkpt lat="50.884031" lon="-0.121023">
        <ele>231.0</ele>
        <time>2014-07-06T16:47:01Z</time>
      </trkpt>
      <trkpt lat="50.883826" lon="-0.121084">
        <ele>232.0</ele>
        <time>2014-07-06T16:47:06Z</time>
      </trkpt>
      <trkpt lat="50.883652" lon="-0.121156">
        <ele>231.0</ele>
        <time>2014-07-06T16:47:10Z</time>
      </trkpt>
      <trkpt lat="50.883481" lon="-0.12122">
        <ele>230.0</ele>
        <time>2014-07-06T16:47:14Z</time>
      </trkpt>
      <trkpt lat="50.883318" lon="-0.121284">
        <ele>229.0</ele>
        <time>2014-07-06T16:47:18Z</time>
      </trkpt>
      <trkpt lat="50.883107" lon="-0.121393">
        <ele>228.0</ele>
        <time>2014-07-06T16:47:23Z</time>
      </trkpt>
      <trkpt lat="50.882938" lon="-0.121475">
        <ele>228.0</ele>
        <time>2014-07-06T16:47:27Z</time>
      </trkpt>
      <trkpt lat="50.882777" lon="-0.121575">
        <ele>228.0</ele>
        <time>2014-07-06T16:47:31Z</time>
      </trkpt>
      <trkpt lat="50.88261" lon="-0.121647">
        <ele>228.0</ele>
        <time>2014-07-06T16:47:35Z</time>
      </trkpt>
      <trkpt lat="50.882369" lon="-0.121648">
        <ele>228.0</ele>
        <time>2014-07-06T16:47:40Z</time>
      </trkpt>
      <trkpt lat="50.88218" lon="-0.12166">
        <ele>228.0</ele>
        <time>2014-07-06T16:47:44Z</time>
      </trkpt>
      <trkpt lat="50.881942" lon="-0.121636">
        <ele>229.0</ele>
        <time>2014-07-06T16:47:49Z</time>
      </trkpt>
      <trkpt lat="50.88173" lon="-0.121606">
        <ele>230.0</ele>
        <time>2014-07-06T16:47:53Z</time>
      </trkpt>
      <trkpt lat="50.881508" lon="-0.121563">
        <ele>230.0</ele>
        <time>2014-07-06T16:47:57Z</time>
      </trkpt>
      <trkpt lat="50.881281" lon="-0.121554">
        <ele>229.0</ele>
        <time>2014-07-06T16:48:01Z</time>
      </trkpt>
      <trkpt lat="50.880933" lon="-0.121491">
        <ele>226.0</ele>
        <time>2014-07-06T16:48:06Z</time>
      </trkpt>
      <trkpt lat="50.88065" lon="-0.121426">
        <ele>225.0</ele>
        <time>2014-07-06T16:48:10Z</time>
      </trkpt>
      <trkpt lat="50.880312" lon="-0.121381">
        <ele>227.0</ele>
        <time>2014-07-06T16:48:15Z</time>
      </trkpt>
      <trkpt lat="50.879991" lon="-0.121343">
        <ele>227.0</ele>
        <time>2014-07-06T16:48:19Z</time>
      </trkpt>
      <trkpt lat="50.879667" lon="-0.121331">
        <ele>224.0</ele>
        <time>2014-07-06T16:48:23Z</time>
      </trkpt>
      <trkpt lat="50.879235" lon="-0.121259">
        <ele>225.0</ele>
        <time>2014-07-06T16:48:28Z</time>
      </trkpt>
      <trkpt lat="50.878851" lon="-0.121227">
        <ele>223.0</ele>
        <time>2014-07-06T16:48:32Z</time>
      </trkpt>
      <trkpt lat="50.878397" lon="-0.121146">
        <ele>222.0</ele>
        <time>2014-07-06T16:48:37Z</time>
      </trkpt>
      <trkpt lat="50.878027" lon="-0.121064">
        <ele>215.0</ele>
        <time>2014-07-06T16:48:41Z</time>
      </trkpt>
      <trkpt lat="50.877701" lon="-0.121009">
        <ele>214.0</ele>
        <time>2014-07-06T16:48:45Z</time>
      </trkpt>
      <trkpt lat="50.877316" lon="-0.120889">
        <ele>214.0</ele>
        <time>2014-07-06T16:48:50Z</time>
      </trkpt>
      <trkpt lat="50.877012" lon="-0.120768">
        <ele>215.0</ele>
        <time>2014-07-06T16:48:54Z</time>
      </trkpt>
      <trkpt lat="50.87661" lon="-0.120619">
        <ele>214.0</ele>
        <time>2014-07-06T16:48:59Z</time>
      </trkpt>
      <trkpt lat="50.876271" lon="-0.120526">
        <ele>211.0</ele>
        <time>2014-07-06T16:49:03Z</time>
      </trkpt>
      <trkpt lat="50.875907" lon="-0.120429">
        <ele>210.0</ele>
        <time>2014-07-06T16:49:07Z</time>
      </trkpt>
      <trkpt lat="50.875421" lon="-0.120368">
        <ele>210.0</ele>
        <time>2014-07-06T16:49:12Z</time>
      </trkpt>
      <trkpt lat="50.874961" lon="-0.120303">
        <ele>209.0</ele>
        <time>2014-07-06T16:49:17Z</time>
      </trkpt>
      <trkpt lat="50.874533" lon="-0.120251">
        <ele>209.0</ele>
        <time>2014-07-06T16:49:22Z</time>
      </trkpt>
      <trkpt lat="50.874166" lon="-0.120206">
        <ele>210.0</ele>
        <time>2014-07-06T16:49:26Z</time>
      </trkpt>
      <trkpt lat="50.87379" lon="-0.120109">
        <ele>207.0</ele>
        <time>2014-07-06T16:49:30Z</time>
      </trkpt>
      <trkpt lat="50.873438" lon="-0.12003">
        <ele>207.0</ele>
        <time>2014-07-06T16:49:34Z</time>
      </trkpt>
      <trkpt lat="50.873006" lon="-0.11997">
        <ele>205.0</ele>
        <time>2014-07-06T16:49:39Z</time>
      </trkpt>
      <trkpt lat="50.872626" lon="-0.119976">
        <ele>204.0</ele>
        <time>2014-07-06T16:49:44Z</time>
      </trkpt>
      <trkpt lat="50.872281" lon="-0.119956">
        <ele>202.0</ele>
        <time>2014-07-06T16:49:49Z</time>
      </trkpt>
      <trkpt lat="50.87206" lon="-0.119976">
        <ele>201.0</ele>
        <time>2014-07-06T16:49:53Z</time>
      </trkpt>
      <trkpt lat="50.87174" lon="-0.119957">
        <ele>202.0</ele>
        <time>2014-07-06T16:49:58Z</time>
      </trkpt>
      <trkpt lat="50.871495" lon="-0.119875">
        <ele>200.0</ele>
        <time>2014-07-06T16:50:02Z</time>
      </trkpt>
      <trkpt lat="50.871178" lon="-0.119775">
        <ele>201.0</ele>
        <time>2014-07-06T16:50:07Z</time>
      </trkpt>
      <trkpt lat="50.87089" lon="-0.119597">
        <ele>196.0</ele>
        <time>2014-07-06T16:50:11Z</time>
      </trkpt>
      <trkpt lat="50.870661" lon="-0.119476">
        <ele>194.0</ele>
        <time>2014-07-06T16:50:15Z</time>
      </trkpt>
      <trkpt lat="50.870469" lon="-0.119377">
        <ele>196.0</ele>
        <time>2014-07-06T16:50:19Z</time>
      </trkpt>
      <trkpt lat="50.870197" lon="-0.119258">
        <ele>193.0</ele>
        <time>2014-07-06T16:50:24Z</time>
      </trkpt>
      <trkpt lat="50.870008" lon="-0.119168">
        <ele>190.0</ele>
        <time>2014-07-06T16:50:29Z</time>
      </trkpt>
      <trkpt lat="50.869935" lon="-0.119111">
        <ele>190.0</ele>
        <time>2014-07-06T16:51:25Z</time>
      </trkpt>
      <trkpt lat="50.869861" lon="-0.119063">
        <ele>189.0</ele>
        <time>2014-07-06T16:51:29Z</time>
      </trkpt>
      <trkpt lat="50.869761" lon="-0.119003">
        <ele>187.0</ele>
        <time>2014-07-06T16:51:34Z</time>
      </trkpt>
      <trkpt lat="50.869677" lon="-0.118955">
        <ele>189.0</ele>
        <time>2014-07-06T16:51:38Z</time>
      </trkpt>
      <trkpt lat="50.869635" lon="-0.118837">
        <ele>187.0</ele>
        <time>2014-07-06T16:51:48Z</time>
      </trkpt>
      <trkpt lat="50.869593" lon="-0.11872">
        <ele>188.0</ele>
        <time>2014-07-06T16:51:56Z</time>
      </trkpt>
      <trkpt lat="50.869533" lon="-0.118629">
        <ele>188.0</ele>
        <time>2014-07-06T16:52:10Z</time>
      </trkpt>
      <trkpt lat="50.869507" lon="-0.118507">
        <ele>189.0</ele>
        <time>2014-07-06T16:52:20Z</time>
      </trkpt>
      <trkpt lat="50.86944" lon="-0.118439">
        <ele>190.0</ele>
        <time>2014-07-06T16:52:39Z</time>
      </trkpt>
      <trkpt lat="50.869374" lon="-0.118345">
        <ele>193.0</ele>
        <time>2014-07-06T16:52:54Z</time>
      </trkpt>
      <trkpt lat="50.86929" lon="-0.118327">
        <ele>197.0</ele>
        <time>2014-07-06T16:53:07Z</time>
      </trkpt>
      <trkpt lat="50.869217" lon="-0.118372">
        <ele>197.0</ele>
        <time>2014-07-06T16:53:13Z</time>
      </trkpt>
      <trkpt lat="50.869095" lon="-0.118474">
        <ele>198.0</ele>
        <time>2014-07-06T16:53:18Z</time>
      </trkpt>
      <trkpt lat="50.868954" lon="-0.11859">
        <ele>198.0</ele>
        <time>2014-07-06T16:53:22Z</time>
      </trkpt>
      <trkpt lat="50.868754" lon="-0.118758">
        <ele>198.0</ele>
        <time>2014-07-06T16:53:26Z</time>
      </trkpt>
      <trkpt lat="50.868451" lon="-0.118956">
        <ele>195.0</ele>
        <time>2014-07-06T16:53:31Z</time>
      </trkpt>
      <trkpt lat="50.86818" lon="-0.119119">
        <ele>193.0</ele>
        <time>2014-07-06T16:53:35Z</time>
      </trkpt>
      <trkpt lat="50.86791" lon="-0.119327">
        <ele>191.0</ele>
        <time>2014-07-06T16:53:39Z</time>
      </trkpt>
      <trkpt lat="50.867563" lon="-0.119565">
        <ele>191.0</ele>
        <time>2014-07-06T16:53:44Z</time>
      </trkpt>
      <trkpt lat="50.867263" lon="-0.119718">
        <ele>191.0</ele>
        <time>2014-07-06T16:53:48Z</time>
      </trkpt>
      <trkpt lat="50.866945" lon="-0.119795">
        <ele>191.0</ele>
        <time>2014-07-06T16:53:52Z</time>
      </trkpt>
      <trkpt lat="50.86656" lon="-0.119922">
        <ele>187.0</ele>
        <time>2014-07-06T16:53:57Z</time>
      </trkpt>
      <trkpt lat="50.866308" lon="-0.120021">
        <ele>187.0</ele>
        <time>2014-07-06T16:54:01Z</time>
      </trkpt>
      <trkpt lat="50.866039" lon="-0.120143">
        <ele>187.0</ele>
        <time>2014-07-06T16:54:06Z</time>
      </trkpt>
      <trkpt lat="50.865819" lon="-0.120195">
        <ele>190.0</ele>
        <time>2014-07-06T16:54:10Z</time>
      </trkpt>
      <trkpt lat="50.865606" lon="-0.120303">
        <ele>190.0</ele>
        <time>2014-07-06T16:54:15Z</time>
      </trkpt>
      <trkpt lat="50.865458" lon="-0.120378">
        <ele>192.0</ele>
        <time>2014-07-06T16:54:19Z</time>
      </trkpt>
      <trkpt lat="50.865303" lon="-0.120432">
        <ele>192.0</ele>
        <time>2014-07-06T16:54:23Z</time>
      </trkpt>
      <trkpt lat="50.865094" lon="-0.120477">
        <ele>192.0</ele>
        <time>2014-07-06T16:54:28Z</time>
      </trkpt>
      <trkpt lat="50.864803" lon="-0.120525">
        <ele>191.0</ele>
        <time>2014-07-06T16:54:33Z</time>
      </trkpt>
      <trkpt lat="50.864511" lon="-0.120584">
        <ele>192.0</ele>
        <time>2014-07-06T16:54:37Z</time>
      </trkpt>
      <trkpt lat="50.864102" lon="-0.120576">
        <ele>191.0</ele>
        <time>2014-07-06T16:54:42Z</time>
      </trkpt>
      <trkpt lat="50.863752" lon="-0.120588">
        <ele>188.0</ele>
        <time>2014-07-06T16:54:46Z</time>
      </trkpt>
      <trkpt lat="50.863247" lon="-0.120659">
        <ele>183.0</ele>
        <time>2014-07-06T16:54:51Z</time>
      </trkpt>
      <trkpt lat="50.862863" lon="-0.120771">
        <ele>180.0</ele>
        <time>2014-07-06T16:54:55Z</time>
      </trkpt>
      <trkpt lat="50.862501" lon="-0.120884">
        <ele>180.0</ele>
        <time>2014-07-06T16:54:59Z</time>
      </trkpt>
      <trkpt lat="50.862065" lon="-0.12095">
        <ele>184.0</ele>
        <time>2014-07-06T16:55:04Z</time>
      </trkpt>
      <trkpt lat="50.861781" lon="-0.12099">
        <ele>184.0</ele>
        <time>2014-07-06T16:55:08Z</time>
      </trkpt>
      <trkpt lat="50.861541" lon="-0.121018">
        <ele>184.0</ele>
        <time>2014-07-06T16:55:12Z</time>
      </trkpt>
      <trkpt lat="50.861342" lon="-0.121046">
        <ele>185.0</ele>
        <time>2014-07-06T16:55:16Z</time>
      </trkpt>
      <trkpt lat="50.861156" lon="-0.121092">
        <ele>185.0</ele>
        <time>2014-07-06T16:55:21Z</time>
      </trkpt>
      <trkpt lat="50.860987" lon="-0.121134">
        <ele>185.0</ele>
        <time>2014-07-06T16:55:26Z</time>
      </trkpt>
      <trkpt lat="50.86086" lon="-0.121168">
        <ele>187.0</ele>
        <time>2014-07-06T16:55:30Z</time>
      </trkpt>
      <trkpt lat="50.86074" lon="-0.121201">
        <ele>186.0</ele>
        <time>2014-07-06T16:55:34Z</time>
      </trkpt>
      <trkpt lat="50.860624" lon="-0.121239">
        <ele>188.0</ele>
        <time>2014-07-06T16:55:38Z</time>
      </trkpt>
      <trkpt lat="50.86049" lon="-0.121299">
        <ele>190.0</ele>
        <time>2014-07-06T16:55:43Z</time>
      </trkpt>
      <trkpt lat="50.860378" lon="-0.121338">
        <ele>192.0</ele>
        <time>2014-07-06T16:55:47Z</time>
      </trkpt>
      <trkpt lat="50.860279" lon="-0.121359">
        <ele>192.0</ele>
        <time>2014-07-06T16:55:51Z</time>
      </trkpt>
      <trkpt lat="50.860158" lon="-0.121365">
        <ele>193.0</ele>
        <time>2014-07-06T16:55:56Z</time>
      </trkpt>
      <trkpt lat="50.86005" lon="-0.121419">
        <ele>194.0</ele>
        <time>2014-07-06T16:56:01Z</time>
      </trkpt>
      <trkpt lat="50.859956" lon="-0.121482">
        <ele>196.0</ele>
        <time>2014-07-06T16:56:05Z</time>
      </trkpt>
      <trkpt lat="50.859809" lon="-0.121566">
        <ele>195.0</ele>
        <time>2014-07-06T16:56:10Z</time>
      </trkpt>
      <trkpt lat="50.859696" lon="-0.121636">
        <ele>198.0</ele>
        <time>2014-07-06T16:56:14Z</time>
      </trkpt>
      <trkpt lat="50.859562" lon="-0.121725">
        <ele>200.0</ele>
        <time>2014-07-06T16:56:19Z</time>
      </trkpt>
      <trkpt lat="50.859452" lon="-0.121794">
        <ele>198.0</ele>
        <time>2014-07-06T16:56:23Z</time>
      </trkpt>
      <trkpt lat="50.859345" lon="-0.121868">
        <ele>197.0</ele>
        <time>2014-07-06T16:56:27Z</time>
      </trkpt>
      <trkpt lat="50.859224" lon="-0.121987">
        <ele>196.0</ele>
        <time>2014-07-06T16:56:32Z</time>
      </trkpt>
      <trkpt lat="50.859124" lon="-0.122078">
        <ele>196.0</ele>
        <time>2014-07-06T16:56:36Z</time>
      </trkpt>
      <trkpt lat="50.859014" lon="-0.12223">
        <ele>196.0</ele>
        <time>2014-07-06T16:56:41Z</time>
      </trkpt>
      <trkpt lat="50.858934" lon="-0.122347">
        <ele>194.0</ele>
        <time>2014-07-06T16:56:45Z</time>
      </trkpt>
      <trkpt lat="50.858843" lon="-0.122514">
        <ele>194.0</ele>
        <time>2014-07-06T16:56:50Z</time>
      </trkpt>
      <trkpt lat="50.858769" lon="-0.122645">
        <ele>195.0</ele>
        <time>2014-07-06T16:56:54Z</time>
      </trkpt>
      <trkpt lat="50.85871" lon="-0.122792">
        <ele>194.0</ele>
        <time>2014-07-06T16:56:58Z</time>
      </trkpt>
      <trkpt lat="50.858669" lon="-0.122935">
        <ele>195.0</ele>
        <time>2014-07-06T16:57:02Z</time>
      </trkpt>
      <trkpt lat="50.858629" lon="-0.12313">
        <ele>197.0</ele>
        <time>2014-07-06T16:57:07Z</time>
      </trkpt>
      <trkpt lat="50.858602" lon="-0.123302">
        <ele>198.0</ele>
        <time>2014-07-06T16:57:11Z</time>
      </trkpt>
      <trkpt lat="50.85858" lon="-0.123479">
        <ele>200.0</ele>
        <time>2014-07-06T16:57:15Z</time>
      </trkpt>
      <trkpt lat="50.858557" lon="-0.123717">
        <ele>199.0</ele>
        <time>2014-07-06T16:57:20Z</time>
      </trkpt>
      <trkpt lat="50.858542" lon="-0.123987">
        <ele>199.0</ele>
        <time>2014-07-06T16:57:25Z</time>
      </trkpt>
      <trkpt lat="50.858529" lon="-0.124186">
        <ele>197.0</ele>
        <time>2014-07-06T16:57:29Z</time>
      </trkpt>
      <trkpt lat="50.858505" lon="-0.124389">
        <ele>197.0</ele>
        <time>2014-07-06T16:57:33Z</time>
      </trkpt>
      <trkpt lat="50.858483" lon="-0.12459">
        <ele>195.0</ele>
        <time>2014-07-06T16:57:37Z</time>
      </trkpt>
      <trkpt lat="50.858458" lon="-0.124828">
        <ele>198.0</ele>
        <time>2014-07-06T16:57:42Z</time>
      </trkpt>
      <trkpt lat="50.858426" lon="-0.12501">
        <ele>199.0</ele>
        <time>2014-07-06T16:57:46Z</time>
      </trkpt>
      <trkpt lat="50.858398" lon="-0.125176">
        <ele>201.0</ele>
        <time>2014-07-06T16:57:50Z</time>
      </trkpt>
      <trkpt lat="50.858362" lon="-0.125391">
        <ele>200.0</ele>
        <time>2014-07-06T16:57:55Z</time>
      </trkpt>
      <trkpt lat="50.858311" lon="-0.125617">
        <ele>201.0</ele>
        <time>2014-07-06T16:58:00Z</time>
      </trkpt>
      <trkpt lat="50.858269" lon="-0.125805">
        <ele>203.0</ele>
        <time>2014-07-06T16:58:04Z</time>
      </trkpt>
      <trkpt lat="50.858218" lon="-0.126046">
        <ele>201.0</ele>
        <time>2014-07-06T16:58:09Z</time>
      </trkpt>
      <trkpt lat="50.858173" lon="-0.126276">
        <ele>201.0</ele>
        <time>2014-07-06T16:58:14Z</time>
      </trkpt>
      <trkpt lat="50.858129" lon="-0.126461">
        <ele>201.0</ele>
        <time>2014-07-06T16:58:18Z</time>
      </trkpt>
      <trkpt lat="50.858071" lon="-0.12672">
        <ele>201.0</ele>
        <time>2014-07-06T16:58:23Z</time>
      </trkpt>
      <trkpt lat="50.858008" lon="-0.126985">
        <ele>201.0</ele>
        <time>2014-07-06T16:58:28Z</time>
      </trkpt>
      <trkpt lat="50.857926" lon="-0.127285">
        <ele>200.0</ele>
        <time>2014-07-06T16:58:33Z</time>
      </trkpt>
      <trkpt lat="50.857879" lon="-0.127516">
        <ele>201.0</ele>
        <time>2014-07-06T16:58:37Z</time>
      </trkpt>
      <trkpt lat="50.857831" lon="-0.127756">
        <ele>202.0</ele>
        <time>2014-07-06T16:58:41Z</time>
      </trkpt>
      <trkpt lat="50.857784" lon="-0.127995">
        <ele>202.0</ele>
        <time>2014-07-06T16:58:45Z</time>
      </trkpt>
      <trkpt lat="50.857739" lon="-0.128219">
        <ele>203.0</ele>
        <time>2014-07-06T16:58:49Z</time>
      </trkpt>
      <trkpt lat="50.857686" lon="-0.128432">
        <ele>205.0</ele>
        <time>2014-07-06T16:58:53Z</time>
      </trkpt>
      <trkpt lat="50.857632" lon="-0.128627">
        <ele>207.0</ele>
        <time>2014-07-06T16:58:57Z</time>
      </trkpt>
      <trkpt lat="50.857561" lon="-0.128855">
        <ele>208.0</ele>
        <time>2014-07-06T16:59:02Z</time>
      </trkpt>
      <trkpt lat="50.857497" lon="-0.129044">
        <ele>206.0</ele>
        <time>2014-07-06T16:59:06Z</time>
      </trkpt>
      <trkpt lat="50.857422" lon="-0.129239">
        <ele>208.0</ele>
        <time>2014-07-06T16:59:10Z</time>
      </trkpt>
      <trkpt lat="50.857307" lon="-0.129467">
        <ele>208.0</ele>
        <time>2014-07-06T16:59:14Z</time>
      </trkpt>
      <trkpt lat="50.857185" lon="-0.129698">
        <ele>209.0</ele>
        <time>2014-07-06T16:59:18Z</time>
      </trkpt>
      <trkpt lat="50.857052" lon="-0.129934">
        <ele>211.0</ele>
        <time>2014-07-06T16:59:22Z</time>
      </trkpt>
      <trkpt lat="50.856865" lon="-0.130229">
        <ele>209.0</ele>
        <time>2014-07-06T16:59:27Z</time>
      </trkpt>
      <trkpt lat="50.856696" lon="-0.13047">
        <ele>208.0</ele>
        <time>2014-07-06T16:59:31Z</time>
      </trkpt>
      <trkpt lat="50.856483" lon="-0.130791">
        <ele>206.0</ele>
        <time>2014-07-06T16:59:36Z</time>
      </trkpt>
      <trkpt lat="50.856314" lon="-0.131059">
        <ele>205.0</ele>
        <time>2014-07-06T16:59:40Z</time>
      </trkpt>
      <trkpt lat="50.856104" lon="-0.131384">
        <ele>204.0</ele>
        <time>2014-07-06T16:59:45Z</time>
      </trkpt>
      <trkpt lat="50.855939" lon="-0.13162">
        <ele>203.0</ele>
        <time>2014-07-06T16:59:49Z</time>
      </trkpt>
      <trkpt lat="50.855771" lon="-0.131898">
        <ele>202.0</ele>
        <time>2014-07-06T16:59:53Z</time>
      </trkpt>
      <trkpt lat="50.855585" lon="-0.132148">
        <ele>200.0</ele>
        <time>2014-07-06T16:59:57Z</time>
      </trkpt>
      <trkpt lat="50.855345" lon="-0.13253">
        <ele>198.0</ele>
        <time>2014-07-06T17:00:02Z</time>
      </trkpt>
      <trkpt lat="50.855125" lon="-0.132841">
        <ele>197.0</ele>
        <time>2014-07-06T17:00:06Z</time>
      </trkpt>
      <trkpt lat="50.854896" lon="-0.133171">
        <ele>195.0</ele>
        <time>2014-07-06T17:00:10Z</time>
      </trkpt>
      <trkpt lat="50.854604" lon="-0.133524">
        <ele>192.0</ele>
        <time>2014-07-06T17:00:15Z</time>
      </trkpt>
      <trkpt lat="50.854359" lon="-0.133779">
        <ele>190.0</ele>
        <time>2014-07-06T17:00:19Z</time>
      </trkpt>
      <trkpt lat="50.854037" lon="-0.13414">
        <ele>190.0</ele>
        <time>2014-07-06T17:00:24Z</time>
      </trkpt>
      <trkpt lat="50.853666" lon="-0.134482">
        <ele>189.0</ele>
        <time>2014-07-06T17:00:29Z</time>
      </trkpt>
      <trkpt lat="50.853364" lon="-0.134686">
        <ele>184.0</ele>
        <time>2014-07-06T17:00:33Z</time>
      </trkpt>
      <trkpt lat="50.852907" lon="-0.134801">
        <ele>179.0</ele>
        <time>2014-07-06T17:00:38Z</time>
      </trkpt>
      <trkpt lat="50.852477" lon="-0.134852">
        <ele>178.0</ele>
        <time>2014-07-06T17:00:42Z</time>
      </trkpt>
      <trkpt lat="50.851913" lon="-0.134945">
        <ele>176.0</ele>
        <time>2014-07-06T17:00:47Z</time>
      </trkpt>
      <trkpt lat="50.851485" lon="-0.134994">
        <ele>175.0</ele>
        <time>2014-07-06T17:00:51Z</time>
      </trkpt>
      <trkpt lat="50.850984" lon="-0.135074">
        <ele>172.0</ele>
        <time>2014-07-06T17:00:56Z</time>
      </trkpt>
      <trkpt lat="50.850505" lon="-0.135117">
        <ele>173.0</ele>
        <time>2014-07-06T17:01:01Z</time>
      </trkpt>
      <trkpt lat="50.85004" lon="-0.135149">
        <ele>172.0</ele>
        <time>2014-07-06T17:01:06Z</time>
      </trkpt>
      <trkpt lat="50.849554" lon="-0.135192">
        <ele>166.0</ele>
        <time>2014-07-06T17:01:11Z</time>
      </trkpt>
      <trkpt lat="50.849135" lon="-0.135215">
        <ele>165.0</ele>
        <time>2014-07-06T17:01:16Z</time>
      </trkpt>
      <trkpt lat="50.848758" lon="-0.135261">
        <ele>162.0</ele>
        <time>2014-07-06T17:01:20Z</time>
      </trkpt>
      <trkpt lat="50.848297" lon="-0.135254">
        <ele>159.0</ele>
        <time>2014-07-06T17:01:25Z</time>
      </trkpt>
      <trkpt lat="50.847939" lon="-0.135311">
        <ele>154.0</ele>
        <time>2014-07-06T17:01:29Z</time>
      </trkpt>
      <trkpt lat="50.847523" lon="-0.135379">
        <ele>152.0</ele>
        <time>2014-07-06T17:01:34Z</time>
      </trkpt>
      <trkpt lat="50.847097" lon="-0.135388">
        <ele>148.0</ele>
        <time>2014-07-06T17:01:39Z</time>
      </trkpt>
      <trkpt lat="50.84667" lon="-0.135344">
        <ele>146.0</ele>
        <time>2014-07-06T17:01:44Z</time>
      </trkpt>
      <trkpt lat="50.846336" lon="-0.135286">
        <ele>142.0</ele>
        <time>2014-07-06T17:01:48Z</time>
      </trkpt>
      <trkpt lat="50.846005" lon="-0.135225">
        <ele>145.0</ele>
        <time>2014-07-06T17:01:52Z</time>
      </trkpt>
      <trkpt lat="50.845668" lon="-0.135178">
        <ele>143.0</ele>
        <time>2014-07-06T17:01:56Z</time>
      </trkpt>
      <trkpt lat="50.845221" lon="-0.135043">
        <ele>140.0</ele>
        <time>2014-07-06T17:02:01Z</time>
      </trkpt>
      <trkpt lat="50.844873" lon="-0.134956">
        <ele>141.0</ele>
        <time>2014-07-06T17:02:05Z</time>
      </trkpt>
      <trkpt lat="50.844557" lon="-0.134887">
        <ele>140.0</ele>
        <time>2014-07-06T17:02:09Z</time>
      </trkpt>
      <trkpt lat="50.844254" lon="-0.134832">
        <ele>136.0</ele>
        <time>2014-07-06T17:02:13Z</time>
      </trkpt>
      <trkpt lat="50.843943" lon="-0.134743">
        <ele>130.0</ele>
        <time>2014-07-06T17:02:18Z</time>
      </trkpt>
      <trkpt lat="50.843783" lon="-0.134668">
        <ele>127.0</ele>
        <time>2014-07-06T17:02:22Z</time>
      </trkpt>
      <trkpt lat="50.843659" lon="-0.13464">
        <ele>125.0</ele>
        <time>2014-07-06T17:02:26Z</time>
      </trkpt>
      <trkpt lat="50.84358" lon="-0.134579">
        <ele>127.0</ele>
        <time>2014-07-06T17:02:41Z</time>
      </trkpt>
      <trkpt lat="50.843499" lon="-0.134567">
        <ele>126.0</ele>
        <time>2014-07-06T17:05:44Z</time>
      </trkpt>
      <trkpt lat="50.843417" lon="-0.134541">
        <ele>128.0</ele>
        <time>2014-07-06T17:06:50Z</time>
      </trkpt>
      <trkpt lat="50.84331" lon="-0.134526">
        <ele>129.0</ele>
        <time>2014-07-06T17:06:55Z</time>
      </trkpt>
      <trkpt lat="50.843098" lon="-0.134515">
        <ele>129.0</ele>
        <time>2014-07-06T17:06:59Z</time>
      </trkpt>
      <trkpt lat="50.842771" lon="-0.134453">
        <ele>128.0</ele>
        <time>2014-07-06T17:07:04Z</time>
      </trkpt>
      <trkpt lat="50.842397" lon="-0.134337">
        <ele>127.0</ele>
        <time>2014-07-06T17:07:09Z</time>
      </trkpt>
      <trkpt lat="50.842072" lon="-0.134266">
        <ele>126.0</ele>
        <time>2014-07-06T17:07:13Z</time>
      </trkpt>
      <trkpt lat="50.841703" lon="-0.134139">
        <ele>123.0</ele>
        <time>2014-07-06T17:07:17Z</time>
      </trkpt>
      <trkpt lat="50.841238" lon="-0.134038">
        <ele>120.0</ele>
        <time>2014-07-06T17:07:22Z</time>
      </trkpt>
      <trkpt lat="50.840857" lon="-0.133956">
        <ele>119.0</ele>
        <time>2014-07-06T17:07:26Z</time>
      </trkpt>
      <trkpt lat="50.840497" lon="-0.133838">
        <ele>113.0</ele>
        <time>2014-07-06T17:07:31Z</time>
      </trkpt>
      <trkpt lat="50.840229" lon="-0.133779">
        <ele>110.0</ele>
        <time>2014-07-06T17:07:35Z</time>
      </trkpt>
      <trkpt lat="50.839884" lon="-0.133737">
        <ele>111.0</ele>
        <time>2014-07-06T17:07:39Z</time>
      </trkpt>
      <trkpt lat="50.839563" lon="-0.133657">
        <ele>112.0</ele>
        <time>2014-07-06T17:07:43Z</time>
      </trkpt>
      <trkpt lat="50.83928" lon="-0.133594">
        <ele>110.0</ele>
        <time>2014-07-06T17:07:47Z</time>
      </trkpt>
      <trkpt lat="50.83892" lon="-0.133579">
        <ele>109.0</ele>
        <time>2014-07-06T17:07:52Z</time>
      </trkpt>
      <trkpt lat="50.838607" lon="-0.133514">
        <ele>108.0</ele>
        <time>2014-07-06T17:07:57Z</time>
      </trkpt>
      <trkpt lat="50.838342" lon="-0.133507">
        <ele>107.0</ele>
        <time>2014-07-06T17:08:02Z</time>
      </trkpt>
      <trkpt lat="50.838104" lon="-0.133513">
        <ele>109.0</ele>
        <time>2014-07-06T17:08:06Z</time>
      </trkpt>
      <trkpt lat="50.837838" lon="-0.133521">
        <ele>106.0</ele>
        <time>2014-07-06T17:08:11Z</time>
      </trkpt>
      <trkpt lat="50.837623" lon="-0.133523">
        <ele>105.0</ele>
        <time>2014-07-06T17:08:15Z</time>
      </trkpt>
      <trkpt lat="50.837271" lon="-0.133508">
        <ele>102.0</ele>
        <time>2014-07-06T17:08:20Z</time>
      </trkpt>
      <trkpt lat="50.83705" lon="-0.133485">
        <ele>104.0</ele>
        <time>2014-07-06T17:08:24Z</time>
      </trkpt>
      <trkpt lat="50.836791" lon="-0.133484">
        <ele>101.0</ele>
        <time>2014-07-06T17:08:28Z</time>
      </trkpt>
      <trkpt lat="50.836475" lon="-0.133528">
        <ele>102.0</ele>
        <time>2014-07-06T17:08:33Z</time>
      </trkpt>
      <trkpt lat="50.836216" lon="-0.133546">
        <ele>101.0</ele>
        <time>2014-07-06T17:08:37Z</time>
      </trkpt>
      <trkpt lat="50.835911" lon="-0.133605">
        <ele>105.0</ele>
        <time>2014-07-06T17:08:42Z</time>
      </trkpt>
      <trkpt lat="50.835557" lon="-0.13367">
        <ele>101.0</ele>
        <time>2014-07-06T17:08:47Z</time>
      </trkpt>
      <trkpt lat="50.835196" lon="-0.133693">
        <ele>100.0</ele>
        <time>2014-07-06T17:08:52Z</time>
      </trkpt>
      <trkpt lat="50.834899" lon="-0.133717">
        <ele>96.0</ele>
        <time>2014-07-06T17:08:56Z</time>
      </trkpt>
      <trkpt lat="50.834514" lon="-0.133797">
        <ele>97.0</ele>
        <time>2014-07-06T17:09:01Z</time>
      </trkpt>
      <trkpt lat="50.834177" lon="-0.133866">
        <ele>93.0</ele>
        <time>2014-07-06T17:09:06Z</time>
      </trkpt>
      <trkpt lat="50.833926" lon="-0.133891">
        <ele>89.0</ele>
        <time>2014-07-06T17:09:10Z</time>
      </trkpt>
      <trkpt lat="50.83365" lon="-0.133977">
        <ele>87.0</ele>
        <time>2014-07-06T17:09:15Z</time>
      </trkpt>
      <trkpt lat="50.833466" lon="-0.133981">
        <ele>85.0</ele>
        <time>2014-07-06T17:09:19Z</time>
      </trkpt>
      <trkpt lat="50.833331" lon="-0.133994">
        <ele>84.0</ele>
        <time>2014-07-06T17:09:24Z</time>
      </trkpt>
      <trkpt lat="50.833246" lon="-0.133968">
        <ele>80.0</ele>
        <time>2014-07-06T17:09:37Z</time>
      </trkpt>
      <trkpt lat="50.833164" lon="-0.133977">
        <ele>78.0</ele>
        <time>2014-07-06T17:10:03Z</time>
      </trkpt>
      <trkpt lat="50.833083" lon="-0.134011">
        <ele>78.0</ele>
        <time>2014-07-06T17:10:13Z</time>
      </trkpt>
      <trkpt lat="50.832853" lon="-0.134074">
        <ele>78.0</ele>
        <time>2014-07-06T17:10:18Z</time>
      </trkpt>
      <trkpt lat="50.832614" lon="-0.134116">
        <ele>77.0</ele>
        <time>2014-07-06T17:10:22Z</time>
      </trkpt>
      <trkpt lat="50.832352" lon="-0.134177">
        <ele>74.0</ele>
        <time>2014-07-06T17:10:27Z</time>
      </trkpt>
      <trkpt lat="50.832217" lon="-0.134143">
        <ele>73.0</ele>
        <time>2014-07-06T17:10:32Z</time>
      </trkpt>
      <trkpt lat="50.832138" lon="-0.13413">
        <ele>69.0</ele>
        <time>2014-07-06T17:10:37Z</time>
      </trkpt>
      <trkpt lat="50.83205" lon="-0.134119">
        <ele>67.0</ele>
        <time>2014-07-06T17:10:53Z</time>
      </trkpt>
      <trkpt lat="50.831974" lon="-0.134102">
        <ele>66.0</ele>
        <time>2014-07-06T17:11:06Z</time>
      </trkpt>
      <trkpt lat="50.83173" lon="-0.134086">
        <ele>66.0</ele>
        <time>2014-07-06T17:11:11Z</time>
      </trkpt>
      <trkpt lat="50.831531" lon="-0.134154">
        <ele>65.0</ele>
        <time>2014-07-06T17:11:15Z</time>
      </trkpt>
      <trkpt lat="50.831341" lon="-0.134228">
        <ele>66.0</ele>
        <time>2014-07-06T17:11:19Z</time>
      </trkpt>
      <trkpt lat="50.831088" lon="-0.134297">
        <ele>65.0</ele>
        <time>2014-07-06T17:11:24Z</time>
      </trkpt>
      <trkpt lat="50.83084" lon="-0.134389">
        <ele>64.0</ele>
        <time>2014-07-06T17:11:29Z</time>
      </trkpt>
      <trkpt lat="50.830622" lon="-0.134438">
        <ele>63.0</ele>
        <time>2014-07-06T17:11:33Z</time>
      </trkpt>
      <trkpt lat="50.830404" lon="-0.134479">
        <ele>63.0</ele>
        <time>2014-07-06T17:11:37Z</time>
      </trkpt>
      <trkpt lat="50.830196" lon="-0.134518">
        <ele>63.0</ele>
        <time>2014-07-06T17:11:41Z</time>
      </trkpt>
      <trkpt lat="50.830003" lon="-0.134514">
        <ele>62.0</ele>
        <time>2014-07-06T17:11:45Z</time>
      </trkpt>
      <trkpt lat="50.829747" lon="-0.134589">
        <ele>65.0</ele>
        <time>2014-07-06T17:11:50Z</time>
      </trkpt>
      <trkpt lat="50.82957" lon="-0.134643">
        <ele>65.0</ele>
        <time>2014-07-06T17:11:54Z</time>
      </trkpt>
      <trkpt lat="50.829376" lon="-0.134528">
        <ele>62.0</ele>
        <time>2014-07-06T17:11:58Z</time>
      </trkpt>
      <trkpt lat="50.829183" lon="-0.134223">
        <ele>59.0</ele>
        <time>2014-07-06T17:12:03Z</time>
      </trkpt>
      <trkpt lat="50.828981" lon="-0.134016">
        <ele>60.0</ele>
        <time>2014-07-06T17:12:08Z</time>
      </trkpt>
      <trkpt lat="50.828803" lon="-0.134089">
        <ele>60.0</ele>
        <time>2014-07-06T17:12:12Z</time>
      </trkpt>
      <trkpt lat="50.828612" lon="-0.134297">
        <ele>60.0</ele>
        <time>2014-07-06T17:12:17Z</time>
      </trkpt>
      <trkpt lat="50.828399" lon="-0.134382">
        <ele>61.0</ele>
        <time>2014-07-06T17:12:21Z</time>
      </trkpt>
      <trkpt lat="50.828171" lon="-0.134436">
        <ele>61.0</ele>
        <time>2014-07-06T17:12:25Z</time>
      </trkpt>
      <trkpt lat="50.827988" lon="-0.134465">
        <ele>61.0</ele>
        <time>2014-07-06T17:12:29Z</time>
      </trkpt>
      <trkpt lat="50.827765" lon="-0.134523">
        <ele>60.0</ele>
        <time>2014-07-06T17:12:33Z</time>
      </trkpt>
      <trkpt lat="50.82752" lon="-0.134543">
        <ele>59.0</ele>
        <time>2014-07-06T17:12:38Z</time>
      </trkpt>
      <trkpt lat="50.827311" lon="-0.134583">
        <ele>60.0</ele>
        <time>2014-07-06T17:12:42Z</time>
      </trkpt>
      <trkpt lat="50.827125" lon="-0.134571">
        <ele>62.0</ele>
        <time>2014-07-06T17:12:46Z</time>
      </trkpt>
      <trkpt lat="50.826916" lon="-0.134522">
        <ele>62.0</ele>
        <time>2014-07-06T17:12:50Z</time>
      </trkpt>
      <trkpt lat="50.826722" lon="-0.134571">
        <ele>63.0</ele>
        <time>2014-07-06T17:12:54Z</time>
      </trkpt>
      <trkpt lat="50.826478" lon="-0.13474">
        <ele>62.0</ele>
        <time>2014-07-06T17:12:59Z</time>
      </trkpt>
      <trkpt lat="50.826224" lon="-0.134878">
        <ele>61.0</ele>
        <time>2014-07-06T17:13:04Z</time>
      </trkpt>
      <trkpt lat="50.825954" lon="-0.135023">
        <ele>60.0</ele>
        <time>2014-07-06T17:13:09Z</time>
      </trkpt>
      <trkpt lat="50.825737" lon="-0.135087">
        <ele>58.0</ele>
        <time>2014-07-06T17:13:13Z</time>
      </trkpt>
      <trkpt lat="50.825525" lon="-0.135261">
        <ele>59.0</ele>
        <time>2014-07-06T17:13:18Z</time>
      </trkpt>
      <trkpt lat="50.825341" lon="-0.135385">
        <ele>60.0</ele>
        <time>2014-07-06T17:13:23Z</time>
      </trkpt>
      <trkpt lat="50.825192" lon="-0.13545">
        <ele>61.0</ele>
        <time>2014-07-06T17:13:28Z</time>
      </trkpt>
      <trkpt lat="50.825105" lon="-0.135445">
        <ele>55.0</ele>
        <time>2014-07-06T17:13:49Z</time>
      </trkpt>
      <trkpt lat="50.82504" lon="-0.135462">
        <ele>56.0</ele>
        <time>2014-07-06T17:13:53Z</time>
      </trkpt>
      <trkpt lat="50.82493" lon="-0.135499">
        <ele>56.0</ele>
        <time>2014-07-06T17:13:57Z</time>
      </trkpt>
      <trkpt lat="50.824769" lon="-0.135538">
        <ele>56.0</ele>
        <time>2014-07-06T17:14:01Z</time>
      </trkpt>
      <trkpt lat="50.824525" lon="-0.135643">
        <ele>60.0</ele>
        <time>2014-07-06T17:14:06Z</time>
      </trkpt>
      <trkpt lat="50.824344" lon="-0.135679">
        <ele>59.0</ele>
        <time>2014-07-06T17:14:10Z</time>
      </trkpt>
      <trkpt lat="50.82415" lon="-0.13576">
        <ele>60.0</ele>
        <time>2014-07-06T17:14:14Z</time>
      </trkpt>
      <trkpt lat="50.823961" lon="-0.13585">
        <ele>62.0</ele>
        <time>2014-07-06T17:14:18Z</time>
      </trkpt>
      <trkpt lat="50.823799" lon="-0.135958">
        <ele>63.0</ele>
        <time>2014-07-06T17:14:22Z</time>
      </trkpt>
      <trkpt lat="50.823628" lon="-0.136047">
        <ele>65.0</ele>
        <time>2014-07-06T17:14:26Z</time>
      </trkpt>
      <trkpt lat="50.823493" lon="-0.136086">
        <ele>62.0</ele>
        <time>2014-07-06T17:14:30Z</time>
      </trkpt>
      <trkpt lat="50.823423" lon="-0.136153">
        <ele>61.0</ele>
        <time>2014-07-06T17:14:36Z</time>
      </trkpt>
      <trkpt lat="50.823352" lon="-0.136223">
        <ele>62.0</ele>
        <time>2014-07-06T17:14:54Z</time>
      </trkpt>
      <trkpt lat="50.823239" lon="-0.136259">
        <ele>62.0</ele>
        <time>2014-07-06T17:14:58Z</time>
      </trkpt>
      <trkpt lat="50.823074" lon="-0.136271">
        <ele>63.0</ele>
        <time>2014-07-06T17:15:02Z</time>
      </trkpt>
      <trkpt lat="50.822833" lon="-0.136275">
        <ele>62.0</ele>
        <time>2014-07-06T17:15:06Z</time>
      </trkpt>
      <trkpt lat="50.822582" lon="-0.136359">
        <ele>63.0</ele>
        <time>2014-07-06T17:15:11Z</time>
      </trkpt>
      <trkpt lat="50.822395" lon="-0.136439">
        <ele>61.0</ele>
        <time>2014-07-06T17:15:15Z</time>
      </trkpt>
      <trkpt lat="50.822208" lon="-0.136457">
        <ele>59.0</ele>
        <time>2014-07-06T17:15:19Z</time>
      </trkpt>
      <trkpt lat="50.821993" lon="-0.136454">
        <ele>59.0</ele>
        <time>2014-07-06T17:15:23Z</time>
      </trkpt>
      <trkpt lat="50.821795" lon="-0.13649">
        <ele>60.0</ele>
        <time>2014-07-06T17:15:27Z</time>
      </trkpt>
      <trkpt lat="50.821583" lon="-0.13652">
        <ele>62.0</ele>
        <time>2014-07-06T17:15:31Z</time>
      </trkpt>
      <trkpt lat="50.821341" lon="-0.136547">
        <ele>63.0</ele>
        <time>2014-07-06T17:15:36Z</time>
      </trkpt>
      <trkpt lat="50.821112" lon="-0.136574">
        <ele>62.0</ele>
        <time>2014-07-06T17:15:40Z</time>
      </trkpt>
      <trkpt lat="50.820898" lon="-0.136585">
        <ele>62.0</ele>
        <time>2014-07-06T17:15:44Z</time>
      </trkpt>
      <trkpt lat="50.820622" lon="-0.136605">
        <ele>60.0</ele>
        <time>2014-07-06T17:15:49Z</time>
      </trkpt>
      <trkpt lat="50.820375" lon="-0.136596">
        <ele>59.0</ele>
        <time>2014-07-06T17:15:54Z</time>
      </trkpt>
      <trkpt lat="50.820193" lon="-0.136628">
        <ele>58.0</ele>
        <time>2014-07-06T17:15:58Z</time>
      </trkpt>
      <trkpt lat="50.819962" lon="-0.136626">
        <ele>58.0</ele>
        <time>2014-07-06T17:16:02Z</time>
      </trkpt>
      <trkpt lat="50.81984" lon="-0.136539">
        <ele>61.0</ele>
        <time>2014-07-06T17:16:06Z</time>
      </trkpt>
      <trkpt lat="50.819716" lon="-0.136426">
        <ele>64.0</ele>
        <time>2014-07-06T17:16:11Z</time>
      </trkpt>
      <trkpt lat="50.819558" lon="-0.136463">
        <ele>63.0</ele>
        <time>2014-07-06T17:16:15Z</time>
      </trkpt>
      <trkpt lat="50.819428" lon="-0.136738">
        <ele>60.0</ele>
        <time>2014-07-06T17:16:20Z</time>
      </trkpt>
      <trkpt lat="50.819385" lon="-0.136984">
        <ele>58.0</ele>
        <time>2014-07-06T17:16:24Z</time>
      </trkpt>
      <trkpt lat="50.819332" lon="-0.137114">
        <ele>58.0</ele>
        <time>2014-07-06T17:16:29Z</time>
      </trkpt>
      <trkpt lat="50.819299" lon="-0.137044">
        <ele>55.0</ele>
        <time>2014-07-06T17:17:31Z</time>
      </trkpt>
      <trkpt lat="50.819299" lon="-0.137044">
        <ele>55.0</ele>
        <time>2014-07-06T17:17:31Z</time>
      </trkpt>
    </trkseg>
  </trk>
</gpx>
